<?xml version="1.0" encoding="UTF-8"?><gpx xmlns="http://www.topografix.com/GPX/1/1" xmlns:xsi="http://www.w3.org/2001/XMLSchema-instance" creator="Geolives" version="1.1" xsi:schemaLocation="http://www.topografix.com/GPX/1/1 http://www.topografix.com/GPX/1/1/gpx.xsd">
<metadata>
<name><![CDATA[SityTrail - Enregistrement du 25 août 2026]]></name>
<desc/>
</metadata>
<trk>
<name><![CDATA[SityTrail - Enregistrement du 25 août 2026]]></name>
<desc/>
<trkseg>
<trkpt lat="49.403169999999996" lon="1.17211">
<ele>150.0</ele>
<time>2026-08-25T11:41:45Z</time>
</trkpt>
<trkpt lat="49.403169999999996" lon="1.1720899999999999">
<ele>150.0</ele>
<time>2026-08-25T11:44:50Z</time>
</trkpt>
<trkpt lat="49.40315" lon="1.1720899999999999">
<ele>150.0</ele>
<time>2026-08-25T11:45:19Z</time>
</trkpt>
<trkpt lat="49.40312" lon="1.17211">
<ele>150.0</ele>
<time>2026-08-25T11:45:22Z</time>
</trkpt>
<trkpt lat="49.40311" lon="1.17214">
<ele>150.0</ele>
<time>2026-08-25T11:45:30Z</time>
</trkpt>
<trkpt lat="49.40309" lon="1.17218">
<ele>150.0</ele>
<time>2026-08-25T11:45:33Z</time>
</trkpt>
<trkpt lat="49.40307" lon="1.1722">
<ele>150.0</ele>
<time>2026-08-25T11:45:35Z</time>
</trkpt>
<trkpt lat="49.40304" lon="1.1721899999999998">
<ele>150.0</ele>
<time>2026-08-25T11:45:38Z</time>
</trkpt>
<trkpt lat="49.40302" lon="1.17217">
<ele>150.0</ele>
<time>2026-08-25T11:45:41Z</time>
</trkpt>
<trkpt lat="49.402989999999996" lon="1.17215">
<ele>150.0</ele>
<time>2026-08-25T11:45:44Z</time>
</trkpt>
<trkpt lat="49.40296" lon="1.17212">
<ele>150.0</ele>
<time>2026-08-25T11:45:49Z</time>
</trkpt>
<trkpt lat="49.40293" lon="1.17208">
<ele>150.0</ele>
<time>2026-08-25T11:45:52Z</time>
</trkpt>
<trkpt lat="49.40291" lon="1.17204">
<ele>151.0</ele>
<time>2026-08-25T11:45:55Z</time>
</trkpt>
<trkpt lat="49.40289" lon="1.172">
<ele>151.0</ele>
<time>2026-08-25T11:45:58Z</time>
</trkpt>
<trkpt lat="49.40287" lon="1.17196">
<ele>151.0</ele>
<time>2026-08-25T11:46:01Z</time>
</trkpt>
<trkpt lat="49.40284" lon="1.17194">
<ele>151.0</ele>
<time>2026-08-25T11:46:05Z</time>
</trkpt>
<trkpt lat="49.402809999999995" lon="1.1719199999999999">
<ele>151.0</ele>
<time>2026-08-25T11:46:08Z</time>
</trkpt>
<trkpt lat="49.40278" lon="1.1718899999999999">
<ele>151.0</ele>
<time>2026-08-25T11:46:10Z</time>
</trkpt>
<trkpt lat="49.40275" lon="1.17187">
<ele>151.0</ele>
<time>2026-08-25T11:46:12Z</time>
</trkpt>
<trkpt lat="49.40273" lon="1.17184">
<ele>151.0</ele>
<time>2026-08-25T11:46:15Z</time>
</trkpt>
<trkpt lat="49.40269" lon="1.1718199999999999">
<ele>151.0</ele>
<time>2026-08-25T11:46:18Z</time>
</trkpt>
<trkpt lat="49.40266" lon="1.1718">
<ele>151.0</ele>
<time>2026-08-25T11:46:20Z</time>
</trkpt>
<trkpt lat="49.40264" lon="1.1717899999999999">
<ele>151.0</ele>
<time>2026-08-25T11:46:22Z</time>
</trkpt>
<trkpt lat="49.402609999999996" lon="1.17178">
<ele>151.0</ele>
<time>2026-08-25T11:46:24Z</time>
</trkpt>
<trkpt lat="49.40258" lon="1.17177">
<ele>151.0</ele>
<time>2026-08-25T11:46:26Z</time>
</trkpt>
<trkpt lat="49.40255" lon="1.17176">
<ele>151.0</ele>
<time>2026-08-25T11:46:28Z</time>
</trkpt>
<trkpt lat="49.402519999999996" lon="1.1717499999999998">
<ele>151.0</ele>
<time>2026-08-25T11:46:30Z</time>
</trkpt>
<trkpt lat="49.40249" lon="1.17173">
<ele>151.0</ele>
<time>2026-08-25T11:46:32Z</time>
</trkpt>
<trkpt lat="49.40246" lon="1.17171">
<ele>151.0</ele>
<time>2026-08-25T11:46:34Z</time>
</trkpt>
<trkpt lat="49.402429999999995" lon="1.1717">
<ele>151.0</ele>
<time>2026-08-25T11:46:36Z</time>
</trkpt>
<trkpt lat="49.4024" lon="1.17168">
<ele>151.0</ele>
<time>2026-08-25T11:46:38Z</time>
</trkpt>
<trkpt lat="49.40237" lon="1.17167">
<ele>151.0</ele>
<time>2026-08-25T11:46:40Z</time>
</trkpt>
<trkpt lat="49.402339999999995" lon="1.17166">
<ele>150.0</ele>
<time>2026-08-25T11:46:43Z</time>
</trkpt>
<trkpt lat="49.40229" lon="1.17167">
<ele>150.0</ele>
<time>2026-08-25T11:46:46Z</time>
</trkpt>
<trkpt lat="49.40228" lon="1.17167">
<ele>150.0</ele>
<time>2026-08-25T11:46:50Z</time>
</trkpt>
<trkpt lat="49.40226" lon="1.17164">
<ele>150.0</ele>
<time>2026-08-25T11:46:53Z</time>
</trkpt>
<trkpt lat="49.40224" lon="1.17161">
<ele>150.0</ele>
<time>2026-08-25T11:46:56Z</time>
</trkpt>
<trkpt lat="49.40221" lon="1.1715799999999998">
<ele>150.0</ele>
<time>2026-08-25T11:46:59Z</time>
</trkpt>
<trkpt lat="49.40219" lon="1.17157">
<ele>150.0</ele>
<time>2026-08-25T11:47:01Z</time>
</trkpt>
<trkpt lat="49.402159999999995" lon="1.17157">
<ele>150.0</ele>
<time>2026-08-25T11:47:03Z</time>
</trkpt>
<trkpt lat="49.40213" lon="1.17157">
<ele>150.0</ele>
<time>2026-08-25T11:47:05Z</time>
</trkpt>
<trkpt lat="49.4021" lon="1.17156">
<ele>150.0</ele>
<time>2026-08-25T11:47:08Z</time>
</trkpt>
<trkpt lat="49.402069999999995" lon="1.1715499999999999">
<ele>148.0</ele>
<time>2026-08-25T11:47:11Z</time>
</trkpt>
<trkpt lat="49.40204" lon="1.17154">
<ele>148.0</ele>
<time>2026-08-25T11:47:14Z</time>
</trkpt>
<trkpt lat="49.40201" lon="1.17152">
<ele>148.0</ele>
<time>2026-08-25T11:47:17Z</time>
</trkpt>
<trkpt lat="49.401979999999995" lon="1.1715">
<ele>148.0</ele>
<time>2026-08-25T11:47:19Z</time>
</trkpt>
<trkpt lat="49.401939999999996" lon="1.17149">
<ele>148.0</ele>
<time>2026-08-25T11:47:22Z</time>
</trkpt>
<trkpt lat="49.40191" lon="1.17147">
<ele>148.0</ele>
<time>2026-08-25T11:47:25Z</time>
</trkpt>
<trkpt lat="49.40188" lon="1.1714499999999999">
<ele>148.0</ele>
<time>2026-08-25T11:47:28Z</time>
</trkpt>
<trkpt lat="49.401849999999996" lon="1.17143">
<ele>148.0</ele>
<time>2026-08-25T11:47:32Z</time>
</trkpt>
<trkpt lat="49.40182" lon="1.1714">
<ele>148.0</ele>
<time>2026-08-25T11:47:35Z</time>
</trkpt>
<trkpt lat="49.401799999999994" lon="1.17135">
<ele>147.0</ele>
<time>2026-08-25T11:47:38Z</time>
</trkpt>
<trkpt lat="49.401759999999996" lon="1.17132">
<ele>147.0</ele>
<time>2026-08-25T11:47:42Z</time>
</trkpt>
<trkpt lat="49.40173" lon="1.1713">
<ele>147.0</ele>
<time>2026-08-25T11:47:44Z</time>
</trkpt>
<trkpt lat="49.4017" lon="1.17127">
<ele>147.0</ele>
<time>2026-08-25T11:47:46Z</time>
</trkpt>
<trkpt lat="49.401669999999996" lon="1.17125">
<ele>147.0</ele>
<time>2026-08-25T11:47:49Z</time>
</trkpt>
<trkpt lat="49.40163" lon="1.1712399999999998">
<ele>147.0</ele>
<time>2026-08-25T11:47:52Z</time>
</trkpt>
<trkpt lat="49.401599999999995" lon="1.17123">
<ele>147.0</ele>
<time>2026-08-25T11:47:55Z</time>
</trkpt>
<trkpt lat="49.401559999999996" lon="1.17122">
<ele>147.0</ele>
<time>2026-08-25T11:47:58Z</time>
</trkpt>
<trkpt lat="49.40154" lon="1.17119">
<ele>147.0</ele>
<time>2026-08-25T11:48:01Z</time>
</trkpt>
<trkpt lat="49.401509999999995" lon="1.17116">
<ele>146.0</ele>
<time>2026-08-25T11:48:05Z</time>
</trkpt>
<trkpt lat="49.401489999999995" lon="1.17113">
<ele>146.0</ele>
<time>2026-08-25T11:48:09Z</time>
</trkpt>
<trkpt lat="49.401469999999996" lon="1.1711">
<ele>146.0</ele>
<time>2026-08-25T11:48:13Z</time>
</trkpt>
<trkpt lat="49.40145" lon="1.17106">
<ele>146.0</ele>
<time>2026-08-25T11:48:16Z</time>
</trkpt>
<trkpt lat="49.40143" lon="1.1710099999999999">
<ele>146.0</ele>
<time>2026-08-25T11:48:19Z</time>
</trkpt>
<trkpt lat="49.40141" lon="1.1709699999999998">
<ele>146.0</ele>
<time>2026-08-25T11:48:22Z</time>
</trkpt>
<trkpt lat="49.40139" lon="1.17098">
<ele>146.0</ele>
<time>2026-08-25T11:48:23Z</time>
</trkpt>
<trkpt lat="49.40136" lon="1.1709699999999998">
<ele>146.0</ele>
<time>2026-08-25T11:48:26Z</time>
</trkpt>
<trkpt lat="49.401329999999994" lon="1.1709399999999999">
<ele>146.0</ele>
<time>2026-08-25T11:48:28Z</time>
</trkpt>
<trkpt lat="49.4013" lon="1.17092">
<ele>146.0</ele>
<time>2026-08-25T11:48:30Z</time>
</trkpt>
<trkpt lat="49.40127" lon="1.1709">
<ele>146.0</ele>
<time>2026-08-25T11:48:33Z</time>
</trkpt>
<trkpt lat="49.401239999999994" lon="1.1708699999999999">
<ele>146.0</ele>
<time>2026-08-25T11:48:36Z</time>
</trkpt>
<trkpt lat="49.40121" lon="1.17086">
<ele>146.0</ele>
<time>2026-08-25T11:48:38Z</time>
</trkpt>
<trkpt lat="49.40118" lon="1.1708399999999999">
<ele>146.0</ele>
<time>2026-08-25T11:48:40Z</time>
</trkpt>
<trkpt lat="49.40115" lon="1.17081">
<ele>146.0</ele>
<time>2026-08-25T11:48:42Z</time>
</trkpt>
<trkpt lat="49.401129999999995" lon="1.17079">
<ele>146.0</ele>
<time>2026-08-25T11:48:44Z</time>
</trkpt>
<trkpt lat="49.4011" lon="1.17076">
<ele>146.0</ele>
<time>2026-08-25T11:48:46Z</time>
</trkpt>
<trkpt lat="49.40108" lon="1.17074">
<ele>146.0</ele>
<time>2026-08-25T11:48:48Z</time>
</trkpt>
<trkpt lat="49.40105" lon="1.17073">
<ele>146.0</ele>
<time>2026-08-25T11:48:50Z</time>
</trkpt>
<trkpt lat="49.401019999999995" lon="1.1706999999999999">
<ele>146.0</ele>
<time>2026-08-25T11:48:53Z</time>
</trkpt>
<trkpt lat="49.40099" lon="1.17068">
<ele>146.0</ele>
<time>2026-08-25T11:48:55Z</time>
</trkpt>
<trkpt lat="49.40096" lon="1.1706699999999999">
<ele>146.0</ele>
<time>2026-08-25T11:48:57Z</time>
</trkpt>
<trkpt lat="49.400929999999995" lon="1.17064">
<ele>146.0</ele>
<time>2026-08-25T11:49:00Z</time>
</trkpt>
<trkpt lat="49.4009" lon="1.17062">
<ele>146.0</ele>
<time>2026-08-25T11:49:04Z</time>
</trkpt>
<trkpt lat="49.40088" lon="1.1706299999999998">
<ele>146.0</ele>
<time>2026-08-25T11:49:08Z</time>
</trkpt>
<trkpt lat="49.40085" lon="1.17065">
<ele>146.0</ele>
<time>2026-08-25T11:49:13Z</time>
</trkpt>
<trkpt lat="49.400819999999996" lon="1.17068">
<ele>146.0</ele>
<time>2026-08-25T11:49:17Z</time>
</trkpt>
<trkpt lat="49.40079" lon="1.1706999999999999">
<ele>146.0</ele>
<time>2026-08-25T11:49:20Z</time>
</trkpt>
<trkpt lat="49.400769999999994" lon="1.17074">
<ele>146.0</ele>
<time>2026-08-25T11:49:23Z</time>
</trkpt>
<trkpt lat="49.40074" lon="1.17076">
<ele>146.0</ele>
<time>2026-08-25T11:49:26Z</time>
</trkpt>
<trkpt lat="49.40071" lon="1.17079">
<ele>146.0</ele>
<time>2026-08-25T11:49:29Z</time>
</trkpt>
<trkpt lat="49.40068" lon="1.17082">
<ele>145.0</ele>
<time>2026-08-25T11:49:32Z</time>
</trkpt>
<trkpt lat="49.40065" lon="1.17085">
<ele>145.0</ele>
<time>2026-08-25T11:49:35Z</time>
</trkpt>
<trkpt lat="49.400619999999996" lon="1.17088">
<ele>145.0</ele>
<time>2026-08-25T11:49:38Z</time>
</trkpt>
<trkpt lat="49.40058" lon="1.1709">
<ele>145.0</ele>
<time>2026-08-25T11:49:41Z</time>
</trkpt>
<trkpt lat="49.400549999999996" lon="1.17092">
<ele>145.0</ele>
<time>2026-08-25T11:49:44Z</time>
</trkpt>
<trkpt lat="49.40052" lon="1.17095">
<ele>145.0</ele>
<time>2026-08-25T11:49:47Z</time>
</trkpt>
<trkpt lat="49.40049" lon="1.17098">
<ele>146.0</ele>
<time>2026-08-25T11:49:50Z</time>
</trkpt>
<trkpt lat="49.40045" lon="1.1710099999999999">
<ele>146.0</ele>
<time>2026-08-25T11:49:53Z</time>
</trkpt>
<trkpt lat="49.40042" lon="1.17105">
<ele>146.0</ele>
<time>2026-08-25T11:49:56Z</time>
</trkpt>
<trkpt lat="49.400389999999994" lon="1.17108">
<ele>145.0</ele>
<time>2026-08-25T11:49:59Z</time>
</trkpt>
<trkpt lat="49.40036" lon="1.1711">
<ele>145.0</ele>
<time>2026-08-25T11:50:02Z</time>
</trkpt>
<trkpt lat="49.40033" lon="1.1711099999999999">
<ele>145.0</ele>
<time>2026-08-25T11:50:05Z</time>
</trkpt>
<trkpt lat="49.400299999999994" lon="1.17113">
<ele>145.0</ele>
<time>2026-08-25T11:50:08Z</time>
</trkpt>
<trkpt lat="49.40027" lon="1.17115">
<ele>145.0</ele>
<time>2026-08-25T11:50:11Z</time>
</trkpt>
<trkpt lat="49.40024" lon="1.17116">
<ele>145.0</ele>
<time>2026-08-25T11:50:14Z</time>
</trkpt>
<trkpt lat="49.40021" lon="1.17117">
<ele>145.0</ele>
<time>2026-08-25T11:50:17Z</time>
</trkpt>
<trkpt lat="49.400169999999996" lon="1.17119">
<ele>145.0</ele>
<time>2026-08-25T11:50:20Z</time>
</trkpt>
<trkpt lat="49.40014" lon="1.1712099999999999">
<ele>145.0</ele>
<time>2026-08-25T11:50:23Z</time>
</trkpt>
<trkpt lat="49.400099999999995" lon="1.17122">
<ele>145.0</ele>
<time>2026-08-25T11:50:26Z</time>
</trkpt>
<trkpt lat="49.40007" lon="1.1712399999999998">
<ele>145.0</ele>
<time>2026-08-25T11:50:29Z</time>
</trkpt>
<trkpt lat="49.40004" lon="1.17125">
<ele>145.0</ele>
<time>2026-08-25T11:50:32Z</time>
</trkpt>
<trkpt lat="49.400009999999995" lon="1.17126">
<ele>145.0</ele>
<time>2026-08-25T11:50:34Z</time>
</trkpt>
<trkpt lat="49.39998" lon="1.17127">
<ele>145.0</ele>
<time>2026-08-25T11:50:36Z</time>
</trkpt>
<trkpt lat="49.39996" lon="1.1712399999999998">
<ele>145.0</ele>
<time>2026-08-25T11:50:40Z</time>
</trkpt>
<trkpt lat="49.39996" lon="1.1712">
<ele>145.0</ele>
<time>2026-08-25T11:50:43Z</time>
</trkpt>
<trkpt lat="49.39996" lon="1.17116">
<ele>145.0</ele>
<time>2026-08-25T11:50:46Z</time>
</trkpt>
<trkpt lat="49.39994" lon="1.17113">
<ele>145.0</ele>
<time>2026-08-25T11:50:49Z</time>
</trkpt>
<trkpt lat="49.39991" lon="1.17112">
<ele>145.0</ele>
<time>2026-08-25T11:50:52Z</time>
</trkpt>
<trkpt lat="49.399879999999996" lon="1.17112">
<ele>145.0</ele>
<time>2026-08-25T11:50:54Z</time>
</trkpt>
<trkpt lat="49.39986" lon="1.1711399999999998">
<ele>146.0</ele>
<time>2026-08-25T11:50:56Z</time>
</trkpt>
<trkpt lat="49.39984" lon="1.17117">
<ele>146.0</ele>
<time>2026-08-25T11:50:58Z</time>
</trkpt>
<trkpt lat="49.399829999999994" lon="1.1712">
<ele>146.0</ele>
<time>2026-08-25T11:51:00Z</time>
</trkpt>
<trkpt lat="49.399809999999995" lon="1.1712399999999998">
<ele>146.0</ele>
<time>2026-08-25T11:51:02Z</time>
</trkpt>
<trkpt lat="49.3998" lon="1.1712799999999999">
<ele>146.0</ele>
<time>2026-08-25T11:51:05Z</time>
</trkpt>
<trkpt lat="49.39978" lon="1.17133">
<ele>146.0</ele>
<time>2026-08-25T11:51:08Z</time>
</trkpt>
<trkpt lat="49.39976" lon="1.17137">
<ele>146.0</ele>
<time>2026-08-25T11:51:11Z</time>
</trkpt>
<trkpt lat="49.39973" lon="1.17139">
<ele>146.0</ele>
<time>2026-08-25T11:51:14Z</time>
</trkpt>
<trkpt lat="49.399699999999996" lon="1.17142">
<ele>146.0</ele>
<time>2026-08-25T11:51:17Z</time>
</trkpt>
<trkpt lat="49.39966" lon="1.17143">
<ele>146.0</ele>
<time>2026-08-25T11:51:20Z</time>
</trkpt>
<trkpt lat="49.399629999999995" lon="1.17144">
<ele>146.0</ele>
<time>2026-08-25T11:51:23Z</time>
</trkpt>
<trkpt lat="49.399589999999996" lon="1.1714499999999999">
<ele>146.0</ele>
<time>2026-08-25T11:51:26Z</time>
</trkpt>
<trkpt lat="49.39956" lon="1.17147">
<ele>146.0</ele>
<time>2026-08-25T11:51:29Z</time>
</trkpt>
<trkpt lat="49.39953" lon="1.1714799999999999">
<ele>146.0</ele>
<time>2026-08-25T11:51:32Z</time>
</trkpt>
<trkpt lat="49.39949" lon="1.17149">
<ele>146.0</ele>
<time>2026-08-25T11:51:35Z</time>
</trkpt>
<trkpt lat="49.39946" lon="1.1715">
<ele>146.0</ele>
<time>2026-08-25T11:51:38Z</time>
</trkpt>
<trkpt lat="49.39942" lon="1.17151">
<ele>146.0</ele>
<time>2026-08-25T11:51:41Z</time>
</trkpt>
<trkpt lat="49.39939" lon="1.17151">
<ele>146.0</ele>
<time>2026-08-25T11:51:43Z</time>
</trkpt>
<trkpt lat="49.399359999999994" lon="1.17152">
<ele>146.0</ele>
<time>2026-08-25T11:51:46Z</time>
</trkpt>
<trkpt lat="49.399319999999996" lon="1.17154">
<ele>146.0</ele>
<time>2026-08-25T11:51:49Z</time>
</trkpt>
<trkpt lat="49.39928" lon="1.1715499999999999">
<ele>146.0</ele>
<time>2026-08-25T11:51:52Z</time>
</trkpt>
<trkpt lat="49.39924" lon="1.17156">
<ele>146.0</ele>
<time>2026-08-25T11:51:55Z</time>
</trkpt>
<trkpt lat="49.39921" lon="1.17156">
<ele>146.0</ele>
<time>2026-08-25T11:51:58Z</time>
</trkpt>
<trkpt lat="49.39917" lon="1.17156">
<ele>146.0</ele>
<time>2026-08-25T11:52:01Z</time>
</trkpt>
<trkpt lat="49.399139999999996" lon="1.17154">
<ele>146.0</ele>
<time>2026-08-25T11:52:03Z</time>
</trkpt>
<trkpt lat="49.39911" lon="1.17154">
<ele>146.0</ele>
<time>2026-08-25T11:52:06Z</time>
</trkpt>
<trkpt lat="49.39909" lon="1.17156">
<ele>146.0</ele>
<time>2026-08-25T11:52:10Z</time>
</trkpt>
<trkpt lat="49.399069999999995" lon="1.17159">
<ele>146.0</ele>
<time>2026-08-25T11:52:13Z</time>
</trkpt>
<trkpt lat="49.39904" lon="1.1716199999999999">
<ele>146.0</ele>
<time>2026-08-25T11:52:15Z</time>
</trkpt>
<trkpt lat="49.39902" lon="1.1716499999999999">
<ele>145.0</ele>
<time>2026-08-25T11:52:17Z</time>
</trkpt>
<trkpt lat="49.39899" lon="1.17167">
<ele>145.0</ele>
<time>2026-08-25T11:52:19Z</time>
</trkpt>
<trkpt lat="49.39897" lon="1.17169">
<ele>145.0</ele>
<time>2026-08-25T11:52:21Z</time>
</trkpt>
<trkpt lat="49.398939999999996" lon="1.1717">
<ele>145.0</ele>
<time>2026-08-25T11:52:23Z</time>
</trkpt>
<trkpt lat="49.39892" lon="1.17171">
<ele>145.0</ele>
<time>2026-08-25T11:52:25Z</time>
</trkpt>
<trkpt lat="49.39888" lon="1.1717199999999999">
<ele>145.0</ele>
<time>2026-08-25T11:52:28Z</time>
</trkpt>
<trkpt lat="49.398849999999996" lon="1.1717499999999998">
<ele>145.0</ele>
<time>2026-08-25T11:52:31Z</time>
</trkpt>
<trkpt lat="49.39882" lon="1.17177">
<ele>145.0</ele>
<time>2026-08-25T11:52:34Z</time>
</trkpt>
<trkpt lat="49.398779999999995" lon="1.1717899999999999">
<ele>145.0</ele>
<time>2026-08-25T11:52:37Z</time>
</trkpt>
<trkpt lat="49.39875" lon="1.1718">
<ele>144.0</ele>
<time>2026-08-25T11:52:39Z</time>
</trkpt>
<trkpt lat="49.39872" lon="1.1718">
<ele>144.0</ele>
<time>2026-08-25T11:52:41Z</time>
</trkpt>
<trkpt lat="49.398689999999995" lon="1.17181">
<ele>144.0</ele>
<time>2026-08-25T11:52:44Z</time>
</trkpt>
<trkpt lat="49.398649999999996" lon="1.1718199999999999">
<ele>144.0</ele>
<time>2026-08-25T11:52:47Z</time>
</trkpt>
<trkpt lat="49.39862" lon="1.17183">
<ele>144.0</ele>
<time>2026-08-25T11:52:50Z</time>
</trkpt>
<trkpt lat="49.39859" lon="1.17184">
<ele>144.0</ele>
<time>2026-08-25T11:52:53Z</time>
</trkpt>
<trkpt lat="49.398559999999996" lon="1.17184">
<ele>144.0</ele>
<time>2026-08-25T11:52:56Z</time>
</trkpt>
<trkpt lat="49.39853" lon="1.1718499999999998">
<ele>144.0</ele>
<time>2026-08-25T11:52:59Z</time>
</trkpt>
<trkpt lat="49.398489999999995" lon="1.17186">
<ele>144.0</ele>
<time>2026-08-25T11:53:02Z</time>
</trkpt>
<trkpt lat="49.39846" lon="1.17187">
<ele>143.0</ele>
<time>2026-08-25T11:53:05Z</time>
</trkpt>
<trkpt lat="49.39843" lon="1.17187">
<ele>143.0</ele>
<time>2026-08-25T11:53:07Z</time>
</trkpt>
<trkpt lat="49.39839" lon="1.17188">
<ele>143.0</ele>
<time>2026-08-25T11:53:10Z</time>
</trkpt>
<trkpt lat="49.39835" lon="1.1719">
<ele>143.0</ele>
<time>2026-08-25T11:53:13Z</time>
</trkpt>
<trkpt lat="49.39832" lon="1.1719">
<ele>143.0</ele>
<time>2026-08-25T11:53:16Z</time>
</trkpt>
<trkpt lat="49.39828" lon="1.1719199999999999">
<ele>143.0</ele>
<time>2026-08-25T11:53:19Z</time>
</trkpt>
<trkpt lat="49.39826" lon="1.17194">
<ele>143.0</ele>
<time>2026-08-25T11:53:21Z</time>
</trkpt>
<trkpt lat="49.398219999999995" lon="1.17197">
<ele>143.0</ele>
<time>2026-08-25T11:53:24Z</time>
</trkpt>
<trkpt lat="49.39819" lon="1.1719899999999999">
<ele>143.0</ele>
<time>2026-08-25T11:53:26Z</time>
</trkpt>
<trkpt lat="49.39816" lon="1.172">
<ele>143.0</ele>
<time>2026-08-25T11:53:28Z</time>
</trkpt>
<trkpt lat="49.39814" lon="1.17201">
<ele>143.0</ele>
<time>2026-08-25T11:53:30Z</time>
</trkpt>
<trkpt lat="49.3981" lon="1.17201">
<ele>143.0</ele>
<time>2026-08-25T11:53:33Z</time>
</trkpt>
<trkpt lat="49.39807" lon="1.17201">
<ele>143.0</ele>
<time>2026-08-25T11:53:36Z</time>
</trkpt>
<trkpt lat="49.39803" lon="1.17201">
<ele>143.0</ele>
<time>2026-08-25T11:53:39Z</time>
</trkpt>
<trkpt lat="49.397999999999996" lon="1.1720199999999998">
<ele>143.0</ele>
<time>2026-08-25T11:53:42Z</time>
</trkpt>
<trkpt lat="49.39796" lon="1.17204">
<ele>143.0</ele>
<time>2026-08-25T11:53:45Z</time>
</trkpt>
<trkpt lat="49.397929999999995" lon="1.17204">
<ele>143.0</ele>
<time>2026-08-25T11:53:48Z</time>
</trkpt>
<trkpt lat="49.3979" lon="1.17204">
<ele>143.0</ele>
<time>2026-08-25T11:53:51Z</time>
</trkpt>
<trkpt lat="49.39787" lon="1.17205">
<ele>143.0</ele>
<time>2026-08-25T11:53:54Z</time>
</trkpt>
<trkpt lat="49.397839999999995" lon="1.1720599999999999">
<ele>143.0</ele>
<time>2026-08-25T11:53:57Z</time>
</trkpt>
<trkpt lat="49.39781" lon="1.17207">
<ele>143.0</ele>
<time>2026-08-25T11:54:00Z</time>
</trkpt>
<trkpt lat="49.39778" lon="1.17207">
<ele>143.0</ele>
<time>2026-08-25T11:54:03Z</time>
</trkpt>
<trkpt lat="49.397749999999995" lon="1.17207">
<ele>143.0</ele>
<time>2026-08-25T11:54:05Z</time>
</trkpt>
<trkpt lat="49.39772" lon="1.17207">
<ele>143.0</ele>
<time>2026-08-25T11:54:07Z</time>
</trkpt>
<trkpt lat="49.39769" lon="1.1720599999999999">
<ele>143.0</ele>
<time>2026-08-25T11:54:09Z</time>
</trkpt>
<trkpt lat="49.397659999999995" lon="1.17204">
<ele>143.0</ele>
<time>2026-08-25T11:54:11Z</time>
</trkpt>
<trkpt lat="49.39763" lon="1.17203">
<ele>143.0</ele>
<time>2026-08-25T11:54:13Z</time>
</trkpt>
<trkpt lat="49.3976" lon="1.17201">
<ele>143.0</ele>
<time>2026-08-25T11:54:16Z</time>
</trkpt>
<trkpt lat="49.397569999999995" lon="1.1719899999999999">
<ele>143.0</ele>
<time>2026-08-25T11:54:19Z</time>
</trkpt>
<trkpt lat="49.39754" lon="1.17196">
<ele>143.0</ele>
<time>2026-08-25T11:54:22Z</time>
</trkpt>
<trkpt lat="49.39751" lon="1.17194">
<ele>143.0</ele>
<time>2026-08-25T11:54:24Z</time>
</trkpt>
<trkpt lat="49.39749" lon="1.1719">
<ele>143.0</ele>
<time>2026-08-25T11:54:27Z</time>
</trkpt>
<trkpt lat="49.397479999999995" lon="1.17186">
<ele>143.0</ele>
<time>2026-08-25T11:54:30Z</time>
</trkpt>
<trkpt lat="49.397479999999995" lon="1.1718">
<ele>142.0</ele>
<time>2026-08-25T11:54:33Z</time>
</trkpt>
<trkpt lat="49.397479999999995" lon="1.1717499999999998">
<ele>142.0</ele>
<time>2026-08-25T11:54:35Z</time>
</trkpt>
<trkpt lat="49.39749" lon="1.1717">
<ele>142.0</ele>
<time>2026-08-25T11:54:38Z</time>
</trkpt>
<trkpt lat="49.3975" lon="1.1716499999999999">
<ele>142.0</ele>
<time>2026-08-25T11:54:41Z</time>
</trkpt>
<trkpt lat="49.39751" lon="1.1716">
<ele>142.0</ele>
<time>2026-08-25T11:54:43Z</time>
</trkpt>
<trkpt lat="49.397529999999996" lon="1.17156">
<ele>142.0</ele>
<time>2026-08-25T11:54:45Z</time>
</trkpt>
<trkpt lat="49.397549999999995" lon="1.17152">
<ele>143.0</ele>
<time>2026-08-25T11:54:47Z</time>
</trkpt>
<trkpt lat="49.397569999999995" lon="1.1714799999999999">
<ele>143.0</ele>
<time>2026-08-25T11:54:50Z</time>
</trkpt>
<trkpt lat="49.3976" lon="1.17144">
<ele>143.0</ele>
<time>2026-08-25T11:54:53Z</time>
</trkpt>
<trkpt lat="49.397619999999996" lon="1.1714">
<ele>143.0</ele>
<time>2026-08-25T11:54:55Z</time>
</trkpt>
<trkpt lat="49.397639999999996" lon="1.17136">
<ele>143.0</ele>
<time>2026-08-25T11:54:58Z</time>
</trkpt>
<trkpt lat="49.39765" lon="1.17132">
<ele>143.0</ele>
<time>2026-08-25T11:55:01Z</time>
</trkpt>
<trkpt lat="49.39767" lon="1.1712799999999999">
<ele>143.0</ele>
<time>2026-08-25T11:55:04Z</time>
</trkpt>
<trkpt lat="49.39768" lon="1.17123">
<ele>143.0</ele>
<time>2026-08-25T11:55:08Z</time>
</trkpt>
<trkpt lat="49.39769" lon="1.17119">
<ele>143.0</ele>
<time>2026-08-25T11:55:11Z</time>
</trkpt>
<trkpt lat="49.3977" lon="1.1711399999999998">
<ele>143.0</ele>
<time>2026-08-25T11:55:14Z</time>
</trkpt>
<trkpt lat="49.39771" lon="1.17109">
<ele>143.0</ele>
<time>2026-08-25T11:55:17Z</time>
</trkpt>
<trkpt lat="49.397729999999996" lon="1.17105">
<ele>143.0</ele>
<time>2026-08-25T11:55:20Z</time>
</trkpt>
<trkpt lat="49.39774" lon="1.171">
<ele>143.0</ele>
<time>2026-08-25T11:55:23Z</time>
</trkpt>
<trkpt lat="49.397749999999995" lon="1.17096">
<ele>143.0</ele>
<time>2026-08-25T11:55:26Z</time>
</trkpt>
<trkpt lat="49.39777" lon="1.17092">
<ele>143.0</ele>
<time>2026-08-25T11:55:30Z</time>
</trkpt>
<trkpt lat="49.39779" lon="1.17088">
<ele>143.0</ele>
<time>2026-08-25T11:55:33Z</time>
</trkpt>
<trkpt lat="49.3978" lon="1.1708399999999999">
<ele>143.0</ele>
<time>2026-08-25T11:55:35Z</time>
</trkpt>
<trkpt lat="49.39781" lon="1.17079">
<ele>143.0</ele>
<time>2026-08-25T11:55:38Z</time>
</trkpt>
<trkpt lat="49.397819999999996" lon="1.17074">
<ele>143.0</ele>
<time>2026-08-25T11:55:41Z</time>
</trkpt>
<trkpt lat="49.39783" lon="1.17068">
<ele>142.0</ele>
<time>2026-08-25T11:55:44Z</time>
</trkpt>
<trkpt lat="49.39785" lon="1.1706299999999998">
<ele>142.0</ele>
<time>2026-08-25T11:55:47Z</time>
</trkpt>
<trkpt lat="49.39787" lon="1.17058">
<ele>142.0</ele>
<time>2026-08-25T11:55:50Z</time>
</trkpt>
<trkpt lat="49.39788" lon="1.17054">
<ele>142.0</ele>
<time>2026-08-25T11:55:52Z</time>
</trkpt>
<trkpt lat="49.39789" lon="1.1704999999999999">
<ele>142.0</ele>
<time>2026-08-25T11:55:54Z</time>
</trkpt>
<trkpt lat="49.397909999999996" lon="1.17046">
<ele>142.0</ele>
<time>2026-08-25T11:55:56Z</time>
</trkpt>
<trkpt lat="49.39792" lon="1.17041">
<ele>143.0</ele>
<time>2026-08-25T11:55:58Z</time>
</trkpt>
<trkpt lat="49.397929999999995" lon="1.17037">
<ele>143.0</ele>
<time>2026-08-25T11:56:00Z</time>
</trkpt>
<trkpt lat="49.39794" lon="1.1703299999999999">
<ele>143.0</ele>
<time>2026-08-25T11:56:02Z</time>
</trkpt>
<trkpt lat="49.39794" lon="1.17029">
<ele>143.0</ele>
<time>2026-08-25T11:56:04Z</time>
</trkpt>
<trkpt lat="49.397949999999994" lon="1.17024">
<ele>143.0</ele>
<time>2026-08-25T11:56:07Z</time>
</trkpt>
<trkpt lat="49.397949999999994" lon="1.1701899999999998">
<ele>143.0</ele>
<time>2026-08-25T11:56:10Z</time>
</trkpt>
<trkpt lat="49.39796" lon="1.17014">
<ele>143.0</ele>
<time>2026-08-25T11:56:13Z</time>
</trkpt>
<trkpt lat="49.39797" lon="1.17008">
<ele>143.0</ele>
<time>2026-08-25T11:56:16Z</time>
</trkpt>
<trkpt lat="49.39797" lon="1.17003">
<ele>143.0</ele>
<time>2026-08-25T11:56:19Z</time>
</trkpt>
<trkpt lat="49.39798" lon="1.16998">
<ele>143.0</ele>
<time>2026-08-25T11:56:21Z</time>
</trkpt>
<trkpt lat="49.39798" lon="1.16994">
<ele>143.0</ele>
<time>2026-08-25T11:56:23Z</time>
</trkpt>
<trkpt lat="49.39799" lon="1.1698899999999999">
<ele>143.0</ele>
<time>2026-08-25T11:56:25Z</time>
</trkpt>
<trkpt lat="49.397999999999996" lon="1.16984">
<ele>143.0</ele>
<time>2026-08-25T11:56:28Z</time>
</trkpt>
<trkpt lat="49.398019999999995" lon="1.1698">
<ele>143.0</ele>
<time>2026-08-25T11:56:30Z</time>
</trkpt>
<trkpt lat="49.39803" lon="1.1697499999999998">
<ele>143.0</ele>
<time>2026-08-25T11:56:32Z</time>
</trkpt>
<trkpt lat="49.398039999999995" lon="1.1697">
<ele>143.0</ele>
<time>2026-08-25T11:56:35Z</time>
</trkpt>
<trkpt lat="49.39806" lon="1.1696499999999999">
<ele>143.0</ele>
<time>2026-08-25T11:56:37Z</time>
</trkpt>
<trkpt lat="49.39807" lon="1.16961">
<ele>143.0</ele>
<time>2026-08-25T11:56:40Z</time>
</trkpt>
<trkpt lat="49.398089999999996" lon="1.16957">
<ele>143.0</ele>
<time>2026-08-25T11:56:42Z</time>
</trkpt>
<trkpt lat="49.398089999999996" lon="1.16952">
<ele>143.0</ele>
<time>2026-08-25T11:56:45Z</time>
</trkpt>
<trkpt lat="49.3981" lon="1.1694799999999999">
<ele>143.0</ele>
<time>2026-08-25T11:56:49Z</time>
</trkpt>
<trkpt lat="49.3981" lon="1.16943">
<ele>143.0</ele>
<time>2026-08-25T11:56:53Z</time>
</trkpt>
<trkpt lat="49.3981" lon="1.1693799999999999">
<ele>143.0</ele>
<time>2026-08-25T11:56:56Z</time>
</trkpt>
<trkpt lat="49.398089999999996" lon="1.16933">
<ele>143.0</ele>
<time>2026-08-25T11:56:59Z</time>
</trkpt>
<trkpt lat="49.39808" lon="1.1692799999999999">
<ele>142.0</ele>
<time>2026-08-25T11:57:02Z</time>
</trkpt>
<trkpt lat="49.39808" lon="1.16924">
<ele>142.0</ele>
<time>2026-08-25T11:57:05Z</time>
</trkpt>
<trkpt lat="49.39807" lon="1.1691799999999999">
<ele>142.0</ele>
<time>2026-08-25T11:57:08Z</time>
</trkpt>
<trkpt lat="49.39807" lon="1.16913">
<ele>142.0</ele>
<time>2026-08-25T11:57:11Z</time>
</trkpt>
<trkpt lat="49.39807" lon="1.16908">
<ele>142.0</ele>
<time>2026-08-25T11:57:14Z</time>
</trkpt>
<trkpt lat="49.39807" lon="1.16902">
<ele>142.0</ele>
<time>2026-08-25T11:57:17Z</time>
</trkpt>
<trkpt lat="49.39807" lon="1.1689699999999998">
<ele>142.0</ele>
<time>2026-08-25T11:57:20Z</time>
</trkpt>
<trkpt lat="49.39808" lon="1.16892">
<ele>142.0</ele>
<time>2026-08-25T11:57:23Z</time>
</trkpt>
<trkpt lat="49.39808" lon="1.16886">
<ele>142.0</ele>
<time>2026-08-25T11:57:26Z</time>
</trkpt>
<trkpt lat="49.39808" lon="1.16881">
<ele>142.0</ele>
<time>2026-08-25T11:57:29Z</time>
</trkpt>
<trkpt lat="49.39807" lon="1.16876">
<ele>142.0</ele>
<time>2026-08-25T11:57:32Z</time>
</trkpt>
<trkpt lat="49.39807" lon="1.16871">
<ele>142.0</ele>
<time>2026-08-25T11:57:35Z</time>
</trkpt>
<trkpt lat="49.39807" lon="1.16865">
<ele>142.0</ele>
<time>2026-08-25T11:57:38Z</time>
</trkpt>
<trkpt lat="49.39807" lon="1.1685999999999999">
<ele>142.0</ele>
<time>2026-08-25T11:57:40Z</time>
</trkpt>
<trkpt lat="49.398089999999996" lon="1.16855">
<ele>142.0</ele>
<time>2026-08-25T11:57:43Z</time>
</trkpt>
<trkpt lat="49.398089999999996" lon="1.1684999999999999">
<ele>142.0</ele>
<time>2026-08-25T11:57:46Z</time>
</trkpt>
<trkpt lat="49.39808" lon="1.16846">
<ele>143.0</ele>
<time>2026-08-25T11:57:49Z</time>
</trkpt>
<trkpt lat="49.39807" lon="1.16841">
<ele>143.0</ele>
<time>2026-08-25T11:57:52Z</time>
</trkpt>
<trkpt lat="49.39807" lon="1.16837">
<ele>143.0</ele>
<time>2026-08-25T11:57:55Z</time>
</trkpt>
<trkpt lat="49.39806" lon="1.16832">
<ele>143.0</ele>
<time>2026-08-25T11:57:59Z</time>
</trkpt>
<trkpt lat="49.39806" lon="1.16827">
<ele>143.0</ele>
<time>2026-08-25T11:58:02Z</time>
</trkpt>
<trkpt lat="49.39806" lon="1.1682299999999999">
<ele>143.0</ele>
<time>2026-08-25T11:58:04Z</time>
</trkpt>
<trkpt lat="49.39806" lon="1.16817">
<ele>144.0</ele>
<time>2026-08-25T11:58:07Z</time>
</trkpt>
<trkpt lat="49.39807" lon="1.16812">
<ele>144.0</ele>
<time>2026-08-25T11:58:10Z</time>
</trkpt>
<trkpt lat="49.39808" lon="1.16807">
<ele>144.0</ele>
<time>2026-08-25T11:58:13Z</time>
</trkpt>
<trkpt lat="49.398089999999996" lon="1.1680199999999998">
<ele>144.0</ele>
<time>2026-08-25T11:58:16Z</time>
</trkpt>
<trkpt lat="49.398089999999996" lon="1.1679599999999999">
<ele>144.0</ele>
<time>2026-08-25T11:58:19Z</time>
</trkpt>
<trkpt lat="49.39808" lon="1.16791">
<ele>144.0</ele>
<time>2026-08-25T11:58:22Z</time>
</trkpt>
<trkpt lat="49.39807" lon="1.16786">
<ele>144.0</ele>
<time>2026-08-25T11:58:25Z</time>
</trkpt>
<trkpt lat="49.39807" lon="1.16781">
<ele>144.0</ele>
<time>2026-08-25T11:58:27Z</time>
</trkpt>
<trkpt lat="49.39807" lon="1.16777">
<ele>144.0</ele>
<time>2026-08-25T11:58:29Z</time>
</trkpt>
<trkpt lat="49.39808" lon="1.1677199999999999">
<ele>144.0</ele>
<time>2026-08-25T11:58:31Z</time>
</trkpt>
<trkpt lat="49.398089999999996" lon="1.16768">
<ele>144.0</ele>
<time>2026-08-25T11:58:33Z</time>
</trkpt>
<trkpt lat="49.3981" lon="1.16763">
<ele>144.0</ele>
<time>2026-08-25T11:58:36Z</time>
</trkpt>
<trkpt lat="49.3981" lon="1.1675799999999998">
<ele>144.0</ele>
<time>2026-08-25T11:58:39Z</time>
</trkpt>
<trkpt lat="49.398109999999996" lon="1.16752">
<ele>144.0</ele>
<time>2026-08-25T11:58:42Z</time>
</trkpt>
<trkpt lat="49.3981" lon="1.16747">
<ele>144.0</ele>
<time>2026-08-25T11:58:45Z</time>
</trkpt>
<trkpt lat="49.398089999999996" lon="1.1674099999999998">
<ele>144.0</ele>
<time>2026-08-25T11:58:48Z</time>
</trkpt>
<trkpt lat="49.39807" lon="1.16736">
<ele>145.0</ele>
<time>2026-08-25T11:58:51Z</time>
</trkpt>
<trkpt lat="49.39806" lon="1.1673099999999998">
<ele>145.0</ele>
<time>2026-08-25T11:58:54Z</time>
</trkpt>
<trkpt lat="49.39805" lon="1.16726">
<ele>145.0</ele>
<time>2026-08-25T11:58:57Z</time>
</trkpt>
<trkpt lat="49.39803" lon="1.1672099999999999">
<ele>145.0</ele>
<time>2026-08-25T11:59:00Z</time>
</trkpt>
<trkpt lat="49.39801" lon="1.16715">
<ele>145.0</ele>
<time>2026-08-25T11:59:03Z</time>
</trkpt>
<trkpt lat="49.397999999999996" lon="1.1671">
<ele>145.0</ele>
<time>2026-08-25T11:59:06Z</time>
</trkpt>
<trkpt lat="49.39799" lon="1.1670399999999999">
<ele>146.0</ele>
<time>2026-08-25T11:59:09Z</time>
</trkpt>
<trkpt lat="49.39799" lon="1.167">
<ele>146.0</ele>
<time>2026-08-25T11:59:11Z</time>
</trkpt>
<trkpt lat="49.39799" lon="1.16695">
<ele>146.0</ele>
<time>2026-08-25T11:59:13Z</time>
</trkpt>
<trkpt lat="49.39799" lon="1.1669">
<ele>146.0</ele>
<time>2026-08-25T11:59:16Z</time>
</trkpt>
<trkpt lat="49.39799" lon="1.16685">
<ele>146.0</ele>
<time>2026-08-25T11:59:19Z</time>
</trkpt>
<trkpt lat="49.39799" lon="1.16681">
<ele>146.0</ele>
<time>2026-08-25T11:59:21Z</time>
</trkpt>
<trkpt lat="49.397999999999996" lon="1.16676">
<ele>147.0</ele>
<time>2026-08-25T11:59:23Z</time>
</trkpt>
<trkpt lat="49.39801" lon="1.16672">
<ele>147.0</ele>
<time>2026-08-25T11:59:25Z</time>
</trkpt>
<trkpt lat="49.39801" lon="1.16668">
<ele>147.0</ele>
<time>2026-08-25T11:59:28Z</time>
</trkpt>
<trkpt lat="49.39801" lon="1.16663">
<ele>147.0</ele>
<time>2026-08-25T11:59:31Z</time>
</trkpt>
<trkpt lat="49.397999999999996" lon="1.16658">
<ele>147.0</ele>
<time>2026-08-25T11:59:34Z</time>
</trkpt>
<trkpt lat="49.39799" lon="1.16652">
<ele>147.0</ele>
<time>2026-08-25T11:59:37Z</time>
</trkpt>
<trkpt lat="49.39798" lon="1.16647">
<ele>147.0</ele>
<time>2026-08-25T11:59:40Z</time>
</trkpt>
<trkpt lat="49.39797" lon="1.16642">
<ele>147.0</ele>
<time>2026-08-25T11:59:42Z</time>
</trkpt>
<trkpt lat="49.39796" lon="1.16637">
<ele>147.0</ele>
<time>2026-08-25T11:59:44Z</time>
</trkpt>
<trkpt lat="49.397949999999994" lon="1.16632">
<ele>147.0</ele>
<time>2026-08-25T11:59:47Z</time>
</trkpt>
<trkpt lat="49.397949999999994" lon="1.1662599999999999">
<ele>147.0</ele>
<time>2026-08-25T11:59:50Z</time>
</trkpt>
<trkpt lat="49.39794" lon="1.16621">
<ele>147.0</ele>
<time>2026-08-25T11:59:53Z</time>
</trkpt>
<trkpt lat="49.397929999999995" lon="1.1661599999999999">
<ele>147.0</ele>
<time>2026-08-25T11:59:56Z</time>
</trkpt>
<trkpt lat="49.39792" lon="1.16611">
<ele>147.0</ele>
<time>2026-08-25T11:59:59Z</time>
</trkpt>
<trkpt lat="49.39792" lon="1.16607">
<ele>147.0</ele>
<time>2026-08-25T12:00:02Z</time>
</trkpt>
<trkpt lat="49.397929999999995" lon="1.16602">
<ele>147.0</ele>
<time>2026-08-25T12:00:05Z</time>
</trkpt>
<trkpt lat="49.39792" lon="1.16597">
<ele>147.0</ele>
<time>2026-08-25T12:00:08Z</time>
</trkpt>
<trkpt lat="49.39792" lon="1.1659199999999998">
<ele>147.0</ele>
<time>2026-08-25T12:00:11Z</time>
</trkpt>
<trkpt lat="49.39792" lon="1.16587">
<ele>147.0</ele>
<time>2026-08-25T12:00:14Z</time>
</trkpt>
<trkpt lat="49.397909999999996" lon="1.16581">
<ele>148.0</ele>
<time>2026-08-25T12:00:17Z</time>
</trkpt>
<trkpt lat="49.397909999999996" lon="1.16576">
<ele>148.0</ele>
<time>2026-08-25T12:00:20Z</time>
</trkpt>
<trkpt lat="49.3979" lon="1.16571">
<ele>148.0</ele>
<time>2026-08-25T12:00:23Z</time>
</trkpt>
<trkpt lat="49.39789" lon="1.16566">
<ele>147.0</ele>
<time>2026-08-25T12:00:26Z</time>
</trkpt>
<trkpt lat="49.39788" lon="1.16561">
<ele>147.0</ele>
<time>2026-08-25T12:00:29Z</time>
</trkpt>
<trkpt lat="49.397859999999994" lon="1.16556">
<ele>147.0</ele>
<time>2026-08-25T12:00:32Z</time>
</trkpt>
<trkpt lat="49.39785" lon="1.16551">
<ele>147.0</ele>
<time>2026-08-25T12:00:35Z</time>
</trkpt>
<trkpt lat="49.39785" lon="1.16546">
<ele>147.0</ele>
<time>2026-08-25T12:00:38Z</time>
</trkpt>
<trkpt lat="49.397839999999995" lon="1.16541">
<ele>147.0</ele>
<time>2026-08-25T12:00:41Z</time>
</trkpt>
<trkpt lat="49.39783" lon="1.16536">
<ele>147.0</ele>
<time>2026-08-25T12:00:44Z</time>
</trkpt>
<trkpt lat="49.397819999999996" lon="1.1653099999999998">
<ele>147.0</ele>
<time>2026-08-25T12:00:46Z</time>
</trkpt>
<trkpt lat="49.39781" lon="1.16526">
<ele>147.0</ele>
<time>2026-08-25T12:00:48Z</time>
</trkpt>
<trkpt lat="49.39781" lon="1.1652099999999999">
<ele>147.0</ele>
<time>2026-08-25T12:00:50Z</time>
</trkpt>
<trkpt lat="49.39779" lon="1.16516">
<ele>147.0</ele>
<time>2026-08-25T12:00:53Z</time>
</trkpt>
<trkpt lat="49.39778" lon="1.1651099999999999">
<ele>148.0</ele>
<time>2026-08-25T12:00:56Z</time>
</trkpt>
<trkpt lat="49.39777" lon="1.16506">
<ele>148.0</ele>
<time>2026-08-25T12:00:59Z</time>
</trkpt>
<trkpt lat="49.39776" lon="1.1650099999999999">
<ele>148.0</ele>
<time>2026-08-25T12:01:02Z</time>
</trkpt>
<trkpt lat="49.397749999999995" lon="1.16496">
<ele>148.0</ele>
<time>2026-08-25T12:01:07Z</time>
</trkpt>
<trkpt lat="49.39774" lon="1.16491">
<ele>148.0</ele>
<time>2026-08-25T12:01:11Z</time>
</trkpt>
<trkpt lat="49.39772" lon="1.1648699999999999">
<ele>148.0</ele>
<time>2026-08-25T12:01:14Z</time>
</trkpt>
<trkpt lat="49.3977" lon="1.1648399999999999">
<ele>149.0</ele>
<time>2026-08-25T12:01:16Z</time>
</trkpt>
<trkpt lat="49.39768" lon="1.1648">
<ele>149.0</ele>
<time>2026-08-25T12:01:18Z</time>
</trkpt>
<trkpt lat="49.397659999999995" lon="1.16476">
<ele>149.0</ele>
<time>2026-08-25T12:01:21Z</time>
</trkpt>
<trkpt lat="49.397639999999996" lon="1.1646999999999998">
<ele>149.0</ele>
<time>2026-08-25T12:01:24Z</time>
</trkpt>
<trkpt lat="49.397619999999996" lon="1.16465">
<ele>150.0</ele>
<time>2026-08-25T12:01:27Z</time>
</trkpt>
<trkpt lat="49.3976" lon="1.16461">
<ele>150.0</ele>
<time>2026-08-25T12:01:29Z</time>
</trkpt>
<trkpt lat="49.39759" lon="1.16456">
<ele>151.0</ele>
<time>2026-08-25T12:01:32Z</time>
</trkpt>
<trkpt lat="49.397569999999995" lon="1.16452">
<ele>151.0</ele>
<time>2026-08-25T12:01:34Z</time>
</trkpt>
<trkpt lat="49.397549999999995" lon="1.16447">
<ele>151.0</ele>
<time>2026-08-25T12:01:37Z</time>
</trkpt>
<trkpt lat="49.397529999999996" lon="1.1644299999999999">
<ele>151.0</ele>
<time>2026-08-25T12:01:40Z</time>
</trkpt>
<trkpt lat="49.39751" lon="1.16439">
<ele>151.0</ele>
<time>2026-08-25T12:01:42Z</time>
</trkpt>
<trkpt lat="49.39749" lon="1.16434">
<ele>151.0</ele>
<time>2026-08-25T12:01:45Z</time>
</trkpt>
<trkpt lat="49.39747" lon="1.1643">
<ele>151.0</ele>
<time>2026-08-25T12:01:48Z</time>
</trkpt>
<trkpt lat="49.39745" lon="1.1642599999999999">
<ele>151.0</ele>
<time>2026-08-25T12:01:51Z</time>
</trkpt>
<trkpt lat="49.397439999999996" lon="1.16421">
<ele>151.0</ele>
<time>2026-08-25T12:01:54Z</time>
</trkpt>
<trkpt lat="49.39742" lon="1.1641599999999999">
<ele>151.0</ele>
<time>2026-08-25T12:01:57Z</time>
</trkpt>
<trkpt lat="49.3974" lon="1.16412">
<ele>151.0</ele>
<time>2026-08-25T12:02:00Z</time>
</trkpt>
<trkpt lat="49.397389999999994" lon="1.16408">
<ele>151.0</ele>
<time>2026-08-25T12:02:03Z</time>
</trkpt>
<trkpt lat="49.39738" lon="1.16403">
<ele>151.0</ele>
<time>2026-08-25T12:02:06Z</time>
</trkpt>
<trkpt lat="49.397369999999995" lon="1.1639899999999999">
<ele>151.0</ele>
<time>2026-08-25T12:02:09Z</time>
</trkpt>
<trkpt lat="49.397349999999996" lon="1.16395">
<ele>153.0</ele>
<time>2026-08-25T12:02:12Z</time>
</trkpt>
<trkpt lat="49.39732" lon="1.1639199999999998">
<ele>153.0</ele>
<time>2026-08-25T12:02:15Z</time>
</trkpt>
<trkpt lat="49.397299999999994" lon="1.16388">
<ele>153.0</ele>
<time>2026-08-25T12:02:18Z</time>
</trkpt>
<trkpt lat="49.397279999999995" lon="1.16383">
<ele>153.0</ele>
<time>2026-08-25T12:02:21Z</time>
</trkpt>
<trkpt lat="49.397259999999996" lon="1.1638">
<ele>153.0</ele>
<time>2026-08-25T12:02:23Z</time>
</trkpt>
<trkpt lat="49.39723" lon="1.16376">
<ele>153.0</ele>
<time>2026-08-25T12:02:26Z</time>
</trkpt>
<trkpt lat="49.39721" lon="1.1637199999999999">
<ele>153.0</ele>
<time>2026-08-25T12:02:29Z</time>
</trkpt>
<trkpt lat="49.397189999999995" lon="1.16368">
<ele>153.0</ele>
<time>2026-08-25T12:02:31Z</time>
</trkpt>
<trkpt lat="49.39716" lon="1.1636499999999999">
<ele>153.0</ele>
<time>2026-08-25T12:02:34Z</time>
</trkpt>
<trkpt lat="49.39713" lon="1.16361">
<ele>153.0</ele>
<time>2026-08-25T12:02:37Z</time>
</trkpt>
<trkpt lat="49.39711" lon="1.1635799999999998">
<ele>153.0</ele>
<time>2026-08-25T12:02:40Z</time>
</trkpt>
<trkpt lat="49.397079999999995" lon="1.16354">
<ele>154.0</ele>
<time>2026-08-25T12:02:43Z</time>
</trkpt>
<trkpt lat="49.397059999999996" lon="1.1635">
<ele>154.0</ele>
<time>2026-08-25T12:02:46Z</time>
</trkpt>
<trkpt lat="49.39704" lon="1.16346">
<ele>154.0</ele>
<time>2026-08-25T12:02:49Z</time>
</trkpt>
<trkpt lat="49.39702" lon="1.16342">
<ele>154.0</ele>
<time>2026-08-25T12:02:52Z</time>
</trkpt>
<trkpt lat="49.396989999999995" lon="1.16339">
<ele>154.0</ele>
<time>2026-08-25T12:02:55Z</time>
</trkpt>
<trkpt lat="49.396969999999996" lon="1.1633499999999999">
<ele>154.0</ele>
<time>2026-08-25T12:02:58Z</time>
</trkpt>
<trkpt lat="49.39695" lon="1.1633099999999998">
<ele>154.0</ele>
<time>2026-08-25T12:03:00Z</time>
</trkpt>
<trkpt lat="49.39694" lon="1.16326">
<ele>154.0</ele>
<time>2026-08-25T12:03:02Z</time>
</trkpt>
<trkpt lat="49.39691" lon="1.16322">
<ele>154.0</ele>
<time>2026-08-25T12:03:05Z</time>
</trkpt>
<trkpt lat="49.39689" lon="1.16317">
<ele>155.0</ele>
<time>2026-08-25T12:03:08Z</time>
</trkpt>
<trkpt lat="49.396879999999996" lon="1.16313">
<ele>155.0</ele>
<time>2026-08-25T12:03:10Z</time>
</trkpt>
<trkpt lat="49.39686" lon="1.16308">
<ele>155.0</ele>
<time>2026-08-25T12:03:13Z</time>
</trkpt>
<trkpt lat="49.39685" lon="1.16303">
<ele>155.0</ele>
<time>2026-08-25T12:03:16Z</time>
</trkpt>
<trkpt lat="49.396829999999994" lon="1.16298">
<ele>155.0</ele>
<time>2026-08-25T12:03:19Z</time>
</trkpt>
<trkpt lat="49.396809999999995" lon="1.16293">
<ele>155.0</ele>
<time>2026-08-25T12:03:22Z</time>
</trkpt>
<trkpt lat="49.396789999999996" lon="1.16289">
<ele>155.0</ele>
<time>2026-08-25T12:03:25Z</time>
</trkpt>
<trkpt lat="49.39677" lon="1.16286">
<ele>155.0</ele>
<time>2026-08-25T12:03:28Z</time>
</trkpt>
<trkpt lat="49.39675" lon="1.16282">
<ele>155.0</ele>
<time>2026-08-25T12:03:31Z</time>
</trkpt>
<trkpt lat="49.396719999999995" lon="1.16278">
<ele>155.0</ele>
<time>2026-08-25T12:03:34Z</time>
</trkpt>
<trkpt lat="49.39671" lon="1.16273">
<ele>155.0</ele>
<time>2026-08-25T12:03:37Z</time>
</trkpt>
<trkpt lat="49.39669" lon="1.16269">
<ele>155.0</ele>
<time>2026-08-25T12:03:39Z</time>
</trkpt>
<trkpt lat="49.39667" lon="1.16265">
<ele>155.0</ele>
<time>2026-08-25T12:03:41Z</time>
</trkpt>
<trkpt lat="49.39665" lon="1.16261">
<ele>156.0</ele>
<time>2026-08-25T12:03:44Z</time>
</trkpt>
<trkpt lat="49.396629999999995" lon="1.16258">
<ele>156.0</ele>
<time>2026-08-25T12:03:46Z</time>
</trkpt>
<trkpt lat="49.396609999999995" lon="1.16255">
<ele>156.0</ele>
<time>2026-08-25T12:03:48Z</time>
</trkpt>
<trkpt lat="49.396589999999996" lon="1.16251">
<ele>156.0</ele>
<time>2026-08-25T12:03:50Z</time>
</trkpt>
<trkpt lat="49.39657" lon="1.16247">
<ele>156.0</ele>
<time>2026-08-25T12:03:53Z</time>
</trkpt>
<trkpt lat="49.39656" lon="1.16242">
<ele>156.0</ele>
<time>2026-08-25T12:03:56Z</time>
</trkpt>
<trkpt lat="49.39655" lon="1.16237">
<ele>156.0</ele>
<time>2026-08-25T12:03:59Z</time>
</trkpt>
<trkpt lat="49.396539999999995" lon="1.16231">
<ele>157.0</ele>
<time>2026-08-25T12:04:02Z</time>
</trkpt>
<trkpt lat="49.39655" lon="1.16225">
<ele>157.0</ele>
<time>2026-08-25T12:04:05Z</time>
</trkpt>
<trkpt lat="49.396539999999995" lon="1.1622">
<ele>157.0</ele>
<time>2026-08-25T12:04:09Z</time>
</trkpt>
<trkpt lat="49.39653" lon="1.1621599999999999">
<ele>157.0</ele>
<time>2026-08-25T12:04:12Z</time>
</trkpt>
<trkpt lat="49.396519999999995" lon="1.1621299999999999">
<ele>156.0</ele>
<time>2026-08-25T12:04:15Z</time>
</trkpt>
<trkpt lat="49.396499999999996" lon="1.1620899999999998">
<ele>156.0</ele>
<time>2026-08-25T12:04:18Z</time>
</trkpt>
<trkpt lat="49.39647" lon="1.16207">
<ele>157.0</ele>
<time>2026-08-25T12:04:21Z</time>
</trkpt>
<trkpt lat="49.39644" lon="1.16208">
<ele>157.0</ele>
<time>2026-08-25T12:04:24Z</time>
</trkpt>
<trkpt lat="49.39642" lon="1.1621">
<ele>156.0</ele>
<time>2026-08-25T12:04:27Z</time>
</trkpt>
<trkpt lat="49.39639" lon="1.16211">
<ele>156.0</ele>
<time>2026-08-25T12:04:30Z</time>
</trkpt>
<trkpt lat="49.396359999999994" lon="1.16211">
<ele>156.0</ele>
<time>2026-08-25T12:04:35Z</time>
</trkpt>
<trkpt lat="49.39633" lon="1.1621">
<ele>156.0</ele>
<time>2026-08-25T12:04:39Z</time>
</trkpt>
<trkpt lat="49.39631" lon="1.16207">
<ele>157.0</ele>
<time>2026-08-25T12:04:42Z</time>
</trkpt>
<trkpt lat="49.39629" lon="1.16204">
<ele>157.0</ele>
<time>2026-08-25T12:04:45Z</time>
</trkpt>
<trkpt lat="49.39626" lon="1.16201">
<ele>157.0</ele>
<time>2026-08-25T12:04:48Z</time>
</trkpt>
<trkpt lat="49.39624" lon="1.16197">
<ele>156.0</ele>
<time>2026-08-25T12:04:51Z</time>
</trkpt>
<trkpt lat="49.39622" lon="1.16193">
<ele>156.0</ele>
<time>2026-08-25T12:04:54Z</time>
</trkpt>
<trkpt lat="49.39619" lon="1.1618899999999999">
<ele>156.0</ele>
<time>2026-08-25T12:04:57Z</time>
</trkpt>
<trkpt lat="49.396159999999995" lon="1.16186">
<ele>156.0</ele>
<time>2026-08-25T12:04:59Z</time>
</trkpt>
<trkpt lat="49.39615" lon="1.1618199999999999">
<ele>156.0</ele>
<time>2026-08-25T12:05:01Z</time>
</trkpt>
<trkpt lat="49.39613" lon="1.1617899999999999">
<ele>157.0</ele>
<time>2026-08-25T12:05:03Z</time>
</trkpt>
<trkpt lat="49.39611" lon="1.16174">
<ele>157.0</ele>
<time>2026-08-25T12:05:06Z</time>
</trkpt>
<trkpt lat="49.39609" lon="1.1617">
<ele>157.0</ele>
<time>2026-08-25T12:05:08Z</time>
</trkpt>
<trkpt lat="49.39608" lon="1.16166">
<ele>157.0</ele>
<time>2026-08-25T12:05:11Z</time>
</trkpt>
<trkpt lat="49.39606" lon="1.16161">
<ele>157.0</ele>
<time>2026-08-25T12:05:14Z</time>
</trkpt>
<trkpt lat="49.396049999999995" lon="1.16156">
<ele>157.0</ele>
<time>2026-08-25T12:05:17Z</time>
</trkpt>
<trkpt lat="49.396029999999996" lon="1.1615199999999999">
<ele>157.0</ele>
<time>2026-08-25T12:05:19Z</time>
</trkpt>
<trkpt lat="49.39602" lon="1.16147">
<ele>157.0</ele>
<time>2026-08-25T12:05:22Z</time>
</trkpt>
<trkpt lat="49.396" lon="1.16143">
<ele>157.0</ele>
<time>2026-08-25T12:05:24Z</time>
</trkpt>
<trkpt lat="49.39599" lon="1.16139">
<ele>157.0</ele>
<time>2026-08-25T12:05:27Z</time>
</trkpt>
<trkpt lat="49.39597" lon="1.1613499999999999">
<ele>156.0</ele>
<time>2026-08-25T12:05:30Z</time>
</trkpt>
<trkpt lat="49.395959999999995" lon="1.1613">
<ele>156.0</ele>
<time>2026-08-25T12:05:33Z</time>
</trkpt>
<trkpt lat="49.395959999999995" lon="1.16125">
<ele>156.0</ele>
<time>2026-08-25T12:05:36Z</time>
</trkpt>
<trkpt lat="49.39595" lon="1.1612">
<ele>156.0</ele>
<time>2026-08-25T12:05:39Z</time>
</trkpt>
<trkpt lat="49.39595" lon="1.16115">
<ele>156.0</ele>
<time>2026-08-25T12:05:42Z</time>
</trkpt>
<trkpt lat="49.395939999999996" lon="1.1611">
<ele>156.0</ele>
<time>2026-08-25T12:05:45Z</time>
</trkpt>
<trkpt lat="49.39593" lon="1.16105">
<ele>156.0</ele>
<time>2026-08-25T12:05:48Z</time>
</trkpt>
<trkpt lat="49.39592" lon="1.161">
<ele>156.0</ele>
<time>2026-08-25T12:05:51Z</time>
</trkpt>
<trkpt lat="49.39592" lon="1.16095">
<ele>156.0</ele>
<time>2026-08-25T12:05:54Z</time>
</trkpt>
<trkpt lat="49.39592" lon="1.16088">
<ele>156.0</ele>
<time>2026-08-25T12:05:57Z</time>
</trkpt>
<trkpt lat="49.39592" lon="1.16082">
<ele>156.0</ele>
<time>2026-08-25T12:06:00Z</time>
</trkpt>
<trkpt lat="49.39591" lon="1.1607699999999999">
<ele>156.0</ele>
<time>2026-08-25T12:06:03Z</time>
</trkpt>
<trkpt lat="49.3959" lon="1.16071">
<ele>156.0</ele>
<time>2026-08-25T12:06:06Z</time>
</trkpt>
<trkpt lat="49.3959" lon="1.16065">
<ele>156.0</ele>
<time>2026-08-25T12:06:09Z</time>
</trkpt>
<trkpt lat="49.39588" lon="1.16061">
<ele>156.0</ele>
<time>2026-08-25T12:06:11Z</time>
</trkpt>
<trkpt lat="49.395869999999995" lon="1.16056">
<ele>156.0</ele>
<time>2026-08-25T12:06:14Z</time>
</trkpt>
<trkpt lat="49.395849999999996" lon="1.16051">
<ele>156.0</ele>
<time>2026-08-25T12:06:17Z</time>
</trkpt>
<trkpt lat="49.39584" lon="1.16047">
<ele>156.0</ele>
<time>2026-08-25T12:06:20Z</time>
</trkpt>
<trkpt lat="49.39582" lon="1.1604299999999999">
<ele>156.0</ele>
<time>2026-08-25T12:06:23Z</time>
</trkpt>
<trkpt lat="49.39579" lon="1.16039">
<ele>156.0</ele>
<time>2026-08-25T12:06:26Z</time>
</trkpt>
<trkpt lat="49.39577" lon="1.16036">
<ele>156.0</ele>
<time>2026-08-25T12:06:28Z</time>
</trkpt>
<trkpt lat="49.39575" lon="1.1603299999999999">
<ele>156.0</ele>
<time>2026-08-25T12:06:31Z</time>
</trkpt>
<trkpt lat="49.39573" lon="1.1602999999999999">
<ele>156.0</ele>
<time>2026-08-25T12:06:34Z</time>
</trkpt>
<trkpt lat="49.39571" lon="1.1602599999999998">
<ele>156.0</ele>
<time>2026-08-25T12:06:37Z</time>
</trkpt>
<trkpt lat="49.395689999999995" lon="1.16022">
<ele>156.0</ele>
<time>2026-08-25T12:06:40Z</time>
</trkpt>
<trkpt lat="49.395669999999996" lon="1.16018">
<ele>156.0</ele>
<time>2026-08-25T12:06:43Z</time>
</trkpt>
<trkpt lat="49.395649999999996" lon="1.1601299999999999">
<ele>156.0</ele>
<time>2026-08-25T12:06:46Z</time>
</trkpt>
<trkpt lat="49.39563" lon="1.1600899999999998">
<ele>156.0</ele>
<time>2026-08-25T12:06:49Z</time>
</trkpt>
<trkpt lat="49.39561" lon="1.16005">
<ele>156.0</ele>
<time>2026-08-25T12:06:51Z</time>
</trkpt>
<trkpt lat="49.39559" lon="1.16001">
<ele>156.0</ele>
<time>2026-08-25T12:06:53Z</time>
</trkpt>
<trkpt lat="49.39557" lon="1.1599599999999999">
<ele>156.0</ele>
<time>2026-08-25T12:06:55Z</time>
</trkpt>
<trkpt lat="49.395559999999996" lon="1.1599199999999998">
<ele>156.0</ele>
<time>2026-08-25T12:06:57Z</time>
</trkpt>
<trkpt lat="49.39554" lon="1.15988">
<ele>156.0</ele>
<time>2026-08-25T12:06:59Z</time>
</trkpt>
<trkpt lat="49.39553" lon="1.15984">
<ele>157.0</ele>
<time>2026-08-25T12:07:02Z</time>
</trkpt>
<trkpt lat="49.395509999999994" lon="1.1597899999999999">
<ele>157.0</ele>
<time>2026-08-25T12:07:05Z</time>
</trkpt>
<trkpt lat="49.395489999999995" lon="1.15976">
<ele>157.0</ele>
<time>2026-08-25T12:07:07Z</time>
</trkpt>
<trkpt lat="49.395469999999996" lon="1.1597199999999999">
<ele>157.0</ele>
<time>2026-08-25T12:07:09Z</time>
</trkpt>
<trkpt lat="49.39546" lon="1.15968">
<ele>157.0</ele>
<time>2026-08-25T12:07:11Z</time>
</trkpt>
<trkpt lat="49.39545" lon="1.15964">
<ele>157.0</ele>
<time>2026-08-25T12:07:13Z</time>
</trkpt>
<trkpt lat="49.39544" lon="1.15959">
<ele>157.0</ele>
<time>2026-08-25T12:07:16Z</time>
</trkpt>
<trkpt lat="49.39543" lon="1.15954">
<ele>157.0</ele>
<time>2026-08-25T12:07:19Z</time>
</trkpt>
<trkpt lat="49.395399999999995" lon="1.1595">
<ele>156.0</ele>
<time>2026-08-25T12:07:22Z</time>
</trkpt>
<trkpt lat="49.39539" lon="1.1594499999999999">
<ele>156.0</ele>
<time>2026-08-25T12:07:25Z</time>
</trkpt>
<trkpt lat="49.395379999999996" lon="1.1594">
<ele>156.0</ele>
<time>2026-08-25T12:07:28Z</time>
</trkpt>
<trkpt lat="49.39536" lon="1.15936">
<ele>156.0</ele>
<time>2026-08-25T12:07:30Z</time>
</trkpt>
<trkpt lat="49.39534" lon="1.15932">
<ele>156.0</ele>
<time>2026-08-25T12:07:33Z</time>
</trkpt>
<trkpt lat="49.39532" lon="1.1592799999999999">
<ele>156.0</ele>
<time>2026-08-25T12:07:35Z</time>
</trkpt>
<trkpt lat="49.395289999999996" lon="1.15924">
<ele>156.0</ele>
<time>2026-08-25T12:07:38Z</time>
</trkpt>
<trkpt lat="49.39527" lon="1.1592">
<ele>156.0</ele>
<time>2026-08-25T12:07:41Z</time>
</trkpt>
<trkpt lat="49.39525" lon="1.15916">
<ele>156.0</ele>
<time>2026-08-25T12:07:44Z</time>
</trkpt>
<trkpt lat="49.39524" lon="1.1591099999999999">
<ele>156.0</ele>
<time>2026-08-25T12:07:47Z</time>
</trkpt>
<trkpt lat="49.39524" lon="1.15906">
<ele>156.0</ele>
<time>2026-08-25T12:07:50Z</time>
</trkpt>
<trkpt lat="49.39523" lon="1.1590099999999999">
<ele>156.0</ele>
<time>2026-08-25T12:07:53Z</time>
</trkpt>
<trkpt lat="49.395219999999995" lon="1.15896">
<ele>156.0</ele>
<time>2026-08-25T12:07:56Z</time>
</trkpt>
<trkpt lat="49.395219999999995" lon="1.1589099999999999">
<ele>156.0</ele>
<time>2026-08-25T12:07:59Z</time>
</trkpt>
<trkpt lat="49.395219999999995" lon="1.15886">
<ele>156.0</ele>
<time>2026-08-25T12:08:01Z</time>
</trkpt>
<trkpt lat="49.395219999999995" lon="1.15881">
<ele>156.0</ele>
<time>2026-08-25T12:08:03Z</time>
</trkpt>
<trkpt lat="49.39521" lon="1.1587699999999999">
<ele>156.0</ele>
<time>2026-08-25T12:08:05Z</time>
</trkpt>
<trkpt lat="49.395199999999996" lon="1.15872">
<ele>156.0</ele>
<time>2026-08-25T12:08:08Z</time>
</trkpt>
<trkpt lat="49.39519" lon="1.1586699999999999">
<ele>156.0</ele>
<time>2026-08-25T12:08:11Z</time>
</trkpt>
<trkpt lat="49.395179999999996" lon="1.15863">
<ele>156.0</ele>
<time>2026-08-25T12:08:14Z</time>
</trkpt>
<trkpt lat="49.39516" lon="1.15858">
<ele>156.0</ele>
<time>2026-08-25T12:08:17Z</time>
</trkpt>
<trkpt lat="49.39515" lon="1.1585299999999998">
<ele>156.0</ele>
<time>2026-08-25T12:08:20Z</time>
</trkpt>
<trkpt lat="49.395129999999995" lon="1.15848">
<ele>155.0</ele>
<time>2026-08-25T12:08:23Z</time>
</trkpt>
<trkpt lat="49.39512" lon="1.1584299999999998">
<ele>155.0</ele>
<time>2026-08-25T12:08:26Z</time>
</trkpt>
<trkpt lat="49.3951" lon="1.15837">
<ele>155.0</ele>
<time>2026-08-25T12:08:29Z</time>
</trkpt>
<trkpt lat="49.395089999999996" lon="1.15832">
<ele>155.0</ele>
<time>2026-08-25T12:08:32Z</time>
</trkpt>
<trkpt lat="49.395089999999996" lon="1.15827">
<ele>155.0</ele>
<time>2026-08-25T12:08:35Z</time>
</trkpt>
<trkpt lat="49.395089999999996" lon="1.15821">
<ele>155.0</ele>
<time>2026-08-25T12:08:38Z</time>
</trkpt>
<trkpt lat="49.395089999999996" lon="1.15815">
<ele>154.0</ele>
<time>2026-08-25T12:08:41Z</time>
</trkpt>
<trkpt lat="49.39508" lon="1.1581">
<ele>154.0</ele>
<time>2026-08-25T12:08:43Z</time>
</trkpt>
<trkpt lat="49.39508" lon="1.1580599999999999">
<ele>154.0</ele>
<time>2026-08-25T12:08:45Z</time>
</trkpt>
<trkpt lat="49.39507" lon="1.15801">
<ele>154.0</ele>
<time>2026-08-25T12:08:48Z</time>
</trkpt>
<trkpt lat="49.39507" lon="1.1579599999999999">
<ele>154.0</ele>
<time>2026-08-25T12:08:51Z</time>
</trkpt>
<trkpt lat="49.39506" lon="1.1579">
<ele>154.0</ele>
<time>2026-08-25T12:08:54Z</time>
</trkpt>
<trkpt lat="49.39506" lon="1.15785">
<ele>154.0</ele>
<time>2026-08-25T12:08:57Z</time>
</trkpt>
<trkpt lat="49.395039999999995" lon="1.15781">
<ele>154.0</ele>
<time>2026-08-25T12:09:00Z</time>
</trkpt>
<trkpt lat="49.39503" lon="1.15777">
<ele>154.0</ele>
<time>2026-08-25T12:09:03Z</time>
</trkpt>
<trkpt lat="49.395019999999995" lon="1.1577199999999999">
<ele>154.0</ele>
<time>2026-08-25T12:09:06Z</time>
</trkpt>
<trkpt lat="49.395019999999995" lon="1.15766">
<ele>154.0</ele>
<time>2026-08-25T12:09:09Z</time>
</trkpt>
<trkpt lat="49.39501" lon="1.15761">
<ele>155.0</ele>
<time>2026-08-25T12:09:12Z</time>
</trkpt>
<trkpt lat="49.394999999999996" lon="1.15756">
<ele>155.0</ele>
<time>2026-08-25T12:09:15Z</time>
</trkpt>
<trkpt lat="49.394999999999996" lon="1.15751">
<ele>155.0</ele>
<time>2026-08-25T12:09:18Z</time>
</trkpt>
<trkpt lat="49.39499" lon="1.1574499999999999">
<ele>155.0</ele>
<time>2026-08-25T12:09:21Z</time>
</trkpt>
<trkpt lat="49.39498" lon="1.1574">
<ele>155.0</ele>
<time>2026-08-25T12:09:23Z</time>
</trkpt>
<trkpt lat="49.39498" lon="1.15736">
<ele>155.0</ele>
<time>2026-08-25T12:09:25Z</time>
</trkpt>
<trkpt lat="49.39497" lon="1.1573099999999998">
<ele>155.0</ele>
<time>2026-08-25T12:09:27Z</time>
</trkpt>
<trkpt lat="49.39496" lon="1.15727">
<ele>155.0</ele>
<time>2026-08-25T12:09:29Z</time>
</trkpt>
<trkpt lat="49.394949999999994" lon="1.15723">
<ele>155.0</ele>
<time>2026-08-25T12:09:31Z</time>
</trkpt>
<trkpt lat="49.39494" lon="1.15719">
<ele>155.0</ele>
<time>2026-08-25T12:09:33Z</time>
</trkpt>
<trkpt lat="49.394929999999995" lon="1.15714">
<ele>155.0</ele>
<time>2026-08-25T12:09:36Z</time>
</trkpt>
<trkpt lat="49.394909999999996" lon="1.1571">
<ele>155.0</ele>
<time>2026-08-25T12:09:39Z</time>
</trkpt>
<trkpt lat="49.3949" lon="1.15705">
<ele>155.0</ele>
<time>2026-08-25T12:09:43Z</time>
</trkpt>
<trkpt lat="49.3949" lon="1.157">
<ele>155.0</ele>
<time>2026-08-25T12:09:46Z</time>
</trkpt>
<trkpt lat="49.39489" lon="1.15695">
<ele>155.0</ele>
<time>2026-08-25T12:09:49Z</time>
</trkpt>
<trkpt lat="49.39489" lon="1.1569">
<ele>155.0</ele>
<time>2026-08-25T12:09:52Z</time>
</trkpt>
<trkpt lat="49.39488" lon="1.15685">
<ele>155.0</ele>
<time>2026-08-25T12:09:55Z</time>
</trkpt>
<trkpt lat="49.39488" lon="1.15679">
<ele>155.0</ele>
<time>2026-08-25T12:09:58Z</time>
</trkpt>
<trkpt lat="49.39488" lon="1.1567399999999999">
<ele>155.0</ele>
<time>2026-08-25T12:10:01Z</time>
</trkpt>
<trkpt lat="49.39487" lon="1.15668">
<ele>155.0</ele>
<time>2026-08-25T12:10:04Z</time>
</trkpt>
<trkpt lat="49.39487" lon="1.15663">
<ele>155.0</ele>
<time>2026-08-25T12:10:06Z</time>
</trkpt>
<trkpt lat="49.394859999999994" lon="1.1565699999999999">
<ele>156.0</ele>
<time>2026-08-25T12:10:09Z</time>
</trkpt>
<trkpt lat="49.39485" lon="1.15653">
<ele>156.0</ele>
<time>2026-08-25T12:10:11Z</time>
</trkpt>
<trkpt lat="49.39485" lon="1.15648">
<ele>157.0</ele>
<time>2026-08-25T12:10:13Z</time>
</trkpt>
<trkpt lat="49.394839999999995" lon="1.15644">
<ele>157.0</ele>
<time>2026-08-25T12:10:15Z</time>
</trkpt>
<trkpt lat="49.394839999999995" lon="1.1563999999999999">
<ele>157.0</ele>
<time>2026-08-25T12:10:17Z</time>
</trkpt>
<trkpt lat="49.39483" lon="1.15636">
<ele>157.0</ele>
<time>2026-08-25T12:10:19Z</time>
</trkpt>
<trkpt lat="49.39483" lon="1.15631">
<ele>157.0</ele>
<time>2026-08-25T12:10:21Z</time>
</trkpt>
<trkpt lat="49.394819999999996" lon="1.15628">
<ele>157.0</ele>
<time>2026-08-25T12:10:23Z</time>
</trkpt>
<trkpt lat="49.3948" lon="1.15624">
<ele>157.0</ele>
<time>2026-08-25T12:10:25Z</time>
</trkpt>
<trkpt lat="49.39478" lon="1.15619">
<ele>157.0</ele>
<time>2026-08-25T12:10:28Z</time>
</trkpt>
<trkpt lat="49.39476" lon="1.15614">
<ele>157.0</ele>
<time>2026-08-25T12:10:31Z</time>
</trkpt>
<trkpt lat="49.394749999999995" lon="1.1560899999999998">
<ele>157.0</ele>
<time>2026-08-25T12:10:34Z</time>
</trkpt>
<trkpt lat="49.394749999999995" lon="1.15604">
<ele>157.0</ele>
<time>2026-08-25T12:10:37Z</time>
</trkpt>
<trkpt lat="49.39474" lon="1.1559899999999999">
<ele>157.0</ele>
<time>2026-08-25T12:10:40Z</time>
</trkpt>
<trkpt lat="49.394729999999996" lon="1.15595">
<ele>157.0</ele>
<time>2026-08-25T12:10:43Z</time>
</trkpt>
<trkpt lat="49.39472" lon="1.1559">
<ele>157.0</ele>
<time>2026-08-25T12:10:46Z</time>
</trkpt>
<trkpt lat="49.394709999999996" lon="1.15585">
<ele>157.0</ele>
<time>2026-08-25T12:10:49Z</time>
</trkpt>
<trkpt lat="49.3947" lon="1.1558">
<ele>157.0</ele>
<time>2026-08-25T12:10:52Z</time>
</trkpt>
<trkpt lat="49.3947" lon="1.15575">
<ele>157.0</ele>
<time>2026-08-25T12:10:54Z</time>
</trkpt>
<trkpt lat="49.39469" lon="1.15571">
<ele>157.0</ele>
<time>2026-08-25T12:10:56Z</time>
</trkpt>
<trkpt lat="49.39469" lon="1.15566">
<ele>156.0</ele>
<time>2026-08-25T12:10:58Z</time>
</trkpt>
<trkpt lat="49.39468" lon="1.1556199999999999">
<ele>156.0</ele>
<time>2026-08-25T12:11:00Z</time>
</trkpt>
<trkpt lat="49.39468" lon="1.15558">
<ele>156.0</ele>
<time>2026-08-25T12:11:02Z</time>
</trkpt>
<trkpt lat="49.39467" lon="1.15553">
<ele>156.0</ele>
<time>2026-08-25T12:11:05Z</time>
</trkpt>
<trkpt lat="49.39465" lon="1.15547">
<ele>156.0</ele>
<time>2026-08-25T12:11:08Z</time>
</trkpt>
<trkpt lat="49.39463" lon="1.15542">
<ele>156.0</ele>
<time>2026-08-25T12:11:11Z</time>
</trkpt>
<trkpt lat="49.394619999999996" lon="1.15537">
<ele>156.0</ele>
<time>2026-08-25T12:11:14Z</time>
</trkpt>
<trkpt lat="49.39461" lon="1.15532">
<ele>156.0</ele>
<time>2026-08-25T12:11:17Z</time>
</trkpt>
<trkpt lat="49.3946" lon="1.1552799999999999">
<ele>156.0</ele>
<time>2026-08-25T12:11:20Z</time>
</trkpt>
<trkpt lat="49.39459" lon="1.15524">
<ele>156.0</ele>
<time>2026-08-25T12:11:23Z</time>
</trkpt>
<trkpt lat="49.39458" lon="1.15519">
<ele>154.0</ele>
<time>2026-08-25T12:11:26Z</time>
</trkpt>
<trkpt lat="49.39458" lon="1.15514">
<ele>154.0</ele>
<time>2026-08-25T12:11:29Z</time>
</trkpt>
<trkpt lat="49.39458" lon="1.15509">
<ele>154.0</ele>
<time>2026-08-25T12:11:32Z</time>
</trkpt>
<trkpt lat="49.394569999999995" lon="1.15503">
<ele>154.0</ele>
<time>2026-08-25T12:11:35Z</time>
</trkpt>
<trkpt lat="49.394569999999995" lon="1.15497">
<ele>154.0</ele>
<time>2026-08-25T12:11:38Z</time>
</trkpt>
<trkpt lat="49.39456" lon="1.15492">
<ele>154.0</ele>
<time>2026-08-25T12:11:41Z</time>
</trkpt>
<trkpt lat="49.394549999999995" lon="1.1548699999999998">
<ele>154.0</ele>
<time>2026-08-25T12:11:44Z</time>
</trkpt>
<trkpt lat="49.39454" lon="1.15482">
<ele>155.0</ele>
<time>2026-08-25T12:11:47Z</time>
</trkpt>
<trkpt lat="49.39454" lon="1.1547699999999999">
<ele>155.0</ele>
<time>2026-08-25T12:11:50Z</time>
</trkpt>
<trkpt lat="49.394529999999996" lon="1.15472">
<ele>155.0</ele>
<time>2026-08-25T12:11:53Z</time>
</trkpt>
<trkpt lat="49.39451" lon="1.15468">
<ele>155.0</ele>
<time>2026-08-25T12:11:55Z</time>
</trkpt>
<trkpt lat="49.39449" lon="1.15463">
<ele>155.0</ele>
<time>2026-08-25T12:11:58Z</time>
</trkpt>
<trkpt lat="49.394479999999994" lon="1.15459">
<ele>155.0</ele>
<time>2026-08-25T12:12:00Z</time>
</trkpt>
<trkpt lat="49.39445" lon="1.15456">
<ele>155.0</ele>
<time>2026-08-25T12:12:03Z</time>
</trkpt>
<trkpt lat="49.39442" lon="1.15454">
<ele>155.0</ele>
<time>2026-08-25T12:12:06Z</time>
</trkpt>
<trkpt lat="49.394389999999994" lon="1.15455">
<ele>155.0</ele>
<time>2026-08-25T12:12:09Z</time>
</trkpt>
<trkpt lat="49.394369999999995" lon="1.1545699999999999">
<ele>155.0</ele>
<time>2026-08-25T12:12:11Z</time>
</trkpt>
<trkpt lat="49.39434" lon="1.1545999999999998">
<ele>155.0</ele>
<time>2026-08-25T12:12:13Z</time>
</trkpt>
<trkpt lat="49.39432" lon="1.15463">
<ele>155.0</ele>
<time>2026-08-25T12:12:15Z</time>
</trkpt>
<trkpt lat="49.39429" lon="1.15466">
<ele>156.0</ele>
<time>2026-08-25T12:12:18Z</time>
</trkpt>
<trkpt lat="49.394259999999996" lon="1.15469">
<ele>156.0</ele>
<time>2026-08-25T12:12:20Z</time>
</trkpt>
<trkpt lat="49.39423" lon="1.15471">
<ele>156.0</ele>
<time>2026-08-25T12:12:22Z</time>
</trkpt>
<trkpt lat="49.39421" lon="1.1547399999999999">
<ele>156.0</ele>
<time>2026-08-25T12:12:24Z</time>
</trkpt>
<trkpt lat="49.39418" lon="1.15476">
<ele>156.0</ele>
<time>2026-08-25T12:12:26Z</time>
</trkpt>
<trkpt lat="49.39416" lon="1.15479">
<ele>156.0</ele>
<time>2026-08-25T12:12:28Z</time>
</trkpt>
<trkpt lat="49.39413" lon="1.15482">
<ele>156.0</ele>
<time>2026-08-25T12:12:30Z</time>
</trkpt>
<trkpt lat="49.39411" lon="1.1548399999999999">
<ele>156.0</ele>
<time>2026-08-25T12:12:32Z</time>
</trkpt>
<trkpt lat="49.394079999999995" lon="1.15486">
<ele>156.0</ele>
<time>2026-08-25T12:12:34Z</time>
</trkpt>
<trkpt lat="49.39405" lon="1.15488">
<ele>155.0</ele>
<time>2026-08-25T12:12:36Z</time>
</trkpt>
<trkpt lat="49.39402" lon="1.1549099999999999">
<ele>155.0</ele>
<time>2026-08-25T12:12:39Z</time>
</trkpt>
<trkpt lat="49.393989999999995" lon="1.1549399999999999">
<ele>155.0</ele>
<time>2026-08-25T12:12:42Z</time>
</trkpt>
<trkpt lat="49.39396" lon="1.15497">
<ele>155.0</ele>
<time>2026-08-25T12:12:45Z</time>
</trkpt>
<trkpt lat="49.39393" lon="1.155">
<ele>155.0</ele>
<time>2026-08-25T12:12:47Z</time>
</trkpt>
<trkpt lat="49.393899999999995" lon="1.15503">
<ele>155.0</ele>
<time>2026-08-25T12:12:50Z</time>
</trkpt>
<trkpt lat="49.393879999999996" lon="1.15506">
<ele>155.0</ele>
<time>2026-08-25T12:12:52Z</time>
</trkpt>
<trkpt lat="49.39385" lon="1.15509">
<ele>155.0</ele>
<time>2026-08-25T12:12:54Z</time>
</trkpt>
<trkpt lat="49.39384" lon="1.15512">
<ele>155.0</ele>
<time>2026-08-25T12:12:56Z</time>
</trkpt>
<trkpt lat="49.39382" lon="1.15516">
<ele>155.0</ele>
<time>2026-08-25T12:12:58Z</time>
</trkpt>
<trkpt lat="49.3938" lon="1.15519">
<ele>155.0</ele>
<time>2026-08-25T12:13:01Z</time>
</trkpt>
<trkpt lat="49.393769999999996" lon="1.15522">
<ele>155.0</ele>
<time>2026-08-25T12:13:04Z</time>
</trkpt>
<trkpt lat="49.39374" lon="1.15524">
<ele>155.0</ele>
<time>2026-08-25T12:13:07Z</time>
</trkpt>
<trkpt lat="49.393719999999995" lon="1.15527">
<ele>155.0</ele>
<time>2026-08-25T12:13:10Z</time>
</trkpt>
<trkpt lat="49.39369" lon="1.1553">
<ele>155.0</ele>
<time>2026-08-25T12:13:13Z</time>
</trkpt>
<trkpt lat="49.39366" lon="1.15533">
<ele>155.0</ele>
<time>2026-08-25T12:13:16Z</time>
</trkpt>
<trkpt lat="49.393629999999995" lon="1.15536">
<ele>155.0</ele>
<time>2026-08-25T12:13:19Z</time>
</trkpt>
<trkpt lat="49.3936" lon="1.1553799999999999">
<ele>155.0</ele>
<time>2026-08-25T12:13:21Z</time>
</trkpt>
<trkpt lat="49.39357" lon="1.15541">
<ele>155.0</ele>
<time>2026-08-25T12:13:24Z</time>
</trkpt>
<trkpt lat="49.393539999999994" lon="1.15544">
<ele>155.0</ele>
<time>2026-08-25T12:13:27Z</time>
</trkpt>
<trkpt lat="49.39351" lon="1.15547">
<ele>155.0</ele>
<time>2026-08-25T12:13:29Z</time>
</trkpt>
<trkpt lat="49.39349" lon="1.15549">
<ele>155.0</ele>
<time>2026-08-25T12:13:31Z</time>
</trkpt>
<trkpt lat="49.39346" lon="1.15551">
<ele>154.0</ele>
<time>2026-08-25T12:13:33Z</time>
</trkpt>
<trkpt lat="49.39344" lon="1.15553">
<ele>154.0</ele>
<time>2026-08-25T12:13:35Z</time>
</trkpt>
<trkpt lat="49.393409999999996" lon="1.15556">
<ele>154.0</ele>
<time>2026-08-25T12:13:38Z</time>
</trkpt>
<trkpt lat="49.39339" lon="1.15559">
<ele>154.0</ele>
<time>2026-08-25T12:13:40Z</time>
</trkpt>
<trkpt lat="49.39336" lon="1.15563">
<ele>154.0</ele>
<time>2026-08-25T12:13:43Z</time>
</trkpt>
<trkpt lat="49.393339999999995" lon="1.15566">
<ele>154.0</ele>
<time>2026-08-25T12:13:46Z</time>
</trkpt>
<trkpt lat="49.39331" lon="1.1556899999999999">
<ele>154.0</ele>
<time>2026-08-25T12:13:49Z</time>
</trkpt>
<trkpt lat="49.39329" lon="1.1557199999999999">
<ele>154.0</ele>
<time>2026-08-25T12:13:52Z</time>
</trkpt>
<trkpt lat="49.39326" lon="1.15575">
<ele>154.0</ele>
<time>2026-08-25T12:13:55Z</time>
</trkpt>
<trkpt lat="49.393229999999996" lon="1.15578">
<ele>154.0</ele>
<time>2026-08-25T12:13:58Z</time>
</trkpt>
<trkpt lat="49.3932" lon="1.15581">
<ele>154.0</ele>
<time>2026-08-25T12:14:00Z</time>
</trkpt>
<trkpt lat="49.39319" lon="1.15585">
<ele>154.0</ele>
<time>2026-08-25T12:14:02Z</time>
</trkpt>
<trkpt lat="49.39317" lon="1.1558899999999999">
<ele>154.0</ele>
<time>2026-08-25T12:14:04Z</time>
</trkpt>
<trkpt lat="49.393139999999995" lon="1.15593">
<ele>154.0</ele>
<time>2026-08-25T12:14:07Z</time>
</trkpt>
<trkpt lat="49.39311" lon="1.15595">
<ele>154.0</ele>
<time>2026-08-25T12:14:10Z</time>
</trkpt>
<trkpt lat="49.39309" lon="1.15598">
<ele>154.0</ele>
<time>2026-08-25T12:14:12Z</time>
</trkpt>
<trkpt lat="49.393069999999994" lon="1.15601">
<ele>154.0</ele>
<time>2026-08-25T12:14:14Z</time>
</trkpt>
<trkpt lat="49.393049999999995" lon="1.15605">
<ele>154.0</ele>
<time>2026-08-25T12:14:16Z</time>
</trkpt>
<trkpt lat="49.393029999999996" lon="1.1561">
<ele>154.0</ele>
<time>2026-08-25T12:14:18Z</time>
</trkpt>
<trkpt lat="49.39301" lon="1.15615">
<ele>154.0</ele>
<time>2026-08-25T12:14:20Z</time>
</trkpt>
<trkpt lat="49.393" lon="1.15619">
<ele>154.0</ele>
<time>2026-08-25T12:14:22Z</time>
</trkpt>
<trkpt lat="49.392979999999994" lon="1.15622">
<ele>154.0</ele>
<time>2026-08-25T12:14:24Z</time>
</trkpt>
<trkpt lat="49.39295" lon="1.15624">
<ele>154.0</ele>
<time>2026-08-25T12:14:26Z</time>
</trkpt>
<trkpt lat="49.39293" lon="1.1562599999999998">
<ele>153.0</ele>
<time>2026-08-25T12:14:28Z</time>
</trkpt>
<trkpt lat="49.3929" lon="1.15628">
<ele>152.0</ele>
<time>2026-08-25T12:14:31Z</time>
</trkpt>
<trkpt lat="49.392869999999995" lon="1.15631">
<ele>152.0</ele>
<time>2026-08-25T12:14:34Z</time>
</trkpt>
<trkpt lat="49.39284" lon="1.1563299999999999">
<ele>152.0</ele>
<time>2026-08-25T12:14:37Z</time>
</trkpt>
<trkpt lat="49.39282" lon="1.15635">
<ele>152.0</ele>
<time>2026-08-25T12:14:40Z</time>
</trkpt>
<trkpt lat="49.39279" lon="1.15638">
<ele>152.0</ele>
<time>2026-08-25T12:14:43Z</time>
</trkpt>
<trkpt lat="49.39277" lon="1.15641">
<ele>152.0</ele>
<time>2026-08-25T12:14:46Z</time>
</trkpt>
<trkpt lat="49.392739999999996" lon="1.1564299999999998">
<ele>152.0</ele>
<time>2026-08-25T12:14:49Z</time>
</trkpt>
<trkpt lat="49.39272" lon="1.1564699999999999">
<ele>152.0</ele>
<time>2026-08-25T12:14:52Z</time>
</trkpt>
<trkpt lat="49.3927" lon="1.15651">
<ele>152.0</ele>
<time>2026-08-25T12:14:55Z</time>
</trkpt>
<trkpt lat="49.392669999999995" lon="1.15655">
<ele>151.0</ele>
<time>2026-08-25T12:14:58Z</time>
</trkpt>
<trkpt lat="49.39264" lon="1.1565699999999999">
<ele>151.0</ele>
<time>2026-08-25T12:15:01Z</time>
</trkpt>
<trkpt lat="49.39262" lon="1.1565999999999999">
<ele>150.0</ele>
<time>2026-08-25T12:15:03Z</time>
</trkpt>
<trkpt lat="49.39259" lon="1.15663">
<ele>150.0</ele>
<time>2026-08-25T12:15:06Z</time>
</trkpt>
<trkpt lat="49.392559999999996" lon="1.15666">
<ele>150.0</ele>
<time>2026-08-25T12:15:08Z</time>
</trkpt>
<trkpt lat="49.39254" lon="1.15669">
<ele>150.0</ele>
<time>2026-08-25T12:15:10Z</time>
</trkpt>
<trkpt lat="49.39252" lon="1.15672">
<ele>150.0</ele>
<time>2026-08-25T12:15:12Z</time>
</trkpt>
<trkpt lat="49.3925" lon="1.15676">
<ele>150.0</ele>
<time>2026-08-25T12:15:14Z</time>
</trkpt>
<trkpt lat="49.39248" lon="1.1568">
<ele>150.0</ele>
<time>2026-08-25T12:15:17Z</time>
</trkpt>
<trkpt lat="49.39245" lon="1.1568399999999999">
<ele>149.0</ele>
<time>2026-08-25T12:15:20Z</time>
</trkpt>
<trkpt lat="49.39243" lon="1.15688">
<ele>149.0</ele>
<time>2026-08-25T12:15:23Z</time>
</trkpt>
<trkpt lat="49.392399999999995" lon="1.1569">
<ele>149.0</ele>
<time>2026-08-25T12:15:26Z</time>
</trkpt>
<trkpt lat="49.39237" lon="1.15693">
<ele>149.0</ele>
<time>2026-08-25T12:15:29Z</time>
</trkpt>
<trkpt lat="49.39234" lon="1.15695">
<ele>149.0</ele>
<time>2026-08-25T12:15:31Z</time>
</trkpt>
<trkpt lat="49.392309999999995" lon="1.15697">
<ele>149.0</ele>
<time>2026-08-25T12:15:34Z</time>
</trkpt>
<trkpt lat="49.39228" lon="1.15699">
<ele>149.0</ele>
<time>2026-08-25T12:15:37Z</time>
</trkpt>
<trkpt lat="49.39225" lon="1.15702">
<ele>149.0</ele>
<time>2026-08-25T12:15:40Z</time>
</trkpt>
<trkpt lat="49.392219999999995" lon="1.1570399999999998">
<ele>149.0</ele>
<time>2026-08-25T12:15:43Z</time>
</trkpt>
<trkpt lat="49.39219" lon="1.15707">
<ele>149.0</ele>
<time>2026-08-25T12:15:46Z</time>
</trkpt>
<trkpt lat="49.39216" lon="1.15709">
<ele>149.0</ele>
<time>2026-08-25T12:15:48Z</time>
</trkpt>
<trkpt lat="49.392129999999995" lon="1.15712">
<ele>149.0</ele>
<time>2026-08-25T12:15:51Z</time>
</trkpt>
<trkpt lat="49.3921" lon="1.15714">
<ele>149.0</ele>
<time>2026-08-25T12:15:54Z</time>
</trkpt>
<trkpt lat="49.39207" lon="1.15716">
<ele>148.0</ele>
<time>2026-08-25T12:15:57Z</time>
</trkpt>
<trkpt lat="49.392039999999994" lon="1.1571799999999999">
<ele>148.0</ele>
<time>2026-08-25T12:16:00Z</time>
</trkpt>
<trkpt lat="49.391999999999996" lon="1.1572">
<ele>148.0</ele>
<time>2026-08-25T12:16:03Z</time>
</trkpt>
<trkpt lat="49.39197" lon="1.15722">
<ele>148.0</ele>
<time>2026-08-25T12:16:06Z</time>
</trkpt>
<trkpt lat="49.39194" lon="1.15725">
<ele>148.0</ele>
<time>2026-08-25T12:16:09Z</time>
</trkpt>
<trkpt lat="49.391909999999996" lon="1.1572799999999999">
<ele>148.0</ele>
<time>2026-08-25T12:16:12Z</time>
</trkpt>
<trkpt lat="49.39189" lon="1.1573099999999998">
<ele>148.0</ele>
<time>2026-08-25T12:16:15Z</time>
</trkpt>
<trkpt lat="49.39186" lon="1.15734">
<ele>148.0</ele>
<time>2026-08-25T12:16:17Z</time>
</trkpt>
<trkpt lat="49.391839999999995" lon="1.15737">
<ele>147.0</ele>
<time>2026-08-25T12:16:19Z</time>
</trkpt>
<trkpt lat="49.39181" lon="1.15739">
<ele>147.0</ele>
<time>2026-08-25T12:16:21Z</time>
</trkpt>
<trkpt lat="49.39179" lon="1.15742">
<ele>147.0</ele>
<time>2026-08-25T12:16:24Z</time>
</trkpt>
<trkpt lat="49.39176" lon="1.1574499999999999">
<ele>147.0</ele>
<time>2026-08-25T12:16:27Z</time>
</trkpt>
<trkpt lat="49.39174" lon="1.15749">
<ele>147.0</ele>
<time>2026-08-25T12:16:30Z</time>
</trkpt>
<trkpt lat="49.391709999999996" lon="1.15753">
<ele>147.0</ele>
<time>2026-08-25T12:16:33Z</time>
</trkpt>
<trkpt lat="49.39169" lon="1.15756">
<ele>147.0</ele>
<time>2026-08-25T12:16:36Z</time>
</trkpt>
<trkpt lat="49.39167" lon="1.1576">
<ele>147.0</ele>
<time>2026-08-25T12:16:39Z</time>
</trkpt>
<trkpt lat="49.391639999999995" lon="1.1576199999999999">
<ele>147.0</ele>
<time>2026-08-25T12:16:42Z</time>
</trkpt>
<trkpt lat="49.3916" lon="1.15763">
<ele>147.0</ele>
<time>2026-08-25T12:16:45Z</time>
</trkpt>
<trkpt lat="49.391569999999994" lon="1.15763">
<ele>147.0</ele>
<time>2026-08-25T12:16:48Z</time>
</trkpt>
<trkpt lat="49.39154" lon="1.15761">
<ele>147.0</ele>
<time>2026-08-25T12:16:50Z</time>
</trkpt>
<trkpt lat="49.39151" lon="1.15758">
<ele>146.0</ele>
<time>2026-08-25T12:16:53Z</time>
</trkpt>
<trkpt lat="49.39149" lon="1.15754">
<ele>146.0</ele>
<time>2026-08-25T12:16:55Z</time>
</trkpt>
<trkpt lat="49.39147" lon="1.1575">
<ele>146.0</ele>
<time>2026-08-25T12:16:57Z</time>
</trkpt>
<trkpt lat="49.391459999999995" lon="1.15746">
<ele>146.0</ele>
<time>2026-08-25T12:16:59Z</time>
</trkpt>
<trkpt lat="49.391439999999996" lon="1.15742">
<ele>146.0</ele>
<time>2026-08-25T12:17:01Z</time>
</trkpt>
<trkpt lat="49.391439999999996" lon="1.15737">
<ele>146.0</ele>
<time>2026-08-25T12:17:03Z</time>
</trkpt>
<trkpt lat="49.39143" lon="1.15732">
<ele>146.0</ele>
<time>2026-08-25T12:17:05Z</time>
</trkpt>
<trkpt lat="49.39143" lon="1.1572799999999999">
<ele>146.0</ele>
<time>2026-08-25T12:17:07Z</time>
</trkpt>
<trkpt lat="49.39142" lon="1.15723">
<ele>146.0</ele>
<time>2026-08-25T12:17:09Z</time>
</trkpt>
<trkpt lat="49.39141" lon="1.15719">
<ele>146.0</ele>
<time>2026-08-25T12:17:11Z</time>
</trkpt>
<trkpt lat="49.3914" lon="1.15714">
<ele>146.0</ele>
<time>2026-08-25T12:17:13Z</time>
</trkpt>
<trkpt lat="49.3914" lon="1.15709">
<ele>146.0</ele>
<time>2026-08-25T12:17:15Z</time>
</trkpt>
<trkpt lat="49.3914" lon="1.1570399999999998">
<ele>145.0</ele>
<time>2026-08-25T12:17:18Z</time>
</trkpt>
<trkpt lat="49.39139" lon="1.15699">
<ele>145.0</ele>
<time>2026-08-25T12:17:21Z</time>
</trkpt>
<trkpt lat="49.39138" lon="1.1569399999999999">
<ele>145.0</ele>
<time>2026-08-25T12:17:24Z</time>
</trkpt>
<trkpt lat="49.391369999999995" lon="1.15689">
<ele>145.0</ele>
<time>2026-08-25T12:17:27Z</time>
</trkpt>
<trkpt lat="49.39136" lon="1.1568399999999999">
<ele>145.0</ele>
<time>2026-08-25T12:17:30Z</time>
</trkpt>
<trkpt lat="49.39134" lon="1.15679">
<ele>145.0</ele>
<time>2026-08-25T12:17:33Z</time>
</trkpt>
<trkpt lat="49.391329999999996" lon="1.1567399999999999">
<ele>145.0</ele>
<time>2026-08-25T12:17:36Z</time>
</trkpt>
<trkpt lat="49.39131" lon="1.1566999999999998">
<ele>145.0</ele>
<time>2026-08-25T12:17:39Z</time>
</trkpt>
<trkpt lat="49.3913" lon="1.15665">
<ele>145.0</ele>
<time>2026-08-25T12:17:42Z</time>
</trkpt>
<trkpt lat="49.391279999999995" lon="1.15661">
<ele>145.0</ele>
<time>2026-08-25T12:17:45Z</time>
</trkpt>
<trkpt lat="49.39127" lon="1.15656">
<ele>145.0</ele>
<time>2026-08-25T12:17:48Z</time>
</trkpt>
<trkpt lat="49.391259999999996" lon="1.15652">
<ele>144.0</ele>
<time>2026-08-25T12:17:57Z</time>
</trkpt>
<trkpt lat="49.39125" lon="1.15648">
<ele>145.0</ele>
<time>2026-08-25T12:18:00Z</time>
</trkpt>
<trkpt lat="49.391239999999996" lon="1.1564299999999998">
<ele>145.0</ele>
<time>2026-08-25T12:18:04Z</time>
</trkpt>
<trkpt lat="49.39123" lon="1.15638">
<ele>145.0</ele>
<time>2026-08-25T12:18:07Z</time>
</trkpt>
<trkpt lat="49.39123" lon="1.15634">
<ele>145.0</ele>
<time>2026-08-25T12:18:10Z</time>
</trkpt>
<trkpt lat="49.39122" lon="1.15629">
<ele>145.0</ele>
<time>2026-08-25T12:18:13Z</time>
</trkpt>
<trkpt lat="49.39122" lon="1.15624">
<ele>144.0</ele>
<time>2026-08-25T12:18:16Z</time>
</trkpt>
<trkpt lat="49.39121" lon="1.15619">
<ele>144.0</ele>
<time>2026-08-25T12:18:19Z</time>
</trkpt>
<trkpt lat="49.39121" lon="1.15614">
<ele>144.0</ele>
<time>2026-08-25T12:18:22Z</time>
</trkpt>
<trkpt lat="49.3912" lon="1.1560899999999998">
<ele>144.0</ele>
<time>2026-08-25T12:18:25Z</time>
</trkpt>
<trkpt lat="49.391189999999995" lon="1.15605">
<ele>144.0</ele>
<time>2026-08-25T12:18:27Z</time>
</trkpt>
<trkpt lat="49.39118" lon="1.156">
<ele>144.0</ele>
<time>2026-08-25T12:18:30Z</time>
</trkpt>
<trkpt lat="49.391169999999995" lon="1.15595">
<ele>144.0</ele>
<time>2026-08-25T12:18:33Z</time>
</trkpt>
<trkpt lat="49.39116" lon="1.1558899999999999">
<ele>144.0</ele>
<time>2026-08-25T12:18:36Z</time>
</trkpt>
<trkpt lat="49.39114" lon="1.1558599999999999">
<ele>144.0</ele>
<time>2026-08-25T12:18:38Z</time>
</trkpt>
<trkpt lat="49.39112" lon="1.1558199999999998">
<ele>144.0</ele>
<time>2026-08-25T12:18:40Z</time>
</trkpt>
<trkpt lat="49.391099999999994" lon="1.15577">
<ele>144.0</ele>
<time>2026-08-25T12:18:43Z</time>
</trkpt>
<trkpt lat="49.391079999999995" lon="1.1557199999999999">
<ele>144.0</ele>
<time>2026-08-25T12:18:45Z</time>
</trkpt>
<trkpt lat="49.391059999999996" lon="1.15567">
<ele>145.0</ele>
<time>2026-08-25T12:18:48Z</time>
</trkpt>
<trkpt lat="49.39105" lon="1.15563">
<ele>145.0</ele>
<time>2026-08-25T12:18:51Z</time>
</trkpt>
<trkpt lat="49.39103" lon="1.15558">
<ele>145.0</ele>
<time>2026-08-25T12:18:54Z</time>
</trkpt>
<trkpt lat="49.39102" lon="1.15553">
<ele>145.0</ele>
<time>2026-08-25T12:18:57Z</time>
</trkpt>
<trkpt lat="49.391009999999994" lon="1.15549">
<ele>145.0</ele>
<time>2026-08-25T12:19:00Z</time>
</trkpt>
<trkpt lat="49.391" lon="1.15544">
<ele>145.0</ele>
<time>2026-08-25T12:19:03Z</time>
</trkpt>
<trkpt lat="49.390989999999995" lon="1.1554">
<ele>146.0</ele>
<time>2026-08-25T12:19:05Z</time>
</trkpt>
<trkpt lat="49.39098" lon="1.15536">
<ele>146.0</ele>
<time>2026-08-25T12:19:07Z</time>
</trkpt>
<trkpt lat="49.39096" lon="1.15532">
<ele>145.0</ele>
<time>2026-08-25T12:19:09Z</time>
</trkpt>
<trkpt lat="49.39096" lon="1.1552799999999999">
<ele>145.0</ele>
<time>2026-08-25T12:19:12Z</time>
</trkpt>
<trkpt lat="49.39095" lon="1.15523">
<ele>145.0</ele>
<time>2026-08-25T12:19:15Z</time>
</trkpt>
<trkpt lat="49.39095" lon="1.1551799999999999">
<ele>145.0</ele>
<time>2026-08-25T12:19:18Z</time>
</trkpt>
<trkpt lat="49.39093" lon="1.15513">
<ele>146.0</ele>
<time>2026-08-25T12:19:21Z</time>
</trkpt>
<trkpt lat="49.39093" lon="1.1550799999999999">
<ele>146.0</ele>
<time>2026-08-25T12:19:23Z</time>
</trkpt>
<trkpt lat="49.39092" lon="1.1550399999999998">
<ele>146.0</ele>
<time>2026-08-25T12:19:25Z</time>
</trkpt>
<trkpt lat="49.39092" lon="1.15499">
<ele>146.0</ele>
<time>2026-08-25T12:19:28Z</time>
</trkpt>
<trkpt lat="49.39091" lon="1.15493">
<ele>146.0</ele>
<time>2026-08-25T12:19:31Z</time>
</trkpt>
<trkpt lat="49.39091" lon="1.15488">
<ele>146.0</ele>
<time>2026-08-25T12:19:34Z</time>
</trkpt>
<trkpt lat="49.390899999999995" lon="1.15483">
<ele>146.0</ele>
<time>2026-08-25T12:19:37Z</time>
</trkpt>
<trkpt lat="49.39089" lon="1.15478">
<ele>146.0</ele>
<time>2026-08-25T12:19:40Z</time>
</trkpt>
<trkpt lat="49.390879999999996" lon="1.1547399999999999">
<ele>146.0</ele>
<time>2026-08-25T12:19:42Z</time>
</trkpt>
<trkpt lat="49.39087" lon="1.1546999999999998">
<ele>146.0</ele>
<time>2026-08-25T12:19:44Z</time>
</trkpt>
<trkpt lat="49.390859999999996" lon="1.15465">
<ele>146.0</ele>
<time>2026-08-25T12:19:46Z</time>
</trkpt>
<trkpt lat="49.39085" lon="1.15461">
<ele>146.0</ele>
<time>2026-08-25T12:19:48Z</time>
</trkpt>
<trkpt lat="49.39083" lon="1.15456">
<ele>146.0</ele>
<time>2026-08-25T12:19:51Z</time>
</trkpt>
<trkpt lat="49.39082" lon="1.15451">
<ele>146.0</ele>
<time>2026-08-25T12:19:54Z</time>
</trkpt>
<trkpt lat="49.390809999999995" lon="1.15446">
<ele>146.0</ele>
<time>2026-08-25T12:19:57Z</time>
</trkpt>
<trkpt lat="49.390789999999996" lon="1.15441">
<ele>146.0</ele>
<time>2026-08-25T12:20:00Z</time>
</trkpt>
<trkpt lat="49.39078" lon="1.15437">
<ele>146.0</ele>
<time>2026-08-25T12:20:03Z</time>
</trkpt>
<trkpt lat="49.390769999999996" lon="1.15432">
<ele>146.0</ele>
<time>2026-08-25T12:20:06Z</time>
</trkpt>
<trkpt lat="49.39076" lon="1.15427">
<ele>146.0</ele>
<time>2026-08-25T12:20:09Z</time>
</trkpt>
<trkpt lat="49.39075" lon="1.15421">
<ele>146.0</ele>
<time>2026-08-25T12:20:12Z</time>
</trkpt>
<trkpt lat="49.39074" lon="1.15417">
<ele>146.0</ele>
<time>2026-08-25T12:20:14Z</time>
</trkpt>
<trkpt lat="49.390719999999995" lon="1.1541299999999999">
<ele>146.0</ele>
<time>2026-08-25T12:20:16Z</time>
</trkpt>
<trkpt lat="49.39071" lon="1.15408">
<ele>146.0</ele>
<time>2026-08-25T12:20:19Z</time>
</trkpt>
<trkpt lat="49.390699999999995" lon="1.15403">
<ele>146.0</ele>
<time>2026-08-25T12:20:22Z</time>
</trkpt>
<trkpt lat="49.39069" lon="1.1539899999999998">
<ele>146.0</ele>
<time>2026-08-25T12:20:24Z</time>
</trkpt>
<trkpt lat="49.390679999999996" lon="1.15394">
<ele>146.0</ele>
<time>2026-08-25T12:20:27Z</time>
</trkpt>
<trkpt lat="49.39067" lon="1.1538899999999999">
<ele>146.0</ele>
<time>2026-08-25T12:20:30Z</time>
</trkpt>
<trkpt lat="49.39066" lon="1.15384">
<ele>146.0</ele>
<time>2026-08-25T12:20:33Z</time>
</trkpt>
<trkpt lat="49.39065" lon="1.15378">
<ele>146.0</ele>
<time>2026-08-25T12:20:36Z</time>
</trkpt>
<trkpt lat="49.39066" lon="1.15373">
<ele>146.0</ele>
<time>2026-08-25T12:20:39Z</time>
</trkpt>
<trkpt lat="49.39064" lon="1.1536899999999999">
<ele>146.0</ele>
<time>2026-08-25T12:20:44Z</time>
</trkpt>
<trkpt lat="49.390629999999994" lon="1.1536499999999998">
<ele>146.0</ele>
<time>2026-08-25T12:20:52Z</time>
</trkpt>
<trkpt lat="49.39062" lon="1.15361">
<ele>146.0</ele>
<time>2026-08-25T12:20:56Z</time>
</trkpt>
<trkpt lat="49.390609999999995" lon="1.15357">
<ele>146.0</ele>
<time>2026-08-25T12:21:00Z</time>
</trkpt>
<trkpt lat="49.3906" lon="1.1535199999999999">
<ele>146.0</ele>
<time>2026-08-25T12:21:05Z</time>
</trkpt>
<trkpt lat="49.3906" lon="1.15347">
<ele>147.0</ele>
<time>2026-08-25T12:21:08Z</time>
</trkpt>
<trkpt lat="49.3906" lon="1.15342">
<ele>147.0</ele>
<time>2026-08-25T12:21:11Z</time>
</trkpt>
<trkpt lat="49.3906" lon="1.15336">
<ele>147.0</ele>
<time>2026-08-25T12:21:14Z</time>
</trkpt>
<trkpt lat="49.3906" lon="1.15331">
<ele>147.0</ele>
<time>2026-08-25T12:21:16Z</time>
</trkpt>
<trkpt lat="49.3906" lon="1.15327">
<ele>147.0</ele>
<time>2026-08-25T12:21:18Z</time>
</trkpt>
<trkpt lat="49.390589999999996" lon="1.1532099999999998">
<ele>147.0</ele>
<time>2026-08-25T12:21:21Z</time>
</trkpt>
<trkpt lat="49.390589999999996" lon="1.15316">
<ele>147.0</ele>
<time>2026-08-25T12:21:24Z</time>
</trkpt>
<trkpt lat="49.39058" lon="1.1531">
<ele>147.0</ele>
<time>2026-08-25T12:21:27Z</time>
</trkpt>
<trkpt lat="49.39057" lon="1.1530399999999998">
<ele>147.0</ele>
<time>2026-08-25T12:21:30Z</time>
</trkpt>
<trkpt lat="49.39057" lon="1.15299">
<ele>147.0</ele>
<time>2026-08-25T12:21:32Z</time>
</trkpt>
<trkpt lat="49.39056" lon="1.1529399999999999">
<ele>147.0</ele>
<time>2026-08-25T12:21:35Z</time>
</trkpt>
<trkpt lat="49.39055" lon="1.15289">
<ele>146.0</ele>
<time>2026-08-25T12:21:37Z</time>
</trkpt>
<trkpt lat="49.390539999999994" lon="1.1528399999999999">
<ele>146.0</ele>
<time>2026-08-25T12:21:40Z</time>
</trkpt>
<trkpt lat="49.390539999999994" lon="1.15278">
<ele>146.0</ele>
<time>2026-08-25T12:21:43Z</time>
</trkpt>
<trkpt lat="49.39053" lon="1.15273">
<ele>146.0</ele>
<time>2026-08-25T12:21:45Z</time>
</trkpt>
<trkpt lat="49.390519999999995" lon="1.15268">
<ele>146.0</ele>
<time>2026-08-25T12:21:48Z</time>
</trkpt>
<trkpt lat="49.390519999999995" lon="1.15263">
<ele>144.0</ele>
<time>2026-08-25T12:21:51Z</time>
</trkpt>
<trkpt lat="49.39051" lon="1.1525699999999999">
<ele>144.0</ele>
<time>2026-08-25T12:21:54Z</time>
</trkpt>
<trkpt lat="49.390499999999996" lon="1.15252">
<ele>144.0</ele>
<time>2026-08-25T12:21:57Z</time>
</trkpt>
<trkpt lat="49.39049" lon="1.1524699999999999">
<ele>144.0</ele>
<time>2026-08-25T12:21:59Z</time>
</trkpt>
<trkpt lat="49.39049" lon="1.15242">
<ele>144.0</ele>
<time>2026-08-25T12:22:01Z</time>
</trkpt>
<trkpt lat="49.39049" lon="1.15237">
<ele>144.0</ele>
<time>2026-08-25T12:22:03Z</time>
</trkpt>
<trkpt lat="49.39049" lon="1.1523299999999999">
<ele>143.0</ele>
<time>2026-08-25T12:22:05Z</time>
</trkpt>
<trkpt lat="49.39049" lon="1.15228">
<ele>143.0</ele>
<time>2026-08-25T12:22:07Z</time>
</trkpt>
<trkpt lat="49.39049" lon="1.1522299999999999">
<ele>143.0</ele>
<time>2026-08-25T12:22:10Z</time>
</trkpt>
<trkpt lat="49.39047" lon="1.15217">
<ele>143.0</ele>
<time>2026-08-25T12:22:13Z</time>
</trkpt>
<trkpt lat="49.39046" lon="1.15212">
<ele>143.0</ele>
<time>2026-08-25T12:22:15Z</time>
</trkpt>
<trkpt lat="49.39044" lon="1.15207">
<ele>143.0</ele>
<time>2026-08-25T12:22:17Z</time>
</trkpt>
<trkpt lat="49.390429999999995" lon="1.1520299999999999">
<ele>143.0</ele>
<time>2026-08-25T12:22:19Z</time>
</trkpt>
<trkpt lat="49.39042" lon="1.15198">
<ele>143.0</ele>
<time>2026-08-25T12:22:21Z</time>
</trkpt>
<trkpt lat="49.390409999999996" lon="1.15193">
<ele>139.0</ele>
<time>2026-08-25T12:22:23Z</time>
</trkpt>
<trkpt lat="49.3904" lon="1.1518899999999999">
<ele>139.0</ele>
<time>2026-08-25T12:22:25Z</time>
</trkpt>
<trkpt lat="49.39039" lon="1.15185">
<ele>139.0</ele>
<time>2026-08-25T12:22:27Z</time>
</trkpt>
<trkpt lat="49.39038" lon="1.15181">
<ele>139.0</ele>
<time>2026-08-25T12:22:29Z</time>
</trkpt>
<trkpt lat="49.39036" lon="1.15177">
<ele>140.0</ele>
<time>2026-08-25T12:22:32Z</time>
</trkpt>
<trkpt lat="49.390339999999995" lon="1.1517199999999999">
<ele>140.0</ele>
<time>2026-08-25T12:22:35Z</time>
</trkpt>
<trkpt lat="49.390319999999996" lon="1.15167">
<ele>140.0</ele>
<time>2026-08-25T12:22:38Z</time>
</trkpt>
<trkpt lat="49.390319999999996" lon="1.15163">
<ele>140.0</ele>
<time>2026-08-25T12:22:41Z</time>
</trkpt>
<trkpt lat="49.39033" lon="1.15158">
<ele>140.0</ele>
<time>2026-08-25T12:22:44Z</time>
</trkpt>
<trkpt lat="49.39033" lon="1.15153">
<ele>140.0</ele>
<time>2026-08-25T12:22:47Z</time>
</trkpt>
<trkpt lat="49.390319999999996" lon="1.15149">
<ele>142.0</ele>
<time>2026-08-25T12:22:50Z</time>
</trkpt>
<trkpt lat="49.390319999999996" lon="1.15144">
<ele>142.0</ele>
<time>2026-08-25T12:22:53Z</time>
</trkpt>
<trkpt lat="49.390319999999996" lon="1.15139">
<ele>142.0</ele>
<time>2026-08-25T12:22:55Z</time>
</trkpt>
<trkpt lat="49.390319999999996" lon="1.15134">
<ele>142.0</ele>
<time>2026-08-25T12:22:57Z</time>
</trkpt>
<trkpt lat="49.39031" lon="1.1513">
<ele>142.0</ele>
<time>2026-08-25T12:22:59Z</time>
</trkpt>
<trkpt lat="49.39031" lon="1.1512499999999999">
<ele>144.0</ele>
<time>2026-08-25T12:23:01Z</time>
</trkpt>
<trkpt lat="49.390299999999996" lon="1.1512">
<ele>144.0</ele>
<time>2026-08-25T12:23:04Z</time>
</trkpt>
<trkpt lat="49.39029" lon="1.15115">
<ele>144.0</ele>
<time>2026-08-25T12:23:07Z</time>
</trkpt>
<trkpt lat="49.39028" lon="1.1511099999999999">
<ele>144.0</ele>
<time>2026-08-25T12:23:10Z</time>
</trkpt>
<trkpt lat="49.39027" lon="1.15106">
<ele>144.0</ele>
<time>2026-08-25T12:23:13Z</time>
</trkpt>
<trkpt lat="49.390249999999995" lon="1.15102">
<ele>144.0</ele>
<time>2026-08-25T12:23:16Z</time>
</trkpt>
<trkpt lat="49.390249999999995" lon="1.15097">
<ele>145.0</ele>
<time>2026-08-25T12:23:19Z</time>
</trkpt>
<trkpt lat="49.39024" lon="1.15092">
<ele>145.0</ele>
<time>2026-08-25T12:23:22Z</time>
</trkpt>
<trkpt lat="49.390229999999995" lon="1.1508699999999998">
<ele>145.0</ele>
<time>2026-08-25T12:23:25Z</time>
</trkpt>
<trkpt lat="49.39022" lon="1.1508099999999999">
<ele>145.0</ele>
<time>2026-08-25T12:23:28Z</time>
</trkpt>
<trkpt lat="49.390209999999996" lon="1.15076">
<ele>145.0</ele>
<time>2026-08-25T12:23:31Z</time>
</trkpt>
<trkpt lat="49.39019" lon="1.15071">
<ele>145.0</ele>
<time>2026-08-25T12:23:33Z</time>
</trkpt>
<trkpt lat="49.39018" lon="1.1506699999999999">
<ele>144.0</ele>
<time>2026-08-25T12:23:35Z</time>
</trkpt>
<trkpt lat="49.39017" lon="1.15063">
<ele>144.0</ele>
<time>2026-08-25T12:23:37Z</time>
</trkpt>
<trkpt lat="49.390159999999995" lon="1.15058">
<ele>144.0</ele>
<time>2026-08-25T12:23:40Z</time>
</trkpt>
<trkpt lat="49.390159999999995" lon="1.15053">
<ele>144.0</ele>
<time>2026-08-25T12:23:43Z</time>
</trkpt>
<trkpt lat="49.39015" lon="1.1504699999999999">
<ele>144.0</ele>
<time>2026-08-25T12:23:46Z</time>
</trkpt>
<trkpt lat="49.39015" lon="1.15042">
<ele>144.0</ele>
<time>2026-08-25T12:23:49Z</time>
</trkpt>
<trkpt lat="49.39015" lon="1.15037">
<ele>144.0</ele>
<time>2026-08-25T12:23:52Z</time>
</trkpt>
<trkpt lat="49.390139999999995" lon="1.15032">
<ele>144.0</ele>
<time>2026-08-25T12:23:55Z</time>
</trkpt>
<trkpt lat="49.390139999999995" lon="1.1502599999999998">
<ele>144.0</ele>
<time>2026-08-25T12:23:58Z</time>
</trkpt>
<trkpt lat="49.39013" lon="1.15021">
<ele>142.0</ele>
<time>2026-08-25T12:24:01Z</time>
</trkpt>
<trkpt lat="49.390119999999996" lon="1.1501599999999998">
<ele>142.0</ele>
<time>2026-08-25T12:24:04Z</time>
</trkpt>
<trkpt lat="49.39011" lon="1.15011">
<ele>143.0</ele>
<time>2026-08-25T12:24:06Z</time>
</trkpt>
<trkpt lat="49.3901" lon="1.15007">
<ele>143.0</ele>
<time>2026-08-25T12:24:08Z</time>
</trkpt>
<trkpt lat="49.3901" lon="1.15002">
<ele>143.0</ele>
<time>2026-08-25T12:24:11Z</time>
</trkpt>
<trkpt lat="49.39009" lon="1.14997">
<ele>143.0</ele>
<time>2026-08-25T12:24:14Z</time>
</trkpt>
<trkpt lat="49.39008" lon="1.14993">
<ele>143.0</ele>
<time>2026-08-25T12:24:17Z</time>
</trkpt>
<trkpt lat="49.390069999999994" lon="1.14988">
<ele>143.0</ele>
<time>2026-08-25T12:24:20Z</time>
</trkpt>
<trkpt lat="49.390069999999994" lon="1.14983">
<ele>146.0</ele>
<time>2026-08-25T12:24:23Z</time>
</trkpt>
<trkpt lat="49.39006" lon="1.14977">
<ele>146.0</ele>
<time>2026-08-25T12:24:26Z</time>
</trkpt>
<trkpt lat="49.39006" lon="1.14971">
<ele>146.0</ele>
<time>2026-08-25T12:24:29Z</time>
</trkpt>
<trkpt lat="49.390049999999995" lon="1.1496499999999998">
<ele>146.0</ele>
<time>2026-08-25T12:24:32Z</time>
</trkpt>
<trkpt lat="49.390049999999995" lon="1.1496">
<ele>146.0</ele>
<time>2026-08-25T12:24:35Z</time>
</trkpt>
<trkpt lat="49.390049999999995" lon="1.14954">
<ele>147.0</ele>
<time>2026-08-25T12:24:38Z</time>
</trkpt>
<trkpt lat="49.39004" lon="1.14948">
<ele>147.0</ele>
<time>2026-08-25T12:24:41Z</time>
</trkpt>
<trkpt lat="49.390029999999996" lon="1.14944">
<ele>147.0</ele>
<time>2026-08-25T12:24:43Z</time>
</trkpt>
<trkpt lat="49.39002" lon="1.14939">
<ele>147.0</ele>
<time>2026-08-25T12:24:45Z</time>
</trkpt>
<trkpt lat="49.39002" lon="1.1493499999999999">
<ele>147.0</ele>
<time>2026-08-25T12:24:47Z</time>
</trkpt>
<trkpt lat="49.39001" lon="1.1493">
<ele>146.0</ele>
<time>2026-08-25T12:24:49Z</time>
</trkpt>
<trkpt lat="49.39" lon="1.1492499999999999">
<ele>146.0</ele>
<time>2026-08-25T12:24:52Z</time>
</trkpt>
<trkpt lat="49.38999" lon="1.1492">
<ele>146.0</ele>
<time>2026-08-25T12:24:55Z</time>
</trkpt>
<trkpt lat="49.389979999999994" lon="1.14914">
<ele>146.0</ele>
<time>2026-08-25T12:24:58Z</time>
</trkpt>
<trkpt lat="49.389959999999995" lon="1.14909">
<ele>146.0</ele>
<time>2026-08-25T12:25:01Z</time>
</trkpt>
<trkpt lat="49.38995" lon="1.1490399999999998">
<ele>146.0</ele>
<time>2026-08-25T12:25:04Z</time>
</trkpt>
<trkpt lat="49.389939999999996" lon="1.14899">
<ele>145.0</ele>
<time>2026-08-25T12:25:06Z</time>
</trkpt>
<trkpt lat="49.38993" lon="1.14895">
<ele>145.0</ele>
<time>2026-08-25T12:25:08Z</time>
</trkpt>
<trkpt lat="49.38992" lon="1.1489099999999999">
<ele>145.0</ele>
<time>2026-08-25T12:25:10Z</time>
</trkpt>
<trkpt lat="49.38991" lon="1.14887">
<ele>145.0</ele>
<time>2026-08-25T12:25:12Z</time>
</trkpt>
<trkpt lat="49.3899" lon="1.14883">
<ele>145.0</ele>
<time>2026-08-25T12:25:14Z</time>
</trkpt>
<trkpt lat="49.38989" lon="1.14878">
<ele>145.0</ele>
<time>2026-08-25T12:25:17Z</time>
</trkpt>
<trkpt lat="49.38989" lon="1.14873">
<ele>145.0</ele>
<time>2026-08-25T12:25:20Z</time>
</trkpt>
<trkpt lat="49.38988" lon="1.14868">
<ele>145.0</ele>
<time>2026-08-25T12:25:23Z</time>
</trkpt>
<trkpt lat="49.389869999999995" lon="1.14863">
<ele>145.0</ele>
<time>2026-08-25T12:25:26Z</time>
</trkpt>
<trkpt lat="49.389869999999995" lon="1.14858">
<ele>145.0</ele>
<time>2026-08-25T12:25:29Z</time>
</trkpt>
<trkpt lat="49.389869999999995" lon="1.14852">
<ele>145.0</ele>
<time>2026-08-25T12:25:32Z</time>
</trkpt>
<trkpt lat="49.38988" lon="1.1484699999999999">
<ele>146.0</ele>
<time>2026-08-25T12:25:35Z</time>
</trkpt>
<trkpt lat="49.38988" lon="1.1484299999999998">
<ele>146.0</ele>
<time>2026-08-25T12:25:38Z</time>
</trkpt>
<trkpt lat="49.38989" lon="1.14838">
<ele>146.0</ele>
<time>2026-08-25T12:25:41Z</time>
</trkpt>
<trkpt lat="49.38991" lon="1.1483299999999999">
<ele>146.0</ele>
<time>2026-08-25T12:25:44Z</time>
</trkpt>
<trkpt lat="49.38992" lon="1.14828">
<ele>146.0</ele>
<time>2026-08-25T12:25:46Z</time>
</trkpt>
<trkpt lat="49.38992" lon="1.1482299999999999">
<ele>146.0</ele>
<time>2026-08-25T12:25:49Z</time>
</trkpt>
<trkpt lat="49.38992" lon="1.14817">
<ele>146.0</ele>
<time>2026-08-25T12:25:52Z</time>
</trkpt>
<trkpt lat="49.38991" lon="1.14812">
<ele>146.0</ele>
<time>2026-08-25T12:25:54Z</time>
</trkpt>
<trkpt lat="49.3899" lon="1.14807">
<ele>146.0</ele>
<time>2026-08-25T12:25:56Z</time>
</trkpt>
<trkpt lat="49.38988" lon="1.1480299999999999">
<ele>146.0</ele>
<time>2026-08-25T12:25:59Z</time>
</trkpt>
<trkpt lat="49.389869999999995" lon="1.14798">
<ele>146.0</ele>
<time>2026-08-25T12:26:02Z</time>
</trkpt>
<trkpt lat="49.389869999999995" lon="1.14793">
<ele>146.0</ele>
<time>2026-08-25T12:26:06Z</time>
</trkpt>
<trkpt lat="49.389869999999995" lon="1.1478899999999999">
<ele>145.0</ele>
<time>2026-08-25T12:26:09Z</time>
</trkpt>
<trkpt lat="49.38986" lon="1.14785">
<ele>145.0</ele>
<time>2026-08-25T12:26:12Z</time>
</trkpt>
<trkpt lat="49.389869999999995" lon="1.14781">
<ele>145.0</ele>
<time>2026-08-25T12:26:16Z</time>
</trkpt>
<trkpt lat="49.38986" lon="1.14776">
<ele>145.0</ele>
<time>2026-08-25T12:26:19Z</time>
</trkpt>
<trkpt lat="49.389849999999996" lon="1.14771">
<ele>145.0</ele>
<time>2026-08-25T12:26:22Z</time>
</trkpt>
<trkpt lat="49.38984" lon="1.14766">
<ele>145.0</ele>
<time>2026-08-25T12:26:25Z</time>
</trkpt>
<trkpt lat="49.38984" lon="1.14761">
<ele>144.0</ele>
<time>2026-08-25T12:26:28Z</time>
</trkpt>
<trkpt lat="49.389829999999996" lon="1.14756">
<ele>144.0</ele>
<time>2026-08-25T12:26:31Z</time>
</trkpt>
<trkpt lat="49.389829999999996" lon="1.14751">
<ele>144.0</ele>
<time>2026-08-25T12:26:34Z</time>
</trkpt>
<trkpt lat="49.38982" lon="1.1474499999999999">
<ele>144.0</ele>
<time>2026-08-25T12:26:37Z</time>
</trkpt>
<trkpt lat="49.3898" lon="1.1474">
<ele>144.0</ele>
<time>2026-08-25T12:26:40Z</time>
</trkpt>
<trkpt lat="49.38979" lon="1.14734">
<ele>144.0</ele>
<time>2026-08-25T12:26:43Z</time>
</trkpt>
<trkpt lat="49.38979" lon="1.14729">
<ele>144.0</ele>
<time>2026-08-25T12:26:45Z</time>
</trkpt>
<trkpt lat="49.38979" lon="1.1472499999999999">
<ele>144.0</ele>
<time>2026-08-25T12:26:48Z</time>
</trkpt>
<trkpt lat="49.38979" lon="1.1472">
<ele>144.0</ele>
<time>2026-08-25T12:26:51Z</time>
</trkpt>
<trkpt lat="49.3898" lon="1.14715">
<ele>144.0</ele>
<time>2026-08-25T12:26:54Z</time>
</trkpt>
<trkpt lat="49.38981" lon="1.14709">
<ele>144.0</ele>
<time>2026-08-25T12:26:57Z</time>
</trkpt>
<trkpt lat="49.38981" lon="1.1470399999999998">
<ele>145.0</ele>
<time>2026-08-25T12:26:59Z</time>
</trkpt>
<trkpt lat="49.3898" lon="1.14699">
<ele>145.0</ele>
<time>2026-08-25T12:27:02Z</time>
</trkpt>
<trkpt lat="49.3898" lon="1.1469399999999998">
<ele>145.0</ele>
<time>2026-08-25T12:27:04Z</time>
</trkpt>
<trkpt lat="49.38981" lon="1.14689">
<ele>145.0</ele>
<time>2026-08-25T12:27:06Z</time>
</trkpt>
<trkpt lat="49.38981" lon="1.1468399999999999">
<ele>145.0</ele>
<time>2026-08-25T12:27:08Z</time>
</trkpt>
<trkpt lat="49.38981" lon="1.1468">
<ele>146.0</ele>
<time>2026-08-25T12:27:10Z</time>
</trkpt>
<trkpt lat="49.38981" lon="1.14675">
<ele>146.0</ele>
<time>2026-08-25T12:27:13Z</time>
</trkpt>
<trkpt lat="49.38982" lon="1.1467">
<ele>146.0</ele>
<time>2026-08-25T12:27:15Z</time>
</trkpt>
<trkpt lat="49.38982" lon="1.14665">
<ele>146.0</ele>
<time>2026-08-25T12:27:18Z</time>
</trkpt>
<trkpt lat="49.38981" lon="1.14659">
<ele>146.0</ele>
<time>2026-08-25T12:27:21Z</time>
</trkpt>
<trkpt lat="49.3898" lon="1.14655">
<ele>146.0</ele>
<time>2026-08-25T12:27:24Z</time>
</trkpt>
<trkpt lat="49.38979" lon="1.14651">
<ele>147.0</ele>
<time>2026-08-25T12:27:27Z</time>
</trkpt>
<trkpt lat="49.38977" lon="1.1464699999999999">
<ele>147.0</ele>
<time>2026-08-25T12:27:31Z</time>
</trkpt>
<trkpt lat="49.38973" lon="1.1464699999999999">
<ele>147.0</ele>
<time>2026-08-25T12:27:46Z</time>
</trkpt>
<trkpt lat="49.38973" lon="1.14645">
<ele>147.0</ele>
<time>2026-08-25T12:27:47Z</time>
</trkpt>
<trkpt lat="49.38971" lon="1.1464699999999999">
<ele>147.0</ele>
<time>2026-08-25T12:28:10Z</time>
</trkpt>
<trkpt lat="49.389689999999995" lon="1.14648">
<ele>147.0</ele>
<time>2026-08-25T12:29:50Z</time>
</trkpt>
<trkpt lat="49.389669999999995" lon="1.14652">
<ele>147.0</ele>
<time>2026-08-25T12:29:52Z</time>
</trkpt>
<trkpt lat="49.389649999999996" lon="1.14655">
<ele>146.0</ele>
<time>2026-08-25T12:29:56Z</time>
</trkpt>
<trkpt lat="49.38963" lon="1.14659">
<ele>146.0</ele>
<time>2026-08-25T12:29:59Z</time>
</trkpt>
<trkpt lat="49.38961" lon="1.14662">
<ele>146.0</ele>
<time>2026-08-25T12:30:02Z</time>
</trkpt>
<trkpt lat="49.389579999999995" lon="1.14663">
<ele>143.0</ele>
<time>2026-08-25T12:30:05Z</time>
</trkpt>
<trkpt lat="49.38957" lon="1.1465999999999998">
<ele>143.0</ele>
<time>2026-08-25T12:30:07Z</time>
</trkpt>
<trkpt lat="49.389559999999996" lon="1.14656">
<ele>143.0</ele>
<time>2026-08-25T12:30:10Z</time>
</trkpt>
<trkpt lat="49.38955" lon="1.14651">
<ele>144.0</ele>
<time>2026-08-25T12:30:13Z</time>
</trkpt>
<trkpt lat="49.38953" lon="1.1464699999999999">
<ele>144.0</ele>
<time>2026-08-25T12:30:16Z</time>
</trkpt>
<trkpt lat="49.389509999999994" lon="1.1464299999999998">
<ele>144.0</ele>
<time>2026-08-25T12:30:18Z</time>
</trkpt>
<trkpt lat="49.38948" lon="1.14639">
<ele>144.0</ele>
<time>2026-08-25T12:30:21Z</time>
</trkpt>
<trkpt lat="49.38946" lon="1.14638">
<ele>144.0</ele>
<time>2026-08-25T12:30:23Z</time>
</trkpt>
<trkpt lat="49.38943" lon="1.14639">
<ele>144.0</ele>
<time>2026-08-25T12:30:25Z</time>
</trkpt>
<trkpt lat="49.38939" lon="1.14641">
<ele>144.0</ele>
<time>2026-08-25T12:30:27Z</time>
</trkpt>
<trkpt lat="49.38937" lon="1.14644">
<ele>144.0</ele>
<time>2026-08-25T12:30:29Z</time>
</trkpt>
<trkpt lat="49.38934" lon="1.14645">
<ele>144.0</ele>
<time>2026-08-25T12:30:31Z</time>
</trkpt>
<trkpt lat="49.389309999999995" lon="1.14648">
<ele>144.0</ele>
<time>2026-08-25T12:30:33Z</time>
</trkpt>
<trkpt lat="49.389289999999995" lon="1.14652">
<ele>144.0</ele>
<time>2026-08-25T12:30:36Z</time>
</trkpt>
<trkpt lat="49.38926" lon="1.14655">
<ele>143.0</ele>
<time>2026-08-25T12:30:39Z</time>
</trkpt>
<trkpt lat="49.38923" lon="1.14655">
<ele>143.0</ele>
<time>2026-08-25T12:30:42Z</time>
</trkpt>
<trkpt lat="49.38919" lon="1.14653">
<ele>143.0</ele>
<time>2026-08-25T12:30:45Z</time>
</trkpt>
<trkpt lat="49.38916" lon="1.1464999999999999">
<ele>144.0</ele>
<time>2026-08-25T12:30:48Z</time>
</trkpt>
<trkpt lat="49.38914" lon="1.14646">
<ele>144.0</ele>
<time>2026-08-25T12:30:51Z</time>
</trkpt>
<trkpt lat="49.389129999999994" lon="1.14642">
<ele>144.0</ele>
<time>2026-08-25T12:30:54Z</time>
</trkpt>
<trkpt lat="49.389129999999994" lon="1.14638">
<ele>144.0</ele>
<time>2026-08-25T12:30:57Z</time>
</trkpt>
<trkpt lat="49.389129999999994" lon="1.1463299999999998">
<ele>144.0</ele>
<time>2026-08-25T12:31:00Z</time>
</trkpt>
<trkpt lat="49.389129999999994" lon="1.14627">
<ele>144.0</ele>
<time>2026-08-25T12:31:03Z</time>
</trkpt>
<trkpt lat="49.389129999999994" lon="1.14622">
<ele>144.0</ele>
<time>2026-08-25T12:31:06Z</time>
</trkpt>
<trkpt lat="49.38912" lon="1.1461299999999999">
<ele>144.0</ele>
<time>2026-08-25T12:31:09Z</time>
</trkpt>
<trkpt lat="49.38912" lon="1.14611">
<ele>144.0</ele>
<time>2026-08-25T12:31:12Z</time>
</trkpt>
<trkpt lat="49.389109999999995" lon="1.1460599999999999">
<ele>144.0</ele>
<time>2026-08-25T12:31:15Z</time>
</trkpt>
<trkpt lat="49.3891" lon="1.14602">
<ele>144.0</ele>
<time>2026-08-25T12:31:18Z</time>
</trkpt>
<trkpt lat="49.38908" lon="1.14598">
<ele>144.0</ele>
<time>2026-08-25T12:31:21Z</time>
</trkpt>
<trkpt lat="49.38907" lon="1.14594">
<ele>145.0</ele>
<time>2026-08-25T12:31:24Z</time>
</trkpt>
<trkpt lat="49.38905" lon="1.1459">
<ele>145.0</ele>
<time>2026-08-25T12:31:29Z</time>
</trkpt>
<trkpt lat="49.389039999999994" lon="1.1458599999999999">
<ele>145.0</ele>
<time>2026-08-25T12:31:32Z</time>
</trkpt>
<trkpt lat="49.389019999999995" lon="1.1458199999999998">
<ele>145.0</ele>
<time>2026-08-25T12:31:35Z</time>
</trkpt>
<trkpt lat="49.388999999999996" lon="1.14578">
<ele>145.0</ele>
<time>2026-08-25T12:31:37Z</time>
</trkpt>
<trkpt lat="49.38898" lon="1.14575">
<ele>145.0</ele>
<time>2026-08-25T12:31:40Z</time>
</trkpt>
<trkpt lat="49.38895" lon="1.14571">
<ele>145.0</ele>
<time>2026-08-25T12:31:45Z</time>
</trkpt>
<trkpt lat="49.388929999999995" lon="1.14567">
<ele>146.0</ele>
<time>2026-08-25T12:31:48Z</time>
</trkpt>
<trkpt lat="49.3889" lon="1.14564">
<ele>146.0</ele>
<time>2026-08-25T12:31:51Z</time>
</trkpt>
<trkpt lat="49.38888" lon="1.1456">
<ele>146.0</ele>
<time>2026-08-25T12:31:54Z</time>
</trkpt>
<trkpt lat="49.38886" lon="1.1455499999999998">
<ele>146.0</ele>
<time>2026-08-25T12:31:57Z</time>
</trkpt>
<trkpt lat="49.388839999999995" lon="1.1455">
<ele>146.0</ele>
<time>2026-08-25T12:32:00Z</time>
</trkpt>
<trkpt lat="49.388819999999996" lon="1.1454499999999999">
<ele>146.0</ele>
<time>2026-08-25T12:32:03Z</time>
</trkpt>
<trkpt lat="49.38881" lon="1.14541">
<ele>146.0</ele>
<time>2026-08-25T12:32:05Z</time>
</trkpt>
<trkpt lat="49.38879" lon="1.14536">
<ele>146.0</ele>
<time>2026-08-25T12:32:08Z</time>
</trkpt>
<trkpt lat="49.38878" lon="1.14531">
<ele>146.0</ele>
<time>2026-08-25T12:32:11Z</time>
</trkpt>
<trkpt lat="49.38876" lon="1.1452799999999999">
<ele>146.0</ele>
<time>2026-08-25T12:32:13Z</time>
</trkpt>
<trkpt lat="49.38874" lon="1.1452499999999999">
<ele>145.0</ele>
<time>2026-08-25T12:32:15Z</time>
</trkpt>
<trkpt lat="49.388709999999996" lon="1.1452099999999998">
<ele>145.0</ele>
<time>2026-08-25T12:32:18Z</time>
</trkpt>
<trkpt lat="49.38869" lon="1.14517">
<ele>145.0</ele>
<time>2026-08-25T12:32:20Z</time>
</trkpt>
<trkpt lat="49.38867" lon="1.14513">
<ele>145.0</ele>
<time>2026-08-25T12:32:23Z</time>
</trkpt>
<trkpt lat="49.38865" lon="1.1450799999999999">
<ele>145.0</ele>
<time>2026-08-25T12:32:26Z</time>
</trkpt>
<trkpt lat="49.38863" lon="1.14503">
<ele>145.0</ele>
<time>2026-08-25T12:32:29Z</time>
</trkpt>
<trkpt lat="49.388619999999996" lon="1.1449799999999999">
<ele>145.0</ele>
<time>2026-08-25T12:32:32Z</time>
</trkpt>
<trkpt lat="49.3886" lon="1.14493">
<ele>145.0</ele>
<time>2026-08-25T12:32:35Z</time>
</trkpt>
<trkpt lat="49.38858" lon="1.14488">
<ele>145.0</ele>
<time>2026-08-25T12:32:38Z</time>
</trkpt>
<trkpt lat="49.38856" lon="1.14483">
<ele>145.0</ele>
<time>2026-08-25T12:32:41Z</time>
</trkpt>
<trkpt lat="49.388549999999995" lon="1.14478">
<ele>145.0</ele>
<time>2026-08-25T12:32:43Z</time>
</trkpt>
<trkpt lat="49.38854" lon="1.1447399999999999">
<ele>145.0</ele>
<time>2026-08-25T12:32:45Z</time>
</trkpt>
<trkpt lat="49.38852" lon="1.1447">
<ele>145.0</ele>
<time>2026-08-25T12:32:47Z</time>
</trkpt>
<trkpt lat="49.38851" lon="1.14466">
<ele>145.0</ele>
<time>2026-08-25T12:32:49Z</time>
</trkpt>
<trkpt lat="49.38849" lon="1.14462">
<ele>145.0</ele>
<time>2026-08-25T12:32:51Z</time>
</trkpt>
<trkpt lat="49.38848" lon="1.14458">
<ele>145.0</ele>
<time>2026-08-25T12:32:53Z</time>
</trkpt>
<trkpt lat="49.38847" lon="1.14454">
<ele>143.0</ele>
<time>2026-08-25T12:33:04Z</time>
</trkpt>
<trkpt lat="49.388439999999996" lon="1.14449">
<ele>143.0</ele>
<time>2026-08-25T12:33:07Z</time>
</trkpt>
<trkpt lat="49.388419999999996" lon="1.14445">
<ele>143.0</ele>
<time>2026-08-25T12:33:10Z</time>
</trkpt>
<trkpt lat="49.3884" lon="1.14441">
<ele>143.0</ele>
<time>2026-08-25T12:33:13Z</time>
</trkpt>
<trkpt lat="49.38839" lon="1.14436">
<ele>143.0</ele>
<time>2026-08-25T12:33:16Z</time>
</trkpt>
<trkpt lat="49.38838" lon="1.1442999999999999">
<ele>145.0</ele>
<time>2026-08-25T12:33:19Z</time>
</trkpt>
<trkpt lat="49.38836" lon="1.14426">
<ele>145.0</ele>
<time>2026-08-25T12:33:24Z</time>
</trkpt>
<trkpt lat="49.38834" lon="1.14422">
<ele>145.0</ele>
<time>2026-08-25T12:33:27Z</time>
</trkpt>
<trkpt lat="49.38832" lon="1.14418">
<ele>145.0</ele>
<time>2026-08-25T12:33:30Z</time>
</trkpt>
<trkpt lat="49.38831" lon="1.14414">
<ele>145.0</ele>
<time>2026-08-25T12:33:33Z</time>
</trkpt>
<trkpt lat="49.3883" lon="1.14409">
<ele>145.0</ele>
<time>2026-08-25T12:33:36Z</time>
</trkpt>
<trkpt lat="49.38829" lon="1.14405">
<ele>145.0</ele>
<time>2026-08-25T12:33:39Z</time>
</trkpt>
<trkpt lat="49.388279999999995" lon="1.14401">
<ele>146.0</ele>
<time>2026-08-25T12:33:43Z</time>
</trkpt>
<trkpt lat="49.388259999999995" lon="1.14397">
<ele>146.0</ele>
<time>2026-08-25T12:33:46Z</time>
</trkpt>
<trkpt lat="49.38825" lon="1.14393">
<ele>146.0</ele>
<time>2026-08-25T12:33:49Z</time>
</trkpt>
<trkpt lat="49.38823" lon="1.1438899999999999">
<ele>146.0</ele>
<time>2026-08-25T12:33:51Z</time>
</trkpt>
<trkpt lat="49.38821" lon="1.14385">
<ele>146.0</ele>
<time>2026-08-25T12:33:54Z</time>
</trkpt>
<trkpt lat="49.3882" lon="1.14382">
<ele>146.0</ele>
<time>2026-08-25T12:33:57Z</time>
</trkpt>
<trkpt lat="49.38818" lon="1.14378">
<ele>146.0</ele>
<time>2026-08-25T12:34:00Z</time>
</trkpt>
<trkpt lat="49.38816" lon="1.14374">
<ele>146.0</ele>
<time>2026-08-25T12:34:03Z</time>
</trkpt>
<trkpt lat="49.38814" lon="1.1437">
<ele>146.0</ele>
<time>2026-08-25T12:34:06Z</time>
</trkpt>
<trkpt lat="49.38813" lon="1.14365">
<ele>146.0</ele>
<time>2026-08-25T12:34:09Z</time>
</trkpt>
<trkpt lat="49.38812" lon="1.1435899999999999">
<ele>146.0</ele>
<time>2026-08-25T12:34:12Z</time>
</trkpt>
<trkpt lat="49.388099999999994" lon="1.14354">
<ele>146.0</ele>
<time>2026-08-25T12:34:15Z</time>
</trkpt>
<trkpt lat="49.388079999999995" lon="1.14349">
<ele>146.0</ele>
<time>2026-08-25T12:34:18Z</time>
</trkpt>
<trkpt lat="49.388059999999996" lon="1.1434499999999999">
<ele>145.0</ele>
<time>2026-08-25T12:34:21Z</time>
</trkpt>
<trkpt lat="49.38804" lon="1.1434">
<ele>145.0</ele>
<time>2026-08-25T12:34:24Z</time>
</trkpt>
<trkpt lat="49.38802" lon="1.14336">
<ele>145.0</ele>
<time>2026-08-25T12:34:27Z</time>
</trkpt>
<trkpt lat="49.387989999999995" lon="1.14332">
<ele>145.0</ele>
<time>2026-08-25T12:34:30Z</time>
</trkpt>
<trkpt lat="49.38796" lon="1.14329">
<ele>145.0</ele>
<time>2026-08-25T12:34:33Z</time>
</trkpt>
<trkpt lat="49.38794" lon="1.14326">
<ele>145.0</ele>
<time>2026-08-25T12:34:36Z</time>
</trkpt>
<trkpt lat="49.38791" lon="1.14322">
<ele>145.0</ele>
<time>2026-08-25T12:34:39Z</time>
</trkpt>
<trkpt lat="49.387899999999995" lon="1.1431799999999999">
<ele>144.0</ele>
<time>2026-08-25T12:34:42Z</time>
</trkpt>
<trkpt lat="49.387899999999995" lon="1.14313">
<ele>144.0</ele>
<time>2026-08-25T12:34:44Z</time>
</trkpt>
<trkpt lat="49.38792" lon="1.1431">
<ele>145.0</ele>
<time>2026-08-25T12:34:46Z</time>
</trkpt>
<trkpt lat="49.38794" lon="1.1430799999999999">
<ele>145.0</ele>
<time>2026-08-25T12:34:48Z</time>
</trkpt>
<trkpt lat="49.387969999999996" lon="1.14306">
<ele>145.0</ele>
<time>2026-08-25T12:34:51Z</time>
</trkpt>
<trkpt lat="49.388" lon="1.14306">
<ele>145.0</ele>
<time>2026-08-25T12:34:55Z</time>
</trkpt>
<trkpt lat="49.38803" lon="1.1430799999999999">
<ele>145.0</ele>
<time>2026-08-25T12:34:57Z</time>
</trkpt>
<trkpt lat="49.388059999999996" lon="1.14309">
<ele>145.0</ele>
<time>2026-08-25T12:35:00Z</time>
</trkpt>
<trkpt lat="49.388099999999994" lon="1.1431099999999998">
<ele>145.0</ele>
<time>2026-08-25T12:35:03Z</time>
</trkpt>
<trkpt lat="49.38813" lon="1.14313">
<ele>145.0</ele>
<time>2026-08-25T12:35:06Z</time>
</trkpt>
<trkpt lat="49.388169999999995" lon="1.14313">
<ele>145.0</ele>
<time>2026-08-25T12:35:09Z</time>
</trkpt>
<trkpt lat="49.3882" lon="1.14313">
<ele>145.0</ele>
<time>2026-08-25T12:35:12Z</time>
</trkpt>
<trkpt lat="49.38823" lon="1.14313">
<ele>145.0</ele>
<time>2026-08-25T12:35:15Z</time>
</trkpt>
<trkpt lat="49.38827" lon="1.1431499999999999">
<ele>145.0</ele>
<time>2026-08-25T12:35:18Z</time>
</trkpt>
<trkpt lat="49.3883" lon="1.14317">
<ele>145.0</ele>
<time>2026-08-25T12:35:21Z</time>
</trkpt>
<trkpt lat="49.388329999999996" lon="1.14319">
<ele>145.0</ele>
<time>2026-08-25T12:35:24Z</time>
</trkpt>
<trkpt lat="49.38836" lon="1.1432099999999998">
<ele>146.0</ele>
<time>2026-08-25T12:35:27Z</time>
</trkpt>
<trkpt lat="49.38839" lon="1.1432099999999998">
<ele>146.0</ele>
<time>2026-08-25T12:35:30Z</time>
</trkpt>
<trkpt lat="49.388419999999996" lon="1.1432099999999998">
<ele>146.0</ele>
<time>2026-08-25T12:35:33Z</time>
</trkpt>
<trkpt lat="49.388459999999995" lon="1.14322">
<ele>146.0</ele>
<time>2026-08-25T12:35:36Z</time>
</trkpt>
<trkpt lat="49.3885" lon="1.14322">
<ele>146.0</ele>
<time>2026-08-25T12:35:39Z</time>
</trkpt>
<trkpt lat="49.388529999999996" lon="1.14322">
<ele>146.0</ele>
<time>2026-08-25T12:35:41Z</time>
</trkpt>
<trkpt lat="49.38856" lon="1.14322">
<ele>146.0</ele>
<time>2026-08-25T12:35:43Z</time>
</trkpt>
<trkpt lat="49.38859" lon="1.14322">
<ele>146.0</ele>
<time>2026-08-25T12:35:45Z</time>
</trkpt>
<trkpt lat="49.388619999999996" lon="1.1432099999999998">
<ele>146.0</ele>
<time>2026-08-25T12:35:47Z</time>
</trkpt>
<trkpt lat="49.388659999999994" lon="1.1432099999999998">
<ele>146.0</ele>
<time>2026-08-25T12:35:50Z</time>
</trkpt>
<trkpt lat="49.38869" lon="1.14323">
<ele>146.0</ele>
<time>2026-08-25T12:35:52Z</time>
</trkpt>
<trkpt lat="49.388729999999995" lon="1.1432499999999999">
<ele>146.0</ele>
<time>2026-08-25T12:35:54Z</time>
</trkpt>
<trkpt lat="49.38876" lon="1.14326">
<ele>147.0</ele>
<time>2026-08-25T12:35:56Z</time>
</trkpt>
<trkpt lat="49.388799999999996" lon="1.14327">
<ele>147.0</ele>
<time>2026-08-25T12:35:59Z</time>
</trkpt>
<trkpt lat="49.38883" lon="1.14329">
<ele>147.0</ele>
<time>2026-08-25T12:36:02Z</time>
</trkpt>
<trkpt lat="49.38887" lon="1.1433">
<ele>147.0</ele>
<time>2026-08-25T12:36:05Z</time>
</trkpt>
<trkpt lat="49.3889" lon="1.14332">
<ele>147.0</ele>
<time>2026-08-25T12:36:07Z</time>
</trkpt>
<trkpt lat="49.388929999999995" lon="1.14334">
<ele>147.0</ele>
<time>2026-08-25T12:36:09Z</time>
</trkpt>
<trkpt lat="49.38896" lon="1.14336">
<ele>147.0</ele>
<time>2026-08-25T12:36:12Z</time>
</trkpt>
<trkpt lat="49.38899" lon="1.1433799999999998">
<ele>147.0</ele>
<time>2026-08-25T12:36:14Z</time>
</trkpt>
<trkpt lat="49.389019999999995" lon="1.14341">
<ele>147.0</ele>
<time>2026-08-25T12:36:17Z</time>
</trkpt>
<trkpt lat="49.38905" lon="1.14344">
<ele>146.0</ele>
<time>2026-08-25T12:36:21Z</time>
</trkpt>
<trkpt lat="49.38907" lon="1.14347">
<ele>146.0</ele>
<time>2026-08-25T12:36:24Z</time>
</trkpt>
<trkpt lat="49.3891" lon="1.1435">
<ele>147.0</ele>
<time>2026-08-25T12:36:28Z</time>
</trkpt>
<trkpt lat="49.38912" lon="1.14354">
<ele>147.0</ele>
<time>2026-08-25T12:36:32Z</time>
</trkpt>
<trkpt lat="49.38915" lon="1.14357">
<ele>147.0</ele>
<time>2026-08-25T12:36:35Z</time>
</trkpt>
<trkpt lat="49.389179999999996" lon="1.1436">
<ele>147.0</ele>
<time>2026-08-25T12:36:38Z</time>
</trkpt>
<trkpt lat="49.389199999999995" lon="1.14363">
<ele>147.0</ele>
<time>2026-08-25T12:36:41Z</time>
</trkpt>
<trkpt lat="49.38923" lon="1.14366">
<ele>147.0</ele>
<time>2026-08-25T12:36:44Z</time>
</trkpt>
<trkpt lat="49.38926" lon="1.14368">
<ele>147.0</ele>
<time>2026-08-25T12:36:47Z</time>
</trkpt>
<trkpt lat="49.389289999999995" lon="1.14371">
<ele>147.0</ele>
<time>2026-08-25T12:36:49Z</time>
</trkpt>
<trkpt lat="49.38932" lon="1.14374">
<ele>145.0</ele>
<time>2026-08-25T12:36:51Z</time>
</trkpt>
<trkpt lat="49.38934" lon="1.14377">
<ele>146.0</ele>
<time>2026-08-25T12:36:53Z</time>
</trkpt>
<trkpt lat="49.38937" lon="1.14381">
<ele>146.0</ele>
<time>2026-08-25T12:36:55Z</time>
</trkpt>
<trkpt lat="49.389399999999995" lon="1.14385">
<ele>146.0</ele>
<time>2026-08-25T12:36:57Z</time>
</trkpt>
<trkpt lat="49.38942" lon="1.14388">
<ele>146.0</ele>
<time>2026-08-25T12:36:59Z</time>
</trkpt>
<trkpt lat="49.38945" lon="1.14392">
<ele>146.0</ele>
<time>2026-08-25T12:37:01Z</time>
</trkpt>
<trkpt lat="49.389469999999996" lon="1.1439599999999999">
<ele>146.0</ele>
<time>2026-08-25T12:37:04Z</time>
</trkpt>
<trkpt lat="49.3895" lon="1.14398">
<ele>146.0</ele>
<time>2026-08-25T12:37:07Z</time>
</trkpt>
<trkpt lat="49.38953" lon="1.14402">
<ele>146.0</ele>
<time>2026-08-25T12:37:09Z</time>
</trkpt>
<trkpt lat="49.38955" lon="1.14404">
<ele>148.0</ele>
<time>2026-08-25T12:37:11Z</time>
</trkpt>
<trkpt lat="49.389579999999995" lon="1.1440599999999999">
<ele>148.0</ele>
<time>2026-08-25T12:37:13Z</time>
</trkpt>
<trkpt lat="49.38961" lon="1.14408">
<ele>147.0</ele>
<time>2026-08-25T12:37:15Z</time>
</trkpt>
<trkpt lat="49.38964" lon="1.1441">
<ele>147.0</ele>
<time>2026-08-25T12:37:17Z</time>
</trkpt>
<trkpt lat="49.389669999999995" lon="1.14412">
<ele>147.0</ele>
<time>2026-08-25T12:37:19Z</time>
</trkpt>
<trkpt lat="49.389689999999995" lon="1.1441299999999999">
<ele>147.0</ele>
<time>2026-08-25T12:37:21Z</time>
</trkpt>
<trkpt lat="49.38973" lon="1.14415">
<ele>147.0</ele>
<time>2026-08-25T12:37:24Z</time>
</trkpt>
<trkpt lat="49.389759999999995" lon="1.1441599999999998">
<ele>147.0</ele>
<time>2026-08-25T12:37:27Z</time>
</trkpt>
<trkpt lat="49.38979" lon="1.14417">
<ele>147.0</ele>
<time>2026-08-25T12:37:30Z</time>
</trkpt>
<trkpt lat="49.38982" lon="1.14419">
<ele>147.0</ele>
<time>2026-08-25T12:37:34Z</time>
</trkpt>
<trkpt lat="49.389849999999996" lon="1.14421">
<ele>147.0</ele>
<time>2026-08-25T12:37:37Z</time>
</trkpt>
<trkpt lat="49.38988" lon="1.14424">
<ele>145.0</ele>
<time>2026-08-25T12:37:41Z</time>
</trkpt>
<trkpt lat="49.3899" lon="1.14427">
<ele>145.0</ele>
<time>2026-08-25T12:37:44Z</time>
</trkpt>
<trkpt lat="49.38993" lon="1.1442999999999999">
<ele>145.0</ele>
<time>2026-08-25T12:37:47Z</time>
</trkpt>
<trkpt lat="49.38995" lon="1.1443299999999998">
<ele>146.0</ele>
<time>2026-08-25T12:37:51Z</time>
</trkpt>
<trkpt lat="49.38997" lon="1.1443699999999999">
<ele>146.0</ele>
<time>2026-08-25T12:37:55Z</time>
</trkpt>
<trkpt lat="49.39" lon="1.14441">
<ele>146.0</ele>
<time>2026-08-25T12:37:58Z</time>
</trkpt>
<trkpt lat="49.39002" lon="1.14444">
<ele>146.0</ele>
<time>2026-08-25T12:38:00Z</time>
</trkpt>
<trkpt lat="49.390049999999995" lon="1.14449">
<ele>146.0</ele>
<time>2026-08-25T12:38:03Z</time>
</trkpt>
<trkpt lat="49.39008" lon="1.14451">
<ele>146.0</ele>
<time>2026-08-25T12:38:05Z</time>
</trkpt>
<trkpt lat="49.3901" lon="1.14454">
<ele>146.0</ele>
<time>2026-08-25T12:38:07Z</time>
</trkpt>
<trkpt lat="49.39013" lon="1.14456">
<ele>146.0</ele>
<time>2026-08-25T12:38:09Z</time>
</trkpt>
<trkpt lat="49.390159999999995" lon="1.14458">
<ele>146.0</ele>
<time>2026-08-25T12:38:11Z</time>
</trkpt>
<trkpt lat="49.39019" lon="1.14459">
<ele>146.0</ele>
<time>2026-08-25T12:38:13Z</time>
</trkpt>
<trkpt lat="49.39022" lon="1.1445999999999998">
<ele>146.0</ele>
<time>2026-08-25T12:38:15Z</time>
</trkpt>
<trkpt lat="49.390249999999995" lon="1.14462">
<ele>146.0</ele>
<time>2026-08-25T12:38:17Z</time>
</trkpt>
<trkpt lat="49.39027" lon="1.1446399999999999">
<ele>146.0</ele>
<time>2026-08-25T12:38:19Z</time>
</trkpt>
<trkpt lat="49.390299999999996" lon="1.14466">
<ele>146.0</ele>
<time>2026-08-25T12:38:21Z</time>
</trkpt>
<trkpt lat="49.39033" lon="1.14469">
<ele>146.0</ele>
<time>2026-08-25T12:38:23Z</time>
</trkpt>
<trkpt lat="49.39037" lon="1.1447">
<ele>146.0</ele>
<time>2026-08-25T12:38:26Z</time>
</trkpt>
<trkpt lat="49.390409999999996" lon="1.14471">
<ele>146.0</ele>
<time>2026-08-25T12:38:29Z</time>
</trkpt>
<trkpt lat="49.39044" lon="1.14473">
<ele>146.0</ele>
<time>2026-08-25T12:38:32Z</time>
</trkpt>
<trkpt lat="49.39047" lon="1.14476">
<ele>146.0</ele>
<time>2026-08-25T12:38:35Z</time>
</trkpt>
<trkpt lat="49.390499999999996" lon="1.1448">
<ele>146.0</ele>
<time>2026-08-25T12:38:38Z</time>
</trkpt>
<trkpt lat="49.390519999999995" lon="1.1448399999999999">
<ele>146.0</ele>
<time>2026-08-25T12:38:41Z</time>
</trkpt>
<trkpt lat="49.390539999999994" lon="1.14489">
<ele>146.0</ele>
<time>2026-08-25T12:38:44Z</time>
</trkpt>
<trkpt lat="49.39055" lon="1.1449399999999998">
<ele>146.0</ele>
<time>2026-08-25T12:38:47Z</time>
</trkpt>
<trkpt lat="49.39057" lon="1.1449799999999999">
<ele>146.0</ele>
<time>2026-08-25T12:38:50Z</time>
</trkpt>
<trkpt lat="49.3906" lon="1.145">
<ele>146.0</ele>
<time>2026-08-25T12:38:54Z</time>
</trkpt>
<trkpt lat="49.39062" lon="1.14499">
<ele>146.0</ele>
<time>2026-08-25T12:38:58Z</time>
</trkpt>
<trkpt lat="49.39064" lon="1.14495">
<ele>146.0</ele>
<time>2026-08-25T12:39:01Z</time>
</trkpt>
<trkpt lat="49.39066" lon="1.1449099999999999">
<ele>146.0</ele>
<time>2026-08-25T12:39:04Z</time>
</trkpt>
<trkpt lat="49.390679999999996" lon="1.14487">
<ele>146.0</ele>
<time>2026-08-25T12:39:07Z</time>
</trkpt>
<trkpt lat="49.390699999999995" lon="1.14483">
<ele>146.0</ele>
<time>2026-08-25T12:39:10Z</time>
</trkpt>
<trkpt lat="49.39074" lon="1.1448">
<ele>146.0</ele>
<time>2026-08-25T12:39:13Z</time>
</trkpt>
<trkpt lat="49.390769999999996" lon="1.14479">
<ele>146.0</ele>
<time>2026-08-25T12:39:15Z</time>
</trkpt>
<trkpt lat="49.3908" lon="1.14478">
<ele>146.0</ele>
<time>2026-08-25T12:39:17Z</time>
</trkpt>
<trkpt lat="49.39083" lon="1.14478">
<ele>146.0</ele>
<time>2026-08-25T12:39:19Z</time>
</trkpt>
<trkpt lat="49.39087" lon="1.14478">
<ele>146.0</ele>
<time>2026-08-25T12:39:22Z</time>
</trkpt>
<trkpt lat="49.390899999999995" lon="1.14478">
<ele>146.0</ele>
<time>2026-08-25T12:39:25Z</time>
</trkpt>
<trkpt lat="49.39093" lon="1.1447699999999998">
<ele>146.0</ele>
<time>2026-08-25T12:39:27Z</time>
</trkpt>
<trkpt lat="49.39096" lon="1.14476">
<ele>146.0</ele>
<time>2026-08-25T12:39:29Z</time>
</trkpt>
<trkpt lat="49.390989999999995" lon="1.14475">
<ele>148.0</ele>
<time>2026-08-25T12:39:31Z</time>
</trkpt>
<trkpt lat="49.39102" lon="1.1447399999999999">
<ele>148.0</ele>
<time>2026-08-25T12:39:34Z</time>
</trkpt>
<trkpt lat="49.391059999999996" lon="1.1447399999999999">
<ele>148.0</ele>
<time>2026-08-25T12:39:37Z</time>
</trkpt>
<trkpt lat="49.39109" lon="1.14476">
<ele>148.0</ele>
<time>2026-08-25T12:39:40Z</time>
</trkpt>
<trkpt lat="49.39112" lon="1.1447699999999998">
<ele>148.0</ele>
<time>2026-08-25T12:39:43Z</time>
</trkpt>
<trkpt lat="49.39116" lon="1.1447699999999998">
<ele>148.0</ele>
<time>2026-08-25T12:39:46Z</time>
</trkpt>
<trkpt lat="49.3912" lon="1.1447699999999998">
<ele>148.0</ele>
<time>2026-08-25T12:39:49Z</time>
</trkpt>
<trkpt lat="49.39123" lon="1.1447699999999998">
<ele>148.0</ele>
<time>2026-08-25T12:39:53Z</time>
</trkpt>
<trkpt lat="49.39127" lon="1.1447699999999998">
<ele>150.0</ele>
<time>2026-08-25T12:39:56Z</time>
</trkpt>
<trkpt lat="49.3913" lon="1.14478">
<ele>150.0</ele>
<time>2026-08-25T12:39:58Z</time>
</trkpt>
<trkpt lat="49.39134" lon="1.14478">
<ele>150.0</ele>
<time>2026-08-25T12:40:01Z</time>
</trkpt>
<trkpt lat="49.391369999999995" lon="1.14478">
<ele>150.0</ele>
<time>2026-08-25T12:40:03Z</time>
</trkpt>
<trkpt lat="49.39141" lon="1.1447699999999998">
<ele>150.0</ele>
<time>2026-08-25T12:40:06Z</time>
</trkpt>
<trkpt lat="49.39145" lon="1.1447699999999998">
<ele>150.0</ele>
<time>2026-08-25T12:40:09Z</time>
</trkpt>
<trkpt lat="49.391479999999994" lon="1.1447699999999998">
<ele>150.0</ele>
<time>2026-08-25T12:40:12Z</time>
</trkpt>
<trkpt lat="49.39152" lon="1.14476">
<ele>150.0</ele>
<time>2026-08-25T12:40:15Z</time>
</trkpt>
<trkpt lat="49.391549999999995" lon="1.14475">
<ele>149.0</ele>
<time>2026-08-25T12:40:18Z</time>
</trkpt>
<trkpt lat="49.39159" lon="1.1447399999999999">
<ele>149.0</ele>
<time>2026-08-25T12:40:21Z</time>
</trkpt>
<trkpt lat="49.391619999999996" lon="1.1447399999999999">
<ele>149.0</ele>
<time>2026-08-25T12:40:24Z</time>
</trkpt>
<trkpt lat="49.39163" lon="1.14471">
<ele>149.0</ele>
<time>2026-08-25T12:40:33Z</time>
</trkpt>
<trkpt lat="49.391639999999995" lon="1.1446699999999999">
<ele>149.0</ele>
<time>2026-08-25T12:40:36Z</time>
</trkpt>
<trkpt lat="49.391659999999995" lon="1.14463">
<ele>149.0</ele>
<time>2026-08-25T12:40:39Z</time>
</trkpt>
<trkpt lat="49.39168" lon="1.14459">
<ele>149.0</ele>
<time>2026-08-25T12:40:42Z</time>
</trkpt>
<trkpt lat="49.39169" lon="1.14455">
<ele>151.0</ele>
<time>2026-08-25T12:40:47Z</time>
</trkpt>
<trkpt lat="49.391709999999996" lon="1.1444999999999999">
<ele>151.0</ele>
<time>2026-08-25T12:40:51Z</time>
</trkpt>
<trkpt lat="49.391729999999995" lon="1.14445">
<ele>151.0</ele>
<time>2026-08-25T12:40:57Z</time>
</trkpt>
<trkpt lat="49.391749999999995" lon="1.14442">
<ele>151.0</ele>
<time>2026-08-25T12:41:01Z</time>
</trkpt>
<trkpt lat="49.39177" lon="1.14439">
<ele>151.0</ele>
<time>2026-08-25T12:41:04Z</time>
</trkpt>
<trkpt lat="49.391799999999996" lon="1.14436">
<ele>151.0</ele>
<time>2026-08-25T12:41:07Z</time>
</trkpt>
<trkpt lat="49.391819999999996" lon="1.14432">
<ele>148.0</ele>
<time>2026-08-25T12:41:10Z</time>
</trkpt>
<trkpt lat="49.391839999999995" lon="1.14429">
<ele>150.0</ele>
<time>2026-08-25T12:41:13Z</time>
</trkpt>
<trkpt lat="49.39188" lon="1.14427">
<ele>150.0</ele>
<time>2026-08-25T12:41:16Z</time>
</trkpt>
<trkpt lat="49.391909999999996" lon="1.14424">
<ele>150.0</ele>
<time>2026-08-25T12:41:18Z</time>
</trkpt>
<trkpt lat="49.391929999999995" lon="1.14421">
<ele>150.0</ele>
<time>2026-08-25T12:41:26Z</time>
</trkpt>
<trkpt lat="49.391949999999994" lon="1.14418">
<ele>150.0</ele>
<time>2026-08-25T12:41:28Z</time>
</trkpt>
<trkpt lat="49.39197" lon="1.14414">
<ele>150.0</ele>
<time>2026-08-25T12:41:30Z</time>
</trkpt>
<trkpt lat="49.39199" lon="1.1441">
<ele>150.0</ele>
<time>2026-08-25T12:41:32Z</time>
</trkpt>
<trkpt lat="49.392019999999995" lon="1.14405">
<ele>150.0</ele>
<time>2026-08-25T12:41:34Z</time>
</trkpt>
<trkpt lat="49.392039999999994" lon="1.14401">
<ele>150.0</ele>
<time>2026-08-25T12:41:36Z</time>
</trkpt>
<trkpt lat="49.39206" lon="1.14397">
<ele>150.0</ele>
<time>2026-08-25T12:41:38Z</time>
</trkpt>
<trkpt lat="49.39208" lon="1.14394">
<ele>150.0</ele>
<time>2026-08-25T12:41:40Z</time>
</trkpt>
<trkpt lat="49.3921" lon="1.14391">
<ele>149.0</ele>
<time>2026-08-25T12:41:42Z</time>
</trkpt>
<trkpt lat="49.392109999999995" lon="1.14388">
<ele>149.0</ele>
<time>2026-08-25T12:41:44Z</time>
</trkpt>
<trkpt lat="49.392129999999995" lon="1.14384">
<ele>149.0</ele>
<time>2026-08-25T12:41:46Z</time>
</trkpt>
<trkpt lat="49.392129999999995" lon="1.1437899999999999">
<ele>149.0</ele>
<time>2026-08-25T12:41:48Z</time>
</trkpt>
<trkpt lat="49.392129999999995" lon="1.14375">
<ele>149.0</ele>
<time>2026-08-25T12:41:50Z</time>
</trkpt>
<trkpt lat="49.39215" lon="1.14371">
<ele>149.0</ele>
<time>2026-08-25T12:41:53Z</time>
</trkpt>
<trkpt lat="49.392179999999996" lon="1.1436899999999999">
<ele>149.0</ele>
<time>2026-08-25T12:41:54Z</time>
</trkpt>
<trkpt lat="49.39221" lon="1.14367">
<ele>149.0</ele>
<time>2026-08-25T12:41:55Z</time>
</trkpt>
<trkpt lat="49.39224" lon="1.14363">
<ele>149.0</ele>
<time>2026-08-25T12:41:57Z</time>
</trkpt>
<trkpt lat="49.39225" lon="1.1435899999999999">
<ele>149.0</ele>
<time>2026-08-25T12:41:59Z</time>
</trkpt>
<trkpt lat="49.39226" lon="1.1435499999999998">
<ele>149.0</ele>
<time>2026-08-25T12:42:01Z</time>
</trkpt>
<trkpt lat="49.39228" lon="1.1435199999999999">
<ele>149.0</ele>
<time>2026-08-25T12:42:03Z</time>
</trkpt>
<trkpt lat="49.392289999999996" lon="1.14348">
<ele>149.0</ele>
<time>2026-08-25T12:42:06Z</time>
</trkpt>
<trkpt lat="49.3923" lon="1.14343">
<ele>149.0</ele>
<time>2026-08-25T12:42:08Z</time>
</trkpt>
<trkpt lat="49.39233" lon="1.14339">
<ele>149.0</ele>
<time>2026-08-25T12:42:10Z</time>
</trkpt>
<trkpt lat="49.39237" lon="1.1433499999999999">
<ele>146.0</ele>
<time>2026-08-25T12:42:12Z</time>
</trkpt>
<trkpt lat="49.392399999999995" lon="1.14331">
<ele>146.0</ele>
<time>2026-08-25T12:42:14Z</time>
</trkpt>
<trkpt lat="49.39243" lon="1.1432799999999999">
<ele>146.0</ele>
<time>2026-08-25T12:42:16Z</time>
</trkpt>
<trkpt lat="49.39245" lon="1.1432499999999999">
<ele>146.0</ele>
<time>2026-08-25T12:42:18Z</time>
</trkpt>
<trkpt lat="49.39246" lon="1.1432099999999998">
<ele>146.0</ele>
<time>2026-08-25T12:42:20Z</time>
</trkpt>
<trkpt lat="49.392469999999996" lon="1.14316">
<ele>146.0</ele>
<time>2026-08-25T12:42:22Z</time>
</trkpt>
<trkpt lat="49.39248" lon="1.1431099999999998">
<ele>146.0</ele>
<time>2026-08-25T12:42:24Z</time>
</trkpt>
<trkpt lat="49.392489999999995" lon="1.14306">
<ele>146.0</ele>
<time>2026-08-25T12:42:27Z</time>
</trkpt>
<trkpt lat="49.39245" lon="1.1430099999999999">
<ele>146.0</ele>
<time>2026-08-25T12:42:38Z</time>
</trkpt>
<trkpt lat="49.39244" lon="1.14296">
<ele>146.0</ele>
<time>2026-08-25T12:42:57Z</time>
</trkpt>
<trkpt lat="49.39244" lon="1.14292">
<ele>146.0</ele>
<time>2026-08-25T12:43:00Z</time>
</trkpt>
<trkpt lat="49.39245" lon="1.14287">
<ele>146.0</ele>
<time>2026-08-25T12:43:04Z</time>
</trkpt>
<trkpt lat="49.392469999999996" lon="1.14283">
<ele>146.0</ele>
<time>2026-08-25T12:43:09Z</time>
</trkpt>
<trkpt lat="49.39248" lon="1.1428">
<ele>146.0</ele>
<time>2026-08-25T12:43:12Z</time>
</trkpt>
<trkpt lat="49.392509999999994" lon="1.14276">
<ele>146.0</ele>
<time>2026-08-25T12:43:15Z</time>
</trkpt>
<trkpt lat="49.39253" lon="1.14273">
<ele>146.0</ele>
<time>2026-08-25T12:43:18Z</time>
</trkpt>
<trkpt lat="49.39255" lon="1.1427">
<ele>146.0</ele>
<time>2026-08-25T12:43:20Z</time>
</trkpt>
<trkpt lat="49.39257" lon="1.14266">
<ele>146.0</ele>
<time>2026-08-25T12:43:22Z</time>
</trkpt>
<trkpt lat="49.39259" lon="1.14262">
<ele>146.0</ele>
<time>2026-08-25T12:43:24Z</time>
</trkpt>
<trkpt lat="49.39261" lon="1.14259">
<ele>146.0</ele>
<time>2026-08-25T12:43:26Z</time>
</trkpt>
<trkpt lat="49.39264" lon="1.1425699999999999">
<ele>145.0</ele>
<time>2026-08-25T12:43:28Z</time>
</trkpt>
<trkpt lat="49.39266" lon="1.14254">
<ele>145.0</ele>
<time>2026-08-25T12:43:30Z</time>
</trkpt>
<trkpt lat="49.39268" lon="1.14251">
<ele>145.0</ele>
<time>2026-08-25T12:43:32Z</time>
</trkpt>
<trkpt lat="49.392689999999995" lon="1.14246">
<ele>145.0</ele>
<time>2026-08-25T12:43:35Z</time>
</trkpt>
<trkpt lat="49.39271" lon="1.14241">
<ele>145.0</ele>
<time>2026-08-25T12:43:38Z</time>
</trkpt>
<trkpt lat="49.39272" lon="1.1423699999999999">
<ele>145.0</ele>
<time>2026-08-25T12:43:40Z</time>
</trkpt>
<trkpt lat="49.39273" lon="1.14232">
<ele>146.0</ele>
<time>2026-08-25T12:43:42Z</time>
</trkpt>
<trkpt lat="49.392739999999996" lon="1.14228">
<ele>146.0</ele>
<time>2026-08-25T12:43:44Z</time>
</trkpt>
<trkpt lat="49.39275" lon="1.14224">
<ele>146.0</ele>
<time>2026-08-25T12:43:46Z</time>
</trkpt>
<trkpt lat="49.392759999999996" lon="1.1421999999999999">
<ele>146.0</ele>
<time>2026-08-25T12:43:48Z</time>
</trkpt>
<trkpt lat="49.39277" lon="1.14215">
<ele>146.0</ele>
<time>2026-08-25T12:43:50Z</time>
</trkpt>
<trkpt lat="49.392779999999995" lon="1.14211">
<ele>146.0</ele>
<time>2026-08-25T12:43:52Z</time>
</trkpt>
<trkpt lat="49.39279" lon="1.1420599999999999">
<ele>146.0</ele>
<time>2026-08-25T12:43:55Z</time>
</trkpt>
<trkpt lat="49.39281" lon="1.14201">
<ele>146.0</ele>
<time>2026-08-25T12:43:58Z</time>
</trkpt>
<trkpt lat="49.39282" lon="1.1419599999999999">
<ele>146.0</ele>
<time>2026-08-25T12:44:01Z</time>
</trkpt>
<trkpt lat="49.39284" lon="1.14191">
<ele>146.0</ele>
<time>2026-08-25T12:44:04Z</time>
</trkpt>
<trkpt lat="49.392849999999996" lon="1.1418599999999999">
<ele>146.0</ele>
<time>2026-08-25T12:44:07Z</time>
</trkpt>
<trkpt lat="49.39286" lon="1.14181">
<ele>146.0</ele>
<time>2026-08-25T12:44:10Z</time>
</trkpt>
<trkpt lat="49.39286" lon="1.14175">
<ele>148.0</ele>
<time>2026-08-25T12:44:13Z</time>
</trkpt>
<trkpt lat="49.392869999999995" lon="1.1417">
<ele>148.0</ele>
<time>2026-08-25T12:44:16Z</time>
</trkpt>
<trkpt lat="49.39288" lon="1.14166">
<ele>148.0</ele>
<time>2026-08-25T12:44:19Z</time>
</trkpt>
<trkpt lat="49.39289" lon="1.14161">
<ele>148.0</ele>
<time>2026-08-25T12:44:23Z</time>
</trkpt>
<trkpt lat="49.39291" lon="1.14156">
<ele>148.0</ele>
<time>2026-08-25T12:44:26Z</time>
</trkpt>
<trkpt lat="49.39292" lon="1.14151">
<ele>145.0</ele>
<time>2026-08-25T12:44:29Z</time>
</trkpt>
<trkpt lat="49.39293" lon="1.14146">
<ele>145.0</ele>
<time>2026-08-25T12:44:31Z</time>
</trkpt>
<trkpt lat="49.392939999999996" lon="1.1414199999999999">
<ele>145.0</ele>
<time>2026-08-25T12:44:34Z</time>
</trkpt>
<trkpt lat="49.39297" lon="1.1413799999999998">
<ele>145.0</ele>
<time>2026-08-25T12:44:37Z</time>
</trkpt>
<trkpt lat="49.39299" lon="1.14134">
<ele>145.0</ele>
<time>2026-08-25T12:44:40Z</time>
</trkpt>
<trkpt lat="49.39301" lon="1.1413">
<ele>145.0</ele>
<time>2026-08-25T12:44:42Z</time>
</trkpt>
<trkpt lat="49.39302" lon="1.14126">
<ele>145.0</ele>
<time>2026-08-25T12:44:44Z</time>
</trkpt>
<trkpt lat="49.39302" lon="1.14121">
<ele>145.0</ele>
<time>2026-08-25T12:44:46Z</time>
</trkpt>
<trkpt lat="49.393029999999996" lon="1.14117">
<ele>145.0</ele>
<time>2026-08-25T12:44:48Z</time>
</trkpt>
<trkpt lat="49.393029999999996" lon="1.14112">
<ele>145.0</ele>
<time>2026-08-25T12:44:51Z</time>
</trkpt>
<trkpt lat="49.39304" lon="1.14107">
<ele>145.0</ele>
<time>2026-08-25T12:44:55Z</time>
</trkpt>
<trkpt lat="49.393049999999995" lon="1.14103">
<ele>145.0</ele>
<time>2026-08-25T12:44:58Z</time>
</trkpt>
<trkpt lat="49.39306" lon="1.14099">
<ele>145.0</ele>
<time>2026-08-25T12:45:00Z</time>
</trkpt>
<trkpt lat="49.39308" lon="1.1409399999999998">
<ele>146.0</ele>
<time>2026-08-25T12:45:04Z</time>
</trkpt>
<trkpt lat="49.39309" lon="1.14088">
<ele>146.0</ele>
<time>2026-08-25T12:45:07Z</time>
</trkpt>
<trkpt lat="49.3931" lon="1.1408399999999999">
<ele>146.0</ele>
<time>2026-08-25T12:45:09Z</time>
</trkpt>
<trkpt lat="49.3931" lon="1.14078">
<ele>146.0</ele>
<time>2026-08-25T12:45:12Z</time>
</trkpt>
<trkpt lat="49.3931" lon="1.14073">
<ele>146.0</ele>
<time>2026-08-25T12:45:15Z</time>
</trkpt>
<trkpt lat="49.39311" lon="1.14068">
<ele>147.0</ele>
<time>2026-08-25T12:45:18Z</time>
</trkpt>
<trkpt lat="49.393119999999996" lon="1.14063">
<ele>147.0</ele>
<time>2026-08-25T12:45:21Z</time>
</trkpt>
<trkpt lat="49.39313" lon="1.14058">
<ele>147.0</ele>
<time>2026-08-25T12:45:24Z</time>
</trkpt>
<trkpt lat="49.39315" lon="1.14053">
<ele>147.0</ele>
<time>2026-08-25T12:45:27Z</time>
</trkpt>
<trkpt lat="49.39317" lon="1.14049">
<ele>147.0</ele>
<time>2026-08-25T12:45:29Z</time>
</trkpt>
<trkpt lat="49.39319" lon="1.14045">
<ele>147.0</ele>
<time>2026-08-25T12:45:31Z</time>
</trkpt>
<trkpt lat="49.3932" lon="1.1403999999999999">
<ele>144.0</ele>
<time>2026-08-25T12:45:34Z</time>
</trkpt>
<trkpt lat="49.39322" lon="1.14035">
<ele>144.0</ele>
<time>2026-08-25T12:45:37Z</time>
</trkpt>
<trkpt lat="49.39324" lon="1.1402999999999999">
<ele>144.0</ele>
<time>2026-08-25T12:45:40Z</time>
</trkpt>
<trkpt lat="49.39326" lon="1.14025">
<ele>144.0</ele>
<time>2026-08-25T12:45:43Z</time>
</trkpt>
<trkpt lat="49.39328" lon="1.14021">
<ele>144.0</ele>
<time>2026-08-25T12:45:46Z</time>
</trkpt>
<trkpt lat="49.393299999999996" lon="1.14017">
<ele>144.0</ele>
<time>2026-08-25T12:45:49Z</time>
</trkpt>
<trkpt lat="49.393319999999996" lon="1.1401299999999999">
<ele>144.0</ele>
<time>2026-08-25T12:45:51Z</time>
</trkpt>
<trkpt lat="49.39333" lon="1.14008">
<ele>144.0</ele>
<time>2026-08-25T12:45:54Z</time>
</trkpt>
<trkpt lat="49.393339999999995" lon="1.1400299999999999">
<ele>144.0</ele>
<time>2026-08-25T12:45:57Z</time>
</trkpt>
<trkpt lat="49.39335" lon="1.13998">
<ele>144.0</ele>
<time>2026-08-25T12:46:00Z</time>
</trkpt>
<trkpt lat="49.39337" lon="1.13994">
<ele>144.0</ele>
<time>2026-08-25T12:46:02Z</time>
</trkpt>
<trkpt lat="49.39339" lon="1.1399">
<ele>144.0</ele>
<time>2026-08-25T12:46:05Z</time>
</trkpt>
<trkpt lat="49.393409999999996" lon="1.13987">
<ele>144.0</ele>
<time>2026-08-25T12:46:08Z</time>
</trkpt>
<trkpt lat="49.393429999999995" lon="1.13982">
<ele>144.0</ele>
<time>2026-08-25T12:46:11Z</time>
</trkpt>
<trkpt lat="49.393449999999994" lon="1.13978">
<ele>144.0</ele>
<time>2026-08-25T12:46:14Z</time>
</trkpt>
<trkpt lat="49.39347" lon="1.13974">
<ele>144.0</ele>
<time>2026-08-25T12:46:17Z</time>
</trkpt>
<trkpt lat="49.393499999999996" lon="1.13971">
<ele>141.0</ele>
<time>2026-08-25T12:46:20Z</time>
</trkpt>
<trkpt lat="49.39353" lon="1.13968">
<ele>141.0</ele>
<time>2026-08-25T12:46:23Z</time>
</trkpt>
<trkpt lat="49.39356" lon="1.13966">
<ele>141.0</ele>
<time>2026-08-25T12:46:26Z</time>
</trkpt>
<trkpt lat="49.393589999999996" lon="1.13963">
<ele>141.0</ele>
<time>2026-08-25T12:46:29Z</time>
</trkpt>
<trkpt lat="49.393629999999995" lon="1.13961">
<ele>141.0</ele>
<time>2026-08-25T12:46:32Z</time>
</trkpt>
<trkpt lat="49.39366" lon="1.13958">
<ele>140.0</ele>
<time>2026-08-25T12:46:35Z</time>
</trkpt>
<trkpt lat="49.39369" lon="1.13954">
<ele>140.0</ele>
<time>2026-08-25T12:46:39Z</time>
</trkpt>
<trkpt lat="49.393719999999995" lon="1.13951">
<ele>140.0</ele>
<time>2026-08-25T12:46:42Z</time>
</trkpt>
<trkpt lat="49.39375" lon="1.13949">
<ele>140.0</ele>
<time>2026-08-25T12:46:45Z</time>
</trkpt>
<trkpt lat="49.39378" lon="1.13947">
<ele>140.0</ele>
<time>2026-08-25T12:46:48Z</time>
</trkpt>
<trkpt lat="49.3938" lon="1.1394499999999999">
<ele>140.0</ele>
<time>2026-08-25T12:46:51Z</time>
</trkpt>
<trkpt lat="49.39383" lon="1.13943">
<ele>140.0</ele>
<time>2026-08-25T12:46:55Z</time>
</trkpt>
<trkpt lat="49.39386" lon="1.1394">
<ele>140.0</ele>
<time>2026-08-25T12:46:58Z</time>
</trkpt>
<trkpt lat="49.39389" lon="1.13938">
<ele>140.0</ele>
<time>2026-08-25T12:47:01Z</time>
</trkpt>
<trkpt lat="49.393919999999994" lon="1.13934">
<ele>140.0</ele>
<time>2026-08-25T12:47:04Z</time>
</trkpt>
<trkpt lat="49.39395" lon="1.13931">
<ele>140.0</ele>
<time>2026-08-25T12:47:07Z</time>
</trkpt>
<trkpt lat="49.393969999999996" lon="1.1392799999999998">
<ele>140.0</ele>
<time>2026-08-25T12:47:09Z</time>
</trkpt>
<trkpt lat="49.393989999999995" lon="1.13923">
<ele>140.0</ele>
<time>2026-08-25T12:47:12Z</time>
</trkpt>
<trkpt lat="49.39402" lon="1.13919">
<ele>140.0</ele>
<time>2026-08-25T12:47:15Z</time>
</trkpt>
<trkpt lat="49.39403" lon="1.13913">
<ele>140.0</ele>
<time>2026-08-25T12:47:18Z</time>
</trkpt>
<trkpt lat="49.39404" lon="1.13909">
<ele>140.0</ele>
<time>2026-08-25T12:47:21Z</time>
</trkpt>
<trkpt lat="49.394059999999996" lon="1.13904">
<ele>140.0</ele>
<time>2026-08-25T12:47:24Z</time>
</trkpt>
<trkpt lat="49.39407" lon="1.13899">
<ele>141.0</ele>
<time>2026-08-25T12:47:27Z</time>
</trkpt>
<trkpt lat="49.394079999999995" lon="1.13895">
<ele>141.0</ele>
<time>2026-08-25T12:47:30Z</time>
</trkpt>
<trkpt lat="49.394099999999995" lon="1.1389099999999999">
<ele>141.0</ele>
<time>2026-08-25T12:47:33Z</time>
</trkpt>
<trkpt lat="49.39411" lon="1.13887">
<ele>141.0</ele>
<time>2026-08-25T12:47:35Z</time>
</trkpt>
<trkpt lat="49.39413" lon="1.13883">
<ele>141.0</ele>
<time>2026-08-25T12:47:38Z</time>
</trkpt>
<trkpt lat="49.394149999999996" lon="1.13878">
<ele>141.0</ele>
<time>2026-08-25T12:47:41Z</time>
</trkpt>
<trkpt lat="49.39416" lon="1.13872">
<ele>142.0</ele>
<time>2026-08-25T12:47:44Z</time>
</trkpt>
<trkpt lat="49.394169999999995" lon="1.13868">
<ele>142.0</ele>
<time>2026-08-25T12:47:46Z</time>
</trkpt>
<trkpt lat="49.394189999999995" lon="1.1386399999999999">
<ele>142.0</ele>
<time>2026-08-25T12:47:48Z</time>
</trkpt>
<trkpt lat="49.3942" lon="1.13861">
<ele>142.0</ele>
<time>2026-08-25T12:47:50Z</time>
</trkpt>
<trkpt lat="49.39422" lon="1.1385699999999999">
<ele>142.0</ele>
<time>2026-08-25T12:47:52Z</time>
</trkpt>
<trkpt lat="49.39425" lon="1.13855">
<ele>142.0</ele>
<time>2026-08-25T12:47:54Z</time>
</trkpt>
<trkpt lat="49.39427" lon="1.13851">
<ele>142.0</ele>
<time>2026-08-25T12:47:57Z</time>
</trkpt>
<trkpt lat="49.39429" lon="1.1384699999999999">
<ele>141.0</ele>
<time>2026-08-25T12:48:00Z</time>
</trkpt>
<trkpt lat="49.39432" lon="1.13843">
<ele>139.0</ele>
<time>2026-08-25T12:48:03Z</time>
</trkpt>
<trkpt lat="49.394349999999996" lon="1.1383999999999999">
<ele>139.0</ele>
<time>2026-08-25T12:48:06Z</time>
</trkpt>
<trkpt lat="49.39436" lon="1.13836">
<ele>139.0</ele>
<time>2026-08-25T12:48:09Z</time>
</trkpt>
<trkpt lat="49.394369999999995" lon="1.13832">
<ele>139.0</ele>
<time>2026-08-25T12:48:12Z</time>
</trkpt>
<trkpt lat="49.39438" lon="1.13828">
<ele>139.0</ele>
<time>2026-08-25T12:48:15Z</time>
</trkpt>
<trkpt lat="49.3944" lon="1.13824">
<ele>139.0</ele>
<time>2026-08-25T12:48:19Z</time>
</trkpt>
<trkpt lat="49.39441" lon="1.1381999999999999">
<ele>139.0</ele>
<time>2026-08-25T12:48:23Z</time>
</trkpt>
<trkpt lat="49.39443" lon="1.1381599999999998">
<ele>138.0</ele>
<time>2026-08-25T12:48:26Z</time>
</trkpt>
<trkpt lat="49.394439999999996" lon="1.13811">
<ele>138.0</ele>
<time>2026-08-25T12:48:28Z</time>
</trkpt>
<trkpt lat="49.394459999999995" lon="1.13808">
<ele>138.0</ele>
<time>2026-08-25T12:48:30Z</time>
</trkpt>
<trkpt lat="49.394479999999994" lon="1.13804">
<ele>138.0</ele>
<time>2026-08-25T12:48:32Z</time>
</trkpt>
<trkpt lat="49.3945" lon="1.138">
<ele>138.0</ele>
<time>2026-08-25T12:48:34Z</time>
</trkpt>
<trkpt lat="49.39452" lon="1.13798">
<ele>138.0</ele>
<time>2026-08-25T12:48:36Z</time>
</trkpt>
<trkpt lat="49.394549999999995" lon="1.13794">
<ele>138.0</ele>
<time>2026-08-25T12:48:39Z</time>
</trkpt>
<trkpt lat="49.394569999999995" lon="1.1379">
<ele>138.0</ele>
<time>2026-08-25T12:48:42Z</time>
</trkpt>
<trkpt lat="49.39459" lon="1.13787">
<ele>133.0</ele>
<time>2026-08-25T12:48:45Z</time>
</trkpt>
<trkpt lat="49.394619999999996" lon="1.13784">
<ele>133.0</ele>
<time>2026-08-25T12:48:51Z</time>
</trkpt>
<trkpt lat="49.394619999999996" lon="1.1378">
<ele>133.0</ele>
<time>2026-08-25T12:48:56Z</time>
</trkpt>
<trkpt lat="49.394619999999996" lon="1.1377599999999999">
<ele>133.0</ele>
<time>2026-08-25T12:49:08Z</time>
</trkpt>
<trkpt lat="49.39463" lon="1.13771">
<ele>133.0</ele>
<time>2026-08-25T12:49:12Z</time>
</trkpt>
<trkpt lat="49.39465" lon="1.13768">
<ele>133.0</ele>
<time>2026-08-25T12:49:17Z</time>
</trkpt>
<trkpt lat="49.39467" lon="1.13767">
<ele>133.0</ele>
<time>2026-08-25T12:49:22Z</time>
</trkpt>
<trkpt lat="49.3947" lon="1.13766">
<ele>133.0</ele>
<time>2026-08-25T12:49:24Z</time>
</trkpt>
<trkpt lat="49.394729999999996" lon="1.13763">
<ele>134.0</ele>
<time>2026-08-25T12:49:26Z</time>
</trkpt>
<trkpt lat="49.39476" lon="1.13761">
<ele>134.0</ele>
<time>2026-08-25T12:49:28Z</time>
</trkpt>
<trkpt lat="49.39479" lon="1.13758">
<ele>134.0</ele>
<time>2026-08-25T12:49:33Z</time>
</trkpt>
<trkpt lat="49.39481" lon="1.1375499999999998">
<ele>134.0</ele>
<time>2026-08-25T12:49:36Z</time>
</trkpt>
<trkpt lat="49.394839999999995" lon="1.1375199999999999">
<ele>134.0</ele>
<time>2026-08-25T12:49:41Z</time>
</trkpt>
<trkpt lat="49.394859999999994" lon="1.13748">
<ele>134.0</ele>
<time>2026-08-25T12:49:44Z</time>
</trkpt>
<trkpt lat="49.39489" lon="1.1374499999999999">
<ele>131.0</ele>
<time>2026-08-25T12:49:46Z</time>
</trkpt>
<trkpt lat="49.394909999999996" lon="1.1374199999999999">
<ele>131.0</ele>
<time>2026-08-25T12:49:49Z</time>
</trkpt>
<trkpt lat="49.39494" lon="1.13738">
<ele>131.0</ele>
<time>2026-08-25T12:49:52Z</time>
</trkpt>
<trkpt lat="49.39496" lon="1.13734">
<ele>133.0</ele>
<time>2026-08-25T12:49:54Z</time>
</trkpt>
<trkpt lat="49.39499" lon="1.1373">
<ele>133.0</ele>
<time>2026-08-25T12:49:56Z</time>
</trkpt>
<trkpt lat="49.39501" lon="1.13727">
<ele>133.0</ele>
<time>2026-08-25T12:49:59Z</time>
</trkpt>
<trkpt lat="49.39503" lon="1.13722">
<ele>133.0</ele>
<time>2026-08-25T12:50:02Z</time>
</trkpt>
<trkpt lat="49.39506" lon="1.13719">
<ele>133.0</ele>
<time>2026-08-25T12:50:04Z</time>
</trkpt>
<trkpt lat="49.395089999999996" lon="1.13714">
<ele>133.0</ele>
<time>2026-08-25T12:50:06Z</time>
</trkpt>
<trkpt lat="49.39512" lon="1.1371099999999998">
<ele>133.0</ele>
<time>2026-08-25T12:50:08Z</time>
</trkpt>
<trkpt lat="49.39514" lon="1.13707">
<ele>133.0</ele>
<time>2026-08-25T12:50:10Z</time>
</trkpt>
<trkpt lat="49.39517" lon="1.13705">
<ele>133.0</ele>
<time>2026-08-25T12:50:12Z</time>
</trkpt>
<trkpt lat="49.39519" lon="1.13702">
<ele>133.0</ele>
<time>2026-08-25T12:50:14Z</time>
</trkpt>
<trkpt lat="49.39521" lon="1.13699">
<ele>133.0</ele>
<time>2026-08-25T12:50:17Z</time>
</trkpt>
<trkpt lat="49.39524" lon="1.1369799999999999">
<ele>133.0</ele>
<time>2026-08-25T12:50:21Z</time>
</trkpt>
<trkpt lat="49.39527" lon="1.13696">
<ele>133.0</ele>
<time>2026-08-25T12:50:25Z</time>
</trkpt>
<trkpt lat="49.3953" lon="1.13695">
<ele>133.0</ele>
<time>2026-08-25T12:50:29Z</time>
</trkpt>
<trkpt lat="49.39533" lon="1.1369399999999998">
<ele>133.0</ele>
<time>2026-08-25T12:50:32Z</time>
</trkpt>
<trkpt lat="49.39536" lon="1.13693">
<ele>133.0</ele>
<time>2026-08-25T12:50:35Z</time>
</trkpt>
<trkpt lat="49.39539" lon="1.1369099999999999">
<ele>133.0</ele>
<time>2026-08-25T12:50:38Z</time>
</trkpt>
<trkpt lat="49.395399999999995" lon="1.13688">
<ele>133.0</ele>
<time>2026-08-25T12:50:41Z</time>
</trkpt>
<trkpt lat="49.395419999999994" lon="1.13683">
<ele>128.0</ele>
<time>2026-08-25T12:50:43Z</time>
</trkpt>
<trkpt lat="49.39544" lon="1.13679">
<ele>130.0</ele>
<time>2026-08-25T12:50:45Z</time>
</trkpt>
<trkpt lat="49.395469999999996" lon="1.1367399999999999">
<ele>130.0</ele>
<time>2026-08-25T12:50:47Z</time>
</trkpt>
<trkpt lat="49.395489999999995" lon="1.1367099999999999">
<ele>130.0</ele>
<time>2026-08-25T12:50:49Z</time>
</trkpt>
<trkpt lat="49.395509999999994" lon="1.13669">
<ele>130.0</ele>
<time>2026-08-25T12:50:51Z</time>
</trkpt>
<trkpt lat="49.39554" lon="1.13666">
<ele>130.0</ele>
<time>2026-08-25T12:50:53Z</time>
</trkpt>
<trkpt lat="49.395559999999996" lon="1.13663">
<ele>130.0</ele>
<time>2026-08-25T12:50:55Z</time>
</trkpt>
<trkpt lat="49.395579999999995" lon="1.1366">
<ele>130.0</ele>
<time>2026-08-25T12:50:57Z</time>
</trkpt>
<trkpt lat="49.39561" lon="1.13656">
<ele>130.0</ele>
<time>2026-08-25T12:50:59Z</time>
</trkpt>
<trkpt lat="49.39563" lon="1.13652">
<ele>131.0</ele>
<time>2026-08-25T12:51:01Z</time>
</trkpt>
<trkpt lat="49.395649999999996" lon="1.13649">
<ele>131.0</ele>
<time>2026-08-25T12:51:03Z</time>
</trkpt>
<trkpt lat="49.395669999999996" lon="1.13645">
<ele>131.0</ele>
<time>2026-08-25T12:51:05Z</time>
</trkpt>
<trkpt lat="49.395689999999995" lon="1.13641">
<ele>131.0</ele>
<time>2026-08-25T12:51:08Z</time>
</trkpt>
<trkpt lat="49.39572" lon="1.1363699999999999">
<ele>125.0</ele>
<time>2026-08-25T12:51:12Z</time>
</trkpt>
<trkpt lat="49.39575" lon="1.13636">
<ele>125.0</ele>
<time>2026-08-25T12:51:16Z</time>
</trkpt>
<trkpt lat="49.39579" lon="1.13634">
<ele>125.0</ele>
<time>2026-08-25T12:51:20Z</time>
</trkpt>
<trkpt lat="49.39581" lon="1.1363299999999998">
<ele>125.0</ele>
<time>2026-08-25T12:51:23Z</time>
</trkpt>
<trkpt lat="49.39584" lon="1.13632">
<ele>125.0</ele>
<time>2026-08-25T12:51:26Z</time>
</trkpt>
<trkpt lat="49.395869999999995" lon="1.1362999999999999">
<ele>125.0</ele>
<time>2026-08-25T12:51:29Z</time>
</trkpt>
<trkpt lat="49.395889999999994" lon="1.13627">
<ele>125.0</ele>
<time>2026-08-25T12:51:35Z</time>
</trkpt>
<trkpt lat="49.39592" lon="1.13624">
<ele>129.0</ele>
<time>2026-08-25T12:51:38Z</time>
</trkpt>
<trkpt lat="49.39595" lon="1.13622">
<ele>129.0</ele>
<time>2026-08-25T12:51:42Z</time>
</trkpt>
<trkpt lat="49.395979999999994" lon="1.1361999999999999">
<ele>123.0</ele>
<time>2026-08-25T12:51:46Z</time>
</trkpt>
<trkpt lat="49.396" lon="1.13617">
<ele>123.0</ele>
<time>2026-08-25T12:51:49Z</time>
</trkpt>
<trkpt lat="49.39602" lon="1.13612">
<ele>123.0</ele>
<time>2026-08-25T12:51:51Z</time>
</trkpt>
<trkpt lat="49.396029999999996" lon="1.1360599999999998">
<ele>123.0</ele>
<time>2026-08-25T12:51:53Z</time>
</trkpt>
<trkpt lat="49.396029999999996" lon="1.136">
<ele>123.0</ele>
<time>2026-08-25T12:51:55Z</time>
</trkpt>
<trkpt lat="49.39604" lon="1.13595">
<ele>127.0</ele>
<time>2026-08-25T12:51:57Z</time>
</trkpt>
<trkpt lat="49.396049999999995" lon="1.1359">
<ele>127.0</ele>
<time>2026-08-25T12:51:58Z</time>
</trkpt>
<trkpt lat="49.39606" lon="1.1358599999999999">
<ele>127.0</ele>
<time>2026-08-25T12:52:00Z</time>
</trkpt>
<trkpt lat="49.39608" lon="1.13582">
<ele>127.0</ele>
<time>2026-08-25T12:52:02Z</time>
</trkpt>
<trkpt lat="49.396119999999996" lon="1.13578">
<ele>127.0</ele>
<time>2026-08-25T12:52:04Z</time>
</trkpt>
<trkpt lat="49.39615" lon="1.13574">
<ele>127.0</ele>
<time>2026-08-25T12:52:06Z</time>
</trkpt>
<trkpt lat="49.39618" lon="1.13571">
<ele>127.0</ele>
<time>2026-08-25T12:52:08Z</time>
</trkpt>
<trkpt lat="49.3962" lon="1.13568">
<ele>130.0</ele>
<time>2026-08-25T12:52:11Z</time>
</trkpt>
<trkpt lat="49.39622" lon="1.13563">
<ele>130.0</ele>
<time>2026-08-25T12:52:14Z</time>
</trkpt>
<trkpt lat="49.39624" lon="1.13558">
<ele>130.0</ele>
<time>2026-08-25T12:52:16Z</time>
</trkpt>
<trkpt lat="49.39627" lon="1.13554">
<ele>126.0</ele>
<time>2026-08-25T12:52:19Z</time>
</trkpt>
<trkpt lat="49.3963" lon="1.13551">
<ele>126.0</ele>
<time>2026-08-25T12:52:21Z</time>
</trkpt>
<trkpt lat="49.396319999999996" lon="1.1354899999999999">
<ele>126.0</ele>
<time>2026-08-25T12:52:25Z</time>
</trkpt>
<trkpt lat="49.39635" lon="1.13546">
<ele>126.0</ele>
<time>2026-08-25T12:52:29Z</time>
</trkpt>
<trkpt lat="49.39638" lon="1.13543">
<ele>126.0</ele>
<time>2026-08-25T12:52:33Z</time>
</trkpt>
<trkpt lat="49.396409999999996" lon="1.13543">
<ele>126.0</ele>
<time>2026-08-25T12:52:37Z</time>
</trkpt>
<trkpt lat="49.39644" lon="1.1354199999999999">
<ele>126.0</ele>
<time>2026-08-25T12:52:40Z</time>
</trkpt>
<trkpt lat="49.39647" lon="1.1354">
<ele>128.0</ele>
<time>2026-08-25T12:52:44Z</time>
</trkpt>
<trkpt lat="49.396499999999996" lon="1.13537">
<ele>128.0</ele>
<time>2026-08-25T12:52:48Z</time>
</trkpt>
<trkpt lat="49.396519999999995" lon="1.1353499999999999">
<ele>128.0</ele>
<time>2026-08-25T12:52:51Z</time>
</trkpt>
<trkpt lat="49.39655" lon="1.13533">
<ele>124.0</ele>
<time>2026-08-25T12:52:55Z</time>
</trkpt>
<trkpt lat="49.396589999999996" lon="1.1353199999999999">
<ele>124.0</ele>
<time>2026-08-25T12:52:59Z</time>
</trkpt>
<trkpt lat="49.39662" lon="1.1353199999999999">
<ele>124.0</ele>
<time>2026-08-25T12:53:02Z</time>
</trkpt>
<trkpt lat="49.39665" lon="1.13531">
<ele>124.0</ele>
<time>2026-08-25T12:53:05Z</time>
</trkpt>
<trkpt lat="49.39667" lon="1.1353">
<ele>124.0</ele>
<time>2026-08-25T12:53:08Z</time>
</trkpt>
<trkpt lat="49.396699999999996" lon="1.1352799999999998">
<ele>124.0</ele>
<time>2026-08-25T12:53:11Z</time>
</trkpt>
<trkpt lat="49.39673" lon="1.13526">
<ele>124.0</ele>
<time>2026-08-25T12:53:14Z</time>
</trkpt>
<trkpt lat="49.39675" lon="1.13524">
<ele>124.0</ele>
<time>2026-08-25T12:53:17Z</time>
</trkpt>
<trkpt lat="49.39678" lon="1.13522">
<ele>124.0</ele>
<time>2026-08-25T12:53:20Z</time>
</trkpt>
<trkpt lat="49.3968" lon="1.13519">
<ele>124.0</ele>
<time>2026-08-25T12:53:23Z</time>
</trkpt>
<trkpt lat="49.39682" lon="1.13516">
<ele>119.0</ele>
<time>2026-08-25T12:53:26Z</time>
</trkpt>
<trkpt lat="49.39685" lon="1.1351099999999998">
<ele>124.0</ele>
<time>2026-08-25T12:53:27Z</time>
</trkpt>
<trkpt lat="49.396879999999996" lon="1.13507">
<ele>124.0</ele>
<time>2026-08-25T12:53:29Z</time>
</trkpt>
<trkpt lat="49.39691" lon="1.13504">
<ele>124.0</ele>
<time>2026-08-25T12:53:31Z</time>
</trkpt>
<trkpt lat="49.39694" lon="1.1350099999999999">
<ele>124.0</ele>
<time>2026-08-25T12:53:34Z</time>
</trkpt>
<trkpt lat="49.396969999999996" lon="1.13499">
<ele>124.0</ele>
<time>2026-08-25T12:53:36Z</time>
</trkpt>
<trkpt lat="49.397009999999995" lon="1.13496">
<ele>124.0</ele>
<time>2026-08-25T12:53:39Z</time>
</trkpt>
<trkpt lat="49.39704" lon="1.13493">
<ele>124.0</ele>
<time>2026-08-25T12:53:41Z</time>
</trkpt>
<trkpt lat="49.39707" lon="1.1349099999999999">
<ele>124.0</ele>
<time>2026-08-25T12:53:43Z</time>
</trkpt>
<trkpt lat="49.397099999999995" lon="1.1348799999999999">
<ele>118.0</ele>
<time>2026-08-25T12:53:45Z</time>
</trkpt>
<trkpt lat="49.39713" lon="1.13486">
<ele>123.0</ele>
<time>2026-08-25T12:53:47Z</time>
</trkpt>
<trkpt lat="49.397169999999996" lon="1.13483">
<ele>123.0</ele>
<time>2026-08-25T12:53:50Z</time>
</trkpt>
<trkpt lat="49.397189999999995" lon="1.1348">
<ele>123.0</ele>
<time>2026-08-25T12:53:53Z</time>
</trkpt>
<trkpt lat="49.3972" lon="1.13476">
<ele>123.0</ele>
<time>2026-08-25T12:54:15Z</time>
</trkpt>
<trkpt lat="49.39722" lon="1.13472">
<ele>123.0</ele>
<time>2026-08-25T12:54:20Z</time>
</trkpt>
<trkpt lat="49.39724" lon="1.1347">
<ele>123.0</ele>
<time>2026-08-25T12:54:24Z</time>
</trkpt>
<trkpt lat="49.39727" lon="1.1346699999999998">
<ele>123.0</ele>
<time>2026-08-25T12:54:27Z</time>
</trkpt>
<trkpt lat="49.397299999999994" lon="1.13465">
<ele>123.0</ele>
<time>2026-08-25T12:54:30Z</time>
</trkpt>
<trkpt lat="49.39732" lon="1.13462">
<ele>123.0</ele>
<time>2026-08-25T12:54:32Z</time>
</trkpt>
<trkpt lat="49.39734" lon="1.1346">
<ele>123.0</ele>
<time>2026-08-25T12:54:34Z</time>
</trkpt>
<trkpt lat="49.397369999999995" lon="1.1345699999999999">
<ele>119.0</ele>
<time>2026-08-25T12:54:37Z</time>
</trkpt>
<trkpt lat="49.3974" lon="1.1345399999999999">
<ele>119.0</ele>
<time>2026-08-25T12:54:41Z</time>
</trkpt>
<trkpt lat="49.39742" lon="1.13451">
<ele>119.0</ele>
<time>2026-08-25T12:54:44Z</time>
</trkpt>
<trkpt lat="49.397459999999995" lon="1.13449">
<ele>119.0</ele>
<time>2026-08-25T12:54:47Z</time>
</trkpt>
<trkpt lat="49.39749" lon="1.13448">
<ele>119.0</ele>
<time>2026-08-25T12:54:50Z</time>
</trkpt>
<trkpt lat="49.39752" lon="1.1344699999999999">
<ele>119.0</ele>
<time>2026-08-25T12:54:53Z</time>
</trkpt>
<trkpt lat="49.39756" lon="1.13446">
<ele>119.0</ele>
<time>2026-08-25T12:54:56Z</time>
</trkpt>
<trkpt lat="49.39759" lon="1.13444">
<ele>119.0</ele>
<time>2026-08-25T12:54:59Z</time>
</trkpt>
<trkpt lat="49.397619999999996" lon="1.13442">
<ele>119.0</ele>
<time>2026-08-25T12:55:05Z</time>
</trkpt>
<trkpt lat="49.397619999999996" lon="1.13444">
<ele>119.0</ele>
<time>2026-08-25T12:55:09Z</time>
</trkpt>
<trkpt lat="49.39761" lon="1.1344699999999999">
<ele>119.0</ele>
<time>2026-08-25T12:55:11Z</time>
</trkpt>
<trkpt lat="49.39759" lon="1.1344999999999998">
<ele>119.0</ele>
<time>2026-08-25T12:55:14Z</time>
</trkpt>
<trkpt lat="49.39756" lon="1.13451">
<ele>119.0</ele>
<time>2026-08-25T12:55:17Z</time>
</trkpt>
<trkpt lat="49.397569999999995" lon="1.13452">
<ele>119.0</ele>
<time>2026-08-25T12:55:18Z</time>
</trkpt>
<trkpt lat="49.39759" lon="1.13453">
<ele>119.0</ele>
<time>2026-08-25T12:55:20Z</time>
</trkpt>
<trkpt lat="49.397619999999996" lon="1.13453">
<ele>119.0</ele>
<time>2026-08-25T12:55:21Z</time>
</trkpt>
<trkpt lat="49.39765" lon="1.13451">
<ele>111.0</ele>
<time>2026-08-25T12:55:22Z</time>
</trkpt>
<trkpt lat="49.39769" lon="1.13451">
<ele>111.0</ele>
<time>2026-08-25T12:55:23Z</time>
</trkpt>
<trkpt lat="49.39772" lon="1.1344999999999998">
<ele>111.0</ele>
<time>2026-08-25T12:55:24Z</time>
</trkpt>
<trkpt lat="49.397749999999995" lon="1.1344999999999998">
<ele>111.0</ele>
<time>2026-08-25T12:55:27Z</time>
</trkpt>
<trkpt lat="49.39778" lon="1.13451">
<ele>111.0</ele>
<time>2026-08-25T12:55:30Z</time>
</trkpt>
<trkpt lat="49.39781" lon="1.13452">
<ele>111.0</ele>
<time>2026-08-25T12:55:33Z</time>
</trkpt>
<trkpt lat="49.397839999999995" lon="1.1345399999999999">
<ele>111.0</ele>
<time>2026-08-25T12:55:36Z</time>
</trkpt>
<trkpt lat="49.39788" lon="1.1345399999999999">
<ele>111.0</ele>
<time>2026-08-25T12:55:38Z</time>
</trkpt>
<trkpt lat="49.397909999999996" lon="1.13453">
<ele>111.0</ele>
<time>2026-08-25T12:55:40Z</time>
</trkpt>
<trkpt lat="49.397929999999995" lon="1.1344999999999998">
<ele>104.0</ele>
<time>2026-08-25T12:55:42Z</time>
</trkpt>
<trkpt lat="49.397949999999994" lon="1.13446">
<ele>104.0</ele>
<time>2026-08-25T12:55:44Z</time>
</trkpt>
<trkpt lat="49.39797" lon="1.13442">
<ele>104.0</ele>
<time>2026-08-25T12:55:47Z</time>
</trkpt>
<trkpt lat="49.39799" lon="1.13439">
<ele>104.0</ele>
<time>2026-08-25T12:55:52Z</time>
</trkpt>
<trkpt lat="49.398019999999995" lon="1.13438">
<ele>104.0</ele>
<time>2026-08-25T12:55:57Z</time>
</trkpt>
<trkpt lat="49.39805" lon="1.13435">
<ele>104.0</ele>
<time>2026-08-25T12:56:02Z</time>
</trkpt>
<trkpt lat="49.39808" lon="1.1343299999999998">
<ele>104.0</ele>
<time>2026-08-25T12:56:05Z</time>
</trkpt>
<trkpt lat="49.3981" lon="1.13431">
<ele>104.0</ele>
<time>2026-08-25T12:56:07Z</time>
</trkpt>
<trkpt lat="49.398129999999995" lon="1.13429">
<ele>106.0</ele>
<time>2026-08-25T12:56:10Z</time>
</trkpt>
<trkpt lat="49.39816" lon="1.13426">
<ele>106.0</ele>
<time>2026-08-25T12:56:13Z</time>
</trkpt>
<trkpt lat="49.39819" lon="1.13422">
<ele>106.0</ele>
<time>2026-08-25T12:56:16Z</time>
</trkpt>
<trkpt lat="49.398199999999996" lon="1.13418">
<ele>95.0</ele>
<time>2026-08-25T12:56:19Z</time>
</trkpt>
<trkpt lat="49.39821" lon="1.13414">
<ele>95.0</ele>
<time>2026-08-25T12:56:22Z</time>
</trkpt>
<trkpt lat="49.39823" lon="1.1340999999999999">
<ele>95.0</ele>
<time>2026-08-25T12:56:25Z</time>
</trkpt>
<trkpt lat="49.39825" lon="1.13407">
<ele>95.0</ele>
<time>2026-08-25T12:56:28Z</time>
</trkpt>
<trkpt lat="49.39827" lon="1.13404">
<ele>95.0</ele>
<time>2026-08-25T12:56:31Z</time>
</trkpt>
<trkpt lat="49.398289999999996" lon="1.134">
<ele>95.0</ele>
<time>2026-08-25T12:56:33Z</time>
</trkpt>
<trkpt lat="49.3983" lon="1.1339599999999999">
<ele>95.0</ele>
<time>2026-08-25T12:56:36Z</time>
</trkpt>
<trkpt lat="49.39832" lon="1.1339299999999999">
<ele>95.0</ele>
<time>2026-08-25T12:56:41Z</time>
</trkpt>
<trkpt lat="49.39832" lon="1.13391">
<ele>95.0</ele>
<time>2026-08-25T12:56:46Z</time>
</trkpt>
<trkpt lat="49.39832" lon="1.13387">
<ele>95.0</ele>
<time>2026-08-25T12:56:51Z</time>
</trkpt>
<trkpt lat="49.39832" lon="1.13382">
<ele>95.0</ele>
<time>2026-08-25T12:56:55Z</time>
</trkpt>
<trkpt lat="49.398309999999995" lon="1.13377">
<ele>95.0</ele>
<time>2026-08-25T12:56:59Z</time>
</trkpt>
<trkpt lat="49.3983" lon="1.13373">
<ele>94.0</ele>
<time>2026-08-25T12:57:03Z</time>
</trkpt>
<trkpt lat="49.398289999999996" lon="1.13368">
<ele>94.0</ele>
<time>2026-08-25T12:57:07Z</time>
</trkpt>
<trkpt lat="49.398289999999996" lon="1.13363">
<ele>94.0</ele>
<time>2026-08-25T12:57:10Z</time>
</trkpt>
<trkpt lat="49.398289999999996" lon="1.1335899999999999">
<ele>94.0</ele>
<time>2026-08-25T12:57:13Z</time>
</trkpt>
<trkpt lat="49.398289999999996" lon="1.13353">
<ele>94.0</ele>
<time>2026-08-25T12:57:16Z</time>
</trkpt>
<trkpt lat="49.398309999999995" lon="1.1334899999999999">
<ele>94.0</ele>
<time>2026-08-25T12:57:19Z</time>
</trkpt>
<trkpt lat="49.398329999999994" lon="1.13344">
<ele>93.0</ele>
<time>2026-08-25T12:57:22Z</time>
</trkpt>
<trkpt lat="49.39835" lon="1.13341">
<ele>93.0</ele>
<time>2026-08-25T12:57:25Z</time>
</trkpt>
<trkpt lat="49.39837" lon="1.13337">
<ele>93.0</ele>
<time>2026-08-25T12:57:34Z</time>
</trkpt>
<trkpt lat="49.39839" lon="1.13333">
<ele>93.0</ele>
<time>2026-08-25T12:57:37Z</time>
</trkpt>
<trkpt lat="49.398419999999994" lon="1.1333">
<ele>93.0</ele>
<time>2026-08-25T12:57:40Z</time>
</trkpt>
<trkpt lat="49.39844" lon="1.13327">
<ele>93.0</ele>
<time>2026-08-25T12:57:48Z</time>
</trkpt>
<trkpt lat="49.398469999999996" lon="1.13324">
<ele>93.0</ele>
<time>2026-08-25T12:57:53Z</time>
</trkpt>
<trkpt lat="49.398489999999995" lon="1.13321">
<ele>81.0</ele>
<time>2026-08-25T12:58:00Z</time>
</trkpt>
<trkpt lat="49.39852" lon="1.13319">
<ele>77.0</ele>
<time>2026-08-25T12:58:09Z</time>
</trkpt>
<trkpt lat="49.39854" lon="1.1331499999999999">
<ele>77.0</ele>
<time>2026-08-25T12:58:16Z</time>
</trkpt>
<trkpt lat="49.398559999999996" lon="1.1331499999999999">
<ele>77.0</ele>
<time>2026-08-25T12:58:21Z</time>
</trkpt>
<trkpt lat="49.39859" lon="1.13316">
<ele>77.0</ele>
<time>2026-08-25T12:58:24Z</time>
</trkpt>
<trkpt lat="49.39862" lon="1.13314">
<ele>77.0</ele>
<time>2026-08-25T12:58:54Z</time>
</trkpt>
<trkpt lat="49.398649999999996" lon="1.13313">
<ele>77.0</ele>
<time>2026-08-25T12:58:58Z</time>
</trkpt>
<trkpt lat="49.398669999999996" lon="1.1331099999999998">
<ele>77.0</ele>
<time>2026-08-25T12:59:05Z</time>
</trkpt>
<trkpt lat="49.3987" lon="1.1331">
<ele>77.0</ele>
<time>2026-08-25T12:59:09Z</time>
</trkpt>
<trkpt lat="49.39873" lon="1.1331099999999998">
<ele>77.0</ele>
<time>2026-08-25T12:59:12Z</time>
</trkpt>
<trkpt lat="49.398759999999996" lon="1.13312">
<ele>75.0</ele>
<time>2026-08-25T12:59:15Z</time>
</trkpt>
<trkpt lat="49.398799999999994" lon="1.13312">
<ele>75.0</ele>
<time>2026-08-25T12:59:18Z</time>
</trkpt>
<trkpt lat="49.39883" lon="1.13312">
<ele>75.0</ele>
<time>2026-08-25T12:59:21Z</time>
</trkpt>
<trkpt lat="49.39886" lon="1.13312">
<ele>75.0</ele>
<time>2026-08-25T12:59:24Z</time>
</trkpt>
<trkpt lat="49.398889999999994" lon="1.13312">
<ele>75.0</ele>
<time>2026-08-25T12:59:27Z</time>
</trkpt>
<trkpt lat="49.39892" lon="1.1331">
<ele>75.0</ele>
<time>2026-08-25T12:59:29Z</time>
</trkpt>
<trkpt lat="49.39895" lon="1.1330799999999999">
<ele>75.0</ele>
<time>2026-08-25T12:59:31Z</time>
</trkpt>
<trkpt lat="49.39897" lon="1.13304">
<ele>75.0</ele>
<time>2026-08-25T12:59:33Z</time>
</trkpt>
<trkpt lat="49.39899" lon="1.133">
<ele>75.0</ele>
<time>2026-08-25T12:59:35Z</time>
</trkpt>
<trkpt lat="49.39901" lon="1.13297">
<ele>75.0</ele>
<time>2026-08-25T12:59:37Z</time>
</trkpt>
<trkpt lat="49.399029999999996" lon="1.13294">
<ele>75.0</ele>
<time>2026-08-25T12:59:39Z</time>
</trkpt>
<trkpt lat="49.39906" lon="1.1329">
<ele>72.0</ele>
<time>2026-08-25T12:59:42Z</time>
</trkpt>
<trkpt lat="49.39908" lon="1.13287">
<ele>72.0</ele>
<time>2026-08-25T12:59:44Z</time>
</trkpt>
<trkpt lat="49.3991" lon="1.13282">
<ele>72.0</ele>
<time>2026-08-25T12:59:47Z</time>
</trkpt>
<trkpt lat="49.399119999999996" lon="1.13277">
<ele>72.0</ele>
<time>2026-08-25T12:59:49Z</time>
</trkpt>
<trkpt lat="49.39915" lon="1.1327399999999999">
<ele>72.0</ele>
<time>2026-08-25T12:59:51Z</time>
</trkpt>
<trkpt lat="49.39918" lon="1.1327399999999999">
<ele>72.0</ele>
<time>2026-08-25T12:59:53Z</time>
</trkpt>
<trkpt lat="49.39921" lon="1.13272">
<ele>72.0</ele>
<time>2026-08-25T12:59:58Z</time>
</trkpt>
<trkpt lat="49.399229999999996" lon="1.1327">
<ele>72.0</ele>
<time>2026-08-25T13:00:02Z</time>
</trkpt>
<trkpt lat="49.399249999999995" lon="1.13268">
<ele>72.0</ele>
<time>2026-08-25T13:00:06Z</time>
</trkpt>
<trkpt lat="49.39928" lon="1.13268">
<ele>72.0</ele>
<time>2026-08-25T13:00:10Z</time>
</trkpt>
<trkpt lat="49.39931" lon="1.1326699999999998">
<ele>69.0</ele>
<time>2026-08-25T13:00:13Z</time>
</trkpt>
<trkpt lat="49.399339999999995" lon="1.13266">
<ele>69.0</ele>
<time>2026-08-25T13:00:16Z</time>
</trkpt>
<trkpt lat="49.39937" lon="1.1326399999999999">
<ele>69.0</ele>
<time>2026-08-25T13:00:19Z</time>
</trkpt>
<trkpt lat="49.3994" lon="1.13262">
<ele>69.0</ele>
<time>2026-08-25T13:00:22Z</time>
</trkpt>
<trkpt lat="49.399429999999995" lon="1.1326">
<ele>69.0</ele>
<time>2026-08-25T13:00:23Z</time>
</trkpt>
<trkpt lat="49.39946" lon="1.1325699999999999">
<ele>69.0</ele>
<time>2026-08-25T13:00:25Z</time>
</trkpt>
<trkpt lat="49.39947" lon="1.13253">
<ele>69.0</ele>
<time>2026-08-25T13:00:27Z</time>
</trkpt>
<trkpt lat="49.39946" lon="1.1324999999999998">
<ele>69.0</ele>
<time>2026-08-25T13:00:30Z</time>
</trkpt>
<trkpt lat="49.399449999999995" lon="1.13245">
<ele>69.0</ele>
<time>2026-08-25T13:00:33Z</time>
</trkpt>
<trkpt lat="49.399449999999995" lon="1.1323999999999999">
<ele>69.0</ele>
<time>2026-08-25T13:00:36Z</time>
</trkpt>
<trkpt lat="49.399449999999995" lon="1.13234">
<ele>69.0</ele>
<time>2026-08-25T13:00:39Z</time>
</trkpt>
<trkpt lat="49.39946" lon="1.13229">
<ele>69.0</ele>
<time>2026-08-25T13:00:42Z</time>
</trkpt>
<trkpt lat="49.39948" lon="1.13226">
<ele>69.0</ele>
<time>2026-08-25T13:00:45Z</time>
</trkpt>
<trkpt lat="49.399499999999996" lon="1.1322299999999998">
<ele>69.0</ele>
<time>2026-08-25T13:00:48Z</time>
</trkpt>
<trkpt lat="49.399519999999995" lon="1.13221">
<ele>69.0</ele>
<time>2026-08-25T13:00:51Z</time>
</trkpt>
<trkpt lat="49.39955" lon="1.1321999999999999">
<ele>69.0</ele>
<time>2026-08-25T13:00:58Z</time>
</trkpt>
<trkpt lat="49.39957" lon="1.13222">
<ele>69.0</ele>
<time>2026-08-25T13:01:01Z</time>
</trkpt>
<trkpt lat="49.3996" lon="1.13221">
<ele>64.0</ele>
<time>2026-08-25T13:01:04Z</time>
</trkpt>
<trkpt lat="49.39962" lon="1.1321999999999999">
<ele>64.0</ele>
<time>2026-08-25T13:01:07Z</time>
</trkpt>
<trkpt lat="49.39964" lon="1.13216">
<ele>64.0</ele>
<time>2026-08-25T13:01:11Z</time>
</trkpt>
<trkpt lat="49.39967" lon="1.13215">
<ele>64.0</ele>
<time>2026-08-25T13:01:21Z</time>
</trkpt>
<trkpt lat="49.399699999999996" lon="1.1321299999999999">
<ele>64.0</ele>
<time>2026-08-25T13:01:24Z</time>
</trkpt>
<trkpt lat="49.39973" lon="1.1320999999999999">
<ele>64.0</ele>
<time>2026-08-25T13:01:28Z</time>
</trkpt>
<trkpt lat="49.39975" lon="1.13208">
<ele>64.0</ele>
<time>2026-08-25T13:01:31Z</time>
</trkpt>
<trkpt lat="49.39978" lon="1.13207">
<ele>64.0</ele>
<time>2026-08-25T13:01:34Z</time>
</trkpt>
<trkpt lat="49.399809999999995" lon="1.13205">
<ele>64.0</ele>
<time>2026-08-25T13:01:39Z</time>
</trkpt>
<trkpt lat="49.39984" lon="1.1320299999999999">
<ele>64.0</ele>
<time>2026-08-25T13:01:42Z</time>
</trkpt>
<trkpt lat="49.39985" lon="1.132">
<ele>64.0</ele>
<time>2026-08-25T13:01:51Z</time>
</trkpt>
<trkpt lat="49.399879999999996" lon="1.13197">
<ele>61.0</ele>
<time>2026-08-25T13:01:54Z</time>
</trkpt>
<trkpt lat="49.39987" lon="1.13194">
<ele>61.0</ele>
<time>2026-08-25T13:02:02Z</time>
</trkpt>
<trkpt lat="49.39985" lon="1.13191">
<ele>64.0</ele>
<time>2026-08-25T13:02:06Z</time>
</trkpt>
<trkpt lat="49.399829999999994" lon="1.1318899999999998">
<ele>64.0</ele>
<time>2026-08-25T13:02:10Z</time>
</trkpt>
<trkpt lat="49.3998" lon="1.13187">
<ele>64.0</ele>
<time>2026-08-25T13:02:14Z</time>
</trkpt>
<trkpt lat="49.399789999999996" lon="1.13188">
<ele>64.0</ele>
<time>2026-08-25T13:02:19Z</time>
</trkpt>
<trkpt lat="49.3998" lon="1.13192">
<ele>64.0</ele>
<time>2026-08-25T13:02:22Z</time>
</trkpt>
<trkpt lat="49.399829999999994" lon="1.1319">
<ele>64.0</ele>
<time>2026-08-25T13:02:27Z</time>
</trkpt>
<trkpt lat="49.39986" lon="1.13188">
<ele>64.0</ele>
<time>2026-08-25T13:02:28Z</time>
</trkpt>
<trkpt lat="49.39989" lon="1.1318599999999999">
<ele>61.0</ele>
<time>2026-08-25T13:02:31Z</time>
</trkpt>
<trkpt lat="49.399919999999995" lon="1.13185">
<ele>61.0</ele>
<time>2026-08-25T13:02:36Z</time>
</trkpt>
<trkpt lat="49.39996" lon="1.13182">
<ele>61.0</ele>
<time>2026-08-25T13:02:39Z</time>
</trkpt>
<trkpt lat="49.399989999999995" lon="1.1317899999999999">
<ele>60.0</ele>
<time>2026-08-25T13:02:41Z</time>
</trkpt>
<trkpt lat="49.40003" lon="1.1317599999999999">
<ele>60.0</ele>
<time>2026-08-25T13:02:43Z</time>
</trkpt>
<trkpt lat="49.40005" lon="1.13173">
<ele>60.0</ele>
<time>2026-08-25T13:02:44Z</time>
</trkpt>
<trkpt lat="49.400079999999996" lon="1.1317">
<ele>60.0</ele>
<time>2026-08-25T13:02:45Z</time>
</trkpt>
<trkpt lat="49.400099999999995" lon="1.13167">
<ele>60.0</ele>
<time>2026-08-25T13:02:46Z</time>
</trkpt>
<trkpt lat="49.40012" lon="1.13164">
<ele>60.0</ele>
<time>2026-08-25T13:02:47Z</time>
</trkpt>
<trkpt lat="49.40015" lon="1.1315899999999999">
<ele>53.0</ele>
<time>2026-08-25T13:02:49Z</time>
</trkpt>
<trkpt lat="49.400169999999996" lon="1.13154">
<ele>53.0</ele>
<time>2026-08-25T13:02:51Z</time>
</trkpt>
<trkpt lat="49.400189999999995" lon="1.1315">
<ele>52.0</ele>
<time>2026-08-25T13:02:53Z</time>
</trkpt>
<trkpt lat="49.4002" lon="1.1314499999999998">
<ele>52.0</ele>
<time>2026-08-25T13:02:56Z</time>
</trkpt>
<trkpt lat="49.40021" lon="1.1314">
<ele>52.0</ele>
<time>2026-08-25T13:03:00Z</time>
</trkpt>
<trkpt lat="49.40022" lon="1.1313499999999999">
<ele>52.0</ele>
<time>2026-08-25T13:03:04Z</time>
</trkpt>
<trkpt lat="49.40021" lon="1.13131">
<ele>52.0</ele>
<time>2026-08-25T13:03:07Z</time>
</trkpt>
<trkpt lat="49.40021" lon="1.13127">
<ele>52.0</ele>
<time>2026-08-25T13:03:10Z</time>
</trkpt>
<trkpt lat="49.400189999999995" lon="1.13123">
<ele>54.0</ele>
<time>2026-08-25T13:03:12Z</time>
</trkpt>
<trkpt lat="49.400169999999996" lon="1.13119">
<ele>54.0</ele>
<time>2026-08-25T13:03:15Z</time>
</trkpt>
<trkpt lat="49.40016" lon="1.13114">
<ele>54.0</ele>
<time>2026-08-25T13:03:18Z</time>
</trkpt>
<trkpt lat="49.40016" lon="1.13109">
<ele>54.0</ele>
<time>2026-08-25T13:03:21Z</time>
</trkpt>
<trkpt lat="49.40016" lon="1.13104">
<ele>54.0</ele>
<time>2026-08-25T13:03:24Z</time>
</trkpt>
<trkpt lat="49.400169999999996" lon="1.13099">
<ele>54.0</ele>
<time>2026-08-25T13:03:27Z</time>
</trkpt>
<trkpt lat="49.40018" lon="1.13094">
<ele>55.0</ele>
<time>2026-08-25T13:03:30Z</time>
</trkpt>
<trkpt lat="49.400189999999995" lon="1.1308799999999999">
<ele>55.0</ele>
<time>2026-08-25T13:03:33Z</time>
</trkpt>
<trkpt lat="49.4002" lon="1.1308399999999998">
<ele>55.0</ele>
<time>2026-08-25T13:03:35Z</time>
</trkpt>
<trkpt lat="49.40021" lon="1.13079">
<ele>55.0</ele>
<time>2026-08-25T13:03:38Z</time>
</trkpt>
<trkpt lat="49.40021" lon="1.1307399999999999">
<ele>55.0</ele>
<time>2026-08-25T13:03:41Z</time>
</trkpt>
<trkpt lat="49.4002" lon="1.13069">
<ele>54.0</ele>
<time>2026-08-25T13:03:44Z</time>
</trkpt>
<trkpt lat="49.40021" lon="1.13065">
<ele>54.0</ele>
<time>2026-08-25T13:03:47Z</time>
</trkpt>
<trkpt lat="49.40022" lon="1.13061">
<ele>54.0</ele>
<time>2026-08-25T13:03:50Z</time>
</trkpt>
<trkpt lat="49.40023" lon="1.13056">
<ele>54.0</ele>
<time>2026-08-25T13:03:54Z</time>
</trkpt>
<trkpt lat="49.40023" lon="1.13052">
<ele>54.0</ele>
<time>2026-08-25T13:03:57Z</time>
</trkpt>
<trkpt lat="49.40023" lon="1.13048">
<ele>54.0</ele>
<time>2026-08-25T13:04:00Z</time>
</trkpt>
<trkpt lat="49.40022" lon="1.13043">
<ele>54.0</ele>
<time>2026-08-25T13:04:03Z</time>
</trkpt>
<trkpt lat="49.40022" lon="1.13039">
<ele>51.0</ele>
<time>2026-08-25T13:04:06Z</time>
</trkpt>
<trkpt lat="49.40021" lon="1.13035">
<ele>51.0</ele>
<time>2026-08-25T13:04:10Z</time>
</trkpt>
<trkpt lat="49.40021" lon="1.1302999999999999">
<ele>51.0</ele>
<time>2026-08-25T13:04:16Z</time>
</trkpt>
<trkpt lat="49.40021" lon="1.13025">
<ele>51.0</ele>
<time>2026-08-25T13:04:19Z</time>
</trkpt>
<trkpt lat="49.40022" lon="1.1301999999999999">
<ele>51.0</ele>
<time>2026-08-25T13:04:22Z</time>
</trkpt>
<trkpt lat="49.40023" lon="1.13015">
<ele>51.0</ele>
<time>2026-08-25T13:04:25Z</time>
</trkpt>
<trkpt lat="49.40023" lon="1.1300999999999999">
<ele>47.0</ele>
<time>2026-08-25T13:04:28Z</time>
</trkpt>
<trkpt lat="49.40023" lon="1.1300599999999998">
<ele>47.0</ele>
<time>2026-08-25T13:04:31Z</time>
</trkpt>
<trkpt lat="49.40024" lon="1.13001">
<ele>47.0</ele>
<time>2026-08-25T13:04:34Z</time>
</trkpt>
<trkpt lat="49.40024" lon="1.1299599999999999">
<ele>47.0</ele>
<time>2026-08-25T13:04:37Z</time>
</trkpt>
<trkpt lat="49.40024" lon="1.12991">
<ele>47.0</ele>
<time>2026-08-25T13:04:40Z</time>
</trkpt>
<trkpt lat="49.40024" lon="1.12987">
<ele>47.0</ele>
<time>2026-08-25T13:04:43Z</time>
</trkpt>
<trkpt lat="49.40024" lon="1.12982">
<ele>43.0</ele>
<time>2026-08-25T13:04:47Z</time>
</trkpt>
<trkpt lat="49.40024" lon="1.12978">
<ele>43.0</ele>
<time>2026-08-25T13:04:50Z</time>
</trkpt>
<trkpt lat="49.40024" lon="1.12973">
<ele>43.0</ele>
<time>2026-08-25T13:04:53Z</time>
</trkpt>
<trkpt lat="49.40024" lon="1.1296899999999999">
<ele>43.0</ele>
<time>2026-08-25T13:04:56Z</time>
</trkpt>
<trkpt lat="49.40024" lon="1.12964">
<ele>43.0</ele>
<time>2026-08-25T13:04:59Z</time>
</trkpt>
<trkpt lat="49.40023" lon="1.1295899999999999">
<ele>43.0</ele>
<time>2026-08-25T13:05:02Z</time>
</trkpt>
<trkpt lat="49.40023" lon="1.12953">
<ele>41.0</ele>
<time>2026-08-25T13:05:05Z</time>
</trkpt>
<trkpt lat="49.40023" lon="1.1294899999999999">
<ele>41.0</ele>
<time>2026-08-25T13:05:08Z</time>
</trkpt>
<trkpt lat="49.40022" lon="1.12944">
<ele>41.0</ele>
<time>2026-08-25T13:05:12Z</time>
</trkpt>
<trkpt lat="49.40022" lon="1.12939">
<ele>41.0</ele>
<time>2026-08-25T13:05:16Z</time>
</trkpt>
<trkpt lat="49.40023" lon="1.1293499999999999">
<ele>41.0</ele>
<time>2026-08-25T13:05:20Z</time>
</trkpt>
<trkpt lat="49.40022" lon="1.12931">
<ele>41.0</ele>
<time>2026-08-25T13:05:25Z</time>
</trkpt>
<trkpt lat="49.40022" lon="1.12927">
<ele>40.0</ele>
<time>2026-08-25T13:05:30Z</time>
</trkpt>
<trkpt lat="49.40022" lon="1.12922">
<ele>40.0</ele>
<time>2026-08-25T13:05:34Z</time>
</trkpt>
<trkpt lat="49.40022" lon="1.12917">
<ele>40.0</ele>
<time>2026-08-25T13:05:37Z</time>
</trkpt>
<trkpt lat="49.40021" lon="1.12913">
<ele>40.0</ele>
<time>2026-08-25T13:05:40Z</time>
</trkpt>
<trkpt lat="49.40021" lon="1.1290799999999999">
<ele>40.0</ele>
<time>2026-08-25T13:05:43Z</time>
</trkpt>
<trkpt lat="49.400189999999995" lon="1.12904">
<ele>40.0</ele>
<time>2026-08-25T13:05:46Z</time>
</trkpt>
<trkpt lat="49.400169999999996" lon="1.129">
<ele>38.0</ele>
<time>2026-08-25T13:05:49Z</time>
</trkpt>
<trkpt lat="49.400169999999996" lon="1.12895">
<ele>38.0</ele>
<time>2026-08-25T13:05:52Z</time>
</trkpt>
<trkpt lat="49.40016" lon="1.1289099999999999">
<ele>38.0</ele>
<time>2026-08-25T13:05:55Z</time>
</trkpt>
<trkpt lat="49.40015" lon="1.12887">
<ele>38.0</ele>
<time>2026-08-25T13:05:58Z</time>
</trkpt>
<trkpt lat="49.40015" lon="1.12882">
<ele>38.0</ele>
<time>2026-08-25T13:06:01Z</time>
</trkpt>
<trkpt lat="49.40014" lon="1.12878">
<ele>38.0</ele>
<time>2026-08-25T13:06:04Z</time>
</trkpt>
<trkpt lat="49.40014" lon="1.12873">
<ele>35.0</ele>
<time>2026-08-25T13:06:07Z</time>
</trkpt>
<trkpt lat="49.40013" lon="1.12869">
<ele>33.0</ele>
<time>2026-08-25T13:06:10Z</time>
</trkpt>
<trkpt lat="49.40013" lon="1.1286399999999999">
<ele>33.0</ele>
<time>2026-08-25T13:06:14Z</time>
</trkpt>
<trkpt lat="49.40012" lon="1.12859">
<ele>33.0</ele>
<time>2026-08-25T13:06:18Z</time>
</trkpt>
<trkpt lat="49.40012" lon="1.1285399999999999">
<ele>33.0</ele>
<time>2026-08-25T13:06:21Z</time>
</trkpt>
<trkpt lat="49.40012" lon="1.12849">
<ele>33.0</ele>
<time>2026-08-25T13:06:25Z</time>
</trkpt>
<trkpt lat="49.40012" lon="1.12845">
<ele>28.0</ele>
<time>2026-08-25T13:06:29Z</time>
</trkpt>
<trkpt lat="49.40012" lon="1.1283999999999998">
<ele>28.0</ele>
<time>2026-08-25T13:06:32Z</time>
</trkpt>
<trkpt lat="49.40011" lon="1.12835">
<ele>28.0</ele>
<time>2026-08-25T13:06:36Z</time>
</trkpt>
<trkpt lat="49.40011" lon="1.12831">
<ele>28.0</ele>
<time>2026-08-25T13:06:39Z</time>
</trkpt>
<trkpt lat="49.40011" lon="1.12826">
<ele>28.0</ele>
<time>2026-08-25T13:06:42Z</time>
</trkpt>
<trkpt lat="49.40011" lon="1.12821">
<ele>28.0</ele>
<time>2026-08-25T13:06:45Z</time>
</trkpt>
<trkpt lat="49.40012" lon="1.12816">
<ele>23.0</ele>
<time>2026-08-25T13:06:48Z</time>
</trkpt>
<trkpt lat="49.40013" lon="1.12811">
<ele>23.0</ele>
<time>2026-08-25T13:06:51Z</time>
</trkpt>
<trkpt lat="49.40014" lon="1.1280599999999998">
<ele>23.0</ele>
<time>2026-08-25T13:06:54Z</time>
</trkpt>
<trkpt lat="49.40015" lon="1.12802">
<ele>23.0</ele>
<time>2026-08-25T13:06:57Z</time>
</trkpt>
<trkpt lat="49.40015" lon="1.12797">
<ele>23.0</ele>
<time>2026-08-25T13:07:00Z</time>
</trkpt>
<trkpt lat="49.40016" lon="1.1279299999999999">
<ele>23.0</ele>
<time>2026-08-25T13:07:04Z</time>
</trkpt>
<trkpt lat="49.40015" lon="1.12788">
<ele>18.0</ele>
<time>2026-08-25T13:07:08Z</time>
</trkpt>
<trkpt lat="49.40014" lon="1.12784">
<ele>18.0</ele>
<time>2026-08-25T13:07:11Z</time>
</trkpt>
<trkpt lat="49.40014" lon="1.1277899999999998">
<ele>18.0</ele>
<time>2026-08-25T13:07:15Z</time>
</trkpt>
<trkpt lat="49.40014" lon="1.12774">
<ele>18.0</ele>
<time>2026-08-25T13:07:18Z</time>
</trkpt>
<trkpt lat="49.40012" lon="1.1276899999999999">
<ele>20.0</ele>
<time>2026-08-25T13:07:21Z</time>
</trkpt>
<trkpt lat="49.400099999999995" lon="1.1276599999999999">
<ele>20.0</ele>
<time>2026-08-25T13:07:24Z</time>
</trkpt>
<trkpt lat="49.400079999999996" lon="1.12761">
<ele>18.0</ele>
<time>2026-08-25T13:07:28Z</time>
</trkpt>
<trkpt lat="49.40007" lon="1.12757">
<ele>18.0</ele>
<time>2026-08-25T13:07:31Z</time>
</trkpt>
<trkpt lat="49.40005" lon="1.12754">
<ele>18.0</ele>
<time>2026-08-25T13:07:35Z</time>
</trkpt>
<trkpt lat="49.40003" lon="1.12751">
<ele>18.0</ele>
<time>2026-08-25T13:07:38Z</time>
</trkpt>
<trkpt lat="49.4" lon="1.12748">
<ele>18.0</ele>
<time>2026-08-25T13:07:41Z</time>
</trkpt>
<trkpt lat="49.399989999999995" lon="1.12744">
<ele>18.0</ele>
<time>2026-08-25T13:07:44Z</time>
</trkpt>
<trkpt lat="49.39998" lon="1.12739">
<ele>18.0</ele>
<time>2026-08-25T13:07:47Z</time>
</trkpt>
<trkpt lat="49.39996" lon="1.12736">
<ele>16.0</ele>
<time>2026-08-25T13:07:50Z</time>
</trkpt>
<trkpt lat="49.39994" lon="1.12733">
<ele>16.0</ele>
<time>2026-08-25T13:07:53Z</time>
</trkpt>
<trkpt lat="49.399919999999995" lon="1.12729">
<ele>16.0</ele>
<time>2026-08-25T13:07:57Z</time>
</trkpt>
<trkpt lat="49.399899999999995" lon="1.12726">
<ele>16.0</ele>
<time>2026-08-25T13:08:00Z</time>
</trkpt>
<trkpt lat="49.39987" lon="1.12723">
<ele>16.0</ele>
<time>2026-08-25T13:08:03Z</time>
</trkpt>
<trkpt lat="49.39985" lon="1.12719">
<ele>18.0</ele>
<time>2026-08-25T13:08:06Z</time>
</trkpt>
<trkpt lat="49.399829999999994" lon="1.1271499999999999">
<ele>18.0</ele>
<time>2026-08-25T13:08:08Z</time>
</trkpt>
<trkpt lat="49.3998" lon="1.12712">
<ele>18.0</ele>
<time>2026-08-25T13:08:10Z</time>
</trkpt>
<trkpt lat="49.39978" lon="1.1271">
<ele>18.0</ele>
<time>2026-08-25T13:08:12Z</time>
</trkpt>
<trkpt lat="49.39975" lon="1.12707">
<ele>16.0</ele>
<time>2026-08-25T13:08:14Z</time>
</trkpt>
<trkpt lat="49.399719999999995" lon="1.12707">
<ele>16.0</ele>
<time>2026-08-25T13:08:16Z</time>
</trkpt>
<trkpt lat="49.399699999999996" lon="1.12707">
<ele>16.0</ele>
<time>2026-08-25T13:08:19Z</time>
</trkpt>
<trkpt lat="49.39969" lon="1.12703">
<ele>16.0</ele>
<time>2026-08-25T13:08:29Z</time>
</trkpt>
<trkpt lat="49.39968" lon="1.12699">
<ele>16.0</ele>
<time>2026-08-25T13:08:31Z</time>
</trkpt>
<trkpt lat="49.39968" lon="1.12694">
<ele>16.0</ele>
<time>2026-08-25T13:08:33Z</time>
</trkpt>
<trkpt lat="49.39967" lon="1.1269">
<ele>16.0</ele>
<time>2026-08-25T13:08:36Z</time>
</trkpt>
<trkpt lat="49.39966" lon="1.12685">
<ele>16.0</ele>
<time>2026-08-25T13:08:39Z</time>
</trkpt>
<trkpt lat="49.39966" lon="1.1268">
<ele>15.0</ele>
<time>2026-08-25T13:08:42Z</time>
</trkpt>
<trkpt lat="49.39966" lon="1.12675">
<ele>15.0</ele>
<time>2026-08-25T13:08:45Z</time>
</trkpt>
<trkpt lat="49.39966" lon="1.1267099999999999">
<ele>15.0</ele>
<time>2026-08-25T13:08:48Z</time>
</trkpt>
<trkpt lat="49.39966" lon="1.12666">
<ele>15.0</ele>
<time>2026-08-25T13:08:59Z</time>
</trkpt>
<trkpt lat="49.39966" lon="1.12662">
<ele>15.0</ele>
<time>2026-08-25T13:09:03Z</time>
</trkpt>
<trkpt lat="49.39966" lon="1.1265699999999998">
<ele>15.0</ele>
<time>2026-08-25T13:09:10Z</time>
</trkpt>
<trkpt lat="49.39968" lon="1.1265399999999999">
<ele>15.0</ele>
<time>2026-08-25T13:09:14Z</time>
</trkpt>
<trkpt lat="49.399699999999996" lon="1.12651">
<ele>15.0</ele>
<time>2026-08-25T13:09:18Z</time>
</trkpt>
<trkpt lat="49.399719999999995" lon="1.12648">
<ele>15.0</ele>
<time>2026-08-25T13:09:24Z</time>
</trkpt>
<trkpt lat="49.39975" lon="1.12645">
<ele>15.0</ele>
<time>2026-08-25T13:09:27Z</time>
</trkpt>
<trkpt lat="49.39978" lon="1.1264399999999999">
<ele>15.0</ele>
<time>2026-08-25T13:09:30Z</time>
</trkpt>
<trkpt lat="49.399809999999995" lon="1.12642">
<ele>15.0</ele>
<time>2026-08-25T13:09:33Z</time>
</trkpt>
<trkpt lat="49.39984" lon="1.1263999999999998">
<ele>15.0</ele>
<time>2026-08-25T13:09:37Z</time>
</trkpt>
<trkpt lat="49.39986" lon="1.1263699999999999">
<ele>15.0</ele>
<time>2026-08-25T13:09:40Z</time>
</trkpt>
<trkpt lat="49.399879999999996" lon="1.12634">
<ele>15.0</ele>
<time>2026-08-25T13:09:44Z</time>
</trkpt>
<trkpt lat="49.39991" lon="1.12632">
<ele>15.0</ele>
<time>2026-08-25T13:09:48Z</time>
</trkpt>
<trkpt lat="49.39994" lon="1.12631">
<ele>15.0</ele>
<time>2026-08-25T13:09:51Z</time>
</trkpt>
<trkpt lat="49.39996" lon="1.12629">
<ele>15.0</ele>
<time>2026-08-25T13:09:56Z</time>
</trkpt>
<trkpt lat="49.399989999999995" lon="1.12625">
<ele>15.0</ele>
<time>2026-08-25T13:10:00Z</time>
</trkpt>
<trkpt lat="49.4" lon="1.12621">
<ele>15.0</ele>
<time>2026-08-25T13:10:03Z</time>
</trkpt>
<trkpt lat="49.40002" lon="1.12617">
<ele>15.0</ele>
<time>2026-08-25T13:10:06Z</time>
</trkpt>
<trkpt lat="49.40003" lon="1.12612">
<ele>15.0</ele>
<time>2026-08-25T13:10:09Z</time>
</trkpt>
<trkpt lat="49.40005" lon="1.12608">
<ele>15.0</ele>
<time>2026-08-25T13:10:12Z</time>
</trkpt>
<trkpt lat="49.40007" lon="1.12604">
<ele>15.0</ele>
<time>2026-08-25T13:10:15Z</time>
</trkpt>
<trkpt lat="49.40009" lon="1.12601">
<ele>15.0</ele>
<time>2026-08-25T13:10:55Z</time>
</trkpt>
<trkpt lat="49.40011" lon="1.12599">
<ele>15.0</ele>
<time>2026-08-25T13:11:00Z</time>
</trkpt>
<trkpt lat="49.40014" lon="1.12599">
<ele>18.0</ele>
<time>2026-08-25T13:11:12Z</time>
</trkpt>
<trkpt lat="49.400169999999996" lon="1.12599">
<ele>18.0</ele>
<time>2026-08-25T13:11:16Z</time>
</trkpt>
<trkpt lat="49.4002" lon="1.12597">
<ele>16.0</ele>
<time>2026-08-25T13:11:18Z</time>
</trkpt>
<trkpt lat="49.40023" lon="1.1259599999999998">
<ele>16.0</ele>
<time>2026-08-25T13:11:21Z</time>
</trkpt>
<trkpt lat="49.400259999999996" lon="1.12598">
<ele>18.0</ele>
<time>2026-08-25T13:11:25Z</time>
</trkpt>
<trkpt lat="49.400279999999995" lon="1.126">
<ele>18.0</ele>
<time>2026-08-25T13:11:28Z</time>
</trkpt>
<trkpt lat="49.40031" lon="1.12602">
<ele>18.0</ele>
<time>2026-08-25T13:11:31Z</time>
</trkpt>
<trkpt lat="49.40034" lon="1.12605">
<ele>18.0</ele>
<time>2026-08-25T13:11:35Z</time>
</trkpt>
<trkpt lat="49.40036" lon="1.12607">
<ele>18.0</ele>
<time>2026-08-25T13:11:44Z</time>
</trkpt>
<trkpt lat="49.40038" lon="1.1260599999999998">
<ele>18.0</ele>
<time>2026-08-25T13:11:51Z</time>
</trkpt>
<trkpt lat="49.4004" lon="1.1260299999999999">
<ele>18.0</ele>
<time>2026-08-25T13:11:56Z</time>
</trkpt>
<trkpt lat="49.40041" lon="1.12599">
<ele>18.0</ele>
<time>2026-08-25T13:12:01Z</time>
</trkpt>
<trkpt lat="49.40042" lon="1.1259599999999998">
<ele>20.0</ele>
<time>2026-08-25T13:12:05Z</time>
</trkpt>
<trkpt lat="49.40045" lon="1.12595">
<ele>20.0</ele>
<time>2026-08-25T13:12:09Z</time>
</trkpt>
<trkpt lat="49.400479999999995" lon="1.12594">
<ele>20.0</ele>
<time>2026-08-25T13:12:11Z</time>
</trkpt>
<trkpt lat="49.40051" lon="1.1259299999999999">
<ele>20.0</ele>
<time>2026-08-25T13:12:14Z</time>
</trkpt>
<trkpt lat="49.400529999999996" lon="1.12595">
<ele>20.0</ele>
<time>2026-08-25T13:12:47Z</time>
</trkpt>
<trkpt lat="49.400549999999996" lon="1.1259599999999998">
<ele>20.0</ele>
<time>2026-08-25T13:12:51Z</time>
</trkpt>
<trkpt lat="49.40058" lon="1.12597">
<ele>20.0</ele>
<time>2026-08-25T13:12:55Z</time>
</trkpt>
<trkpt lat="49.40061" lon="1.12598">
<ele>23.0</ele>
<time>2026-08-25T13:13:00Z</time>
</trkpt>
<trkpt lat="49.400639999999996" lon="1.12599">
<ele>23.0</ele>
<time>2026-08-25T13:13:05Z</time>
</trkpt>
<trkpt lat="49.40068" lon="1.12599">
<ele>23.0</ele>
<time>2026-08-25T13:13:07Z</time>
</trkpt>
<trkpt lat="49.40071" lon="1.12599">
<ele>27.0</ele>
<time>2026-08-25T13:13:09Z</time>
</trkpt>
<trkpt lat="49.400729999999996" lon="1.12598">
<ele>27.0</ele>
<time>2026-08-25T13:13:11Z</time>
</trkpt>
<trkpt lat="49.40076" lon="1.1259599999999998">
<ele>25.0</ele>
<time>2026-08-25T13:13:14Z</time>
</trkpt>
<trkpt lat="49.40079" lon="1.12595">
<ele>25.0</ele>
<time>2026-08-25T13:13:17Z</time>
</trkpt>
<trkpt lat="49.400819999999996" lon="1.12594">
<ele>25.0</ele>
<time>2026-08-25T13:13:22Z</time>
</trkpt>
<trkpt lat="49.40085" lon="1.12595">
<ele>25.0</ele>
<time>2026-08-25T13:13:26Z</time>
</trkpt>
<trkpt lat="49.40088" lon="1.1259599999999998">
<ele>25.0</ele>
<time>2026-08-25T13:13:32Z</time>
</trkpt>
<trkpt lat="49.400909999999996" lon="1.1259599999999998">
<ele>25.0</ele>
<time>2026-08-25T13:13:36Z</time>
</trkpt>
<trkpt lat="49.400909999999996" lon="1.12598">
<ele>27.0</ele>
<time>2026-08-25T13:13:53Z</time>
</trkpt>
<trkpt lat="49.400929999999995" lon="1.12602">
<ele>27.0</ele>
<time>2026-08-25T13:14:00Z</time>
</trkpt>
<trkpt lat="49.40094" lon="1.12605">
<ele>27.0</ele>
<time>2026-08-25T13:14:05Z</time>
</trkpt>
<trkpt lat="49.40096" lon="1.12609">
<ele>27.0</ele>
<time>2026-08-25T13:14:08Z</time>
</trkpt>
<trkpt lat="49.40098" lon="1.1261299999999999">
<ele>35.0</ele>
<time>2026-08-25T13:14:11Z</time>
</trkpt>
<trkpt lat="49.400999999999996" lon="1.12615">
<ele>35.0</ele>
<time>2026-08-25T13:14:15Z</time>
</trkpt>
<trkpt lat="49.40103" lon="1.12618">
<ele>35.0</ele>
<time>2026-08-25T13:14:19Z</time>
</trkpt>
<trkpt lat="49.40105" lon="1.1261999999999999">
<ele>35.0</ele>
<time>2026-08-25T13:14:23Z</time>
</trkpt>
<trkpt lat="49.40108" lon="1.12621">
<ele>35.0</ele>
<time>2026-08-25T13:14:27Z</time>
</trkpt>
<trkpt lat="49.401109999999996" lon="1.1261999999999999">
<ele>35.0</ele>
<time>2026-08-25T13:14:33Z</time>
</trkpt>
<trkpt lat="49.401129999999995" lon="1.1261999999999999">
<ele>35.0</ele>
<time>2026-08-25T13:14:39Z</time>
</trkpt>
<trkpt lat="49.40116" lon="1.12619">
<ele>35.0</ele>
<time>2026-08-25T13:14:44Z</time>
</trkpt>
<trkpt lat="49.40119" lon="1.1261999999999999">
<ele>35.0</ele>
<time>2026-08-25T13:14:50Z</time>
</trkpt>
<trkpt lat="49.401219999999995" lon="1.12621">
<ele>35.0</ele>
<time>2026-08-25T13:14:54Z</time>
</trkpt>
<trkpt lat="49.40125" lon="1.12622">
<ele>35.0</ele>
<time>2026-08-25T13:14:58Z</time>
</trkpt>
<trkpt lat="49.40128" lon="1.1262299999999998">
<ele>42.0</ele>
<time>2026-08-25T13:15:03Z</time>
</trkpt>
<trkpt lat="49.401309999999995" lon="1.12624">
<ele>42.0</ele>
<time>2026-08-25T13:15:07Z</time>
</trkpt>
<trkpt lat="49.40134" lon="1.12624">
<ele>42.0</ele>
<time>2026-08-25T13:15:11Z</time>
</trkpt>
<trkpt lat="49.40136" lon="1.12624">
<ele>42.0</ele>
<time>2026-08-25T13:15:17Z</time>
</trkpt>
<trkpt lat="49.40139" lon="1.1262299999999998">
<ele>42.0</ele>
<time>2026-08-25T13:15:22Z</time>
</trkpt>
<trkpt lat="49.401419999999995" lon="1.1261999999999999">
<ele>42.0</ele>
<time>2026-08-25T13:15:27Z</time>
</trkpt>
<trkpt lat="49.40144" lon="1.12618">
<ele>42.0</ele>
<time>2026-08-25T13:15:32Z</time>
</trkpt>
<trkpt lat="49.401469999999996" lon="1.12615">
<ele>42.0</ele>
<time>2026-08-25T13:15:36Z</time>
</trkpt>
<trkpt lat="49.4015" lon="1.1261299999999999">
<ele>42.0</ele>
<time>2026-08-25T13:15:41Z</time>
</trkpt>
<trkpt lat="49.40153" lon="1.12612">
<ele>44.0</ele>
<time>2026-08-25T13:15:46Z</time>
</trkpt>
<trkpt lat="49.40155" lon="1.12614">
<ele>44.0</ele>
<time>2026-08-25T13:15:52Z</time>
</trkpt>
<trkpt lat="49.40157" lon="1.12614">
<ele>44.0</ele>
<time>2026-08-25T13:15:55Z</time>
</trkpt>
<trkpt lat="49.401599999999995" lon="1.1261299999999999">
<ele>44.0</ele>
<time>2026-08-25T13:15:59Z</time>
</trkpt>
<trkpt lat="49.40163" lon="1.1261299999999999">
<ele>44.0</ele>
<time>2026-08-25T13:16:03Z</time>
</trkpt>
<trkpt lat="49.40166" lon="1.1261299999999999">
<ele>44.0</ele>
<time>2026-08-25T13:16:07Z</time>
</trkpt>
<trkpt lat="49.401689999999995" lon="1.12614">
<ele>44.0</ele>
<time>2026-08-25T13:16:12Z</time>
</trkpt>
<trkpt lat="49.401709999999994" lon="1.12617">
<ele>44.0</ele>
<time>2026-08-25T13:16:17Z</time>
</trkpt>
<trkpt lat="49.40175" lon="1.12617">
<ele>44.0</ele>
<time>2026-08-25T13:16:20Z</time>
</trkpt>
<trkpt lat="49.401779999999995" lon="1.12616">
<ele>44.0</ele>
<time>2026-08-25T13:16:24Z</time>
</trkpt>
<trkpt lat="49.40181" lon="1.12614">
<ele>46.0</ele>
<time>2026-08-25T13:16:27Z</time>
</trkpt>
<trkpt lat="49.401849999999996" lon="1.12614">
<ele>46.0</ele>
<time>2026-08-25T13:16:32Z</time>
</trkpt>
<trkpt lat="49.40188" lon="1.12615">
<ele>46.0</ele>
<time>2026-08-25T13:16:36Z</time>
</trkpt>
<trkpt lat="49.40191" lon="1.12615">
<ele>46.0</ele>
<time>2026-08-25T13:16:40Z</time>
</trkpt>
<trkpt lat="49.40195" lon="1.12615">
<ele>46.0</ele>
<time>2026-08-25T13:16:44Z</time>
</trkpt>
<trkpt lat="49.40197" lon="1.12614">
<ele>46.0</ele>
<time>2026-08-25T13:16:49Z</time>
</trkpt>
<trkpt lat="49.40201" lon="1.12614">
<ele>46.0</ele>
<time>2026-08-25T13:16:58Z</time>
</trkpt>
<trkpt lat="49.402029999999996" lon="1.12615">
<ele>46.0</ele>
<time>2026-08-25T13:17:02Z</time>
</trkpt>
<trkpt lat="49.40206" lon="1.12615">
<ele>46.0</ele>
<time>2026-08-25T13:17:06Z</time>
</trkpt>
<trkpt lat="49.40209" lon="1.12617">
<ele>48.0</ele>
<time>2026-08-25T13:17:09Z</time>
</trkpt>
<trkpt lat="49.40212" lon="1.12618">
<ele>48.0</ele>
<time>2026-08-25T13:17:13Z</time>
</trkpt>
<trkpt lat="49.40215" lon="1.12618">
<ele>48.0</ele>
<time>2026-08-25T13:17:17Z</time>
</trkpt>
<trkpt lat="49.40218" lon="1.12619">
<ele>48.0</ele>
<time>2026-08-25T13:17:20Z</time>
</trkpt>
<trkpt lat="49.40222" lon="1.12619">
<ele>48.0</ele>
<time>2026-08-25T13:17:23Z</time>
</trkpt>
<trkpt lat="49.402249999999995" lon="1.12619">
<ele>48.0</ele>
<time>2026-08-25T13:17:26Z</time>
</trkpt>
<trkpt lat="49.402269999999994" lon="1.1261999999999999">
<ele>48.0</ele>
<time>2026-08-25T13:17:30Z</time>
</trkpt>
<trkpt lat="49.4023" lon="1.12621">
<ele>48.0</ele>
<time>2026-08-25T13:17:37Z</time>
</trkpt>
<trkpt lat="49.40233" lon="1.12622">
<ele>48.0</ele>
<time>2026-08-25T13:17:42Z</time>
</trkpt>
<trkpt lat="49.402359999999994" lon="1.1262299999999998">
<ele>48.0</ele>
<time>2026-08-25T13:17:46Z</time>
</trkpt>
<trkpt lat="49.40238" lon="1.12621">
<ele>48.0</ele>
<time>2026-08-25T13:17:52Z</time>
</trkpt>
<trkpt lat="49.402409999999996" lon="1.1261999999999999">
<ele>48.0</ele>
<time>2026-08-25T13:17:55Z</time>
</trkpt>
<trkpt lat="49.40244" lon="1.12619">
<ele>48.0</ele>
<time>2026-08-25T13:17:58Z</time>
</trkpt>
<trkpt lat="49.40247" lon="1.12619">
<ele>48.0</ele>
<time>2026-08-25T13:18:02Z</time>
</trkpt>
<trkpt lat="49.402499999999996" lon="1.12618">
<ele>48.0</ele>
<time>2026-08-25T13:18:06Z</time>
</trkpt>
<trkpt lat="49.40253" lon="1.12616">
<ele>48.0</ele>
<time>2026-08-25T13:18:29Z</time>
</trkpt>
<trkpt lat="49.40256" lon="1.12616">
<ele>48.0</ele>
<time>2026-08-25T13:18:33Z</time>
</trkpt>
<trkpt lat="49.40259" lon="1.12616">
<ele>48.0</ele>
<time>2026-08-25T13:18:37Z</time>
</trkpt>
<trkpt lat="49.40262" lon="1.12616">
<ele>48.0</ele>
<time>2026-08-25T13:18:40Z</time>
</trkpt>
<trkpt lat="49.40265" lon="1.12616">
<ele>51.0</ele>
<time>2026-08-25T13:18:43Z</time>
</trkpt>
<trkpt lat="49.40268" lon="1.12616">
<ele>51.0</ele>
<time>2026-08-25T13:18:46Z</time>
</trkpt>
<trkpt lat="49.40271" lon="1.12616">
<ele>51.0</ele>
<time>2026-08-25T13:18:49Z</time>
</trkpt>
<trkpt lat="49.402739999999994" lon="1.12616">
<ele>51.0</ele>
<time>2026-08-25T13:18:52Z</time>
</trkpt>
<trkpt lat="49.40277" lon="1.12616">
<ele>51.0</ele>
<time>2026-08-25T13:18:56Z</time>
</trkpt>
<trkpt lat="49.402809999999995" lon="1.12616">
<ele>51.0</ele>
<time>2026-08-25T13:19:00Z</time>
</trkpt>
<trkpt lat="49.40285" lon="1.12616">
<ele>51.0</ele>
<time>2026-08-25T13:19:06Z</time>
</trkpt>
<trkpt lat="49.402879999999996" lon="1.12615">
<ele>51.0</ele>
<time>2026-08-25T13:19:12Z</time>
</trkpt>
<trkpt lat="49.402919999999995" lon="1.12615">
<ele>57.0</ele>
<time>2026-08-25T13:19:18Z</time>
</trkpt>
<trkpt lat="49.40294" lon="1.12615">
<ele>57.0</ele>
<time>2026-08-25T13:19:23Z</time>
</trkpt>
<trkpt lat="49.402969999999996" lon="1.12615">
<ele>57.0</ele>
<time>2026-08-25T13:19:27Z</time>
</trkpt>
<trkpt lat="49.403" lon="1.12616">
<ele>57.0</ele>
<time>2026-08-25T13:19:30Z</time>
</trkpt>
<trkpt lat="49.40303" lon="1.12616">
<ele>57.0</ele>
<time>2026-08-25T13:19:33Z</time>
</trkpt>
<trkpt lat="49.40307" lon="1.12617">
<ele>57.0</ele>
<time>2026-08-25T13:19:36Z</time>
</trkpt>
<trkpt lat="49.403099999999995" lon="1.12617">
<ele>57.0</ele>
<time>2026-08-25T13:19:39Z</time>
</trkpt>
<trkpt lat="49.40314" lon="1.12617">
<ele>57.0</ele>
<time>2026-08-25T13:19:42Z</time>
</trkpt>
<trkpt lat="49.403169999999996" lon="1.12617">
<ele>57.0</ele>
<time>2026-08-25T13:19:45Z</time>
</trkpt>
<trkpt lat="49.4032" lon="1.12617">
<ele>62.0</ele>
<time>2026-08-25T13:19:48Z</time>
</trkpt>
<trkpt lat="49.40323" lon="1.12616">
<ele>62.0</ele>
<time>2026-08-25T13:19:51Z</time>
</trkpt>
<trkpt lat="49.403259999999996" lon="1.12616">
<ele>62.0</ele>
<time>2026-08-25T13:19:54Z</time>
</trkpt>
<trkpt lat="49.40329" lon="1.12615">
<ele>62.0</ele>
<time>2026-08-25T13:19:57Z</time>
</trkpt>
<trkpt lat="49.40332" lon="1.12614">
<ele>62.0</ele>
<time>2026-08-25T13:20:01Z</time>
</trkpt>
<trkpt lat="49.40334" lon="1.12612">
<ele>62.0</ele>
<time>2026-08-25T13:20:05Z</time>
</trkpt>
<trkpt lat="49.403369999999995" lon="1.12611">
<ele>62.0</ele>
<time>2026-08-25T13:20:08Z</time>
</trkpt>
<trkpt lat="49.4034" lon="1.12612">
<ele>62.0</ele>
<time>2026-08-25T13:20:12Z</time>
</trkpt>
<trkpt lat="49.40343" lon="1.12612">
<ele>62.0</ele>
<time>2026-08-25T13:20:16Z</time>
</trkpt>
<trkpt lat="49.403459999999995" lon="1.12612">
<ele>62.0</ele>
<time>2026-08-25T13:20:21Z</time>
</trkpt>
<trkpt lat="49.40349" lon="1.1261299999999999">
<ele>65.0</ele>
<time>2026-08-25T13:20:25Z</time>
</trkpt>
<trkpt lat="49.40352" lon="1.12614">
<ele>65.0</ele>
<time>2026-08-25T13:20:29Z</time>
</trkpt>
<trkpt lat="49.403549999999996" lon="1.12615">
<ele>65.0</ele>
<time>2026-08-25T13:20:32Z</time>
</trkpt>
<trkpt lat="49.40358" lon="1.12615">
<ele>65.0</ele>
<time>2026-08-25T13:20:35Z</time>
</trkpt>
<trkpt lat="49.40361" lon="1.12616">
<ele>65.0</ele>
<time>2026-08-25T13:20:38Z</time>
</trkpt>
<trkpt lat="49.40363" lon="1.12614">
<ele>65.0</ele>
<time>2026-08-25T13:20:52Z</time>
</trkpt>
<trkpt lat="49.40367" lon="1.12614">
<ele>65.0</ele>
<time>2026-08-25T13:20:59Z</time>
</trkpt>
<trkpt lat="49.4037" lon="1.1261299999999999">
<ele>65.0</ele>
<time>2026-08-25T13:21:02Z</time>
</trkpt>
<trkpt lat="49.403729999999996" lon="1.1261299999999999">
<ele>65.0</ele>
<time>2026-08-25T13:21:05Z</time>
</trkpt>
<trkpt lat="49.40376" lon="1.1261299999999999">
<ele>69.0</ele>
<time>2026-08-25T13:21:09Z</time>
</trkpt>
<trkpt lat="49.40379" lon="1.1261299999999999">
<ele>69.0</ele>
<time>2026-08-25T13:21:14Z</time>
</trkpt>
<trkpt lat="49.40381" lon="1.12614">
<ele>69.0</ele>
<time>2026-08-25T13:21:16Z</time>
</trkpt>
<trkpt lat="49.40385" lon="1.12616">
<ele>69.0</ele>
<time>2026-08-25T13:21:21Z</time>
</trkpt>
<trkpt lat="49.40388" lon="1.12617">
<ele>69.0</ele>
<time>2026-08-25T13:21:24Z</time>
</trkpt>
<trkpt lat="49.403909999999996" lon="1.12619">
<ele>69.0</ele>
<time>2026-08-25T13:21:33Z</time>
</trkpt>
<trkpt lat="49.40394" lon="1.1261999999999999">
<ele>69.0</ele>
<time>2026-08-25T13:21:39Z</time>
</trkpt>
<trkpt lat="49.40396" lon="1.12621">
<ele>69.0</ele>
<time>2026-08-25T13:21:44Z</time>
</trkpt>
<trkpt lat="49.403949999999995" lon="1.12622">
<ele>69.0</ele>
<time>2026-08-25T13:22:51Z</time>
</trkpt>
<trkpt lat="49.40397" lon="1.1262299999999998">
<ele>69.0</ele>
<time>2026-08-25T13:23:35Z</time>
</trkpt>
<trkpt lat="49.403949999999995" lon="1.12624">
<ele>69.0</ele>
<time>2026-08-25T13:26:22Z</time>
</trkpt>
<trkpt lat="49.40397" lon="1.1262299999999998">
<ele>69.0</ele>
<time>2026-08-25T13:26:40Z</time>
</trkpt>
<trkpt lat="49.40401" lon="1.12619">
<ele>69.0</ele>
<time>2026-08-25T13:28:38Z</time>
</trkpt>
<trkpt lat="49.404019999999996" lon="1.12618">
<ele>69.0</ele>
<time>2026-08-25T13:28:41Z</time>
</trkpt>
<trkpt lat="49.404039999999995" lon="1.12616">
<ele>75.0</ele>
<time>2026-08-25T13:28:44Z</time>
</trkpt>
<trkpt lat="49.40407" lon="1.12615">
<ele>75.0</ele>
<time>2026-08-25T13:28:47Z</time>
</trkpt>
<trkpt lat="49.404109999999996" lon="1.12615">
<ele>75.0</ele>
<time>2026-08-25T13:28:50Z</time>
</trkpt>
<trkpt lat="49.404129999999995" lon="1.1261299999999999">
<ele>75.0</ele>
<time>2026-08-25T13:28:57Z</time>
</trkpt>
<trkpt lat="49.40416" lon="1.1260999999999999">
<ele>75.0</ele>
<time>2026-08-25T13:29:01Z</time>
</trkpt>
<trkpt lat="49.40419" lon="1.12609">
<ele>75.0</ele>
<time>2026-08-25T13:29:04Z</time>
</trkpt>
<trkpt lat="49.404219999999995" lon="1.12608">
<ele>75.0</ele>
<time>2026-08-25T13:29:07Z</time>
</trkpt>
<trkpt lat="49.40425" lon="1.12605">
<ele>75.0</ele>
<time>2026-08-25T13:29:10Z</time>
</trkpt>
<trkpt lat="49.40428" lon="1.1260299999999999">
<ele>75.0</ele>
<time>2026-08-25T13:29:15Z</time>
</trkpt>
<trkpt lat="49.4043" lon="1.126">
<ele>75.0</ele>
<time>2026-08-25T13:29:19Z</time>
</trkpt>
<trkpt lat="49.40432" lon="1.12597">
<ele>72.0</ele>
<time>2026-08-25T13:29:27Z</time>
</trkpt>
<trkpt lat="49.40434" lon="1.12594">
<ele>72.0</ele>
<time>2026-08-25T13:29:32Z</time>
</trkpt>
<trkpt lat="49.40437" lon="1.12592">
<ele>72.0</ele>
<time>2026-08-25T13:29:38Z</time>
</trkpt>
<trkpt lat="49.404399999999995" lon="1.1259">
<ele>72.0</ele>
<time>2026-08-25T13:29:41Z</time>
</trkpt>
<trkpt lat="49.404419999999995" lon="1.12589">
<ele>72.0</ele>
<time>2026-08-25T13:29:44Z</time>
</trkpt>
<trkpt lat="49.40446" lon="1.12588">
<ele>72.0</ele>
<time>2026-08-25T13:29:48Z</time>
</trkpt>
<trkpt lat="49.404489999999996" lon="1.12587">
<ele>72.0</ele>
<time>2026-08-25T13:29:52Z</time>
</trkpt>
<trkpt lat="49.40452" lon="1.1258599999999999">
<ele>72.0</ele>
<time>2026-08-25T13:29:56Z</time>
</trkpt>
<trkpt lat="49.40455" lon="1.12587">
<ele>72.0</ele>
<time>2026-08-25T13:29:59Z</time>
</trkpt>
<trkpt lat="49.40459" lon="1.12587">
<ele>79.0</ele>
<time>2026-08-25T13:30:02Z</time>
</trkpt>
<trkpt lat="49.40462" lon="1.1258599999999999">
<ele>79.0</ele>
<time>2026-08-25T13:30:05Z</time>
</trkpt>
<trkpt lat="49.40465" lon="1.1258599999999999">
<ele>79.0</ele>
<time>2026-08-25T13:30:08Z</time>
</trkpt>
<trkpt lat="49.40468" lon="1.1258599999999999">
<ele>79.0</ele>
<time>2026-08-25T13:30:11Z</time>
</trkpt>
<trkpt lat="49.404709999999994" lon="1.1258599999999999">
<ele>79.0</ele>
<time>2026-08-25T13:30:14Z</time>
</trkpt>
<trkpt lat="49.40474" lon="1.1258599999999999">
<ele>79.0</ele>
<time>2026-08-25T13:30:17Z</time>
</trkpt>
<trkpt lat="49.40477" lon="1.1258599999999999">
<ele>79.0</ele>
<time>2026-08-25T13:30:21Z</time>
</trkpt>
<trkpt lat="49.404799999999994" lon="1.1258599999999999">
<ele>79.0</ele>
<time>2026-08-25T13:30:25Z</time>
</trkpt>
<trkpt lat="49.40483" lon="1.12587">
<ele>79.0</ele>
<time>2026-08-25T13:30:30Z</time>
</trkpt>
<trkpt lat="49.40486" lon="1.1258599999999999">
<ele>79.0</ele>
<time>2026-08-25T13:30:34Z</time>
</trkpt>
<trkpt lat="49.40488" lon="1.1258299999999999">
<ele>84.0</ele>
<time>2026-08-25T13:30:38Z</time>
</trkpt>
<trkpt lat="49.4049" lon="1.1257899999999998">
<ele>84.0</ele>
<time>2026-08-25T13:30:42Z</time>
</trkpt>
<trkpt lat="49.40492" lon="1.1257599999999999">
<ele>84.0</ele>
<time>2026-08-25T13:30:46Z</time>
</trkpt>
<trkpt lat="49.404939999999996" lon="1.1257599999999999">
<ele>84.0</ele>
<time>2026-08-25T13:30:57Z</time>
</trkpt>
<trkpt lat="49.404959999999996" lon="1.12577">
<ele>84.0</ele>
<time>2026-08-25T13:31:01Z</time>
</trkpt>
<trkpt lat="49.40499" lon="1.12575">
<ele>84.0</ele>
<time>2026-08-25T13:31:04Z</time>
</trkpt>
<trkpt lat="49.40501" lon="1.12572">
<ele>84.0</ele>
<time>2026-08-25T13:31:07Z</time>
</trkpt>
<trkpt lat="49.405049999999996" lon="1.12567">
<ele>73.0</ele>
<time>2026-08-25T13:31:10Z</time>
</trkpt>
<trkpt lat="49.40508" lon="1.12564">
<ele>73.0</ele>
<time>2026-08-25T13:31:11Z</time>
</trkpt>
<trkpt lat="49.40511" lon="1.1256199999999998">
<ele>73.0</ele>
<time>2026-08-25T13:31:13Z</time>
</trkpt>
<trkpt lat="49.405139999999996" lon="1.1256">
<ele>76.0</ele>
<time>2026-08-25T13:31:15Z</time>
</trkpt>
<trkpt lat="49.40515" lon="1.12557">
<ele>76.0</ele>
<time>2026-08-25T13:31:18Z</time>
</trkpt>
<trkpt lat="49.405179999999994" lon="1.1254899999999999">
<ele>76.0</ele>
<time>2026-08-25T13:31:22Z</time>
</trkpt>
<trkpt lat="49.40519" lon="1.1254899999999999">
<ele>76.0</ele>
<time>2026-08-25T13:31:23Z</time>
</trkpt>
<trkpt lat="49.4052" lon="1.12547">
<ele>76.0</ele>
<time>2026-08-25T13:31:25Z</time>
</trkpt>
<trkpt lat="49.40522" lon="1.12543">
<ele>76.0</ele>
<time>2026-08-25T13:31:28Z</time>
</trkpt>
<trkpt lat="49.40524" lon="1.12539">
<ele>65.0</ele>
<time>2026-08-25T13:31:30Z</time>
</trkpt>
<trkpt lat="49.40526" lon="1.1253499999999999">
<ele>65.0</ele>
<time>2026-08-25T13:31:33Z</time>
</trkpt>
<trkpt lat="49.405269999999994" lon="1.12536">
<ele>65.0</ele>
<time>2026-08-25T13:31:41Z</time>
</trkpt>
<trkpt lat="49.40528" lon="1.12539">
<ele>65.0</ele>
<time>2026-08-25T13:31:43Z</time>
</trkpt>
<trkpt lat="49.40528" lon="1.12544">
<ele>76.0</ele>
<time>2026-08-25T13:31:46Z</time>
</trkpt>
<trkpt lat="49.4053" lon="1.12547">
<ele>76.0</ele>
<time>2026-08-25T13:31:52Z</time>
</trkpt>
<trkpt lat="49.405319999999996" lon="1.12547">
<ele>76.0</ele>
<time>2026-08-25T13:31:55Z</time>
</trkpt>
<trkpt lat="49.40535" lon="1.12546">
<ele>76.0</ele>
<time>2026-08-25T13:31:59Z</time>
</trkpt>
<trkpt lat="49.40538" lon="1.12544">
<ele>76.0</ele>
<time>2026-08-25T13:32:03Z</time>
</trkpt>
<trkpt lat="49.4054" lon="1.12541">
<ele>65.0</ele>
<time>2026-08-25T13:32:08Z</time>
</trkpt>
<trkpt lat="49.40542" lon="1.12537">
<ele>68.0</ele>
<time>2026-08-25T13:32:12Z</time>
</trkpt>
<trkpt lat="49.405449999999995" lon="1.12534">
<ele>68.0</ele>
<time>2026-08-25T13:32:15Z</time>
</trkpt>
<trkpt lat="49.40548" lon="1.12531">
<ele>68.0</ele>
<time>2026-08-25T13:32:18Z</time>
</trkpt>
<trkpt lat="49.405499999999996" lon="1.12528">
<ele>68.0</ele>
<time>2026-08-25T13:32:21Z</time>
</trkpt>
<trkpt lat="49.40553" lon="1.12524">
<ele>68.0</ele>
<time>2026-08-25T13:32:24Z</time>
</trkpt>
<trkpt lat="49.40555" lon="1.1252199999999999">
<ele>68.0</ele>
<time>2026-08-25T13:32:27Z</time>
</trkpt>
<trkpt lat="49.40558" lon="1.12521">
<ele>68.0</ele>
<time>2026-08-25T13:32:31Z</time>
</trkpt>
<trkpt lat="49.405609999999996" lon="1.1252">
<ele>68.0</ele>
<time>2026-08-25T13:32:35Z</time>
</trkpt>
<trkpt lat="49.40564" lon="1.12517">
<ele>68.0</ele>
<time>2026-08-25T13:32:38Z</time>
</trkpt>
<trkpt lat="49.40566" lon="1.12512">
<ele>58.0</ele>
<time>2026-08-25T13:32:41Z</time>
</trkpt>
<trkpt lat="49.40569" lon="1.12509">
<ele>58.0</ele>
<time>2026-08-25T13:32:44Z</time>
</trkpt>
<trkpt lat="49.40571" lon="1.1251">
<ele>59.0</ele>
<time>2026-08-25T13:32:46Z</time>
</trkpt>
<trkpt lat="49.40573" lon="1.12513">
<ele>59.0</ele>
<time>2026-08-25T13:32:48Z</time>
</trkpt>
<trkpt lat="49.40576" lon="1.1251499999999999">
<ele>69.0</ele>
<time>2026-08-25T13:32:51Z</time>
</trkpt>
<trkpt lat="49.4058" lon="1.12514">
<ele>69.0</ele>
<time>2026-08-25T13:32:54Z</time>
</trkpt>
<trkpt lat="49.405829999999995" lon="1.12513">
<ele>59.0</ele>
<time>2026-08-25T13:32:57Z</time>
</trkpt>
<trkpt lat="49.40586" lon="1.12511">
<ele>59.0</ele>
<time>2026-08-25T13:33:00Z</time>
</trkpt>
<trkpt lat="49.40589" lon="1.12509">
<ele>59.0</ele>
<time>2026-08-25T13:33:03Z</time>
</trkpt>
<trkpt lat="49.405919999999995" lon="1.1250799999999999">
<ele>59.0</ele>
<time>2026-08-25T13:33:06Z</time>
</trkpt>
<trkpt lat="49.40595" lon="1.1250799999999999">
<ele>59.0</ele>
<time>2026-08-25T13:33:08Z</time>
</trkpt>
<trkpt lat="49.40598" lon="1.1251">
<ele>58.0</ele>
<time>2026-08-25T13:33:11Z</time>
</trkpt>
<trkpt lat="49.406009999999995" lon="1.12511">
<ele>58.0</ele>
<time>2026-08-25T13:33:14Z</time>
</trkpt>
<trkpt lat="49.40604" lon="1.12513">
<ele>58.0</ele>
<time>2026-08-25T13:33:17Z</time>
</trkpt>
<trkpt lat="49.40606" lon="1.1251499999999999">
<ele>70.0</ele>
<time>2026-08-25T13:33:21Z</time>
</trkpt>
<trkpt lat="49.40609" lon="1.1251499999999999">
<ele>70.0</ele>
<time>2026-08-25T13:33:24Z</time>
</trkpt>
<trkpt lat="49.406119999999994" lon="1.1251499999999999">
<ele>70.0</ele>
<time>2026-08-25T13:33:27Z</time>
</trkpt>
<trkpt lat="49.40615" lon="1.1251499999999999">
<ele>70.0</ele>
<time>2026-08-25T13:33:30Z</time>
</trkpt>
<trkpt lat="49.406169999999996" lon="1.12514">
<ele>70.0</ele>
<time>2026-08-25T13:33:33Z</time>
</trkpt>
<trkpt lat="49.406209999999994" lon="1.12514">
<ele>70.0</ele>
<time>2026-08-25T13:33:37Z</time>
</trkpt>
<trkpt lat="49.40623" lon="1.12514">
<ele>70.0</ele>
<time>2026-08-25T13:33:40Z</time>
</trkpt>
<trkpt lat="49.40627" lon="1.12514">
<ele>71.0</ele>
<time>2026-08-25T13:33:45Z</time>
</trkpt>
<trkpt lat="49.406299999999995" lon="1.12513">
<ele>59.0</ele>
<time>2026-08-25T13:33:48Z</time>
</trkpt>
<trkpt lat="49.40632" lon="1.12511">
<ele>59.0</ele>
<time>2026-08-25T13:33:50Z</time>
</trkpt>
<trkpt lat="49.406349999999996" lon="1.12509">
<ele>59.0</ele>
<time>2026-08-25T13:33:53Z</time>
</trkpt>
<trkpt lat="49.40638" lon="1.1250799999999999">
<ele>59.0</ele>
<time>2026-08-25T13:33:56Z</time>
</trkpt>
<trkpt lat="49.40641" lon="1.12506">
<ele>59.0</ele>
<time>2026-08-25T13:33:58Z</time>
</trkpt>
<trkpt lat="49.40643" lon="1.12504">
<ele>59.0</ele>
<time>2026-08-25T13:34:02Z</time>
</trkpt>
<trkpt lat="49.406459999999996" lon="1.12502">
<ele>59.0</ele>
<time>2026-08-25T13:34:21Z</time>
</trkpt>
<trkpt lat="49.40649" lon="1.1250099999999998">
<ele>59.0</ele>
<time>2026-08-25T13:34:26Z</time>
</trkpt>
<trkpt lat="49.40652" lon="1.1250099999999998">
<ele>59.0</ele>
<time>2026-08-25T13:34:30Z</time>
</trkpt>
<trkpt lat="49.406549999999996" lon="1.125">
<ele>61.0</ele>
<time>2026-08-25T13:34:33Z</time>
</trkpt>
<trkpt lat="49.406589999999994" lon="1.12499">
<ele>61.0</ele>
<time>2026-08-25T13:34:36Z</time>
</trkpt>
<trkpt lat="49.40663" lon="1.12499">
<ele>61.0</ele>
<time>2026-08-25T13:34:39Z</time>
</trkpt>
<trkpt lat="49.406659999999995" lon="1.1249799999999999">
<ele>61.0</ele>
<time>2026-08-25T13:34:42Z</time>
</trkpt>
<trkpt lat="49.40669" lon="1.12497">
<ele>61.0</ele>
<time>2026-08-25T13:34:45Z</time>
</trkpt>
<trkpt lat="49.40672" lon="1.12496">
<ele>61.0</ele>
<time>2026-08-25T13:34:48Z</time>
</trkpt>
<trkpt lat="49.406749999999995" lon="1.12495">
<ele>61.0</ele>
<time>2026-08-25T13:34:51Z</time>
</trkpt>
<trkpt lat="49.40678" lon="1.12494">
<ele>61.0</ele>
<time>2026-08-25T13:34:55Z</time>
</trkpt>
<trkpt lat="49.40681" lon="1.12495">
<ele>62.0</ele>
<time>2026-08-25T13:34:58Z</time>
</trkpt>
<trkpt lat="49.406839999999995" lon="1.12494">
<ele>62.0</ele>
<time>2026-08-25T13:35:03Z</time>
</trkpt>
<trkpt lat="49.40687" lon="1.12494">
<ele>62.0</ele>
<time>2026-08-25T13:35:06Z</time>
</trkpt>
<trkpt lat="49.4069" lon="1.12493">
<ele>62.0</ele>
<time>2026-08-25T13:35:10Z</time>
</trkpt>
<trkpt lat="49.406929999999996" lon="1.12494">
<ele>62.0</ele>
<time>2026-08-25T13:35:14Z</time>
</trkpt>
<trkpt lat="49.40696" lon="1.12493">
<ele>62.0</ele>
<time>2026-08-25T13:35:18Z</time>
</trkpt>
<trkpt lat="49.40699" lon="1.1249099999999999">
<ele>62.0</ele>
<time>2026-08-25T13:35:22Z</time>
</trkpt>
<trkpt lat="49.40701" lon="1.1248799999999999">
<ele>62.0</ele>
<time>2026-08-25T13:35:27Z</time>
</trkpt>
<trkpt lat="49.40703" lon="1.12486">
<ele>51.0</ele>
<time>2026-08-25T13:35:32Z</time>
</trkpt>
<trkpt lat="49.40706" lon="1.12485">
<ele>51.0</ele>
<time>2026-08-25T13:35:35Z</time>
</trkpt>
<trkpt lat="49.40709" lon="1.12485">
<ele>53.0</ele>
<time>2026-08-25T13:35:37Z</time>
</trkpt>
<trkpt lat="49.40712" lon="1.1248399999999998">
<ele>53.0</ele>
<time>2026-08-25T13:35:39Z</time>
</trkpt>
<trkpt lat="49.40716" lon="1.1248399999999998">
<ele>53.0</ele>
<time>2026-08-25T13:35:42Z</time>
</trkpt>
<trkpt lat="49.40719" lon="1.1248399999999998">
<ele>53.0</ele>
<time>2026-08-25T13:35:44Z</time>
</trkpt>
<trkpt lat="49.407219999999995" lon="1.12482">
<ele>53.0</ele>
<time>2026-08-25T13:35:47Z</time>
</trkpt>
<trkpt lat="49.40726" lon="1.1248099999999999">
<ele>53.0</ele>
<time>2026-08-25T13:35:50Z</time>
</trkpt>
<trkpt lat="49.407289999999996" lon="1.1248099999999999">
<ele>53.0</ele>
<time>2026-08-25T13:35:53Z</time>
</trkpt>
<trkpt lat="49.40732" lon="1.12479">
<ele>53.0</ele>
<time>2026-08-25T13:35:55Z</time>
</trkpt>
<trkpt lat="49.40735" lon="1.12477">
<ele>53.0</ele>
<time>2026-08-25T13:35:57Z</time>
</trkpt>
<trkpt lat="49.407379999999996" lon="1.12476">
<ele>56.0</ele>
<time>2026-08-25T13:35:59Z</time>
</trkpt>
<trkpt lat="49.40741" lon="1.1247399999999999">
<ele>56.0</ele>
<time>2026-08-25T13:36:02Z</time>
</trkpt>
<trkpt lat="49.40744" lon="1.12473">
<ele>56.0</ele>
<time>2026-08-25T13:36:05Z</time>
</trkpt>
<trkpt lat="49.407469999999996" lon="1.12473">
<ele>56.0</ele>
<time>2026-08-25T13:36:07Z</time>
</trkpt>
<trkpt lat="49.4075" lon="1.12472">
<ele>56.0</ele>
<time>2026-08-25T13:36:09Z</time>
</trkpt>
<trkpt lat="49.40753" lon="1.12472">
<ele>56.0</ele>
<time>2026-08-25T13:36:11Z</time>
</trkpt>
<trkpt lat="49.40755" lon="1.1247099999999999">
<ele>56.0</ele>
<time>2026-08-25T13:36:13Z</time>
</trkpt>
<trkpt lat="49.407579999999996" lon="1.1247">
<ele>56.0</ele>
<time>2026-08-25T13:36:15Z</time>
</trkpt>
<trkpt lat="49.40761" lon="1.12469">
<ele>56.0</ele>
<time>2026-08-25T13:36:17Z</time>
</trkpt>
<trkpt lat="49.40764" lon="1.12468">
<ele>62.0</ele>
<time>2026-08-25T13:36:19Z</time>
</trkpt>
<trkpt lat="49.407669999999996" lon="1.12468">
<ele>62.0</ele>
<time>2026-08-25T13:36:21Z</time>
</trkpt>
<trkpt lat="49.4077" lon="1.12468">
<ele>62.0</ele>
<time>2026-08-25T13:36:24Z</time>
</trkpt>
<trkpt lat="49.40773" lon="1.12467">
<ele>62.0</ele>
<time>2026-08-25T13:36:28Z</time>
</trkpt>
<trkpt lat="49.40775" lon="1.1246399999999999">
<ele>62.0</ele>
<time>2026-08-25T13:36:32Z</time>
</trkpt>
<trkpt lat="49.407779999999995" lon="1.1246">
<ele>62.0</ele>
<time>2026-08-25T13:36:35Z</time>
</trkpt>
<trkpt lat="49.40781" lon="1.12458">
<ele>54.0</ele>
<time>2026-08-25T13:36:38Z</time>
</trkpt>
<trkpt lat="49.407849999999996" lon="1.1245699999999998">
<ele>54.0</ele>
<time>2026-08-25T13:36:41Z</time>
</trkpt>
<trkpt lat="49.40788" lon="1.12455">
<ele>54.0</ele>
<time>2026-08-25T13:36:44Z</time>
</trkpt>
<trkpt lat="49.40791" lon="1.1245399999999999">
<ele>54.0</ele>
<time>2026-08-25T13:36:47Z</time>
</trkpt>
<trkpt lat="49.407939999999996" lon="1.12452">
<ele>56.0</ele>
<time>2026-08-25T13:36:51Z</time>
</trkpt>
<trkpt lat="49.40797" lon="1.1245">
<ele>56.0</ele>
<time>2026-08-25T13:36:54Z</time>
</trkpt>
<trkpt lat="49.40801" lon="1.12448">
<ele>56.0</ele>
<time>2026-08-25T13:36:57Z</time>
</trkpt>
<trkpt lat="49.40804" lon="1.12448">
<ele>56.0</ele>
<time>2026-08-25T13:36:59Z</time>
</trkpt>
<trkpt lat="49.408069999999995" lon="1.1244699999999999">
<ele>56.0</ele>
<time>2026-08-25T13:37:01Z</time>
</trkpt>
<trkpt lat="49.4081" lon="1.12446">
<ele>56.0</ele>
<time>2026-08-25T13:37:03Z</time>
</trkpt>
<trkpt lat="49.408139999999996" lon="1.12443">
<ele>56.0</ele>
<time>2026-08-25T13:37:06Z</time>
</trkpt>
<trkpt lat="49.40815" lon="1.12442">
<ele>56.0</ele>
<time>2026-08-25T13:37:09Z</time>
</trkpt>
<trkpt lat="49.408179999999994" lon="1.12439">
<ele>56.0</ele>
<time>2026-08-25T13:37:12Z</time>
</trkpt>
<trkpt lat="49.40821" lon="1.1243699999999999">
<ele>57.0</ele>
<time>2026-08-25T13:37:16Z</time>
</trkpt>
<trkpt lat="49.408229999999996" lon="1.12436">
<ele>57.0</ele>
<time>2026-08-25T13:37:20Z</time>
</trkpt>
<trkpt lat="49.40826" lon="1.12435">
<ele>57.0</ele>
<time>2026-08-25T13:37:23Z</time>
</trkpt>
<trkpt lat="49.40829" lon="1.12435">
<ele>57.0</ele>
<time>2026-08-25T13:37:26Z</time>
</trkpt>
<trkpt lat="49.408319999999996" lon="1.12433">
<ele>57.0</ele>
<time>2026-08-25T13:37:29Z</time>
</trkpt>
<trkpt lat="49.40835" lon="1.12432">
<ele>57.0</ele>
<time>2026-08-25T13:37:32Z</time>
</trkpt>
<trkpt lat="49.40839" lon="1.12432">
<ele>57.0</ele>
<time>2026-08-25T13:37:35Z</time>
</trkpt>
<trkpt lat="49.408429999999996" lon="1.12433">
<ele>57.0</ele>
<time>2026-08-25T13:37:38Z</time>
</trkpt>
<trkpt lat="49.40846" lon="1.12434">
<ele>57.0</ele>
<time>2026-08-25T13:37:40Z</time>
</trkpt>
<trkpt lat="49.40849" lon="1.12435">
<ele>57.0</ele>
<time>2026-08-25T13:37:42Z</time>
</trkpt>
<trkpt lat="49.408519999999996" lon="1.12435">
<ele>57.0</ele>
<time>2026-08-25T13:37:44Z</time>
</trkpt>
<trkpt lat="49.40855" lon="1.12435">
<ele>57.0</ele>
<time>2026-08-25T13:37:47Z</time>
</trkpt>
<trkpt lat="49.40858" lon="1.12436">
<ele>57.0</ele>
<time>2026-08-25T13:37:49Z</time>
</trkpt>
<trkpt lat="49.408609999999996" lon="1.1243699999999999">
<ele>57.0</ele>
<time>2026-08-25T13:37:51Z</time>
</trkpt>
<trkpt lat="49.40864" lon="1.1243699999999999">
<ele>57.0</ele>
<time>2026-08-25T13:37:53Z</time>
</trkpt>
<trkpt lat="49.40868" lon="1.12439">
<ele>57.0</ele>
<time>2026-08-25T13:37:56Z</time>
</trkpt>
<trkpt lat="49.40871" lon="1.1243999999999998">
<ele>57.0</ele>
<time>2026-08-25T13:37:59Z</time>
</trkpt>
<trkpt lat="49.408739999999995" lon="1.12439">
<ele>57.0</ele>
<time>2026-08-25T13:38:02Z</time>
</trkpt>
<trkpt lat="49.40877" lon="1.12438">
<ele>60.0</ele>
<time>2026-08-25T13:38:05Z</time>
</trkpt>
<trkpt lat="49.4088" lon="1.12436">
<ele>60.0</ele>
<time>2026-08-25T13:38:08Z</time>
</trkpt>
<trkpt lat="49.408829999999995" lon="1.12433">
<ele>60.0</ele>
<time>2026-08-25T13:38:11Z</time>
</trkpt>
<trkpt lat="49.40886" lon="1.12431">
<ele>60.0</ele>
<time>2026-08-25T13:38:16Z</time>
</trkpt>
<trkpt lat="49.40889" lon="1.12431">
<ele>60.0</ele>
<time>2026-08-25T13:38:25Z</time>
</trkpt>
<trkpt lat="49.40891" lon="1.12428">
<ele>52.0</ele>
<time>2026-08-25T13:38:53Z</time>
</trkpt>
<trkpt lat="49.40893" lon="1.12425">
<ele>52.0</ele>
<time>2026-08-25T13:38:56Z</time>
</trkpt>
<trkpt lat="49.40896" lon="1.12422">
<ele>52.0</ele>
<time>2026-08-25T13:38:59Z</time>
</trkpt>
<trkpt lat="49.40898" lon="1.12419">
<ele>52.0</ele>
<time>2026-08-25T13:39:02Z</time>
</trkpt>
<trkpt lat="49.409" lon="1.12415">
<ele>52.0</ele>
<time>2026-08-25T13:39:05Z</time>
</trkpt>
<trkpt lat="49.40902" lon="1.1240999999999999">
<ele>52.0</ele>
<time>2026-08-25T13:39:08Z</time>
</trkpt>
<trkpt lat="49.40904" lon="1.12406">
<ele>57.0</ele>
<time>2026-08-25T13:39:11Z</time>
</trkpt>
<trkpt lat="49.40907" lon="1.12402">
<ele>48.0</ele>
<time>2026-08-25T13:39:14Z</time>
</trkpt>
<trkpt lat="49.40909" lon="1.12399">
<ele>48.0</ele>
<time>2026-08-25T13:39:33Z</time>
</trkpt>
<trkpt lat="49.409099999999995" lon="1.12395">
<ele>48.0</ele>
<time>2026-08-25T13:39:36Z</time>
</trkpt>
<trkpt lat="49.409119999999994" lon="1.12391">
<ele>48.0</ele>
<time>2026-08-25T13:39:40Z</time>
</trkpt>
<trkpt lat="49.40914" lon="1.12387">
<ele>48.0</ele>
<time>2026-08-25T13:39:52Z</time>
</trkpt>
<trkpt lat="49.40916" lon="1.12384">
<ele>48.0</ele>
<time>2026-08-25T13:39:56Z</time>
</trkpt>
<trkpt lat="49.409189999999995" lon="1.12382">
<ele>48.0</ele>
<time>2026-08-25T13:39:59Z</time>
</trkpt>
<trkpt lat="49.40922" lon="1.1238">
<ele>48.0</ele>
<time>2026-08-25T13:40:02Z</time>
</trkpt>
<trkpt lat="49.40925" lon="1.12377">
<ele>48.0</ele>
<time>2026-08-25T13:40:05Z</time>
</trkpt>
<trkpt lat="49.40927" lon="1.12373">
<ele>42.0</ele>
<time>2026-08-25T13:40:08Z</time>
</trkpt>
<trkpt lat="49.409299999999995" lon="1.1237">
<ele>42.0</ele>
<time>2026-08-25T13:40:11Z</time>
</trkpt>
<trkpt lat="49.40933" lon="1.12367">
<ele>50.0</ele>
<time>2026-08-25T13:40:14Z</time>
</trkpt>
<trkpt lat="49.40936" lon="1.12364">
<ele>50.0</ele>
<time>2026-08-25T13:40:18Z</time>
</trkpt>
<trkpt lat="49.40938" lon="1.1236199999999998">
<ele>50.0</ele>
<time>2026-08-25T13:40:21Z</time>
</trkpt>
<trkpt lat="49.40941" lon="1.1235899999999999">
<ele>50.0</ele>
<time>2026-08-25T13:40:24Z</time>
</trkpt>
<trkpt lat="49.40945" lon="1.12354">
<ele>50.0</ele>
<time>2026-08-25T13:40:30Z</time>
</trkpt>
<trkpt lat="49.40947" lon="1.12353">
<ele>50.0</ele>
<time>2026-08-25T13:40:33Z</time>
</trkpt>
<trkpt lat="49.4095" lon="1.1235">
<ele>50.0</ele>
<time>2026-08-25T13:40:36Z</time>
</trkpt>
<trkpt lat="49.40952" lon="1.12347">
<ele>44.0</ele>
<time>2026-08-25T13:40:38Z</time>
</trkpt>
<trkpt lat="49.409549999999996" lon="1.12344">
<ele>44.0</ele>
<time>2026-08-25T13:40:41Z</time>
</trkpt>
<trkpt lat="49.409569999999995" lon="1.1234">
<ele>44.0</ele>
<time>2026-08-25T13:40:44Z</time>
</trkpt>
<trkpt lat="49.409589999999994" lon="1.12337">
<ele>50.0</ele>
<time>2026-08-25T13:40:46Z</time>
</trkpt>
<trkpt lat="49.40962" lon="1.1233499999999998">
<ele>50.0</ele>
<time>2026-08-25T13:40:48Z</time>
</trkpt>
<trkpt lat="49.409639999999996" lon="1.12333">
<ele>50.0</ele>
<time>2026-08-25T13:40:50Z</time>
</trkpt>
<trkpt lat="49.40967" lon="1.12331">
<ele>50.0</ele>
<time>2026-08-25T13:40:52Z</time>
</trkpt>
<trkpt lat="49.4097" lon="1.12328">
<ele>50.0</ele>
<time>2026-08-25T13:40:55Z</time>
</trkpt>
<trkpt lat="49.409729999999996" lon="1.12326">
<ele>50.0</ele>
<time>2026-08-25T13:40:58Z</time>
</trkpt>
<trkpt lat="49.40976" lon="1.12324">
<ele>50.0</ele>
<time>2026-08-25T13:41:02Z</time>
</trkpt>
<trkpt lat="49.40979" lon="1.1232199999999999">
<ele>50.0</ele>
<time>2026-08-25T13:41:05Z</time>
</trkpt>
<trkpt lat="49.40981" lon="1.1232">
<ele>50.0</ele>
<time>2026-08-25T13:41:08Z</time>
</trkpt>
<trkpt lat="49.409839999999996" lon="1.1231799999999998">
<ele>42.0</ele>
<time>2026-08-25T13:41:11Z</time>
</trkpt>
<trkpt lat="49.40987" lon="1.12317">
<ele>46.0</ele>
<time>2026-08-25T13:41:17Z</time>
</trkpt>
<trkpt lat="49.40992" lon="1.1231799999999998">
<ele>46.0</ele>
<time>2026-08-25T13:41:40Z</time>
</trkpt>
<trkpt lat="49.409929999999996" lon="1.1231799999999998">
<ele>46.0</ele>
<time>2026-08-25T13:41:45Z</time>
</trkpt>
<trkpt lat="49.409949999999995" lon="1.12316">
<ele>46.0</ele>
<time>2026-08-25T13:41:51Z</time>
</trkpt>
<trkpt lat="49.40998" lon="1.1231499999999999">
<ele>46.0</ele>
<time>2026-08-25T13:41:56Z</time>
</trkpt>
<trkpt lat="49.41001" lon="1.12314">
<ele>46.0</ele>
<time>2026-08-25T13:42:02Z</time>
</trkpt>
<trkpt lat="49.410039999999995" lon="1.12314">
<ele>46.0</ele>
<time>2026-08-25T13:42:06Z</time>
</trkpt>
<trkpt lat="49.41007" lon="1.1231499999999999">
<ele>46.0</ele>
<time>2026-08-25T13:42:10Z</time>
</trkpt>
<trkpt lat="49.4101" lon="1.12314">
<ele>46.0</ele>
<time>2026-08-25T13:42:19Z</time>
</trkpt>
<trkpt lat="49.410129999999995" lon="1.12313">
<ele>46.0</ele>
<time>2026-08-25T13:42:23Z</time>
</trkpt>
<trkpt lat="49.41016" lon="1.12312">
<ele>51.0</ele>
<time>2026-08-25T13:42:26Z</time>
</trkpt>
<trkpt lat="49.41019" lon="1.12312">
<ele>51.0</ele>
<time>2026-08-25T13:42:31Z</time>
</trkpt>
<trkpt lat="49.410219999999995" lon="1.12312">
<ele>51.0</ele>
<time>2026-08-25T13:42:37Z</time>
</trkpt>
<trkpt lat="49.41025" lon="1.12313">
<ele>51.0</ele>
<time>2026-08-25T13:42:40Z</time>
</trkpt>
<trkpt lat="49.41028" lon="1.1231499999999999">
<ele>51.0</ele>
<time>2026-08-25T13:42:44Z</time>
</trkpt>
<trkpt lat="49.410309999999996" lon="1.12316">
<ele>51.0</ele>
<time>2026-08-25T13:42:49Z</time>
</trkpt>
<trkpt lat="49.41035" lon="1.12316">
<ele>51.0</ele>
<time>2026-08-25T13:42:54Z</time>
</trkpt>
<trkpt lat="49.41037" lon="1.1231499999999999">
<ele>51.0</ele>
<time>2026-08-25T13:43:00Z</time>
</trkpt>
<trkpt lat="49.410399999999996" lon="1.12314">
<ele>51.0</ele>
<time>2026-08-25T13:43:05Z</time>
</trkpt>
<trkpt lat="49.41043" lon="1.12313">
<ele>57.0</ele>
<time>2026-08-25T13:43:23Z</time>
</trkpt>
<trkpt lat="49.41046" lon="1.12312">
<ele>57.0</ele>
<time>2026-08-25T13:43:26Z</time>
</trkpt>
<trkpt lat="49.410489999999996" lon="1.12311">
<ele>57.0</ele>
<time>2026-08-25T13:43:30Z</time>
</trkpt>
<trkpt lat="49.41052" lon="1.1231">
<ele>57.0</ele>
<time>2026-08-25T13:43:34Z</time>
</trkpt>
<trkpt lat="49.41056" lon="1.1231">
<ele>57.0</ele>
<time>2026-08-25T13:43:37Z</time>
</trkpt>
<trkpt lat="49.41059" lon="1.1231">
<ele>57.0</ele>
<time>2026-08-25T13:43:40Z</time>
</trkpt>
<trkpt lat="49.410619999999994" lon="1.12309">
<ele>57.0</ele>
<time>2026-08-25T13:43:43Z</time>
</trkpt>
<trkpt lat="49.41065" lon="1.12307">
<ele>57.0</ele>
<time>2026-08-25T13:43:49Z</time>
</trkpt>
<trkpt lat="49.41068" lon="1.12306">
<ele>57.0</ele>
<time>2026-08-25T13:44:03Z</time>
</trkpt>
<trkpt lat="49.410709999999995" lon="1.12304">
<ele>63.0</ele>
<time>2026-08-25T13:44:07Z</time>
</trkpt>
<trkpt lat="49.41073" lon="1.12302">
<ele>63.0</ele>
<time>2026-08-25T13:44:11Z</time>
</trkpt>
<trkpt lat="49.41077" lon="1.1230099999999998">
<ele>63.0</ele>
<time>2026-08-25T13:44:15Z</time>
</trkpt>
<trkpt lat="49.410799999999995" lon="1.123">
<ele>63.0</ele>
<time>2026-08-25T13:44:18Z</time>
</trkpt>
<trkpt lat="49.41083" lon="1.123">
<ele>63.0</ele>
<time>2026-08-25T13:44:22Z</time>
</trkpt>
<trkpt lat="49.410869999999996" lon="1.1230099999999998">
<ele>63.0</ele>
<time>2026-08-25T13:44:26Z</time>
</trkpt>
<trkpt lat="49.4109" lon="1.12302">
<ele>63.0</ele>
<time>2026-08-25T13:44:29Z</time>
</trkpt>
<trkpt lat="49.41092" lon="1.123">
<ele>63.0</ele>
<time>2026-08-25T13:44:34Z</time>
</trkpt>
<trkpt lat="49.41094" lon="1.12297">
<ele>63.0</ele>
<time>2026-08-25T13:44:41Z</time>
</trkpt>
<trkpt lat="49.410959999999996" lon="1.12296">
<ele>63.0</ele>
<time>2026-08-25T13:44:44Z</time>
</trkpt>
<trkpt lat="49.41099" lon="1.12294">
<ele>64.0</ele>
<time>2026-08-25T13:44:47Z</time>
</trkpt>
<trkpt lat="49.41102" lon="1.12292">
<ele>64.0</ele>
<time>2026-08-25T13:44:50Z</time>
</trkpt>
<trkpt lat="49.41104" lon="1.1229">
<ele>55.0</ele>
<time>2026-08-25T13:45:21Z</time>
</trkpt>
<trkpt lat="49.41106" lon="1.12286">
<ele>55.0</ele>
<time>2026-08-25T13:45:25Z</time>
</trkpt>
<trkpt lat="49.41108" lon="1.12287">
<ele>55.0</ele>
<time>2026-08-25T13:45:41Z</time>
</trkpt>
<trkpt lat="49.41111" lon="1.12287">
<ele>55.0</ele>
<time>2026-08-25T13:45:52Z</time>
</trkpt>
<trkpt lat="49.411139999999996" lon="1.1228799999999999">
<ele>55.0</ele>
<time>2026-08-25T13:45:57Z</time>
</trkpt>
<trkpt lat="49.41117" lon="1.1229">
<ele>55.0</ele>
<time>2026-08-25T13:46:16Z</time>
</trkpt>
<trkpt lat="49.4112" lon="1.1229099999999999">
<ele>55.0</ele>
<time>2026-08-25T13:46:21Z</time>
</trkpt>
<trkpt lat="49.41122" lon="1.1229">
<ele>55.0</ele>
<time>2026-08-25T13:46:27Z</time>
</trkpt>
<trkpt lat="49.411249999999995" lon="1.1228799999999999">
<ele>55.0</ele>
<time>2026-08-25T13:46:31Z</time>
</trkpt>
<trkpt lat="49.411269999999995" lon="1.12287">
<ele>54.0</ele>
<time>2026-08-25T13:46:37Z</time>
</trkpt>
<trkpt lat="49.41129" lon="1.1228399999999998">
<ele>54.0</ele>
<time>2026-08-25T13:46:54Z</time>
</trkpt>
<trkpt lat="49.411319999999996" lon="1.12283">
<ele>54.0</ele>
<time>2026-08-25T13:46:56Z</time>
</trkpt>
<trkpt lat="49.41135" lon="1.12283">
<ele>54.0</ele>
<time>2026-08-25T13:47:04Z</time>
</trkpt>
<trkpt lat="49.41138" lon="1.1228099999999999">
<ele>54.0</ele>
<time>2026-08-25T13:47:07Z</time>
</trkpt>
<trkpt lat="49.41141" lon="1.1228">
<ele>54.0</ele>
<time>2026-08-25T13:47:10Z</time>
</trkpt>
<trkpt lat="49.4114" lon="1.12278">
<ele>54.0</ele>
<time>2026-08-25T13:47:34Z</time>
</trkpt>
<trkpt lat="49.411429999999996" lon="1.1228">
<ele>54.0</ele>
<time>2026-08-25T13:48:09Z</time>
</trkpt>
<trkpt lat="49.41144" lon="1.1228">
<ele>54.0</ele>
<time>2026-08-25T13:48:35Z</time>
</trkpt>
<trkpt lat="49.411469999999994" lon="1.12278">
<ele>54.0</ele>
<time>2026-08-25T13:48:40Z</time>
</trkpt>
<trkpt lat="49.41149" lon="1.12275">
<ele>54.0</ele>
<time>2026-08-25T13:48:52Z</time>
</trkpt>
<trkpt lat="49.41151" lon="1.12273">
<ele>54.0</ele>
<time>2026-08-25T13:48:58Z</time>
</trkpt>
<trkpt lat="49.411539999999995" lon="1.1227099999999999">
<ele>55.0</ele>
<time>2026-08-25T13:49:03Z</time>
</trkpt>
<trkpt lat="49.41157" lon="1.12269">
<ele>55.0</ele>
<time>2026-08-25T13:49:07Z</time>
</trkpt>
<trkpt lat="49.41157" lon="1.1227099999999999">
<ele>55.0</ele>
<time>2026-08-25T13:49:30Z</time>
</trkpt>
<trkpt lat="49.41159" lon="1.1227">
<ele>55.0</ele>
<time>2026-08-25T13:50:03Z</time>
</trkpt>
<trkpt lat="49.41159" lon="1.12267">
<ele>55.0</ele>
<time>2026-08-25T13:50:38Z</time>
</trkpt>
<trkpt lat="49.411609999999996" lon="1.12265">
<ele>55.0</ele>
<time>2026-08-25T13:51:02Z</time>
</trkpt>
<trkpt lat="49.411649999999995" lon="1.1226399999999999">
<ele>55.0</ele>
<time>2026-08-25T13:51:16Z</time>
</trkpt>
<trkpt lat="49.41168" lon="1.12265">
<ele>55.0</ele>
<time>2026-08-25T13:51:18Z</time>
</trkpt>
<trkpt lat="49.41171" lon="1.12267">
<ele>55.0</ele>
<time>2026-08-25T13:51:20Z</time>
</trkpt>
<trkpt lat="49.41175" lon="1.12268">
<ele>55.0</ele>
<time>2026-08-25T13:51:23Z</time>
</trkpt>
<trkpt lat="49.411789999999996" lon="1.1227099999999999">
<ele>55.0</ele>
<time>2026-08-25T13:51:27Z</time>
</trkpt>
<trkpt lat="49.411809999999996" lon="1.12275">
<ele>53.0</ele>
<time>2026-08-25T13:51:30Z</time>
</trkpt>
<trkpt lat="49.411789999999996" lon="1.12275">
<ele>55.0</ele>
<time>2026-08-25T13:51:34Z</time>
</trkpt>
<trkpt lat="49.41178" lon="1.12273">
<ele>55.0</ele>
<time>2026-08-25T13:52:24Z</time>
</trkpt>
<trkpt lat="49.41176" lon="1.1227099999999999">
<ele>55.0</ele>
<time>2026-08-25T13:52:58Z</time>
</trkpt>
<trkpt lat="49.41176" lon="1.12273">
<ele>55.0</ele>
<time>2026-08-25T13:53:03Z</time>
</trkpt>
<trkpt lat="49.41178" lon="1.12275">
<ele>55.0</ele>
<time>2026-08-25T13:53:06Z</time>
</trkpt>
<trkpt lat="49.41182" lon="1.12278">
<ele>53.0</ele>
<time>2026-08-25T13:53:10Z</time>
</trkpt>
<trkpt lat="49.41184" lon="1.12278">
<ele>53.0</ele>
<time>2026-08-25T13:53:13Z</time>
</trkpt>
<trkpt lat="49.41186" lon="1.12279">
<ele>53.0</ele>
<time>2026-08-25T13:53:17Z</time>
</trkpt>
<trkpt lat="49.41188" lon="1.12283">
<ele>53.0</ele>
<time>2026-08-25T13:53:20Z</time>
</trkpt>
<trkpt lat="49.411899999999996" lon="1.12282">
<ele>53.0</ele>
<time>2026-08-25T13:53:34Z</time>
</trkpt>
<trkpt lat="49.41191" lon="1.12279">
<ele>53.0</ele>
<time>2026-08-25T13:53:37Z</time>
</trkpt>
<trkpt lat="49.411919999999995" lon="1.1228">
<ele>53.0</ele>
<time>2026-08-25T13:53:40Z</time>
</trkpt>
<trkpt lat="49.41193" lon="1.12286">
<ele>53.0</ele>
<time>2026-08-25T13:53:42Z</time>
</trkpt>
<trkpt lat="49.411919999999995" lon="1.1229099999999999">
<ele>53.0</ele>
<time>2026-08-25T13:53:43Z</time>
</trkpt>
<trkpt lat="49.411919999999995" lon="1.12295">
<ele>59.0</ele>
<time>2026-08-25T13:53:45Z</time>
</trkpt>
<trkpt lat="49.411919999999995" lon="1.1230099999999998">
<ele>59.0</ele>
<time>2026-08-25T13:53:50Z</time>
</trkpt>
<trkpt lat="49.41191" lon="1.1230499999999999">
<ele>59.0</ele>
<time>2026-08-25T13:53:53Z</time>
</trkpt>
<trkpt lat="49.411899999999996" lon="1.12309">
<ele>59.0</ele>
<time>2026-08-25T13:54:02Z</time>
</trkpt>
<trkpt lat="49.411919999999995" lon="1.12313">
<ele>59.0</ele>
<time>2026-08-25T13:54:13Z</time>
</trkpt>
<trkpt lat="49.41195" lon="1.1231499999999999">
<ele>59.0</ele>
<time>2026-08-25T13:54:16Z</time>
</trkpt>
<trkpt lat="49.41197" lon="1.12314">
<ele>59.0</ele>
<time>2026-08-25T13:54:19Z</time>
</trkpt>
<trkpt lat="49.41198" lon="1.12311">
<ele>59.0</ele>
<time>2026-08-25T13:54:23Z</time>
</trkpt>
<trkpt lat="49.412" lon="1.1231">
<ele>59.0</ele>
<time>2026-08-25T13:54:43Z</time>
</trkpt>
<trkpt lat="49.41202" lon="1.1230799999999999">
<ele>59.0</ele>
<time>2026-08-25T13:54:56Z</time>
</trkpt>
<trkpt lat="49.41202" lon="1.12309">
<ele>59.0</ele>
<time>2026-08-25T13:55:17Z</time>
</trkpt>
<trkpt lat="49.412009999999995" lon="1.12313">
<ele>59.0</ele>
<time>2026-08-25T13:55:21Z</time>
</trkpt>
<trkpt lat="49.412009999999995" lon="1.12317">
<ele>59.0</ele>
<time>2026-08-25T13:55:24Z</time>
</trkpt>
<trkpt lat="49.411989999999996" lon="1.1232199999999999">
<ele>63.0</ele>
<time>2026-08-25T13:55:28Z</time>
</trkpt>
<trkpt lat="49.41198" lon="1.12326">
<ele>63.0</ele>
<time>2026-08-25T13:55:31Z</time>
</trkpt>
<trkpt lat="49.41196" lon="1.1233">
<ele>63.0</ele>
<time>2026-08-25T13:55:34Z</time>
</trkpt>
<trkpt lat="49.41195" lon="1.12333">
<ele>63.0</ele>
<time>2026-08-25T13:55:37Z</time>
</trkpt>
<trkpt lat="49.41194" lon="1.12338">
<ele>63.0</ele>
<time>2026-08-25T13:55:41Z</time>
</trkpt>
<trkpt lat="49.411919999999995" lon="1.12341">
<ele>63.0</ele>
<time>2026-08-25T13:55:55Z</time>
</trkpt>
<trkpt lat="49.41189" lon="1.12343">
<ele>63.0</ele>
<time>2026-08-25T13:56:01Z</time>
</trkpt>
<trkpt lat="49.41188" lon="1.12346">
<ele>63.0</ele>
<time>2026-08-25T13:56:04Z</time>
</trkpt>
<trkpt lat="49.41187" lon="1.12344">
<ele>63.0</ele>
<time>2026-08-25T13:56:59Z</time>
</trkpt>
<trkpt lat="49.41188" lon="1.12344">
<ele>63.0</ele>
<time>2026-08-25T13:57:15Z</time>
</trkpt>
<trkpt lat="49.41191" lon="1.12343">
<ele>63.0</ele>
<time>2026-08-25T13:57:31Z</time>
</trkpt>
<trkpt lat="49.41193" lon="1.12341">
<ele>63.0</ele>
<time>2026-08-25T13:57:37Z</time>
</trkpt>
<trkpt lat="49.41195" lon="1.12337">
<ele>63.0</ele>
<time>2026-08-25T13:57:41Z</time>
</trkpt>
<trkpt lat="49.41197" lon="1.12334">
<ele>63.0</ele>
<time>2026-08-25T13:57:44Z</time>
</trkpt>
<trkpt lat="49.412" lon="1.12331">
<ele>63.0</ele>
<time>2026-08-25T13:57:47Z</time>
</trkpt>
<trkpt lat="49.412029999999994" lon="1.12328">
<ele>63.0</ele>
<time>2026-08-25T13:57:50Z</time>
</trkpt>
<trkpt lat="49.41205" lon="1.12327">
<ele>63.0</ele>
<time>2026-08-25T13:57:54Z</time>
</trkpt>
<trkpt lat="49.41207" lon="1.12323">
<ele>63.0</ele>
<time>2026-08-25T13:57:59Z</time>
</trkpt>
<trkpt lat="49.41207" lon="1.1232">
<ele>63.0</ele>
<time>2026-08-25T13:58:03Z</time>
</trkpt>
<trkpt lat="49.41205" lon="1.12319">
<ele>59.0</ele>
<time>2026-08-25T13:58:06Z</time>
</trkpt>
<trkpt lat="49.41202" lon="1.1232">
<ele>63.0</ele>
<time>2026-08-25T13:58:20Z</time>
</trkpt>
<trkpt lat="49.412" lon="1.12319">
<ele>59.0</ele>
<time>2026-08-25T13:58:31Z</time>
</trkpt>
<trkpt lat="49.411989999999996" lon="1.12316">
<ele>59.0</ele>
<time>2026-08-25T13:58:48Z</time>
</trkpt>
<trkpt lat="49.411989999999996" lon="1.12312">
<ele>59.0</ele>
<time>2026-08-25T13:59:14Z</time>
</trkpt>
<trkpt lat="49.411989999999996" lon="1.12313">
<ele>59.0</ele>
<time>2026-08-25T13:59:31Z</time>
</trkpt>
<trkpt lat="49.41198" lon="1.12314">
<ele>59.0</ele>
<time>2026-08-25T13:59:38Z</time>
</trkpt>
<trkpt lat="49.411989999999996" lon="1.12316">
<ele>59.0</ele>
<time>2026-08-25T14:00:36Z</time>
</trkpt>
<trkpt lat="49.412009999999995" lon="1.1231499999999999">
<ele>59.0</ele>
<time>2026-08-25T14:03:52Z</time>
</trkpt>
<trkpt lat="49.412009999999995" lon="1.12313">
<ele>59.0</ele>
<time>2026-08-25T14:07:01Z</time>
</trkpt>
<trkpt lat="49.412009999999995" lon="1.1231499999999999">
<ele>59.0</ele>
<time>2026-08-25T14:08:28Z</time>
</trkpt>
<trkpt lat="49.41198" lon="1.1231499999999999">
<ele>59.0</ele>
<time>2026-08-25T14:12:39Z</time>
</trkpt>
<trkpt lat="49.41198" lon="1.12317">
<ele>59.0</ele>
<time>2026-08-25T14:12:44Z</time>
</trkpt>
<trkpt lat="49.41196" lon="1.12321">
<ele>63.0</ele>
<time>2026-08-25T14:12:50Z</time>
</trkpt>
<trkpt lat="49.41193" lon="1.12324">
<ele>63.0</ele>
<time>2026-08-25T14:12:54Z</time>
</trkpt>
<trkpt lat="49.41191" lon="1.12327">
<ele>63.0</ele>
<time>2026-08-25T14:13:04Z</time>
</trkpt>
<trkpt lat="49.41188" lon="1.1233">
<ele>63.0</ele>
<time>2026-08-25T14:13:09Z</time>
</trkpt>
<trkpt lat="49.41187" lon="1.12334">
<ele>63.0</ele>
<time>2026-08-25T14:13:13Z</time>
</trkpt>
<trkpt lat="49.41186" lon="1.12338">
<ele>63.0</ele>
<time>2026-08-25T14:13:19Z</time>
</trkpt>
<trkpt lat="49.41185" lon="1.1234199999999999">
<ele>63.0</ele>
<time>2026-08-25T14:13:23Z</time>
</trkpt>
<trkpt lat="49.41185" lon="1.12346">
<ele>63.0</ele>
<time>2026-08-25T14:13:27Z</time>
</trkpt>
<trkpt lat="49.41184" lon="1.12351">
<ele>68.0</ele>
<time>2026-08-25T14:13:32Z</time>
</trkpt>
<trkpt lat="49.411829999999995" lon="1.12355">
<ele>68.0</ele>
<time>2026-08-25T14:13:43Z</time>
</trkpt>
<trkpt lat="49.411809999999996" lon="1.12358">
<ele>68.0</ele>
<time>2026-08-25T14:14:02Z</time>
</trkpt>
<trkpt lat="49.4118" lon="1.1236199999999998">
<ele>75.0</ele>
<time>2026-08-25T14:14:06Z</time>
</trkpt>
<trkpt lat="49.4118" lon="1.12367">
<ele>75.0</ele>
<time>2026-08-25T14:14:11Z</time>
</trkpt>
<trkpt lat="49.411789999999996" lon="1.12371">
<ele>75.0</ele>
<time>2026-08-25T14:14:16Z</time>
</trkpt>
<trkpt lat="49.41178" lon="1.12375">
<ele>83.0</ele>
<time>2026-08-25T14:14:21Z</time>
</trkpt>
<trkpt lat="49.41177" lon="1.1237899999999998">
<ele>83.0</ele>
<time>2026-08-25T14:14:25Z</time>
</trkpt>
<trkpt lat="49.41176" lon="1.12384">
<ele>83.0</ele>
<time>2026-08-25T14:14:31Z</time>
</trkpt>
<trkpt lat="49.41176" lon="1.12388">
<ele>83.0</ele>
<time>2026-08-25T14:14:35Z</time>
</trkpt>
<trkpt lat="49.41175" lon="1.12392">
<ele>83.0</ele>
<time>2026-08-25T14:14:41Z</time>
</trkpt>
<trkpt lat="49.411739999999995" lon="1.12397">
<ele>83.0</ele>
<time>2026-08-25T14:14:45Z</time>
</trkpt>
<trkpt lat="49.411739999999995" lon="1.12402">
<ele>83.0</ele>
<time>2026-08-25T14:14:48Z</time>
</trkpt>
<trkpt lat="49.411739999999995" lon="1.12407">
<ele>88.0</ele>
<time>2026-08-25T14:14:52Z</time>
</trkpt>
<trkpt lat="49.41173" lon="1.12412">
<ele>88.0</ele>
<time>2026-08-25T14:14:56Z</time>
</trkpt>
<trkpt lat="49.41171" lon="1.12417">
<ele>88.0</ele>
<time>2026-08-25T14:15:00Z</time>
</trkpt>
<trkpt lat="49.411719999999995" lon="1.12422">
<ele>88.0</ele>
<time>2026-08-25T14:15:04Z</time>
</trkpt>
<trkpt lat="49.41171" lon="1.1242699999999999">
<ele>88.0</ele>
<time>2026-08-25T14:15:07Z</time>
</trkpt>
<trkpt lat="49.41171" lon="1.12431">
<ele>92.0</ele>
<time>2026-08-25T14:15:11Z</time>
</trkpt>
<trkpt lat="49.411699999999996" lon="1.12436">
<ele>92.0</ele>
<time>2026-08-25T14:15:15Z</time>
</trkpt>
<trkpt lat="49.41169" lon="1.1243999999999998">
<ele>92.0</ele>
<time>2026-08-25T14:15:20Z</time>
</trkpt>
<trkpt lat="49.41168" lon="1.12445">
<ele>92.0</ele>
<time>2026-08-25T14:15:23Z</time>
</trkpt>
<trkpt lat="49.41167" lon="1.12449">
<ele>92.0</ele>
<time>2026-08-25T14:15:27Z</time>
</trkpt>
<trkpt lat="49.41166" lon="1.1245399999999999">
<ele>92.0</ele>
<time>2026-08-25T14:15:30Z</time>
</trkpt>
<trkpt lat="49.411649999999995" lon="1.12458">
<ele>92.0</ele>
<time>2026-08-25T14:15:34Z</time>
</trkpt>
<trkpt lat="49.411649999999995" lon="1.12462">
<ele>97.0</ele>
<time>2026-08-25T14:15:39Z</time>
</trkpt>
<trkpt lat="49.411649999999995" lon="1.12466">
<ele>97.0</ele>
<time>2026-08-25T14:15:43Z</time>
</trkpt>
<trkpt lat="49.411649999999995" lon="1.1247099999999999">
<ele>97.0</ele>
<time>2026-08-25T14:15:47Z</time>
</trkpt>
<trkpt lat="49.411649999999995" lon="1.12476">
<ele>97.0</ele>
<time>2026-08-25T14:15:52Z</time>
</trkpt>
<trkpt lat="49.41164" lon="1.1248">
<ele>97.0</ele>
<time>2026-08-25T14:15:57Z</time>
</trkpt>
<trkpt lat="49.411629999999995" lon="1.12485">
<ele>97.0</ele>
<time>2026-08-25T14:16:01Z</time>
</trkpt>
<trkpt lat="49.41162" lon="1.12489">
<ele>101.0</ele>
<time>2026-08-25T14:16:06Z</time>
</trkpt>
<trkpt lat="49.4116" lon="1.12493">
<ele>101.0</ele>
<time>2026-08-25T14:16:10Z</time>
</trkpt>
<trkpt lat="49.41158" lon="1.12496">
<ele>101.0</ele>
<time>2026-08-25T14:16:15Z</time>
</trkpt>
<trkpt lat="49.41157" lon="1.125">
<ele>101.0</ele>
<time>2026-08-25T14:16:26Z</time>
</trkpt>
<trkpt lat="49.41158" lon="1.12504">
<ele>101.0</ele>
<time>2026-08-25T14:16:29Z</time>
</trkpt>
<trkpt lat="49.41159" lon="1.12507">
<ele>101.0</ele>
<time>2026-08-25T14:16:38Z</time>
</trkpt>
<trkpt lat="49.41159" lon="1.12512">
<ele>101.0</ele>
<time>2026-08-25T14:16:49Z</time>
</trkpt>
<trkpt lat="49.4116" lon="1.12517">
<ele>104.0</ele>
<time>2026-08-25T14:16:52Z</time>
</trkpt>
<trkpt lat="49.411609999999996" lon="1.12521">
<ele>104.0</ele>
<time>2026-08-25T14:16:56Z</time>
</trkpt>
<trkpt lat="49.41162" lon="1.1252499999999999">
<ele>104.0</ele>
<time>2026-08-25T14:17:01Z</time>
</trkpt>
<trkpt lat="49.411629999999995" lon="1.1253">
<ele>104.0</ele>
<time>2026-08-25T14:17:04Z</time>
</trkpt>
<trkpt lat="49.411629999999995" lon="1.1253499999999999">
<ele>104.0</ele>
<time>2026-08-25T14:17:07Z</time>
</trkpt>
<trkpt lat="49.411629999999995" lon="1.12539">
<ele>104.0</ele>
<time>2026-08-25T14:17:11Z</time>
</trkpt>
<trkpt lat="49.41162" lon="1.12544">
<ele>107.0</ele>
<time>2026-08-25T14:17:16Z</time>
</trkpt>
<trkpt lat="49.411629999999995" lon="1.12548">
<ele>107.0</ele>
<time>2026-08-25T14:17:22Z</time>
</trkpt>
<trkpt lat="49.411649999999995" lon="1.1255199999999999">
<ele>107.0</ele>
<time>2026-08-25T14:17:28Z</time>
</trkpt>
<trkpt lat="49.411649999999995" lon="1.12556">
<ele>107.0</ele>
<time>2026-08-25T14:17:35Z</time>
</trkpt>
<trkpt lat="49.411649999999995" lon="1.12561">
<ele>107.0</ele>
<time>2026-08-25T14:17:41Z</time>
</trkpt>
<trkpt lat="49.41164" lon="1.12564">
<ele>107.0</ele>
<time>2026-08-25T14:17:44Z</time>
</trkpt>
<trkpt lat="49.411629999999995" lon="1.1256899999999999">
<ele>107.0</ele>
<time>2026-08-25T14:17:46Z</time>
</trkpt>
<trkpt lat="49.411629999999995" lon="1.12573">
<ele>113.0</ele>
<time>2026-08-25T14:17:51Z</time>
</trkpt>
<trkpt lat="49.41164" lon="1.12577">
<ele>113.0</ele>
<time>2026-08-25T14:17:58Z</time>
</trkpt>
<trkpt lat="49.41164" lon="1.12581">
<ele>113.0</ele>
<time>2026-08-25T14:18:04Z</time>
</trkpt>
<trkpt lat="49.41164" lon="1.1258599999999999">
<ele>113.0</ele>
<time>2026-08-25T14:18:07Z</time>
</trkpt>
<trkpt lat="49.41164" lon="1.1259">
<ele>113.0</ele>
<time>2026-08-25T14:18:12Z</time>
</trkpt>
<trkpt lat="49.411609999999996" lon="1.12595">
<ele>113.0</ele>
<time>2026-08-25T14:18:23Z</time>
</trkpt>
<trkpt lat="49.41162" lon="1.1259599999999998">
<ele>113.0</ele>
<time>2026-08-25T14:18:24Z</time>
</trkpt>
<trkpt lat="49.411609999999996" lon="1.12598">
<ele>118.0</ele>
<time>2026-08-25T14:18:35Z</time>
</trkpt>
<trkpt lat="49.411629999999995" lon="1.126">
<ele>118.0</ele>
<time>2026-08-25T14:18:49Z</time>
</trkpt>
<trkpt lat="49.411649999999995" lon="1.12602">
<ele>118.0</ele>
<time>2026-08-25T14:19:05Z</time>
</trkpt>
<trkpt lat="49.411649999999995" lon="1.1260599999999998">
<ele>118.0</ele>
<time>2026-08-25T14:19:09Z</time>
</trkpt>
<trkpt lat="49.41164" lon="1.12609">
<ele>118.0</ele>
<time>2026-08-25T14:19:18Z</time>
</trkpt>
<trkpt lat="49.411629999999995" lon="1.1261299999999999">
<ele>118.0</ele>
<time>2026-08-25T14:19:22Z</time>
</trkpt>
<trkpt lat="49.411629999999995" lon="1.12618">
<ele>118.0</ele>
<time>2026-08-25T14:19:25Z</time>
</trkpt>
<trkpt lat="49.41162" lon="1.1262299999999998">
<ele>118.0</ele>
<time>2026-08-25T14:19:28Z</time>
</trkpt>
<trkpt lat="49.41162" lon="1.12628">
<ele>120.0</ele>
<time>2026-08-25T14:19:31Z</time>
</trkpt>
<trkpt lat="49.41162" lon="1.12633">
<ele>120.0</ele>
<time>2026-08-25T14:19:36Z</time>
</trkpt>
<trkpt lat="49.411609999999996" lon="1.12638">
<ele>120.0</ele>
<time>2026-08-25T14:19:40Z</time>
</trkpt>
<trkpt lat="49.411609999999996" lon="1.12642">
<ele>120.0</ele>
<time>2026-08-25T14:19:44Z</time>
</trkpt>
<trkpt lat="49.4116" lon="1.12646">
<ele>120.0</ele>
<time>2026-08-25T14:19:48Z</time>
</trkpt>
<trkpt lat="49.41159" lon="1.12651">
<ele>120.0</ele>
<time>2026-08-25T14:19:51Z</time>
</trkpt>
<trkpt lat="49.41158" lon="1.12656">
<ele>124.0</ele>
<time>2026-08-25T14:19:55Z</time>
</trkpt>
<trkpt lat="49.41158" lon="1.12661">
<ele>124.0</ele>
<time>2026-08-25T14:19:58Z</time>
</trkpt>
<trkpt lat="49.41158" lon="1.12666">
<ele>124.0</ele>
<time>2026-08-25T14:20:02Z</time>
</trkpt>
<trkpt lat="49.41159" lon="1.1267099999999999">
<ele>124.0</ele>
<time>2026-08-25T14:20:09Z</time>
</trkpt>
<trkpt lat="49.4116" lon="1.12675">
<ele>124.0</ele>
<time>2026-08-25T14:20:13Z</time>
</trkpt>
<trkpt lat="49.41162" lon="1.12679">
<ele>124.0</ele>
<time>2026-08-25T14:20:19Z</time>
</trkpt>
<trkpt lat="49.411629999999995" lon="1.12683">
<ele>128.0</ele>
<time>2026-08-25T14:20:25Z</time>
</trkpt>
<trkpt lat="49.411649999999995" lon="1.12687">
<ele>128.0</ele>
<time>2026-08-25T14:20:33Z</time>
</trkpt>
<trkpt lat="49.41167" lon="1.12694">
<ele>128.0</ele>
<time>2026-08-25T14:20:43Z</time>
</trkpt>
<trkpt lat="49.41168" lon="1.12696">
<ele>128.0</ele>
<time>2026-08-25T14:20:49Z</time>
</trkpt>
<trkpt lat="49.411699999999996" lon="1.127">
<ele>128.0</ele>
<time>2026-08-25T14:20:53Z</time>
</trkpt>
<trkpt lat="49.41168" lon="1.1270499999999999">
<ele>128.0</ele>
<time>2026-08-25T14:20:56Z</time>
</trkpt>
<trkpt lat="49.41169" lon="1.1270799999999999">
<ele>128.0</ele>
<time>2026-08-25T14:20:59Z</time>
</trkpt>
<trkpt lat="49.41169" lon="1.12712">
<ele>134.0</ele>
<time>2026-08-25T14:21:04Z</time>
</trkpt>
<trkpt lat="49.411699999999996" lon="1.12716">
<ele>134.0</ele>
<time>2026-08-25T14:21:10Z</time>
</trkpt>
<trkpt lat="49.411699999999996" lon="1.1272">
<ele>134.0</ele>
<time>2026-08-25T14:21:15Z</time>
</trkpt>
<trkpt lat="49.411719999999995" lon="1.12724">
<ele>134.0</ele>
<time>2026-08-25T14:21:20Z</time>
</trkpt>
<trkpt lat="49.41173" lon="1.12728">
<ele>134.0</ele>
<time>2026-08-25T14:21:25Z</time>
</trkpt>
<trkpt lat="49.41175" lon="1.1273199999999999">
<ele>134.0</ele>
<time>2026-08-25T14:21:29Z</time>
</trkpt>
<trkpt lat="49.41176" lon="1.12736">
<ele>134.0</ele>
<time>2026-08-25T14:21:34Z</time>
</trkpt>
<trkpt lat="49.41176" lon="1.12741">
<ele>139.0</ele>
<time>2026-08-25T14:21:38Z</time>
</trkpt>
<trkpt lat="49.41176" lon="1.12746">
<ele>139.0</ele>
<time>2026-08-25T14:21:43Z</time>
</trkpt>
<trkpt lat="49.41177" lon="1.1275">
<ele>139.0</ele>
<time>2026-08-25T14:21:49Z</time>
</trkpt>
<trkpt lat="49.41178" lon="1.12754">
<ele>139.0</ele>
<time>2026-08-25T14:21:55Z</time>
</trkpt>
<trkpt lat="49.4118" lon="1.12758">
<ele>139.0</ele>
<time>2026-08-25T14:21:59Z</time>
</trkpt>
<trkpt lat="49.41182" lon="1.1276199999999998">
<ele>128.0</ele>
<time>2026-08-25T14:22:03Z</time>
</trkpt>
<trkpt lat="49.411829999999995" lon="1.1276599999999999">
<ele>136.0</ele>
<time>2026-08-25T14:22:07Z</time>
</trkpt>
<trkpt lat="49.41184" lon="1.12771">
<ele>136.0</ele>
<time>2026-08-25T14:22:11Z</time>
</trkpt>
<trkpt lat="49.41185" lon="1.12775">
<ele>136.0</ele>
<time>2026-08-25T14:22:15Z</time>
</trkpt>
<trkpt lat="49.41186" lon="1.1278">
<ele>136.0</ele>
<time>2026-08-25T14:22:23Z</time>
</trkpt>
<trkpt lat="49.41186" lon="1.12785">
<ele>136.0</ele>
<time>2026-08-25T14:22:28Z</time>
</trkpt>
<trkpt lat="49.41187" lon="1.12788">
<ele>136.0</ele>
<time>2026-08-25T14:22:35Z</time>
</trkpt>
<trkpt lat="49.41188" lon="1.1279299999999999">
<ele>141.0</ele>
<time>2026-08-25T14:22:38Z</time>
</trkpt>
<trkpt lat="49.41189" lon="1.12797">
<ele>141.0</ele>
<time>2026-08-25T14:22:41Z</time>
</trkpt>
<trkpt lat="49.41189" lon="1.12801">
<ele>141.0</ele>
<time>2026-08-25T14:22:50Z</time>
</trkpt>
<trkpt lat="49.41189" lon="1.1280599999999998">
<ele>141.0</ele>
<time>2026-08-25T14:22:55Z</time>
</trkpt>
<trkpt lat="49.411899999999996" lon="1.1280999999999999">
<ele>141.0</ele>
<time>2026-08-25T14:22:59Z</time>
</trkpt>
<trkpt lat="49.41191" lon="1.12815">
<ele>141.0</ele>
<time>2026-08-25T14:23:06Z</time>
</trkpt>
<trkpt lat="49.41191" lon="1.12819">
<ele>141.0</ele>
<time>2026-08-25T14:23:10Z</time>
</trkpt>
<trkpt lat="49.41191" lon="1.12824">
<ele>143.0</ele>
<time>2026-08-25T14:23:14Z</time>
</trkpt>
<trkpt lat="49.41191" lon="1.12828">
<ele>143.0</ele>
<time>2026-08-25T14:23:18Z</time>
</trkpt>
<trkpt lat="49.411899999999996" lon="1.12832">
<ele>143.0</ele>
<time>2026-08-25T14:23:23Z</time>
</trkpt>
<trkpt lat="49.41191" lon="1.12836">
<ele>143.0</ele>
<time>2026-08-25T14:23:29Z</time>
</trkpt>
<trkpt lat="49.411919999999995" lon="1.12839">
<ele>143.0</ele>
<time>2026-08-25T14:23:35Z</time>
</trkpt>
<trkpt lat="49.41193" lon="1.12843">
<ele>143.0</ele>
<time>2026-08-25T14:23:42Z</time>
</trkpt>
<trkpt lat="49.41193" lon="1.12848">
<ele>143.0</ele>
<time>2026-08-25T14:23:47Z</time>
</trkpt>
<trkpt lat="49.41193" lon="1.12853">
<ele>143.0</ele>
<time>2026-08-25T14:23:54Z</time>
</trkpt>
<trkpt lat="49.41193" lon="1.1285699999999999">
<ele>143.0</ele>
<time>2026-08-25T14:23:56Z</time>
</trkpt>
<trkpt lat="49.41194" lon="1.12862">
<ele>143.0</ele>
<time>2026-08-25T14:24:00Z</time>
</trkpt>
<trkpt lat="49.41194" lon="1.12866">
<ele>143.0</ele>
<time>2026-08-25T14:24:16Z</time>
</trkpt>
<trkpt lat="49.41196" lon="1.12869">
<ele>143.0</ele>
<time>2026-08-25T14:25:07Z</time>
</trkpt>
<trkpt lat="49.41196" lon="1.12873">
<ele>143.0</ele>
<time>2026-08-25T14:27:19Z</time>
</trkpt>
<trkpt lat="49.41196" lon="1.12877">
<ele>144.0</ele>
<time>2026-08-25T14:27:26Z</time>
</trkpt>
<trkpt lat="49.41198" lon="1.1288">
<ele>144.0</ele>
<time>2026-08-25T14:27:29Z</time>
</trkpt>
<trkpt lat="49.411989999999996" lon="1.12885">
<ele>144.0</ele>
<time>2026-08-25T14:27:32Z</time>
</trkpt>
<trkpt lat="49.412" lon="1.12889">
<ele>144.0</ele>
<time>2026-08-25T14:27:36Z</time>
</trkpt>
<trkpt lat="49.41198" lon="1.1289099999999999">
<ele>144.0</ele>
<time>2026-08-25T14:27:40Z</time>
</trkpt>
<trkpt lat="49.41196" lon="1.1289099999999999">
<ele>144.0</ele>
<time>2026-08-25T14:27:49Z</time>
</trkpt>
<trkpt lat="49.41198" lon="1.12893">
<ele>144.0</ele>
<time>2026-08-25T14:30:57Z</time>
</trkpt>
<trkpt lat="49.41196" lon="1.12894">
<ele>144.0</ele>
<time>2026-08-25T14:31:05Z</time>
</trkpt>
<trkpt lat="49.41193" lon="1.12895">
<ele>144.0</ele>
<time>2026-08-25T14:31:08Z</time>
</trkpt>
<trkpt lat="49.411899999999996" lon="1.12896">
<ele>144.0</ele>
<time>2026-08-25T14:31:12Z</time>
</trkpt>
<trkpt lat="49.41187" lon="1.12897">
<ele>144.0</ele>
<time>2026-08-25T14:31:15Z</time>
</trkpt>
<trkpt lat="49.41185" lon="1.12899">
<ele>144.0</ele>
<time>2026-08-25T14:31:18Z</time>
</trkpt>
<trkpt lat="49.41182" lon="1.1290099999999998">
<ele>144.0</ele>
<time>2026-08-25T14:31:22Z</time>
</trkpt>
<trkpt lat="49.411789999999996" lon="1.12903">
<ele>146.0</ele>
<time>2026-08-25T14:31:26Z</time>
</trkpt>
<trkpt lat="49.41177" lon="1.12906">
<ele>146.0</ele>
<time>2026-08-25T14:31:30Z</time>
</trkpt>
<trkpt lat="49.411739999999995" lon="1.1290799999999999">
<ele>146.0</ele>
<time>2026-08-25T14:31:33Z</time>
</trkpt>
<trkpt lat="49.411719999999995" lon="1.1291">
<ele>146.0</ele>
<time>2026-08-25T14:31:37Z</time>
</trkpt>
<trkpt lat="49.41169" lon="1.12912">
<ele>146.0</ele>
<time>2026-08-25T14:31:41Z</time>
</trkpt>
<trkpt lat="49.41167" lon="1.12914">
<ele>146.0</ele>
<time>2026-08-25T14:31:45Z</time>
</trkpt>
<trkpt lat="49.41164" lon="1.12916">
<ele>146.0</ele>
<time>2026-08-25T14:31:50Z</time>
</trkpt>
<trkpt lat="49.411609999999996" lon="1.1291799999999999">
<ele>146.0</ele>
<time>2026-08-25T14:31:53Z</time>
</trkpt>
<trkpt lat="49.41159" lon="1.1292">
<ele>146.0</ele>
<time>2026-08-25T14:31:56Z</time>
</trkpt>
<trkpt lat="49.411559999999994" lon="1.12922">
<ele>146.0</ele>
<time>2026-08-25T14:31:58Z</time>
</trkpt>
<trkpt lat="49.41153" lon="1.1292499999999999">
<ele>146.0</ele>
<time>2026-08-25T14:32:01Z</time>
</trkpt>
<trkpt lat="49.4115" lon="1.12927">
<ele>148.0</ele>
<time>2026-08-25T14:32:04Z</time>
</trkpt>
<trkpt lat="49.41146" lon="1.12929">
<ele>148.0</ele>
<time>2026-08-25T14:32:07Z</time>
</trkpt>
<trkpt lat="49.411429999999996" lon="1.12931">
<ele>149.0</ele>
<time>2026-08-25T14:32:10Z</time>
</trkpt>
<trkpt lat="49.41139" lon="1.12933">
<ele>149.0</ele>
<time>2026-08-25T14:32:13Z</time>
</trkpt>
<trkpt lat="49.411359999999995" lon="1.1293499999999999">
<ele>149.0</ele>
<time>2026-08-25T14:32:16Z</time>
</trkpt>
<trkpt lat="49.41133" lon="1.12936">
<ele>149.0</ele>
<time>2026-08-25T14:32:19Z</time>
</trkpt>
<trkpt lat="49.4113" lon="1.12937">
<ele>149.0</ele>
<time>2026-08-25T14:32:22Z</time>
</trkpt>
<trkpt lat="49.411269999999995" lon="1.12938">
<ele>149.0</ele>
<time>2026-08-25T14:32:25Z</time>
</trkpt>
<trkpt lat="49.41124" lon="1.1294">
<ele>150.0</ele>
<time>2026-08-25T14:32:28Z</time>
</trkpt>
<trkpt lat="49.4112" lon="1.12941">
<ele>150.0</ele>
<time>2026-08-25T14:32:31Z</time>
</trkpt>
<trkpt lat="49.41117" lon="1.12943">
<ele>150.0</ele>
<time>2026-08-25T14:32:34Z</time>
</trkpt>
<trkpt lat="49.411139999999996" lon="1.1294499999999998">
<ele>150.0</ele>
<time>2026-08-25T14:32:37Z</time>
</trkpt>
<trkpt lat="49.4111" lon="1.12947">
<ele>150.0</ele>
<time>2026-08-25T14:32:40Z</time>
</trkpt>
<trkpt lat="49.411069999999995" lon="1.12948">
<ele>150.0</ele>
<time>2026-08-25T14:32:43Z</time>
</trkpt>
<trkpt lat="49.41104" lon="1.1294899999999999">
<ele>150.0</ele>
<time>2026-08-25T14:32:46Z</time>
</trkpt>
<trkpt lat="49.41101" lon="1.1295">
<ele>150.0</ele>
<time>2026-08-25T14:32:49Z</time>
</trkpt>
<trkpt lat="49.41097" lon="1.1295199999999999">
<ele>149.0</ele>
<time>2026-08-25T14:32:51Z</time>
</trkpt>
<trkpt lat="49.41094" lon="1.12954">
<ele>149.0</ele>
<time>2026-08-25T14:32:53Z</time>
</trkpt>
<trkpt lat="49.41092" lon="1.12955">
<ele>149.0</ele>
<time>2026-08-25T14:32:55Z</time>
</trkpt>
<trkpt lat="49.410889999999995" lon="1.12957">
<ele>149.0</ele>
<time>2026-08-25T14:32:57Z</time>
</trkpt>
<trkpt lat="49.41086" lon="1.1295899999999999">
<ele>149.0</ele>
<time>2026-08-25T14:33:00Z</time>
</trkpt>
<trkpt lat="49.41082" lon="1.1296">
<ele>149.0</ele>
<time>2026-08-25T14:33:03Z</time>
</trkpt>
<trkpt lat="49.410799999999995" lon="1.1296199999999998">
<ele>149.0</ele>
<time>2026-08-25T14:33:06Z</time>
</trkpt>
<trkpt lat="49.410759999999996" lon="1.12963">
<ele>149.0</ele>
<time>2026-08-25T14:33:10Z</time>
</trkpt>
<trkpt lat="49.41074" lon="1.12963">
<ele>149.0</ele>
<time>2026-08-25T14:33:13Z</time>
</trkpt>
<trkpt lat="49.410709999999995" lon="1.12965">
<ele>149.0</ele>
<time>2026-08-25T14:33:16Z</time>
</trkpt>
<trkpt lat="49.41068" lon="1.12967">
<ele>148.0</ele>
<time>2026-08-25T14:33:19Z</time>
</trkpt>
<trkpt lat="49.41065" lon="1.1296899999999999">
<ele>148.0</ele>
<time>2026-08-25T14:33:22Z</time>
</trkpt>
<trkpt lat="49.410619999999994" lon="1.1297">
<ele>148.0</ele>
<time>2026-08-25T14:33:25Z</time>
</trkpt>
<trkpt lat="49.41059" lon="1.12971">
<ele>148.0</ele>
<time>2026-08-25T14:33:28Z</time>
</trkpt>
<trkpt lat="49.41056" lon="1.12971">
<ele>148.0</ele>
<time>2026-08-25T14:33:31Z</time>
</trkpt>
<trkpt lat="49.410529999999994" lon="1.12972">
<ele>148.0</ele>
<time>2026-08-25T14:33:34Z</time>
</trkpt>
<trkpt lat="49.4105" lon="1.12974">
<ele>148.0</ele>
<time>2026-08-25T14:33:37Z</time>
</trkpt>
<trkpt lat="49.41047" lon="1.12975">
<ele>148.0</ele>
<time>2026-08-25T14:33:40Z</time>
</trkpt>
<trkpt lat="49.41044" lon="1.12977">
<ele>148.0</ele>
<time>2026-08-25T14:33:43Z</time>
</trkpt>
<trkpt lat="49.41041" lon="1.1297899999999998">
<ele>147.0</ele>
<time>2026-08-25T14:33:46Z</time>
</trkpt>
<trkpt lat="49.410379999999996" lon="1.12981">
<ele>147.0</ele>
<time>2026-08-25T14:33:49Z</time>
</trkpt>
<trkpt lat="49.41034" lon="1.12983">
<ele>147.0</ele>
<time>2026-08-25T14:33:52Z</time>
</trkpt>
<trkpt lat="49.410309999999996" lon="1.12985">
<ele>147.0</ele>
<time>2026-08-25T14:33:55Z</time>
</trkpt>
<trkpt lat="49.41028" lon="1.12987">
<ele>148.0</ele>
<time>2026-08-25T14:33:58Z</time>
</trkpt>
<trkpt lat="49.41025" lon="1.12988">
<ele>148.0</ele>
<time>2026-08-25T14:34:00Z</time>
</trkpt>
<trkpt lat="49.410219999999995" lon="1.1299">
<ele>148.0</ele>
<time>2026-08-25T14:34:02Z</time>
</trkpt>
<trkpt lat="49.410199999999996" lon="1.12992">
<ele>148.0</ele>
<time>2026-08-25T14:34:04Z</time>
</trkpt>
<trkpt lat="49.41016" lon="1.12994">
<ele>148.0</ele>
<time>2026-08-25T14:34:07Z</time>
</trkpt>
<trkpt lat="49.41014" lon="1.1299599999999999">
<ele>148.0</ele>
<time>2026-08-25T14:34:10Z</time>
</trkpt>
<trkpt lat="49.410109999999996" lon="1.12998">
<ele>147.0</ele>
<time>2026-08-25T14:34:13Z</time>
</trkpt>
<trkpt lat="49.41008" lon="1.12999">
<ele>147.0</ele>
<time>2026-08-25T14:34:16Z</time>
</trkpt>
<trkpt lat="49.41005" lon="1.13001">
<ele>147.0</ele>
<time>2026-08-25T14:34:19Z</time>
</trkpt>
<trkpt lat="49.410019999999996" lon="1.13002">
<ele>147.0</ele>
<time>2026-08-25T14:34:23Z</time>
</trkpt>
<trkpt lat="49.40999" lon="1.13004">
<ele>147.0</ele>
<time>2026-08-25T14:34:27Z</time>
</trkpt>
<trkpt lat="49.40996" lon="1.1300599999999998">
<ele>147.0</ele>
<time>2026-08-25T14:34:31Z</time>
</trkpt>
<trkpt lat="49.409929999999996" lon="1.13008">
<ele>147.0</ele>
<time>2026-08-25T14:34:34Z</time>
</trkpt>
<trkpt lat="49.4099" lon="1.13009">
<ele>147.0</ele>
<time>2026-08-25T14:34:36Z</time>
</trkpt>
<trkpt lat="49.40987" lon="1.13011">
<ele>147.0</ele>
<time>2026-08-25T14:34:39Z</time>
</trkpt>
<trkpt lat="49.409839999999996" lon="1.13014">
<ele>150.0</ele>
<time>2026-08-25T14:34:41Z</time>
</trkpt>
<trkpt lat="49.409819999999996" lon="1.13016">
<ele>150.0</ele>
<time>2026-08-25T14:34:43Z</time>
</trkpt>
<trkpt lat="49.40979" lon="1.13018">
<ele>150.0</ele>
<time>2026-08-25T14:34:46Z</time>
</trkpt>
<trkpt lat="49.40976" lon="1.1301999999999999">
<ele>150.0</ele>
<time>2026-08-25T14:34:49Z</time>
</trkpt>
<trkpt lat="49.409749999999995" lon="1.13024">
<ele>150.0</ele>
<time>2026-08-25T14:34:52Z</time>
</trkpt>
<trkpt lat="49.409729999999996" lon="1.13028">
<ele>150.0</ele>
<time>2026-08-25T14:34:55Z</time>
</trkpt>
<trkpt lat="49.40972" lon="1.13033">
<ele>150.0</ele>
<time>2026-08-25T14:34:58Z</time>
</trkpt>
<trkpt lat="49.40971" lon="1.13038">
<ele>150.0</ele>
<time>2026-08-25T14:35:01Z</time>
</trkpt>
<trkpt lat="49.40971" lon="1.13043">
<ele>151.0</ele>
<time>2026-08-25T14:35:04Z</time>
</trkpt>
<trkpt lat="49.4097" lon="1.13048">
<ele>151.0</ele>
<time>2026-08-25T14:35:07Z</time>
</trkpt>
<trkpt lat="49.4097" lon="1.13052">
<ele>151.0</ele>
<time>2026-08-25T14:35:10Z</time>
</trkpt>
<trkpt lat="49.40971" lon="1.13056">
<ele>151.0</ele>
<time>2026-08-25T14:35:13Z</time>
</trkpt>
<trkpt lat="49.40972" lon="1.13061">
<ele>151.0</ele>
<time>2026-08-25T14:35:16Z</time>
</trkpt>
<trkpt lat="49.409729999999996" lon="1.13066">
<ele>151.0</ele>
<time>2026-08-25T14:35:19Z</time>
</trkpt>
<trkpt lat="49.409749999999995" lon="1.1307099999999999">
<ele>152.0</ele>
<time>2026-08-25T14:35:22Z</time>
</trkpt>
<trkpt lat="49.409769999999995" lon="1.13076">
<ele>152.0</ele>
<time>2026-08-25T14:35:25Z</time>
</trkpt>
<trkpt lat="49.4098" lon="1.1308099999999999">
<ele>152.0</ele>
<time>2026-08-25T14:35:28Z</time>
</trkpt>
<trkpt lat="49.40981" lon="1.13086">
<ele>152.0</ele>
<time>2026-08-25T14:35:31Z</time>
</trkpt>
<trkpt lat="49.40983" lon="1.1309099999999999">
<ele>152.0</ele>
<time>2026-08-25T14:35:35Z</time>
</trkpt>
<trkpt lat="49.40985" lon="1.13095">
<ele>152.0</ele>
<time>2026-08-25T14:35:37Z</time>
</trkpt>
<trkpt lat="49.409859999999995" lon="1.13099">
<ele>152.0</ele>
<time>2026-08-25T14:35:39Z</time>
</trkpt>
<trkpt lat="49.40987" lon="1.13104">
<ele>151.0</ele>
<time>2026-08-25T14:35:42Z</time>
</trkpt>
<trkpt lat="49.40988" lon="1.13109">
<ele>151.0</ele>
<time>2026-08-25T14:35:45Z</time>
</trkpt>
<trkpt lat="49.40989" lon="1.13114">
<ele>151.0</ele>
<time>2026-08-25T14:35:48Z</time>
</trkpt>
<trkpt lat="49.409909999999996" lon="1.13119">
<ele>151.0</ele>
<time>2026-08-25T14:35:51Z</time>
</trkpt>
<trkpt lat="49.40992" lon="1.13124">
<ele>151.0</ele>
<time>2026-08-25T14:35:54Z</time>
</trkpt>
<trkpt lat="49.409929999999996" lon="1.13129">
<ele>151.0</ele>
<time>2026-08-25T14:35:57Z</time>
</trkpt>
<trkpt lat="49.40994" lon="1.13134">
<ele>151.0</ele>
<time>2026-08-25T14:36:00Z</time>
</trkpt>
<trkpt lat="49.409949999999995" lon="1.13139">
<ele>151.0</ele>
<time>2026-08-25T14:36:03Z</time>
</trkpt>
<trkpt lat="49.40996" lon="1.13144">
<ele>151.0</ele>
<time>2026-08-25T14:36:06Z</time>
</trkpt>
<trkpt lat="49.40996" lon="1.1315">
<ele>151.0</ele>
<time>2026-08-25T14:36:09Z</time>
</trkpt>
<trkpt lat="49.40997" lon="1.13155">
<ele>151.0</ele>
<time>2026-08-25T14:36:12Z</time>
</trkpt>
<trkpt lat="49.40997" lon="1.1315899999999999">
<ele>151.0</ele>
<time>2026-08-25T14:36:15Z</time>
</trkpt>
<trkpt lat="49.40998" lon="1.13164">
<ele>151.0</ele>
<time>2026-08-25T14:36:18Z</time>
</trkpt>
<trkpt lat="49.40999" lon="1.1316899999999999">
<ele>151.0</ele>
<time>2026-08-25T14:36:21Z</time>
</trkpt>
<trkpt lat="49.41" lon="1.13173">
<ele>151.0</ele>
<time>2026-08-25T14:36:24Z</time>
</trkpt>
<trkpt lat="49.41" lon="1.13178">
<ele>151.0</ele>
<time>2026-08-25T14:36:27Z</time>
</trkpt>
<trkpt lat="49.41" lon="1.13182">
<ele>151.0</ele>
<time>2026-08-25T14:36:30Z</time>
</trkpt>
<trkpt lat="49.41" lon="1.1318599999999999">
<ele>151.0</ele>
<time>2026-08-25T14:36:33Z</time>
</trkpt>
<trkpt lat="49.40999" lon="1.13191">
<ele>151.0</ele>
<time>2026-08-25T14:36:37Z</time>
</trkpt>
<trkpt lat="49.40999" lon="1.1319599999999999">
<ele>151.0</ele>
<time>2026-08-25T14:36:40Z</time>
</trkpt>
<trkpt lat="49.41001" lon="1.13201">
<ele>151.0</ele>
<time>2026-08-25T14:36:43Z</time>
</trkpt>
<trkpt lat="49.41003" lon="1.13204">
<ele>151.0</ele>
<time>2026-08-25T14:36:45Z</time>
</trkpt>
<trkpt lat="49.410039999999995" lon="1.13208">
<ele>151.0</ele>
<time>2026-08-25T14:36:47Z</time>
</trkpt>
<trkpt lat="49.410059999999994" lon="1.13212">
<ele>151.0</ele>
<time>2026-08-25T14:36:49Z</time>
</trkpt>
<trkpt lat="49.41007" lon="1.13216">
<ele>151.0</ele>
<time>2026-08-25T14:36:52Z</time>
</trkpt>
<trkpt lat="49.41008" lon="1.13221">
<ele>151.0</ele>
<time>2026-08-25T14:36:55Z</time>
</trkpt>
<trkpt lat="49.4101" lon="1.13224">
<ele>151.0</ele>
<time>2026-08-25T14:36:57Z</time>
</trkpt>
<trkpt lat="49.41012" lon="1.13228">
<ele>151.0</ele>
<time>2026-08-25T14:37:00Z</time>
</trkpt>
<trkpt lat="49.410149999999994" lon="1.13231">
<ele>152.0</ele>
<time>2026-08-25T14:37:02Z</time>
</trkpt>
<trkpt lat="49.41017" lon="1.13234">
<ele>152.0</ele>
<time>2026-08-25T14:37:04Z</time>
</trkpt>
<trkpt lat="49.41019" lon="1.1323699999999999">
<ele>152.0</ele>
<time>2026-08-25T14:37:06Z</time>
</trkpt>
<trkpt lat="49.41021" lon="1.13241">
<ele>152.0</ele>
<time>2026-08-25T14:37:08Z</time>
</trkpt>
<trkpt lat="49.41023" lon="1.13244">
<ele>152.0</ele>
<time>2026-08-25T14:37:10Z</time>
</trkpt>
<trkpt lat="49.41025" lon="1.1324699999999999">
<ele>152.0</ele>
<time>2026-08-25T14:37:12Z</time>
</trkpt>
<trkpt lat="49.41027" lon="1.13251">
<ele>152.0</ele>
<time>2026-08-25T14:37:14Z</time>
</trkpt>
<trkpt lat="49.410289999999996" lon="1.13255">
<ele>152.0</ele>
<time>2026-08-25T14:37:17Z</time>
</trkpt>
<trkpt lat="49.4103" lon="1.1326">
<ele>152.0</ele>
<time>2026-08-25T14:37:20Z</time>
</trkpt>
<trkpt lat="49.41032" lon="1.1326399999999999">
<ele>153.0</ele>
<time>2026-08-25T14:37:23Z</time>
</trkpt>
<trkpt lat="49.410329999999995" lon="1.13269">
<ele>153.0</ele>
<time>2026-08-25T14:37:26Z</time>
</trkpt>
<trkpt lat="49.410329999999995" lon="1.1327399999999999">
<ele>153.0</ele>
<time>2026-08-25T14:37:29Z</time>
</trkpt>
<trkpt lat="49.410329999999995" lon="1.13278">
<ele>153.0</ele>
<time>2026-08-25T14:37:33Z</time>
</trkpt>
<trkpt lat="49.41034" lon="1.13283">
<ele>153.0</ele>
<time>2026-08-25T14:37:37Z</time>
</trkpt>
<trkpt lat="49.41036" lon="1.13287">
<ele>153.0</ele>
<time>2026-08-25T14:37:41Z</time>
</trkpt>
<trkpt lat="49.41037" lon="1.1329099999999999">
<ele>153.0</ele>
<time>2026-08-25T14:37:43Z</time>
</trkpt>
<trkpt lat="49.41039" lon="1.13294">
<ele>154.0</ele>
<time>2026-08-25T14:37:45Z</time>
</trkpt>
<trkpt lat="49.41041" lon="1.1329799999999999">
<ele>154.0</ele>
<time>2026-08-25T14:37:48Z</time>
</trkpt>
<trkpt lat="49.41043" lon="1.1330099999999999">
<ele>153.0</ele>
<time>2026-08-25T14:37:51Z</time>
</trkpt>
<trkpt lat="49.41044" lon="1.13305">
<ele>153.0</ele>
<time>2026-08-25T14:37:54Z</time>
</trkpt>
<trkpt lat="49.41046" lon="1.13309">
<ele>153.0</ele>
<time>2026-08-25T14:37:57Z</time>
</trkpt>
<trkpt lat="49.41048" lon="1.13314">
<ele>153.0</ele>
<time>2026-08-25T14:38:00Z</time>
</trkpt>
<trkpt lat="49.4105" lon="1.13319">
<ele>153.0</ele>
<time>2026-08-25T14:38:03Z</time>
</trkpt>
<trkpt lat="49.41052" lon="1.13323">
<ele>154.0</ele>
<time>2026-08-25T14:38:06Z</time>
</trkpt>
<trkpt lat="49.41054" lon="1.1332799999999998">
<ele>154.0</ele>
<time>2026-08-25T14:38:09Z</time>
</trkpt>
<trkpt lat="49.41055" lon="1.13333">
<ele>154.0</ele>
<time>2026-08-25T14:38:12Z</time>
</trkpt>
<trkpt lat="49.41056" lon="1.13337">
<ele>154.0</ele>
<time>2026-08-25T14:38:15Z</time>
</trkpt>
<trkpt lat="49.410579999999996" lon="1.1334199999999999">
<ele>154.0</ele>
<time>2026-08-25T14:38:18Z</time>
</trkpt>
<trkpt lat="49.41059" lon="1.13346">
<ele>154.0</ele>
<time>2026-08-25T14:38:21Z</time>
</trkpt>
<trkpt lat="49.410599999999995" lon="1.13351">
<ele>155.0</ele>
<time>2026-08-25T14:38:24Z</time>
</trkpt>
<trkpt lat="49.410619999999994" lon="1.13355">
<ele>155.0</ele>
<time>2026-08-25T14:38:27Z</time>
</trkpt>
<trkpt lat="49.41064" lon="1.1335899999999999">
<ele>155.0</ele>
<time>2026-08-25T14:38:33Z</time>
</trkpt>
<trkpt lat="49.410669999999996" lon="1.1336199999999999">
<ele>155.0</ele>
<time>2026-08-25T14:38:36Z</time>
</trkpt>
<trkpt lat="49.410689999999995" lon="1.13365">
<ele>155.0</ele>
<time>2026-08-25T14:38:38Z</time>
</trkpt>
<trkpt lat="49.41072" lon="1.13366">
<ele>154.0</ele>
<time>2026-08-25T14:38:44Z</time>
</trkpt>
<trkpt lat="49.41075" lon="1.13368">
<ele>154.0</ele>
<time>2026-08-25T14:38:47Z</time>
</trkpt>
<trkpt lat="49.410779999999995" lon="1.13371">
<ele>154.0</ele>
<time>2026-08-25T14:38:50Z</time>
</trkpt>
<trkpt lat="49.41079" lon="1.13375">
<ele>155.0</ele>
<time>2026-08-25T14:38:53Z</time>
</trkpt>
<trkpt lat="49.410779999999995" lon="1.13378">
<ele>155.0</ele>
<time>2026-08-25T14:38:55Z</time>
</trkpt>
<trkpt lat="49.410779999999995" lon="1.13382">
<ele>155.0</ele>
<time>2026-08-25T14:38:58Z</time>
</trkpt>
<trkpt lat="49.41079" lon="1.1339">
<ele>155.0</ele>
<time>2026-08-25T14:39:00Z</time>
</trkpt>
<trkpt lat="49.41079" lon="1.1339599999999999">
<ele>155.0</ele>
<time>2026-08-25T14:39:01Z</time>
</trkpt>
<trkpt lat="49.41081" lon="1.13402">
<ele>155.0</ele>
<time>2026-08-25T14:39:03Z</time>
</trkpt>
<trkpt lat="49.41083" lon="1.1340599999999998">
<ele>155.0</ele>
<time>2026-08-25T14:39:06Z</time>
</trkpt>
<trkpt lat="49.410849999999996" lon="1.13411">
<ele>155.0</ele>
<time>2026-08-25T14:39:08Z</time>
</trkpt>
<trkpt lat="49.41088" lon="1.13415">
<ele>155.0</ele>
<time>2026-08-25T14:39:11Z</time>
</trkpt>
<trkpt lat="49.4109" lon="1.13419">
<ele>155.0</ele>
<time>2026-08-25T14:39:13Z</time>
</trkpt>
<trkpt lat="49.41092" lon="1.1342299999999998">
<ele>155.0</ele>
<time>2026-08-25T14:39:15Z</time>
</trkpt>
<trkpt lat="49.41093" lon="1.13429">
<ele>155.0</ele>
<time>2026-08-25T14:39:17Z</time>
</trkpt>
<trkpt lat="49.41095" lon="1.13434">
<ele>154.0</ele>
<time>2026-08-25T14:39:19Z</time>
</trkpt>
<trkpt lat="49.41095" lon="1.1343999999999999">
<ele>154.0</ele>
<time>2026-08-25T14:39:21Z</time>
</trkpt>
<trkpt lat="49.410959999999996" lon="1.13445">
<ele>154.0</ele>
<time>2026-08-25T14:39:23Z</time>
</trkpt>
<trkpt lat="49.41097" lon="1.1344999999999998">
<ele>154.0</ele>
<time>2026-08-25T14:39:25Z</time>
</trkpt>
<trkpt lat="49.410959999999996" lon="1.13455">
<ele>154.0</ele>
<time>2026-08-25T14:39:27Z</time>
</trkpt>
<trkpt lat="49.410959999999996" lon="1.13459">
<ele>154.0</ele>
<time>2026-08-25T14:39:29Z</time>
</trkpt>
<trkpt lat="49.41095" lon="1.13463">
<ele>154.0</ele>
<time>2026-08-25T14:39:32Z</time>
</trkpt>
<trkpt lat="49.41093" lon="1.1346699999999998">
<ele>154.0</ele>
<time>2026-08-25T14:39:35Z</time>
</trkpt>
<trkpt lat="49.4109" lon="1.13468">
<ele>154.0</ele>
<time>2026-08-25T14:39:37Z</time>
</trkpt>
<trkpt lat="49.41088" lon="1.1347">
<ele>154.0</ele>
<time>2026-08-25T14:39:40Z</time>
</trkpt>
<trkpt lat="49.410849999999996" lon="1.13473">
<ele>154.0</ele>
<time>2026-08-25T14:39:43Z</time>
</trkpt>
<trkpt lat="49.41083" lon="1.13475">
<ele>154.0</ele>
<time>2026-08-25T14:39:46Z</time>
</trkpt>
<trkpt lat="49.410799999999995" lon="1.13477">
<ele>154.0</ele>
<time>2026-08-25T14:39:50Z</time>
</trkpt>
<trkpt lat="49.41077" lon="1.1348">
<ele>154.0</ele>
<time>2026-08-25T14:39:53Z</time>
</trkpt>
<trkpt lat="49.41074" lon="1.13482">
<ele>154.0</ele>
<time>2026-08-25T14:39:56Z</time>
</trkpt>
<trkpt lat="49.410709999999995" lon="1.13485">
<ele>154.0</ele>
<time>2026-08-25T14:39:59Z</time>
</trkpt>
<trkpt lat="49.41068" lon="1.13486">
<ele>155.0</ele>
<time>2026-08-25T14:40:01Z</time>
</trkpt>
<trkpt lat="49.41064" lon="1.13489">
<ele>155.0</ele>
<time>2026-08-25T14:40:04Z</time>
</trkpt>
<trkpt lat="49.41061" lon="1.1349099999999999">
<ele>155.0</ele>
<time>2026-08-25T14:40:07Z</time>
</trkpt>
<trkpt lat="49.410579999999996" lon="1.13493">
<ele>155.0</ele>
<time>2026-08-25T14:40:10Z</time>
</trkpt>
<trkpt lat="49.41055" lon="1.13496">
<ele>155.0</ele>
<time>2026-08-25T14:40:13Z</time>
</trkpt>
<trkpt lat="49.41052" lon="1.13499">
<ele>155.0</ele>
<time>2026-08-25T14:40:17Z</time>
</trkpt>
<trkpt lat="49.4105" lon="1.13503">
<ele>155.0</ele>
<time>2026-08-25T14:40:21Z</time>
</trkpt>
<trkpt lat="49.41048" lon="1.13507">
<ele>155.0</ele>
<time>2026-08-25T14:40:24Z</time>
</trkpt>
<trkpt lat="49.41046" lon="1.1351099999999998">
<ele>155.0</ele>
<time>2026-08-25T14:40:27Z</time>
</trkpt>
<trkpt lat="49.41044" lon="1.13514">
<ele>155.0</ele>
<time>2026-08-25T14:40:30Z</time>
</trkpt>
<trkpt lat="49.410419999999995" lon="1.13517">
<ele>155.0</ele>
<time>2026-08-25T14:40:33Z</time>
</trkpt>
<trkpt lat="49.410399999999996" lon="1.13521">
<ele>156.0</ele>
<time>2026-08-25T14:40:36Z</time>
</trkpt>
<trkpt lat="49.41037" lon="1.13523">
<ele>156.0</ele>
<time>2026-08-25T14:40:38Z</time>
</trkpt>
<trkpt lat="49.41034" lon="1.13524">
<ele>156.0</ele>
<time>2026-08-25T14:40:40Z</time>
</trkpt>
<trkpt lat="49.410309999999996" lon="1.13526">
<ele>156.0</ele>
<time>2026-08-25T14:40:43Z</time>
</trkpt>
<trkpt lat="49.410309999999996" lon="1.1353">
<ele>156.0</ele>
<time>2026-08-25T14:40:46Z</time>
</trkpt>
<trkpt lat="49.4103" lon="1.13534">
<ele>156.0</ele>
<time>2026-08-25T14:40:50Z</time>
</trkpt>
<trkpt lat="49.41027" lon="1.13537">
<ele>156.0</ele>
<time>2026-08-25T14:40:52Z</time>
</trkpt>
<trkpt lat="49.410239999999995" lon="1.1354">
<ele>156.0</ele>
<time>2026-08-25T14:40:54Z</time>
</trkpt>
<trkpt lat="49.410219999999995" lon="1.1354199999999999">
<ele>156.0</ele>
<time>2026-08-25T14:40:57Z</time>
</trkpt>
<trkpt lat="49.41019" lon="1.1354499999999998">
<ele>156.0</ele>
<time>2026-08-25T14:40:59Z</time>
</trkpt>
<trkpt lat="49.41017" lon="1.13548">
<ele>156.0</ele>
<time>2026-08-25T14:41:02Z</time>
</trkpt>
<trkpt lat="49.41014" lon="1.13551">
<ele>156.0</ele>
<time>2026-08-25T14:41:05Z</time>
</trkpt>
<trkpt lat="49.410109999999996" lon="1.13553">
<ele>156.0</ele>
<time>2026-08-25T14:41:08Z</time>
</trkpt>
<trkpt lat="49.41008" lon="1.13555">
<ele>156.0</ele>
<time>2026-08-25T14:41:11Z</time>
</trkpt>
<trkpt lat="49.41005" lon="1.13556">
<ele>156.0</ele>
<time>2026-08-25T14:41:14Z</time>
</trkpt>
<trkpt lat="49.41001" lon="1.13557">
<ele>156.0</ele>
<time>2026-08-25T14:41:17Z</time>
</trkpt>
<trkpt lat="49.40998" lon="1.1356">
<ele>156.0</ele>
<time>2026-08-25T14:41:18Z</time>
</trkpt>
<trkpt lat="49.409949999999995" lon="1.1356199999999999">
<ele>156.0</ele>
<time>2026-08-25T14:41:20Z</time>
</trkpt>
<trkpt lat="49.4099" lon="1.13565">
<ele>156.0</ele>
<time>2026-08-25T14:41:22Z</time>
</trkpt>
<trkpt lat="49.409859999999995" lon="1.13566">
<ele>156.0</ele>
<time>2026-08-25T14:41:25Z</time>
</trkpt>
<trkpt lat="49.40983" lon="1.13568">
<ele>156.0</ele>
<time>2026-08-25T14:41:27Z</time>
</trkpt>
<trkpt lat="49.4098" lon="1.1357">
<ele>156.0</ele>
<time>2026-08-25T14:41:30Z</time>
</trkpt>
<trkpt lat="49.40976" lon="1.1357199999999998">
<ele>156.0</ele>
<time>2026-08-25T14:41:33Z</time>
</trkpt>
<trkpt lat="49.409729999999996" lon="1.13574">
<ele>156.0</ele>
<time>2026-08-25T14:41:35Z</time>
</trkpt>
<trkpt lat="49.4097" lon="1.13575">
<ele>156.0</ele>
<time>2026-08-25T14:41:37Z</time>
</trkpt>
<trkpt lat="49.40967" lon="1.13577">
<ele>156.0</ele>
<time>2026-08-25T14:41:39Z</time>
</trkpt>
<trkpt lat="49.409639999999996" lon="1.1357899999999999">
<ele>156.0</ele>
<time>2026-08-25T14:41:42Z</time>
</trkpt>
<trkpt lat="49.40961" lon="1.13582">
<ele>156.0</ele>
<time>2026-08-25T14:41:45Z</time>
</trkpt>
<trkpt lat="49.40958" lon="1.13585">
<ele>154.0</ele>
<time>2026-08-25T14:41:48Z</time>
</trkpt>
<trkpt lat="49.409549999999996" lon="1.1358599999999999">
<ele>154.0</ele>
<time>2026-08-25T14:41:51Z</time>
</trkpt>
<trkpt lat="49.40952" lon="1.13588">
<ele>154.0</ele>
<time>2026-08-25T14:41:54Z</time>
</trkpt>
<trkpt lat="49.40949" lon="1.1359">
<ele>154.0</ele>
<time>2026-08-25T14:41:57Z</time>
</trkpt>
<trkpt lat="49.409459999999996" lon="1.1359299999999999">
<ele>154.0</ele>
<time>2026-08-25T14:42:00Z</time>
</trkpt>
<trkpt lat="49.40944" lon="1.13595">
<ele>154.0</ele>
<time>2026-08-25T14:42:03Z</time>
</trkpt>
<trkpt lat="49.40941" lon="1.13598">
<ele>154.0</ele>
<time>2026-08-25T14:42:06Z</time>
</trkpt>
<trkpt lat="49.4094" lon="1.13602">
<ele>154.0</ele>
<time>2026-08-25T14:42:09Z</time>
</trkpt>
<trkpt lat="49.4094" lon="1.13607">
<ele>154.0</ele>
<time>2026-08-25T14:42:12Z</time>
</trkpt>
<trkpt lat="49.40938" lon="1.13611">
<ele>154.0</ele>
<time>2026-08-25T14:42:15Z</time>
</trkpt>
<trkpt lat="49.40936" lon="1.13614">
<ele>154.0</ele>
<time>2026-08-25T14:42:16Z</time>
</trkpt>
<trkpt lat="49.40932" lon="1.13615">
<ele>154.0</ele>
<time>2026-08-25T14:42:18Z</time>
</trkpt>
<trkpt lat="49.40929" lon="1.13617">
<ele>152.0</ele>
<time>2026-08-25T14:42:20Z</time>
</trkpt>
<trkpt lat="49.409259999999996" lon="1.13621">
<ele>152.0</ele>
<time>2026-08-25T14:42:23Z</time>
</trkpt>
<trkpt lat="49.40924" lon="1.13624">
<ele>152.0</ele>
<time>2026-08-25T14:42:26Z</time>
</trkpt>
<trkpt lat="49.409209999999995" lon="1.13628">
<ele>153.0</ele>
<time>2026-08-25T14:42:29Z</time>
</trkpt>
<trkpt lat="49.409189999999995" lon="1.13632">
<ele>153.0</ele>
<time>2026-08-25T14:42:32Z</time>
</trkpt>
<trkpt lat="49.40916" lon="1.13635">
<ele>153.0</ele>
<time>2026-08-25T14:42:35Z</time>
</trkpt>
<trkpt lat="49.40913" lon="1.13639">
<ele>153.0</ele>
<time>2026-08-25T14:42:38Z</time>
</trkpt>
<trkpt lat="49.409099999999995" lon="1.13642">
<ele>153.0</ele>
<time>2026-08-25T14:42:40Z</time>
</trkpt>
<trkpt lat="49.409079999999996" lon="1.13644">
<ele>153.0</ele>
<time>2026-08-25T14:42:42Z</time>
</trkpt>
<trkpt lat="49.40905" lon="1.13646">
<ele>153.0</ele>
<time>2026-08-25T14:42:45Z</time>
</trkpt>
<trkpt lat="49.40902" lon="1.1364699999999999">
<ele>151.0</ele>
<time>2026-08-25T14:42:47Z</time>
</trkpt>
<trkpt lat="49.408989999999996" lon="1.1364999999999998">
<ele>151.0</ele>
<time>2026-08-25T14:42:50Z</time>
</trkpt>
<trkpt lat="49.40897" lon="1.13652">
<ele>151.0</ele>
<time>2026-08-25T14:42:53Z</time>
</trkpt>
<trkpt lat="49.40894" lon="1.13655">
<ele>153.0</ele>
<time>2026-08-25T14:42:56Z</time>
</trkpt>
<trkpt lat="49.40891" lon="1.13658">
<ele>153.0</ele>
<time>2026-08-25T14:42:59Z</time>
</trkpt>
<trkpt lat="49.408879999999996" lon="1.13661">
<ele>153.0</ele>
<time>2026-08-25T14:43:01Z</time>
</trkpt>
<trkpt lat="49.40886" lon="1.1366399999999999">
<ele>153.0</ele>
<time>2026-08-25T14:43:03Z</time>
</trkpt>
<trkpt lat="49.40884" lon="1.13668">
<ele>153.0</ele>
<time>2026-08-25T14:43:06Z</time>
</trkpt>
<trkpt lat="49.408809999999995" lon="1.13672">
<ele>153.0</ele>
<time>2026-08-25T14:43:09Z</time>
</trkpt>
<trkpt lat="49.408789999999996" lon="1.13676">
<ele>153.0</ele>
<time>2026-08-25T14:43:12Z</time>
</trkpt>
<trkpt lat="49.40876" lon="1.1368">
<ele>153.0</ele>
<time>2026-08-25T14:43:15Z</time>
</trkpt>
<trkpt lat="49.408739999999995" lon="1.13683">
<ele>153.0</ele>
<time>2026-08-25T14:43:18Z</time>
</trkpt>
<trkpt lat="49.408719999999995" lon="1.13687">
<ele>153.0</ele>
<time>2026-08-25T14:43:21Z</time>
</trkpt>
<trkpt lat="49.40869" lon="1.1369">
<ele>153.0</ele>
<time>2026-08-25T14:43:24Z</time>
</trkpt>
<trkpt lat="49.40866" lon="1.1369399999999998">
<ele>153.0</ele>
<time>2026-08-25T14:43:27Z</time>
</trkpt>
<trkpt lat="49.40864" lon="1.1369799999999999">
<ele>153.0</ele>
<time>2026-08-25T14:43:30Z</time>
</trkpt>
<trkpt lat="49.408609999999996" lon="1.13702">
<ele>153.0</ele>
<time>2026-08-25T14:43:33Z</time>
</trkpt>
<trkpt lat="49.40858" lon="1.13705">
<ele>153.0</ele>
<time>2026-08-25T14:43:36Z</time>
</trkpt>
<trkpt lat="49.40855" lon="1.1370799999999999">
<ele>153.0</ele>
<time>2026-08-25T14:43:39Z</time>
</trkpt>
<trkpt lat="49.40853" lon="1.1371099999999998">
<ele>154.0</ele>
<time>2026-08-25T14:43:42Z</time>
</trkpt>
<trkpt lat="49.4085" lon="1.13716">
<ele>154.0</ele>
<time>2026-08-25T14:43:45Z</time>
</trkpt>
<trkpt lat="49.40848" lon="1.13719">
<ele>154.0</ele>
<time>2026-08-25T14:43:47Z</time>
</trkpt>
<trkpt lat="49.40846" lon="1.13723">
<ele>152.0</ele>
<time>2026-08-25T14:43:49Z</time>
</trkpt>
<trkpt lat="49.40844" lon="1.13726">
<ele>152.0</ele>
<time>2026-08-25T14:43:51Z</time>
</trkpt>
<trkpt lat="49.408409999999996" lon="1.13729">
<ele>152.0</ele>
<time>2026-08-25T14:43:54Z</time>
</trkpt>
<trkpt lat="49.40839" lon="1.1373199999999999">
<ele>152.0</ele>
<time>2026-08-25T14:43:56Z</time>
</trkpt>
<trkpt lat="49.408359999999995" lon="1.13736">
<ele>152.0</ele>
<time>2026-08-25T14:43:59Z</time>
</trkpt>
<trkpt lat="49.40833" lon="1.13739">
<ele>153.0</ele>
<time>2026-08-25T14:44:02Z</time>
</trkpt>
<trkpt lat="49.4083" lon="1.13741">
<ele>153.0</ele>
<time>2026-08-25T14:44:04Z</time>
</trkpt>
<trkpt lat="49.40828" lon="1.13744">
<ele>153.0</ele>
<time>2026-08-25T14:44:07Z</time>
</trkpt>
<trkpt lat="49.408249999999995" lon="1.13747">
<ele>153.0</ele>
<time>2026-08-25T14:44:10Z</time>
</trkpt>
<trkpt lat="49.40824" lon="1.1375199999999999">
<ele>153.0</ele>
<time>2026-08-25T14:44:13Z</time>
</trkpt>
<trkpt lat="49.40822" lon="1.13756">
<ele>153.0</ele>
<time>2026-08-25T14:44:16Z</time>
</trkpt>
<trkpt lat="49.4082" lon="1.1376">
<ele>153.0</ele>
<time>2026-08-25T14:44:19Z</time>
</trkpt>
<trkpt lat="49.408179999999994" lon="1.13763">
<ele>151.0</ele>
<time>2026-08-25T14:44:22Z</time>
</trkpt>
<trkpt lat="49.40815" lon="1.13767">
<ele>152.0</ele>
<time>2026-08-25T14:44:25Z</time>
</trkpt>
<trkpt lat="49.408139999999996" lon="1.1377">
<ele>152.0</ele>
<time>2026-08-25T14:44:28Z</time>
</trkpt>
<trkpt lat="49.40812" lon="1.13774">
<ele>152.0</ele>
<time>2026-08-25T14:44:31Z</time>
</trkpt>
<trkpt lat="49.4081" lon="1.13778">
<ele>152.0</ele>
<time>2026-08-25T14:44:34Z</time>
</trkpt>
<trkpt lat="49.40808" lon="1.13782">
<ele>152.0</ele>
<time>2026-08-25T14:44:37Z</time>
</trkpt>
<trkpt lat="49.40806" lon="1.1378599999999999">
<ele>152.0</ele>
<time>2026-08-25T14:44:40Z</time>
</trkpt>
<trkpt lat="49.40804" lon="1.1379">
<ele>152.0</ele>
<time>2026-08-25T14:44:43Z</time>
</trkpt>
<trkpt lat="49.40802" lon="1.13794">
<ele>153.0</ele>
<time>2026-08-25T14:44:46Z</time>
</trkpt>
<trkpt lat="49.40799" lon="1.13798">
<ele>153.0</ele>
<time>2026-08-25T14:44:49Z</time>
</trkpt>
<trkpt lat="49.40797" lon="1.13802">
<ele>153.0</ele>
<time>2026-08-25T14:44:52Z</time>
</trkpt>
<trkpt lat="49.407939999999996" lon="1.1380599999999998">
<ele>153.0</ele>
<time>2026-08-25T14:44:55Z</time>
</trkpt>
<trkpt lat="49.40791" lon="1.1381">
<ele>151.0</ele>
<time>2026-08-25T14:44:58Z</time>
</trkpt>
<trkpt lat="49.40788" lon="1.13814">
<ele>151.0</ele>
<time>2026-08-25T14:45:01Z</time>
</trkpt>
<trkpt lat="49.40786" lon="1.13817">
<ele>151.0</ele>
<time>2026-08-25T14:45:03Z</time>
</trkpt>
<trkpt lat="49.40784" lon="1.13821">
<ele>151.0</ele>
<time>2026-08-25T14:45:06Z</time>
</trkpt>
<trkpt lat="49.40781" lon="1.13825">
<ele>151.0</ele>
<time>2026-08-25T14:45:09Z</time>
</trkpt>
<trkpt lat="49.407779999999995" lon="1.13828">
<ele>151.0</ele>
<time>2026-08-25T14:45:12Z</time>
</trkpt>
<trkpt lat="49.407759999999996" lon="1.1383299999999998">
<ele>151.0</ele>
<time>2026-08-25T14:45:15Z</time>
</trkpt>
<trkpt lat="49.40773" lon="1.1383699999999999">
<ele>151.0</ele>
<time>2026-08-25T14:45:18Z</time>
</trkpt>
<trkpt lat="49.4077" lon="1.13842">
<ele>151.0</ele>
<time>2026-08-25T14:45:21Z</time>
</trkpt>
<trkpt lat="49.40768" lon="1.13846">
<ele>151.0</ele>
<time>2026-08-25T14:45:24Z</time>
</trkpt>
<trkpt lat="49.40765" lon="1.1384999999999998">
<ele>152.0</ele>
<time>2026-08-25T14:45:27Z</time>
</trkpt>
<trkpt lat="49.40761" lon="1.13853">
<ele>150.0</ele>
<time>2026-08-25T14:45:30Z</time>
</trkpt>
<trkpt lat="49.407579999999996" lon="1.13856">
<ele>150.0</ele>
<time>2026-08-25T14:45:33Z</time>
</trkpt>
<trkpt lat="49.40756" lon="1.1386">
<ele>150.0</ele>
<time>2026-08-25T14:45:36Z</time>
</trkpt>
<trkpt lat="49.40754" lon="1.13863">
<ele>150.0</ele>
<time>2026-08-25T14:45:39Z</time>
</trkpt>
<trkpt lat="49.407509999999995" lon="1.1386699999999998">
<ele>150.0</ele>
<time>2026-08-25T14:45:42Z</time>
</trkpt>
<trkpt lat="49.407489999999996" lon="1.1387099999999999">
<ele>150.0</ele>
<time>2026-08-25T14:45:45Z</time>
</trkpt>
<trkpt lat="49.40746" lon="1.13873">
<ele>150.0</ele>
<time>2026-08-25T14:45:48Z</time>
</trkpt>
<trkpt lat="49.40743" lon="1.13875">
<ele>150.0</ele>
<time>2026-08-25T14:45:51Z</time>
</trkpt>
<trkpt lat="49.40739" lon="1.13876">
<ele>150.0</ele>
<time>2026-08-25T14:45:54Z</time>
</trkpt>
<trkpt lat="49.40736" lon="1.13876">
<ele>150.0</ele>
<time>2026-08-25T14:45:57Z</time>
</trkpt>
<trkpt lat="49.40732" lon="1.1387699999999998">
<ele>150.0</ele>
<time>2026-08-25T14:46:00Z</time>
</trkpt>
<trkpt lat="49.407289999999996" lon="1.13879">
<ele>150.0</ele>
<time>2026-08-25T14:46:02Z</time>
</trkpt>
<trkpt lat="49.40727" lon="1.13882">
<ele>150.0</ele>
<time>2026-08-25T14:46:04Z</time>
</trkpt>
<trkpt lat="49.40725" lon="1.13886">
<ele>150.0</ele>
<time>2026-08-25T14:46:07Z</time>
</trkpt>
<trkpt lat="49.407239999999994" lon="1.13892">
<ele>150.0</ele>
<time>2026-08-25T14:46:10Z</time>
</trkpt>
<trkpt lat="49.40723" lon="1.13896">
<ele>150.0</ele>
<time>2026-08-25T14:46:13Z</time>
</trkpt>
<trkpt lat="49.40721" lon="1.139">
<ele>150.0</ele>
<time>2026-08-25T14:46:16Z</time>
</trkpt>
<trkpt lat="49.40719" lon="1.13903">
<ele>149.0</ele>
<time>2026-08-25T14:46:19Z</time>
</trkpt>
<trkpt lat="49.40716" lon="1.13907">
<ele>149.0</ele>
<time>2026-08-25T14:46:23Z</time>
</trkpt>
<trkpt lat="49.40714" lon="1.1391099999999998">
<ele>149.0</ele>
<time>2026-08-25T14:46:26Z</time>
</trkpt>
<trkpt lat="49.40712" lon="1.13914">
<ele>149.0</ele>
<time>2026-08-25T14:46:29Z</time>
</trkpt>
<trkpt lat="49.4071" lon="1.1391799999999999">
<ele>149.0</ele>
<time>2026-08-25T14:46:31Z</time>
</trkpt>
<trkpt lat="49.40708" lon="1.13921">
<ele>150.0</ele>
<time>2026-08-25T14:46:33Z</time>
</trkpt>
<trkpt lat="49.40706" lon="1.13926">
<ele>150.0</ele>
<time>2026-08-25T14:46:36Z</time>
</trkpt>
<trkpt lat="49.40705" lon="1.1393">
<ele>150.0</ele>
<time>2026-08-25T14:46:38Z</time>
</trkpt>
<trkpt lat="49.407039999999995" lon="1.1393499999999999">
<ele>150.0</ele>
<time>2026-08-25T14:46:41Z</time>
</trkpt>
<trkpt lat="49.40703" lon="1.13939">
<ele>150.0</ele>
<time>2026-08-25T14:46:43Z</time>
</trkpt>
<trkpt lat="49.40701" lon="1.13943">
<ele>150.0</ele>
<time>2026-08-25T14:46:45Z</time>
</trkpt>
<trkpt lat="49.40699" lon="1.13947">
<ele>150.0</ele>
<time>2026-08-25T14:46:47Z</time>
</trkpt>
<trkpt lat="49.40697" lon="1.13951">
<ele>150.0</ele>
<time>2026-08-25T14:46:50Z</time>
</trkpt>
<trkpt lat="49.406949999999995" lon="1.13956">
<ele>150.0</ele>
<time>2026-08-25T14:46:53Z</time>
</trkpt>
<trkpt lat="49.406929999999996" lon="1.1396">
<ele>150.0</ele>
<time>2026-08-25T14:46:56Z</time>
</trkpt>
<trkpt lat="49.406909999999996" lon="1.13965">
<ele>150.0</ele>
<time>2026-08-25T14:46:59Z</time>
</trkpt>
<trkpt lat="49.4069" lon="1.1397">
<ele>150.0</ele>
<time>2026-08-25T14:47:02Z</time>
</trkpt>
<trkpt lat="49.40688" lon="1.13975">
<ele>150.0</ele>
<time>2026-08-25T14:47:05Z</time>
</trkpt>
<trkpt lat="49.40687" lon="1.1397899999999999">
<ele>150.0</ele>
<time>2026-08-25T14:47:08Z</time>
</trkpt>
<trkpt lat="49.40685" lon="1.13983">
<ele>150.0</ele>
<time>2026-08-25T14:47:11Z</time>
</trkpt>
<trkpt lat="49.40683" lon="1.13987">
<ele>151.0</ele>
<time>2026-08-25T14:47:14Z</time>
</trkpt>
<trkpt lat="49.40681" lon="1.13991">
<ele>151.0</ele>
<time>2026-08-25T14:47:17Z</time>
</trkpt>
<trkpt lat="49.40679" lon="1.13995">
<ele>152.0</ele>
<time>2026-08-25T14:47:20Z</time>
</trkpt>
<trkpt lat="49.40676" lon="1.13999">
<ele>152.0</ele>
<time>2026-08-25T14:47:23Z</time>
</trkpt>
<trkpt lat="49.40674" lon="1.1400299999999999">
<ele>152.0</ele>
<time>2026-08-25T14:47:26Z</time>
</trkpt>
<trkpt lat="49.40671" lon="1.1400599999999999">
<ele>152.0</ele>
<time>2026-08-25T14:47:29Z</time>
</trkpt>
<trkpt lat="49.40669" lon="1.1401">
<ele>152.0</ele>
<time>2026-08-25T14:47:32Z</time>
</trkpt>
<trkpt lat="49.406659999999995" lon="1.14014">
<ele>152.0</ele>
<time>2026-08-25T14:47:35Z</time>
</trkpt>
<trkpt lat="49.406639999999996" lon="1.14019">
<ele>152.0</ele>
<time>2026-08-25T14:47:38Z</time>
</trkpt>
<trkpt lat="49.40661" lon="1.1402299999999999">
<ele>152.0</ele>
<time>2026-08-25T14:47:41Z</time>
</trkpt>
<trkpt lat="49.406589999999994" lon="1.14027">
<ele>152.0</ele>
<time>2026-08-25T14:47:44Z</time>
</trkpt>
<trkpt lat="49.406569999999995" lon="1.14031">
<ele>152.0</ele>
<time>2026-08-25T14:47:47Z</time>
</trkpt>
<trkpt lat="49.406549999999996" lon="1.14035">
<ele>152.0</ele>
<time>2026-08-25T14:47:50Z</time>
</trkpt>
<trkpt lat="49.40652" lon="1.14039">
<ele>153.0</ele>
<time>2026-08-25T14:47:53Z</time>
</trkpt>
<trkpt lat="49.40649" lon="1.14043">
<ele>153.0</ele>
<time>2026-08-25T14:47:56Z</time>
</trkpt>
<trkpt lat="49.40647" lon="1.1404699999999999">
<ele>153.0</ele>
<time>2026-08-25T14:47:59Z</time>
</trkpt>
<trkpt lat="49.406439999999996" lon="1.14051">
<ele>153.0</ele>
<time>2026-08-25T14:48:02Z</time>
</trkpt>
<trkpt lat="49.40641" lon="1.14055">
<ele>153.0</ele>
<time>2026-08-25T14:48:05Z</time>
</trkpt>
<trkpt lat="49.40638" lon="1.14058">
<ele>153.0</ele>
<time>2026-08-25T14:48:08Z</time>
</trkpt>
<trkpt lat="49.406349999999996" lon="1.14061">
<ele>153.0</ele>
<time>2026-08-25T14:48:11Z</time>
</trkpt>
<trkpt lat="49.40633" lon="1.14065">
<ele>153.0</ele>
<time>2026-08-25T14:48:14Z</time>
</trkpt>
<trkpt lat="49.40631" lon="1.14068">
<ele>153.0</ele>
<time>2026-08-25T14:48:17Z</time>
</trkpt>
<trkpt lat="49.40629" lon="1.14071">
<ele>153.0</ele>
<time>2026-08-25T14:48:20Z</time>
</trkpt>
<trkpt lat="49.40627" lon="1.14075">
<ele>153.0</ele>
<time>2026-08-25T14:48:22Z</time>
</trkpt>
<trkpt lat="49.40625" lon="1.14079">
<ele>153.0</ele>
<time>2026-08-25T14:48:25Z</time>
</trkpt>
<trkpt lat="49.40622" lon="1.14082">
<ele>153.0</ele>
<time>2026-08-25T14:48:28Z</time>
</trkpt>
<trkpt lat="49.406209999999994" lon="1.14086">
<ele>153.0</ele>
<time>2026-08-25T14:48:31Z</time>
</trkpt>
<trkpt lat="49.406209999999994" lon="1.1409">
<ele>153.0</ele>
<time>2026-08-25T14:48:33Z</time>
</trkpt>
<trkpt lat="49.406209999999994" lon="1.14096">
<ele>153.0</ele>
<time>2026-08-25T14:48:36Z</time>
</trkpt>
<trkpt lat="49.40622" lon="1.1410099999999999">
<ele>153.0</ele>
<time>2026-08-25T14:48:39Z</time>
</trkpt>
<trkpt lat="49.40623" lon="1.14106">
<ele>153.0</ele>
<time>2026-08-25T14:48:42Z</time>
</trkpt>
<trkpt lat="49.40623" lon="1.1411099999999998">
<ele>153.0</ele>
<time>2026-08-25T14:48:45Z</time>
</trkpt>
<trkpt lat="49.40624" lon="1.14116">
<ele>153.0</ele>
<time>2026-08-25T14:48:48Z</time>
</trkpt>
<trkpt lat="49.40625" lon="1.14121">
<ele>153.0</ele>
<time>2026-08-25T14:48:51Z</time>
</trkpt>
<trkpt lat="49.406259999999996" lon="1.14126">
<ele>153.0</ele>
<time>2026-08-25T14:48:54Z</time>
</trkpt>
<trkpt lat="49.40627" lon="1.14131">
<ele>153.0</ele>
<time>2026-08-25T14:48:57Z</time>
</trkpt>
<trkpt lat="49.40629" lon="1.14136">
<ele>153.0</ele>
<time>2026-08-25T14:49:00Z</time>
</trkpt>
<trkpt lat="49.406299999999995" lon="1.14141">
<ele>153.0</ele>
<time>2026-08-25T14:49:02Z</time>
</trkpt>
<trkpt lat="49.40631" lon="1.1414499999999999">
<ele>153.0</ele>
<time>2026-08-25T14:49:05Z</time>
</trkpt>
<trkpt lat="49.40633" lon="1.14149">
<ele>153.0</ele>
<time>2026-08-25T14:49:08Z</time>
</trkpt>
<trkpt lat="49.406349999999996" lon="1.14153">
<ele>153.0</ele>
<time>2026-08-25T14:49:11Z</time>
</trkpt>
<trkpt lat="49.406369999999995" lon="1.14157">
<ele>153.0</ele>
<time>2026-08-25T14:49:14Z</time>
</trkpt>
<trkpt lat="49.4064" lon="1.1415899999999999">
<ele>153.0</ele>
<time>2026-08-25T14:49:16Z</time>
</trkpt>
<trkpt lat="49.40642" lon="1.14164">
<ele>153.0</ele>
<time>2026-08-25T14:49:19Z</time>
</trkpt>
<trkpt lat="49.406439999999996" lon="1.1416899999999999">
<ele>153.0</ele>
<time>2026-08-25T14:49:22Z</time>
</trkpt>
<trkpt lat="49.40647" lon="1.14173">
<ele>153.0</ele>
<time>2026-08-25T14:49:25Z</time>
</trkpt>
<trkpt lat="49.406479999999995" lon="1.14178">
<ele>153.0</ele>
<time>2026-08-25T14:49:28Z</time>
</trkpt>
<trkpt lat="49.4065" lon="1.14183">
<ele>153.0</ele>
<time>2026-08-25T14:49:31Z</time>
</trkpt>
<trkpt lat="49.40651" lon="1.14188">
<ele>153.0</ele>
<time>2026-08-25T14:49:34Z</time>
</trkpt>
<trkpt lat="49.40651" lon="1.14193">
<ele>153.0</ele>
<time>2026-08-25T14:49:37Z</time>
</trkpt>
<trkpt lat="49.40651" lon="1.14198">
<ele>153.0</ele>
<time>2026-08-25T14:49:40Z</time>
</trkpt>
<trkpt lat="49.40651" lon="1.14204">
<ele>153.0</ele>
<time>2026-08-25T14:49:43Z</time>
</trkpt>
<trkpt lat="49.40651" lon="1.14209">
<ele>153.0</ele>
<time>2026-08-25T14:49:46Z</time>
</trkpt>
<trkpt lat="49.40651" lon="1.14214">
<ele>153.0</ele>
<time>2026-08-25T14:49:49Z</time>
</trkpt>
<trkpt lat="49.4065" lon="1.14219">
<ele>153.0</ele>
<time>2026-08-25T14:49:52Z</time>
</trkpt>
<trkpt lat="49.40649" lon="1.14224">
<ele>153.0</ele>
<time>2026-08-25T14:49:55Z</time>
</trkpt>
<trkpt lat="49.406459999999996" lon="1.14228">
<ele>153.0</ele>
<time>2026-08-25T14:49:58Z</time>
</trkpt>
<trkpt lat="49.406439999999996" lon="1.14232">
<ele>153.0</ele>
<time>2026-08-25T14:50:01Z</time>
</trkpt>
<trkpt lat="49.40641" lon="1.14236">
<ele>153.0</ele>
<time>2026-08-25T14:50:04Z</time>
</trkpt>
<trkpt lat="49.40638" lon="1.14239">
<ele>153.0</ele>
<time>2026-08-25T14:50:07Z</time>
</trkpt>
<trkpt lat="49.40636" lon="1.14242">
<ele>153.0</ele>
<time>2026-08-25T14:50:10Z</time>
</trkpt>
<trkpt lat="49.40633" lon="1.14245">
<ele>153.0</ele>
<time>2026-08-25T14:50:13Z</time>
</trkpt>
<trkpt lat="49.40631" lon="1.14248">
<ele>153.0</ele>
<time>2026-08-25T14:50:16Z</time>
</trkpt>
<trkpt lat="49.40629" lon="1.14252">
<ele>153.0</ele>
<time>2026-08-25T14:50:19Z</time>
</trkpt>
<trkpt lat="49.406279999999995" lon="1.1425699999999999">
<ele>153.0</ele>
<time>2026-08-25T14:50:22Z</time>
</trkpt>
<trkpt lat="49.406259999999996" lon="1.14262">
<ele>153.0</ele>
<time>2026-08-25T14:50:25Z</time>
</trkpt>
<trkpt lat="49.40624" lon="1.14266">
<ele>153.0</ele>
<time>2026-08-25T14:50:27Z</time>
</trkpt>
<trkpt lat="49.40622" lon="1.1427">
<ele>153.0</ele>
<time>2026-08-25T14:50:30Z</time>
</trkpt>
<trkpt lat="49.4062" lon="1.14275">
<ele>153.0</ele>
<time>2026-08-25T14:50:33Z</time>
</trkpt>
<trkpt lat="49.40618" lon="1.14279">
<ele>153.0</ele>
<time>2026-08-25T14:50:36Z</time>
</trkpt>
<trkpt lat="49.40616" lon="1.14283">
<ele>153.0</ele>
<time>2026-08-25T14:50:38Z</time>
</trkpt>
<trkpt lat="49.40614" lon="1.14286">
<ele>153.0</ele>
<time>2026-08-25T14:50:40Z</time>
</trkpt>
<trkpt lat="49.40611" lon="1.14289">
<ele>153.0</ele>
<time>2026-08-25T14:50:43Z</time>
</trkpt>
<trkpt lat="49.40609" lon="1.14292">
<ele>153.0</ele>
<time>2026-08-25T14:50:46Z</time>
</trkpt>
<trkpt lat="49.40606" lon="1.14296">
<ele>153.0</ele>
<time>2026-08-25T14:50:48Z</time>
</trkpt>
<trkpt lat="49.40604" lon="1.14299">
<ele>153.0</ele>
<time>2026-08-25T14:50:51Z</time>
</trkpt>
<trkpt lat="49.406009999999995" lon="1.14302">
<ele>153.0</ele>
<time>2026-08-25T14:50:53Z</time>
</trkpt>
<trkpt lat="49.405989999999996" lon="1.14305">
<ele>153.0</ele>
<time>2026-08-25T14:50:55Z</time>
</trkpt>
<trkpt lat="49.40596" lon="1.1430799999999999">
<ele>151.0</ele>
<time>2026-08-25T14:50:58Z</time>
</trkpt>
<trkpt lat="49.40594" lon="1.1431099999999998">
<ele>151.0</ele>
<time>2026-08-25T14:51:01Z</time>
</trkpt>
<trkpt lat="49.405919999999995" lon="1.14314">
<ele>151.0</ele>
<time>2026-08-25T14:51:03Z</time>
</trkpt>
<trkpt lat="49.405899999999995" lon="1.14317">
<ele>151.0</ele>
<time>2026-08-25T14:51:05Z</time>
</trkpt>
<trkpt lat="49.40587" lon="1.1432">
<ele>151.0</ele>
<time>2026-08-25T14:51:07Z</time>
</trkpt>
<trkpt lat="49.40586" lon="1.14324">
<ele>151.0</ele>
<time>2026-08-25T14:51:09Z</time>
</trkpt>
<trkpt lat="49.405829999999995" lon="1.1432799999999999">
<ele>151.0</ele>
<time>2026-08-25T14:51:12Z</time>
</trkpt>
<trkpt lat="49.405809999999995" lon="1.14331">
<ele>151.0</ele>
<time>2026-08-25T14:51:14Z</time>
</trkpt>
<trkpt lat="49.40578" lon="1.14334">
<ele>151.0</ele>
<time>2026-08-25T14:51:16Z</time>
</trkpt>
<trkpt lat="49.40576" lon="1.14337">
<ele>151.0</ele>
<time>2026-08-25T14:51:18Z</time>
</trkpt>
<trkpt lat="49.40575" lon="1.1434">
<ele>151.0</ele>
<time>2026-08-25T14:51:20Z</time>
</trkpt>
<trkpt lat="49.405719999999995" lon="1.14344">
<ele>151.0</ele>
<time>2026-08-25T14:51:24Z</time>
</trkpt>
<trkpt lat="49.405699999999996" lon="1.14347">
<ele>151.0</ele>
<time>2026-08-25T14:51:27Z</time>
</trkpt>
<trkpt lat="49.40567" lon="1.14349">
<ele>149.0</ele>
<time>2026-08-25T14:51:30Z</time>
</trkpt>
<trkpt lat="49.40564" lon="1.14353">
<ele>149.0</ele>
<time>2026-08-25T14:51:33Z</time>
</trkpt>
<trkpt lat="49.40562" lon="1.14356">
<ele>149.0</ele>
<time>2026-08-25T14:51:36Z</time>
</trkpt>
<trkpt lat="49.40559" lon="1.14361">
<ele>149.0</ele>
<time>2026-08-25T14:51:39Z</time>
</trkpt>
<trkpt lat="49.40557" lon="1.14364">
<ele>149.0</ele>
<time>2026-08-25T14:51:41Z</time>
</trkpt>
<trkpt lat="49.405539999999995" lon="1.14367">
<ele>149.0</ele>
<time>2026-08-25T14:51:44Z</time>
</trkpt>
<trkpt lat="49.40551" lon="1.1436899999999999">
<ele>149.0</ele>
<time>2026-08-25T14:51:46Z</time>
</trkpt>
<trkpt lat="49.40548" lon="1.14371">
<ele>149.0</ele>
<time>2026-08-25T14:51:48Z</time>
</trkpt>
<trkpt lat="49.405449999999995" lon="1.1437199999999998">
<ele>149.0</ele>
<time>2026-08-25T14:51:50Z</time>
</trkpt>
<trkpt lat="49.40542" lon="1.1437">
<ele>149.0</ele>
<time>2026-08-25T14:51:53Z</time>
</trkpt>
<trkpt lat="49.4054" lon="1.14371">
<ele>148.0</ele>
<time>2026-08-25T14:51:55Z</time>
</trkpt>
<trkpt lat="49.40537" lon="1.14375">
<ele>149.0</ele>
<time>2026-08-25T14:51:58Z</time>
</trkpt>
<trkpt lat="49.40537" lon="1.1437899999999999">
<ele>149.0</ele>
<time>2026-08-25T14:52:00Z</time>
</trkpt>
<trkpt lat="49.40535" lon="1.14383">
<ele>149.0</ele>
<time>2026-08-25T14:52:03Z</time>
</trkpt>
<trkpt lat="49.405339999999995" lon="1.14387">
<ele>149.0</ele>
<time>2026-08-25T14:52:06Z</time>
</trkpt>
<trkpt lat="49.405319999999996" lon="1.14391">
<ele>149.0</ele>
<time>2026-08-25T14:52:09Z</time>
</trkpt>
<trkpt lat="49.4053" lon="1.14394">
<ele>149.0</ele>
<time>2026-08-25T14:52:12Z</time>
</trkpt>
<trkpt lat="49.405269999999994" lon="1.14397">
<ele>149.0</ele>
<time>2026-08-25T14:52:15Z</time>
</trkpt>
<trkpt lat="49.40528" lon="1.14397">
<ele>149.0</ele>
<time>2026-08-25T14:52:22Z</time>
</trkpt>
<trkpt lat="49.405269999999994" lon="1.14394">
<ele>149.0</ele>
<time>2026-08-25T14:52:25Z</time>
</trkpt>
<trkpt lat="49.405249999999995" lon="1.14392">
<ele>149.0</ele>
<time>2026-08-25T14:52:32Z</time>
</trkpt>
<trkpt lat="49.40522" lon="1.14393">
<ele>149.0</ele>
<time>2026-08-25T14:52:33Z</time>
</trkpt>
<trkpt lat="49.40517" lon="1.14394">
<ele>149.0</ele>
<time>2026-08-25T14:52:34Z</time>
</trkpt>
<trkpt lat="49.40513" lon="1.14397">
<ele>148.0</ele>
<time>2026-08-25T14:52:35Z</time>
</trkpt>
<trkpt lat="49.4051" lon="1.144">
<ele>148.0</ele>
<time>2026-08-25T14:52:36Z</time>
</trkpt>
<trkpt lat="49.405069999999995" lon="1.1440299999999999">
<ele>149.0</ele>
<time>2026-08-25T14:52:37Z</time>
</trkpt>
<trkpt lat="49.40504" lon="1.1440599999999999">
<ele>149.0</ele>
<time>2026-08-25T14:52:39Z</time>
</trkpt>
<trkpt lat="49.40501" lon="1.14407">
<ele>149.0</ele>
<time>2026-08-25T14:52:41Z</time>
</trkpt>
<trkpt lat="49.404979999999995" lon="1.14408">
<ele>149.0</ele>
<time>2026-08-25T14:52:44Z</time>
</trkpt>
<trkpt lat="49.40495" lon="1.14411">
<ele>149.0</ele>
<time>2026-08-25T14:52:46Z</time>
</trkpt>
<trkpt lat="49.40491" lon="1.14412">
<ele>149.0</ele>
<time>2026-08-25T14:52:48Z</time>
</trkpt>
<trkpt lat="49.404869999999995" lon="1.14415">
<ele>149.0</ele>
<time>2026-08-25T14:52:50Z</time>
</trkpt>
<trkpt lat="49.40483" lon="1.14417">
<ele>148.0</ele>
<time>2026-08-25T14:52:52Z</time>
</trkpt>
<trkpt lat="49.404799999999994" lon="1.14418">
<ele>148.0</ele>
<time>2026-08-25T14:52:53Z</time>
</trkpt>
<trkpt lat="49.404759999999996" lon="1.14419">
<ele>148.0</ele>
<time>2026-08-25T14:52:55Z</time>
</trkpt>
<trkpt lat="49.40473" lon="1.14421">
<ele>148.0</ele>
<time>2026-08-25T14:52:57Z</time>
</trkpt>
<trkpt lat="49.404689999999995" lon="1.1442299999999999">
<ele>148.0</ele>
<time>2026-08-25T14:52:58Z</time>
</trkpt>
<trkpt lat="49.40466" lon="1.14425">
<ele>148.0</ele>
<time>2026-08-25T14:53:00Z</time>
</trkpt>
<trkpt lat="49.40463" lon="1.14427">
<ele>148.0</ele>
<time>2026-08-25T14:53:02Z</time>
</trkpt>
<trkpt lat="49.404599999999995" lon="1.14429">
<ele>148.0</ele>
<time>2026-08-25T14:53:04Z</time>
</trkpt>
<trkpt lat="49.40457" lon="1.1442999999999999">
<ele>148.0</ele>
<time>2026-08-25T14:53:07Z</time>
</trkpt>
<trkpt lat="49.40453" lon="1.14431">
<ele>149.0</ele>
<time>2026-08-25T14:53:11Z</time>
</trkpt>
<trkpt lat="49.4045" lon="1.14431">
<ele>149.0</ele>
<time>2026-08-25T14:53:15Z</time>
</trkpt>
<trkpt lat="49.404469999999996" lon="1.14432">
<ele>149.0</ele>
<time>2026-08-25T14:53:18Z</time>
</trkpt>
<trkpt lat="49.40444" lon="1.14434">
<ele>149.0</ele>
<time>2026-08-25T14:53:21Z</time>
</trkpt>
<trkpt lat="49.40441" lon="1.14436">
<ele>149.0</ele>
<time>2026-08-25T14:53:24Z</time>
</trkpt>
<trkpt lat="49.404379999999996" lon="1.1443699999999999">
<ele>149.0</ele>
<time>2026-08-25T14:53:27Z</time>
</trkpt>
<trkpt lat="49.40435" lon="1.14438">
<ele>149.0</ele>
<time>2026-08-25T14:53:30Z</time>
</trkpt>
<trkpt lat="49.40432" lon="1.14439">
<ele>149.0</ele>
<time>2026-08-25T14:53:33Z</time>
</trkpt>
<trkpt lat="49.404289999999996" lon="1.14441">
<ele>151.0</ele>
<time>2026-08-25T14:53:36Z</time>
</trkpt>
<trkpt lat="49.40426" lon="1.14443">
<ele>151.0</ele>
<time>2026-08-25T14:53:39Z</time>
</trkpt>
<trkpt lat="49.40423" lon="1.1444699999999999">
<ele>151.0</ele>
<time>2026-08-25T14:53:42Z</time>
</trkpt>
<trkpt lat="49.404199999999996" lon="1.1444999999999999">
<ele>151.0</ele>
<time>2026-08-25T14:53:45Z</time>
</trkpt>
<trkpt lat="49.40417" lon="1.14453">
<ele>151.0</ele>
<time>2026-08-25T14:53:48Z</time>
</trkpt>
<trkpt lat="49.404149999999994" lon="1.14456">
<ele>151.0</ele>
<time>2026-08-25T14:53:50Z</time>
</trkpt>
<trkpt lat="49.40412" lon="1.14459">
<ele>152.0</ele>
<time>2026-08-25T14:53:53Z</time>
</trkpt>
<trkpt lat="49.40409" lon="1.14462">
<ele>152.0</ele>
<time>2026-08-25T14:53:56Z</time>
</trkpt>
<trkpt lat="49.40406" lon="1.14466">
<ele>152.0</ele>
<time>2026-08-25T14:53:59Z</time>
</trkpt>
<trkpt lat="49.40403" lon="1.14468">
<ele>152.0</ele>
<time>2026-08-25T14:54:01Z</time>
</trkpt>
<trkpt lat="49.403999999999996" lon="1.1447">
<ele>153.0</ele>
<time>2026-08-25T14:54:04Z</time>
</trkpt>
<trkpt lat="49.40396" lon="1.14472">
<ele>153.0</ele>
<time>2026-08-25T14:54:07Z</time>
</trkpt>
<trkpt lat="49.403929999999995" lon="1.1447399999999999">
<ele>153.0</ele>
<time>2026-08-25T14:54:09Z</time>
</trkpt>
<trkpt lat="49.4039" lon="1.14476">
<ele>153.0</ele>
<time>2026-08-25T14:54:12Z</time>
</trkpt>
<trkpt lat="49.40387" lon="1.14478">
<ele>153.0</ele>
<time>2026-08-25T14:54:15Z</time>
</trkpt>
<trkpt lat="49.403839999999995" lon="1.1448">
<ele>153.0</ele>
<time>2026-08-25T14:54:18Z</time>
</trkpt>
<trkpt lat="49.40381" lon="1.14483">
<ele>153.0</ele>
<time>2026-08-25T14:54:21Z</time>
</trkpt>
<trkpt lat="49.40378" lon="1.14486">
<ele>153.0</ele>
<time>2026-08-25T14:54:24Z</time>
</trkpt>
<trkpt lat="49.403749999999995" lon="1.14489">
<ele>153.0</ele>
<time>2026-08-25T14:54:27Z</time>
</trkpt>
<trkpt lat="49.40372" lon="1.14492">
<ele>153.0</ele>
<time>2026-08-25T14:54:30Z</time>
</trkpt>
<trkpt lat="49.40369" lon="1.1449399999999998">
<ele>153.0</ele>
<time>2026-08-25T14:54:33Z</time>
</trkpt>
<trkpt lat="49.403659999999995" lon="1.14496">
<ele>153.0</ele>
<time>2026-08-25T14:54:35Z</time>
</trkpt>
<trkpt lat="49.40363" lon="1.14499">
<ele>153.0</ele>
<time>2026-08-25T14:54:38Z</time>
</trkpt>
<trkpt lat="49.4036" lon="1.14503">
<ele>153.0</ele>
<time>2026-08-25T14:54:41Z</time>
</trkpt>
<trkpt lat="49.40358" lon="1.14506">
<ele>153.0</ele>
<time>2026-08-25T14:54:44Z</time>
</trkpt>
<trkpt lat="49.403549999999996" lon="1.14509">
<ele>153.0</ele>
<time>2026-08-25T14:54:48Z</time>
</trkpt>
<trkpt lat="49.40352" lon="1.14512">
<ele>153.0</ele>
<time>2026-08-25T14:54:54Z</time>
</trkpt>
<trkpt lat="49.40349" lon="1.14515">
<ele>153.0</ele>
<time>2026-08-25T14:54:57Z</time>
</trkpt>
<trkpt lat="49.403459999999995" lon="1.1451799999999999">
<ele>153.0</ele>
<time>2026-08-25T14:54:59Z</time>
</trkpt>
<trkpt lat="49.40343" lon="1.1452099999999998">
<ele>153.0</ele>
<time>2026-08-25T14:55:01Z</time>
</trkpt>
<trkpt lat="49.4034" lon="1.14524">
<ele>153.0</ele>
<time>2026-08-25T14:55:03Z</time>
</trkpt>
<trkpt lat="49.403369999999995" lon="1.14526">
<ele>153.0</ele>
<time>2026-08-25T14:55:05Z</time>
</trkpt>
<trkpt lat="49.40334" lon="1.1452799999999999">
<ele>153.0</ele>
<time>2026-08-25T14:55:07Z</time>
</trkpt>
<trkpt lat="49.40331" lon="1.1453">
<ele>153.0</ele>
<time>2026-08-25T14:55:09Z</time>
</trkpt>
<trkpt lat="49.403279999999995" lon="1.14532">
<ele>153.0</ele>
<time>2026-08-25T14:55:11Z</time>
</trkpt>
<trkpt lat="49.40325" lon="1.14534">
<ele>153.0</ele>
<time>2026-08-25T14:55:13Z</time>
</trkpt>
<trkpt lat="49.40322" lon="1.14536">
<ele>153.0</ele>
<time>2026-08-25T14:55:16Z</time>
</trkpt>
<trkpt lat="49.403189999999995" lon="1.14537">
<ele>152.0</ele>
<time>2026-08-25T14:55:18Z</time>
</trkpt>
<trkpt lat="49.40315" lon="1.14539">
<ele>152.0</ele>
<time>2026-08-25T14:55:20Z</time>
</trkpt>
<trkpt lat="49.40312" lon="1.14541">
<ele>152.0</ele>
<time>2026-08-25T14:55:22Z</time>
</trkpt>
<trkpt lat="49.40309" lon="1.14544">
<ele>153.0</ele>
<time>2026-08-25T14:55:24Z</time>
</trkpt>
<trkpt lat="49.403059999999996" lon="1.14546">
<ele>153.0</ele>
<time>2026-08-25T14:55:26Z</time>
</trkpt>
<trkpt lat="49.40302" lon="1.14547">
<ele>153.0</ele>
<time>2026-08-25T14:55:29Z</time>
</trkpt>
<trkpt lat="49.402989999999996" lon="1.1455">
<ele>153.0</ele>
<time>2026-08-25T14:55:32Z</time>
</trkpt>
<trkpt lat="49.40296" lon="1.1455199999999999">
<ele>153.0</ele>
<time>2026-08-25T14:55:35Z</time>
</trkpt>
<trkpt lat="49.40293" lon="1.1455499999999998">
<ele>153.0</ele>
<time>2026-08-25T14:55:38Z</time>
</trkpt>
<trkpt lat="49.402899999999995" lon="1.14557">
<ele>154.0</ele>
<time>2026-08-25T14:55:41Z</time>
</trkpt>
<trkpt lat="49.40287" lon="1.14558">
<ele>154.0</ele>
<time>2026-08-25T14:55:44Z</time>
</trkpt>
<trkpt lat="49.40284" lon="1.1456">
<ele>154.0</ele>
<time>2026-08-25T14:55:47Z</time>
</trkpt>
<trkpt lat="49.40282" lon="1.14563">
<ele>154.0</ele>
<time>2026-08-25T14:55:50Z</time>
</trkpt>
<trkpt lat="49.402789999999996" lon="1.14565">
<ele>154.0</ele>
<time>2026-08-25T14:55:53Z</time>
</trkpt>
<trkpt lat="49.40277" lon="1.14568">
<ele>154.0</ele>
<time>2026-08-25T14:55:57Z</time>
</trkpt>
<trkpt lat="49.40275" lon="1.14571">
<ele>155.0</ele>
<time>2026-08-25T14:56:00Z</time>
</trkpt>
<trkpt lat="49.402719999999995" lon="1.1457199999999998">
<ele>155.0</ele>
<time>2026-08-25T14:56:03Z</time>
</trkpt>
<trkpt lat="49.40269" lon="1.14575">
<ele>155.0</ele>
<time>2026-08-25T14:56:06Z</time>
</trkpt>
<trkpt lat="49.40266" lon="1.14578">
<ele>155.0</ele>
<time>2026-08-25T14:56:09Z</time>
</trkpt>
<trkpt lat="49.402629999999995" lon="1.1458">
<ele>156.0</ele>
<time>2026-08-25T14:56:12Z</time>
</trkpt>
<trkpt lat="49.4026" lon="1.14583">
<ele>156.0</ele>
<time>2026-08-25T14:56:15Z</time>
</trkpt>
<trkpt lat="49.40257" lon="1.14585">
<ele>156.0</ele>
<time>2026-08-25T14:56:18Z</time>
</trkpt>
<trkpt lat="49.40253" lon="1.14587">
<ele>156.0</ele>
<time>2026-08-25T14:56:21Z</time>
</trkpt>
<trkpt lat="49.402499999999996" lon="1.1458899999999999">
<ele>156.0</ele>
<time>2026-08-25T14:56:24Z</time>
</trkpt>
<trkpt lat="49.40247" lon="1.14593">
<ele>156.0</ele>
<time>2026-08-25T14:56:27Z</time>
</trkpt>
<trkpt lat="49.40244" lon="1.14597">
<ele>156.0</ele>
<time>2026-08-25T14:56:30Z</time>
</trkpt>
<trkpt lat="49.402409999999996" lon="1.14601">
<ele>156.0</ele>
<time>2026-08-25T14:56:33Z</time>
</trkpt>
<trkpt lat="49.40239" lon="1.14604">
<ele>156.0</ele>
<time>2026-08-25T14:56:36Z</time>
</trkpt>
<trkpt lat="49.402359999999994" lon="1.14607">
<ele>155.0</ele>
<time>2026-08-25T14:56:39Z</time>
</trkpt>
<trkpt lat="49.40233" lon="1.14609">
<ele>155.0</ele>
<time>2026-08-25T14:56:41Z</time>
</trkpt>
<trkpt lat="49.4023" lon="1.14612">
<ele>155.0</ele>
<time>2026-08-25T14:56:44Z</time>
</trkpt>
<trkpt lat="49.402269999999994" lon="1.14614">
<ele>155.0</ele>
<time>2026-08-25T14:56:46Z</time>
</trkpt>
<trkpt lat="49.40224" lon="1.1461599999999998">
<ele>155.0</ele>
<time>2026-08-25T14:56:48Z</time>
</trkpt>
<trkpt lat="49.40221" lon="1.14618">
<ele>155.0</ele>
<time>2026-08-25T14:56:51Z</time>
</trkpt>
<trkpt lat="49.40218" lon="1.14622">
<ele>155.0</ele>
<time>2026-08-25T14:56:54Z</time>
</trkpt>
<trkpt lat="49.40215" lon="1.14625">
<ele>154.0</ele>
<time>2026-08-25T14:56:57Z</time>
</trkpt>
<trkpt lat="49.40212" lon="1.14628">
<ele>154.0</ele>
<time>2026-08-25T14:57:00Z</time>
</trkpt>
<trkpt lat="49.40209" lon="1.14632">
<ele>154.0</ele>
<time>2026-08-25T14:57:03Z</time>
</trkpt>
<trkpt lat="49.402069999999995" lon="1.14636">
<ele>153.0</ele>
<time>2026-08-25T14:57:06Z</time>
</trkpt>
<trkpt lat="49.40204" lon="1.14639">
<ele>153.0</ele>
<time>2026-08-25T14:57:09Z</time>
</trkpt>
<trkpt lat="49.402" lon="1.14642">
<ele>153.0</ele>
<time>2026-08-25T14:57:12Z</time>
</trkpt>
<trkpt lat="49.40197" lon="1.14644">
<ele>153.0</ele>
<time>2026-08-25T14:57:15Z</time>
</trkpt>
<trkpt lat="49.40195" lon="1.1464699999999999">
<ele>153.0</ele>
<time>2026-08-25T14:57:18Z</time>
</trkpt>
<trkpt lat="49.40192" lon="1.14649">
<ele>153.0</ele>
<time>2026-08-25T14:57:21Z</time>
</trkpt>
<trkpt lat="49.401889999999995" lon="1.1464999999999999">
<ele>153.0</ele>
<time>2026-08-25T14:57:24Z</time>
</trkpt>
<trkpt lat="49.40186" lon="1.14652">
<ele>153.0</ele>
<time>2026-08-25T14:57:27Z</time>
</trkpt>
<trkpt lat="49.40183" lon="1.14655">
<ele>153.0</ele>
<time>2026-08-25T14:57:30Z</time>
</trkpt>
<trkpt lat="49.401799999999994" lon="1.1465699999999999">
<ele>153.0</ele>
<time>2026-08-25T14:57:32Z</time>
</trkpt>
<trkpt lat="49.40177" lon="1.1465999999999998">
<ele>153.0</ele>
<time>2026-08-25T14:57:35Z</time>
</trkpt>
<trkpt lat="49.40174" lon="1.14663">
<ele>153.0</ele>
<time>2026-08-25T14:57:38Z</time>
</trkpt>
<trkpt lat="49.401709999999994" lon="1.14666">
<ele>153.0</ele>
<time>2026-08-25T14:57:40Z</time>
</trkpt>
<trkpt lat="49.40168" lon="1.14668">
<ele>153.0</ele>
<time>2026-08-25T14:57:42Z</time>
</trkpt>
<trkpt lat="49.40166" lon="1.14671">
<ele>153.0</ele>
<time>2026-08-25T14:57:44Z</time>
</trkpt>
<trkpt lat="49.40164" lon="1.1467399999999999">
<ele>153.0</ele>
<time>2026-08-25T14:57:46Z</time>
</trkpt>
<trkpt lat="49.40161" lon="1.14678">
<ele>153.0</ele>
<time>2026-08-25T14:57:49Z</time>
</trkpt>
<trkpt lat="49.401579999999996" lon="1.1468099999999999">
<ele>152.0</ele>
<time>2026-08-25T14:57:52Z</time>
</trkpt>
<trkpt lat="49.401559999999996" lon="1.1468399999999999">
<ele>152.0</ele>
<time>2026-08-25T14:57:55Z</time>
</trkpt>
<trkpt lat="49.40153" lon="1.14687">
<ele>152.0</ele>
<time>2026-08-25T14:57:58Z</time>
</trkpt>
<trkpt lat="49.401509999999995" lon="1.1469">
<ele>152.0</ele>
<time>2026-08-25T14:58:01Z</time>
</trkpt>
<trkpt lat="49.40148" lon="1.14693">
<ele>152.0</ele>
<time>2026-08-25T14:58:04Z</time>
</trkpt>
<trkpt lat="49.40145" lon="1.14696">
<ele>152.0</ele>
<time>2026-08-25T14:58:07Z</time>
</trkpt>
<trkpt lat="49.401419999999995" lon="1.14699">
<ele>152.0</ele>
<time>2026-08-25T14:58:10Z</time>
</trkpt>
<trkpt lat="49.40139" lon="1.14702">
<ele>152.0</ele>
<time>2026-08-25T14:58:13Z</time>
</trkpt>
<trkpt lat="49.40135" lon="1.14706">
<ele>152.0</ele>
<time>2026-08-25T14:58:16Z</time>
</trkpt>
<trkpt lat="49.40132" lon="1.14709">
<ele>152.0</ele>
<time>2026-08-25T14:58:19Z</time>
</trkpt>
<trkpt lat="49.401289999999996" lon="1.14713">
<ele>152.0</ele>
<time>2026-08-25T14:58:22Z</time>
</trkpt>
<trkpt lat="49.40126" lon="1.14716">
<ele>152.0</ele>
<time>2026-08-25T14:58:24Z</time>
</trkpt>
<trkpt lat="49.401239999999994" lon="1.14719">
<ele>151.0</ele>
<time>2026-08-25T14:58:27Z</time>
</trkpt>
<trkpt lat="49.40121" lon="1.14722">
<ele>151.0</ele>
<time>2026-08-25T14:58:30Z</time>
</trkpt>
<trkpt lat="49.40118" lon="1.14724">
<ele>151.0</ele>
<time>2026-08-25T14:58:33Z</time>
</trkpt>
<trkpt lat="49.40115" lon="1.14726">
<ele>151.0</ele>
<time>2026-08-25T14:58:36Z</time>
</trkpt>
<trkpt lat="49.401129999999995" lon="1.14729">
<ele>151.0</ele>
<time>2026-08-25T14:58:39Z</time>
</trkpt>
<trkpt lat="49.4011" lon="1.14732">
<ele>151.0</ele>
<time>2026-08-25T14:58:42Z</time>
</trkpt>
<trkpt lat="49.40107" lon="1.14736">
<ele>151.0</ele>
<time>2026-08-25T14:58:45Z</time>
</trkpt>
<trkpt lat="49.40105" lon="1.14739">
<ele>151.0</ele>
<time>2026-08-25T14:58:47Z</time>
</trkpt>
<trkpt lat="49.401019999999995" lon="1.1474199999999999">
<ele>151.0</ele>
<time>2026-08-25T14:58:50Z</time>
</trkpt>
<trkpt lat="49.40099" lon="1.14744">
<ele>151.0</ele>
<time>2026-08-25T14:58:52Z</time>
</trkpt>
<trkpt lat="49.40096" lon="1.14747">
<ele>150.0</ele>
<time>2026-08-25T14:58:55Z</time>
</trkpt>
<trkpt lat="49.40094" lon="1.14751">
<ele>150.0</ele>
<time>2026-08-25T14:58:58Z</time>
</trkpt>
<trkpt lat="49.400909999999996" lon="1.1475499999999998">
<ele>150.0</ele>
<time>2026-08-25T14:59:00Z</time>
</trkpt>
<trkpt lat="49.40089" lon="1.14757">
<ele>150.0</ele>
<time>2026-08-25T14:59:02Z</time>
</trkpt>
<trkpt lat="49.400859999999994" lon="1.1476">
<ele>150.0</ele>
<time>2026-08-25T14:59:04Z</time>
</trkpt>
<trkpt lat="49.40083" lon="1.1476199999999999">
<ele>150.0</ele>
<time>2026-08-25T14:59:06Z</time>
</trkpt>
<trkpt lat="49.40081" lon="1.14766">
<ele>150.0</ele>
<time>2026-08-25T14:59:09Z</time>
</trkpt>
<trkpt lat="49.40078" lon="1.1476899999999999">
<ele>150.0</ele>
<time>2026-08-25T14:59:11Z</time>
</trkpt>
<trkpt lat="49.40076" lon="1.1477199999999999">
<ele>150.0</ele>
<time>2026-08-25T14:59:13Z</time>
</trkpt>
<trkpt lat="49.40074" lon="1.14775">
<ele>150.0</ele>
<time>2026-08-25T14:59:15Z</time>
</trkpt>
<trkpt lat="49.40071" lon="1.14778">
<ele>150.0</ele>
<time>2026-08-25T14:59:18Z</time>
</trkpt>
<trkpt lat="49.40068" lon="1.1478">
<ele>149.0</ele>
<time>2026-08-25T14:59:21Z</time>
</trkpt>
<trkpt lat="49.40065" lon="1.14783">
<ele>149.0</ele>
<time>2026-08-25T14:59:24Z</time>
</trkpt>
<trkpt lat="49.400619999999996" lon="1.14787">
<ele>149.0</ele>
<time>2026-08-25T14:59:27Z</time>
</trkpt>
<trkpt lat="49.4006" lon="1.1479">
<ele>149.0</ele>
<time>2026-08-25T14:59:30Z</time>
</trkpt>
<trkpt lat="49.400569999999995" lon="1.14793">
<ele>149.0</ele>
<time>2026-08-25T14:59:33Z</time>
</trkpt>
<trkpt lat="49.40054" lon="1.1479599999999999">
<ele>149.0</ele>
<time>2026-08-25T14:59:36Z</time>
</trkpt>
<trkpt lat="49.40052" lon="1.1479899999999998">
<ele>149.0</ele>
<time>2026-08-25T14:59:39Z</time>
</trkpt>
<trkpt lat="49.40052" lon="1.1480299999999999">
<ele>149.0</ele>
<time>2026-08-25T14:59:42Z</time>
</trkpt>
<trkpt lat="49.40052" lon="1.14809">
<ele>149.0</ele>
<time>2026-08-25T14:59:45Z</time>
</trkpt>
<trkpt lat="49.40052" lon="1.14814">
<ele>149.0</ele>
<time>2026-08-25T14:59:48Z</time>
</trkpt>
<trkpt lat="49.40051" lon="1.14819">
<ele>149.0</ele>
<time>2026-08-25T14:59:51Z</time>
</trkpt>
<trkpt lat="49.4005" lon="1.14824">
<ele>149.0</ele>
<time>2026-08-25T14:59:54Z</time>
</trkpt>
<trkpt lat="49.400479999999995" lon="1.14828">
<ele>149.0</ele>
<time>2026-08-25T14:59:57Z</time>
</trkpt>
<trkpt lat="49.40045" lon="1.14831">
<ele>149.0</ele>
<time>2026-08-25T15:00:00Z</time>
</trkpt>
<trkpt lat="49.40042" lon="1.14835">
<ele>149.0</ele>
<time>2026-08-25T15:00:03Z</time>
</trkpt>
<trkpt lat="49.4004" lon="1.14839">
<ele>149.0</ele>
<time>2026-08-25T15:00:06Z</time>
</trkpt>
<trkpt lat="49.40038" lon="1.1484299999999998">
<ele>149.0</ele>
<time>2026-08-25T15:00:09Z</time>
</trkpt>
<trkpt lat="49.40036" lon="1.1484699999999999">
<ele>149.0</ele>
<time>2026-08-25T15:00:12Z</time>
</trkpt>
<trkpt lat="49.400349999999996" lon="1.14852">
<ele>148.0</ele>
<time>2026-08-25T15:00:14Z</time>
</trkpt>
<trkpt lat="49.40034" lon="1.14856">
<ele>148.0</ele>
<time>2026-08-25T15:00:16Z</time>
</trkpt>
<trkpt lat="49.40034" lon="1.1485999999999998">
<ele>148.0</ele>
<time>2026-08-25T15:00:18Z</time>
</trkpt>
<trkpt lat="49.40034" lon="1.14865">
<ele>148.0</ele>
<time>2026-08-25T15:00:21Z</time>
</trkpt>
<trkpt lat="49.40034" lon="1.1487">
<ele>148.0</ele>
<time>2026-08-25T15:00:24Z</time>
</trkpt>
<trkpt lat="49.40034" lon="1.14875">
<ele>148.0</ele>
<time>2026-08-25T15:00:27Z</time>
</trkpt>
<trkpt lat="49.40034" lon="1.1488099999999999">
<ele>148.0</ele>
<time>2026-08-25T15:00:30Z</time>
</trkpt>
<trkpt lat="49.400349999999996" lon="1.14885">
<ele>148.0</ele>
<time>2026-08-25T15:00:32Z</time>
</trkpt>
<trkpt lat="49.40036" lon="1.1489">
<ele>148.0</ele>
<time>2026-08-25T15:00:35Z</time>
</trkpt>
<trkpt lat="49.40038" lon="1.1489399999999999">
<ele>148.0</ele>
<time>2026-08-25T15:00:37Z</time>
</trkpt>
<trkpt lat="49.400389999999994" lon="1.14899">
<ele>148.0</ele>
<time>2026-08-25T15:00:40Z</time>
</trkpt>
<trkpt lat="49.40041" lon="1.1490399999999998">
<ele>148.0</ele>
<time>2026-08-25T15:00:43Z</time>
</trkpt>
<trkpt lat="49.40042" lon="1.1491">
<ele>149.0</ele>
<time>2026-08-25T15:00:46Z</time>
</trkpt>
<trkpt lat="49.400439999999996" lon="1.14915">
<ele>149.0</ele>
<time>2026-08-25T15:00:49Z</time>
</trkpt>
<trkpt lat="49.40045" lon="1.14919">
<ele>149.0</ele>
<time>2026-08-25T15:00:52Z</time>
</trkpt>
<trkpt lat="49.400479999999995" lon="1.14924">
<ele>149.0</ele>
<time>2026-08-25T15:00:55Z</time>
</trkpt>
<trkpt lat="49.4005" lon="1.1492799999999999">
<ele>149.0</ele>
<time>2026-08-25T15:00:58Z</time>
</trkpt>
<trkpt lat="49.40051" lon="1.14933">
<ele>150.0</ele>
<time>2026-08-25T15:01:01Z</time>
</trkpt>
<trkpt lat="49.40052" lon="1.1493799999999998">
<ele>150.0</ele>
<time>2026-08-25T15:01:04Z</time>
</trkpt>
<trkpt lat="49.40054" lon="1.1494199999999999">
<ele>150.0</ele>
<time>2026-08-25T15:01:07Z</time>
</trkpt>
<trkpt lat="49.40056" lon="1.14946">
<ele>150.0</ele>
<time>2026-08-25T15:01:10Z</time>
</trkpt>
<trkpt lat="49.40058" lon="1.1495">
<ele>150.0</ele>
<time>2026-08-25T15:01:13Z</time>
</trkpt>
<trkpt lat="49.40059" lon="1.14954">
<ele>150.0</ele>
<time>2026-08-25T15:01:16Z</time>
</trkpt>
<trkpt lat="49.40061" lon="1.14959">
<ele>150.0</ele>
<time>2026-08-25T15:01:19Z</time>
</trkpt>
<trkpt lat="49.40063" lon="1.1496199999999999">
<ele>150.0</ele>
<time>2026-08-25T15:01:21Z</time>
</trkpt>
<trkpt lat="49.40065" lon="1.14966">
<ele>150.0</ele>
<time>2026-08-25T15:01:24Z</time>
</trkpt>
<trkpt lat="49.40068" lon="1.1497">
<ele>150.0</ele>
<time>2026-08-25T15:01:26Z</time>
</trkpt>
<trkpt lat="49.4007" lon="1.14974">
<ele>151.0</ele>
<time>2026-08-25T15:01:29Z</time>
</trkpt>
<trkpt lat="49.40072" lon="1.14978">
<ele>151.0</ele>
<time>2026-08-25T15:01:32Z</time>
</trkpt>
<trkpt lat="49.40074" lon="1.14983">
<ele>151.0</ele>
<time>2026-08-25T15:01:35Z</time>
</trkpt>
<trkpt lat="49.400769999999994" lon="1.14987">
<ele>151.0</ele>
<time>2026-08-25T15:01:38Z</time>
</trkpt>
<trkpt lat="49.40079" lon="1.14992">
<ele>151.0</ele>
<time>2026-08-25T15:01:41Z</time>
</trkpt>
<trkpt lat="49.40081" lon="1.1499599999999999">
<ele>151.0</ele>
<time>2026-08-25T15:01:43Z</time>
</trkpt>
<trkpt lat="49.40083" lon="1.1499899999999998">
<ele>151.0</ele>
<time>2026-08-25T15:01:45Z</time>
</trkpt>
<trkpt lat="49.40085" lon="1.15002">
<ele>151.0</ele>
<time>2026-08-25T15:01:47Z</time>
</trkpt>
<trkpt lat="49.40087" lon="1.1500599999999999">
<ele>151.0</ele>
<time>2026-08-25T15:01:49Z</time>
</trkpt>
<trkpt lat="49.40089" lon="1.15009">
<ele>151.0</ele>
<time>2026-08-25T15:01:51Z</time>
</trkpt>
<trkpt lat="49.4009" lon="1.15014">
<ele>151.0</ele>
<time>2026-08-25T15:01:54Z</time>
</trkpt>
<trkpt lat="49.4009" lon="1.15019">
<ele>151.0</ele>
<time>2026-08-25T15:01:57Z</time>
</trkpt>
<trkpt lat="49.40089" lon="1.15024">
<ele>151.0</ele>
<time>2026-08-25T15:02:00Z</time>
</trkpt>
<trkpt lat="49.40088" lon="1.15028">
<ele>151.0</ele>
<time>2026-08-25T15:02:02Z</time>
</trkpt>
<trkpt lat="49.400859999999994" lon="1.15031">
<ele>151.0</ele>
<time>2026-08-25T15:02:04Z</time>
</trkpt>
<trkpt lat="49.40083" lon="1.15032">
<ele>151.0</ele>
<time>2026-08-25T15:02:09Z</time>
</trkpt>
<trkpt lat="49.4008" lon="1.15032">
<ele>151.0</ele>
<time>2026-08-25T15:02:11Z</time>
</trkpt>
<trkpt lat="49.400769999999994" lon="1.1503299999999999">
<ele>151.0</ele>
<time>2026-08-25T15:02:13Z</time>
</trkpt>
<trkpt lat="49.400749999999995" lon="1.15036">
<ele>151.0</ele>
<time>2026-08-25T15:02:17Z</time>
</trkpt>
<trkpt lat="49.40072" lon="1.15038">
<ele>151.0</ele>
<time>2026-08-25T15:02:20Z</time>
</trkpt>
<trkpt lat="49.40069" lon="1.15041">
<ele>150.0</ele>
<time>2026-08-25T15:02:23Z</time>
</trkpt>
<trkpt lat="49.400659999999995" lon="1.15044">
<ele>150.0</ele>
<time>2026-08-25T15:02:27Z</time>
</trkpt>
<trkpt lat="49.400639999999996" lon="1.1504699999999999">
<ele>150.0</ele>
<time>2026-08-25T15:02:30Z</time>
</trkpt>
<trkpt lat="49.40061" lon="1.1504999999999999">
<ele>150.0</ele>
<time>2026-08-25T15:02:33Z</time>
</trkpt>
<trkpt lat="49.40058" lon="1.15053">
<ele>150.0</ele>
<time>2026-08-25T15:02:35Z</time>
</trkpt>
<trkpt lat="49.400549999999996" lon="1.15055">
<ele>150.0</ele>
<time>2026-08-25T15:02:38Z</time>
</trkpt>
<trkpt lat="49.40052" lon="1.15058">
<ele>150.0</ele>
<time>2026-08-25T15:02:41Z</time>
</trkpt>
<trkpt lat="49.40049" lon="1.15061">
<ele>150.0</ele>
<time>2026-08-25T15:02:44Z</time>
</trkpt>
<trkpt lat="49.400459999999995" lon="1.15063">
<ele>150.0</ele>
<time>2026-08-25T15:02:47Z</time>
</trkpt>
<trkpt lat="49.40042" lon="1.15065">
<ele>150.0</ele>
<time>2026-08-25T15:02:50Z</time>
</trkpt>
<trkpt lat="49.400389999999994" lon="1.15069">
<ele>150.0</ele>
<time>2026-08-25T15:02:53Z</time>
</trkpt>
<trkpt lat="49.40036" lon="1.15072">
<ele>150.0</ele>
<time>2026-08-25T15:02:56Z</time>
</trkpt>
<trkpt lat="49.40034" lon="1.1507399999999999">
<ele>150.0</ele>
<time>2026-08-25T15:02:59Z</time>
</trkpt>
<trkpt lat="49.40031" lon="1.1507699999999998">
<ele>150.0</ele>
<time>2026-08-25T15:03:02Z</time>
</trkpt>
<trkpt lat="49.400299999999994" lon="1.1508099999999999">
<ele>150.0</ele>
<time>2026-08-25T15:03:06Z</time>
</trkpt>
<trkpt lat="49.400279999999995" lon="1.15085">
<ele>150.0</ele>
<time>2026-08-25T15:03:09Z</time>
</trkpt>
<trkpt lat="49.400259999999996" lon="1.15089">
<ele>150.0</ele>
<time>2026-08-25T15:03:13Z</time>
</trkpt>
<trkpt lat="49.40023" lon="1.15092">
<ele>150.0</ele>
<time>2026-08-25T15:03:17Z</time>
</trkpt>
<trkpt lat="49.4002" lon="1.1509399999999999">
<ele>150.0</ele>
<time>2026-08-25T15:03:20Z</time>
</trkpt>
<trkpt lat="49.400169999999996" lon="1.15097">
<ele>150.0</ele>
<time>2026-08-25T15:03:22Z</time>
</trkpt>
<trkpt lat="49.40015" lon="1.151">
<ele>151.0</ele>
<time>2026-08-25T15:03:24Z</time>
</trkpt>
<trkpt lat="49.40012" lon="1.15103">
<ele>151.0</ele>
<time>2026-08-25T15:03:27Z</time>
</trkpt>
<trkpt lat="49.400099999999995" lon="1.1510799999999999">
<ele>151.0</ele>
<time>2026-08-25T15:03:30Z</time>
</trkpt>
<trkpt lat="49.400079999999996" lon="1.15112">
<ele>151.0</ele>
<time>2026-08-25T15:03:33Z</time>
</trkpt>
<trkpt lat="49.40005" lon="1.15115">
<ele>151.0</ele>
<time>2026-08-25T15:03:36Z</time>
</trkpt>
<trkpt lat="49.40002" lon="1.15117">
<ele>151.0</ele>
<time>2026-08-25T15:03:39Z</time>
</trkpt>
<trkpt lat="49.399989999999995" lon="1.15119">
<ele>151.0</ele>
<time>2026-08-25T15:03:41Z</time>
</trkpt>
<trkpt lat="49.399969999999996" lon="1.1512099999999998">
<ele>151.0</ele>
<time>2026-08-25T15:03:43Z</time>
</trkpt>
<trkpt lat="49.39994" lon="1.15124">
<ele>151.0</ele>
<time>2026-08-25T15:03:46Z</time>
</trkpt>
<trkpt lat="49.399899999999995" lon="1.15127">
<ele>151.0</ele>
<time>2026-08-25T15:03:49Z</time>
</trkpt>
<trkpt lat="49.39987" lon="1.1513">
<ele>151.0</ele>
<time>2026-08-25T15:03:52Z</time>
</trkpt>
<trkpt lat="49.39984" lon="1.15133">
<ele>151.0</ele>
<time>2026-08-25T15:03:55Z</time>
</trkpt>
<trkpt lat="49.399809999999995" lon="1.15136">
<ele>151.0</ele>
<time>2026-08-25T15:03:58Z</time>
</trkpt>
<trkpt lat="49.39978" lon="1.15139">
<ele>151.0</ele>
<time>2026-08-25T15:04:01Z</time>
</trkpt>
<trkpt lat="49.39975" lon="1.15141">
<ele>151.0</ele>
<time>2026-08-25T15:04:03Z</time>
</trkpt>
<trkpt lat="49.399719999999995" lon="1.15143">
<ele>151.0</ele>
<time>2026-08-25T15:04:05Z</time>
</trkpt>
<trkpt lat="49.399699999999996" lon="1.15146">
<ele>151.0</ele>
<time>2026-08-25T15:04:08Z</time>
</trkpt>
<trkpt lat="49.39968" lon="1.15149">
<ele>151.0</ele>
<time>2026-08-25T15:04:11Z</time>
</trkpt>
<trkpt lat="49.39965" lon="1.1515199999999999">
<ele>151.0</ele>
<time>2026-08-25T15:04:14Z</time>
</trkpt>
<trkpt lat="49.39962" lon="1.1515499999999999">
<ele>151.0</ele>
<time>2026-08-25T15:04:17Z</time>
</trkpt>
<trkpt lat="49.3996" lon="1.15158">
<ele>151.0</ele>
<time>2026-08-25T15:04:19Z</time>
</trkpt>
<trkpt lat="49.39957" lon="1.15161">
<ele>150.0</ele>
<time>2026-08-25T15:04:22Z</time>
</trkpt>
<trkpt lat="49.399539999999995" lon="1.1516499999999998">
<ele>150.0</ele>
<time>2026-08-25T15:04:25Z</time>
</trkpt>
<trkpt lat="49.39951" lon="1.15167">
<ele>150.0</ele>
<time>2026-08-25T15:04:27Z</time>
</trkpt>
<trkpt lat="49.39949" lon="1.1517">
<ele>150.0</ele>
<time>2026-08-25T15:04:29Z</time>
</trkpt>
<trkpt lat="49.39946" lon="1.1517199999999999">
<ele>150.0</ele>
<time>2026-08-25T15:04:31Z</time>
</trkpt>
<trkpt lat="49.39942" lon="1.15174">
<ele>150.0</ele>
<time>2026-08-25T15:04:34Z</time>
</trkpt>
<trkpt lat="49.39939" lon="1.15176">
<ele>150.0</ele>
<time>2026-08-25T15:04:37Z</time>
</trkpt>
<trkpt lat="49.399359999999994" lon="1.1518">
<ele>150.0</ele>
<time>2026-08-25T15:04:40Z</time>
</trkpt>
<trkpt lat="49.39933" lon="1.15181">
<ele>150.0</ele>
<time>2026-08-25T15:04:43Z</time>
</trkpt>
<trkpt lat="49.39929" lon="1.15183">
<ele>149.0</ele>
<time>2026-08-25T15:04:46Z</time>
</trkpt>
<trkpt lat="49.39926" lon="1.15184">
<ele>149.0</ele>
<time>2026-08-25T15:04:48Z</time>
</trkpt>
<trkpt lat="49.399229999999996" lon="1.15185">
<ele>149.0</ele>
<time>2026-08-25T15:04:52Z</time>
</trkpt>
<trkpt lat="49.3992" lon="1.15184">
<ele>149.0</ele>
<time>2026-08-25T15:04:56Z</time>
</trkpt>
<trkpt lat="49.39917" lon="1.15183">
<ele>149.0</ele>
<time>2026-08-25T15:04:59Z</time>
</trkpt>
<trkpt lat="49.399139999999996" lon="1.15184">
<ele>149.0</ele>
<time>2026-08-25T15:05:02Z</time>
</trkpt>
<trkpt lat="49.39911" lon="1.15185">
<ele>149.0</ele>
<time>2026-08-25T15:05:04Z</time>
</trkpt>
<trkpt lat="49.39909" lon="1.15187">
<ele>149.0</ele>
<time>2026-08-25T15:05:06Z</time>
</trkpt>
<trkpt lat="49.39906" lon="1.1518899999999999">
<ele>149.0</ele>
<time>2026-08-25T15:05:08Z</time>
</trkpt>
<trkpt lat="49.399029999999996" lon="1.1519">
<ele>149.0</ele>
<time>2026-08-25T15:05:10Z</time>
</trkpt>
<trkpt lat="49.399" lon="1.15192">
<ele>148.0</ele>
<time>2026-08-25T15:05:12Z</time>
</trkpt>
<trkpt lat="49.39897" lon="1.15194">
<ele>148.0</ele>
<time>2026-08-25T15:05:14Z</time>
</trkpt>
<trkpt lat="49.39895" lon="1.15197">
<ele>148.0</ele>
<time>2026-08-25T15:05:16Z</time>
</trkpt>
<trkpt lat="49.39892" lon="1.152">
<ele>148.0</ele>
<time>2026-08-25T15:05:18Z</time>
</trkpt>
<trkpt lat="49.3989" lon="1.15204">
<ele>148.0</ele>
<time>2026-08-25T15:05:21Z</time>
</trkpt>
<trkpt lat="49.398869999999995" lon="1.15208">
<ele>148.0</ele>
<time>2026-08-25T15:05:24Z</time>
</trkpt>
<trkpt lat="49.39884" lon="1.15211">
<ele>149.0</ele>
<time>2026-08-25T15:05:27Z</time>
</trkpt>
<trkpt lat="49.39882" lon="1.15215">
<ele>149.0</ele>
<time>2026-08-25T15:05:30Z</time>
</trkpt>
<trkpt lat="49.39879" lon="1.15219">
<ele>149.0</ele>
<time>2026-08-25T15:05:33Z</time>
</trkpt>
<trkpt lat="49.398779999999995" lon="1.15224">
<ele>149.0</ele>
<time>2026-08-25T15:05:36Z</time>
</trkpt>
<trkpt lat="49.39879" lon="1.15228">
<ele>149.0</ele>
<time>2026-08-25T15:05:38Z</time>
</trkpt>
<trkpt lat="49.39881" lon="1.15231">
<ele>149.0</ele>
<time>2026-08-25T15:05:40Z</time>
</trkpt>
<trkpt lat="49.39884" lon="1.15234">
<ele>149.0</ele>
<time>2026-08-25T15:05:42Z</time>
</trkpt>
<trkpt lat="49.39886" lon="1.15236">
<ele>149.0</ele>
<time>2026-08-25T15:05:44Z</time>
</trkpt>
<trkpt lat="49.398889999999994" lon="1.15239">
<ele>149.0</ele>
<time>2026-08-25T15:05:46Z</time>
</trkpt>
<trkpt lat="49.39891" lon="1.15242">
<ele>149.0</ele>
<time>2026-08-25T15:05:49Z</time>
</trkpt>
<trkpt lat="49.398939999999996" lon="1.15246">
<ele>149.0</ele>
<time>2026-08-25T15:05:53Z</time>
</trkpt>
<trkpt lat="49.398959999999995" lon="1.15248">
<ele>149.0</ele>
<time>2026-08-25T15:05:55Z</time>
</trkpt>
<trkpt lat="49.399" lon="1.15251">
<ele>149.0</ele>
<time>2026-08-25T15:05:58Z</time>
</trkpt>
<trkpt lat="49.399029999999996" lon="1.15254">
<ele>150.0</ele>
<time>2026-08-25T15:06:01Z</time>
</trkpt>
<trkpt lat="49.399049999999995" lon="1.15258">
<ele>150.0</ele>
<time>2026-08-25T15:06:04Z</time>
</trkpt>
<trkpt lat="49.399069999999995" lon="1.15263">
<ele>150.0</ele>
<time>2026-08-25T15:06:07Z</time>
</trkpt>
<trkpt lat="49.39908" lon="1.15268">
<ele>150.0</ele>
<time>2026-08-25T15:06:10Z</time>
</trkpt>
<trkpt lat="49.39909" lon="1.15273">
<ele>150.0</ele>
<time>2026-08-25T15:06:13Z</time>
</trkpt>
<trkpt lat="49.3991" lon="1.15278">
<ele>150.0</ele>
<time>2026-08-25T15:06:16Z</time>
</trkpt>
<trkpt lat="49.399119999999996" lon="1.15283">
<ele>150.0</ele>
<time>2026-08-25T15:06:19Z</time>
</trkpt>
<trkpt lat="49.39913" lon="1.1528699999999998">
<ele>150.0</ele>
<time>2026-08-25T15:06:22Z</time>
</trkpt>
<trkpt lat="49.39915" lon="1.1529099999999999">
<ele>150.0</ele>
<time>2026-08-25T15:06:25Z</time>
</trkpt>
<trkpt lat="49.399159999999995" lon="1.15295">
<ele>151.0</ele>
<time>2026-08-25T15:06:28Z</time>
</trkpt>
<trkpt lat="49.39918" lon="1.153">
<ele>151.0</ele>
<time>2026-08-25T15:06:31Z</time>
</trkpt>
<trkpt lat="49.3992" lon="1.15305">
<ele>151.0</ele>
<time>2026-08-25T15:06:34Z</time>
</trkpt>
<trkpt lat="49.39922" lon="1.15309">
<ele>151.0</ele>
<time>2026-08-25T15:06:36Z</time>
</trkpt>
<trkpt lat="49.39924" lon="1.15314">
<ele>151.0</ele>
<time>2026-08-25T15:06:39Z</time>
</trkpt>
<trkpt lat="49.399269999999994" lon="1.15317">
<ele>151.0</ele>
<time>2026-08-25T15:06:42Z</time>
</trkpt>
<trkpt lat="49.3993" lon="1.15319">
<ele>151.0</ele>
<time>2026-08-25T15:06:45Z</time>
</trkpt>
<trkpt lat="49.39933" lon="1.15322">
<ele>151.0</ele>
<time>2026-08-25T15:06:48Z</time>
</trkpt>
<trkpt lat="49.399359999999994" lon="1.15324">
<ele>151.0</ele>
<time>2026-08-25T15:06:50Z</time>
</trkpt>
<trkpt lat="49.39938" lon="1.15327">
<ele>151.0</ele>
<time>2026-08-25T15:06:52Z</time>
</trkpt>
<trkpt lat="49.399409999999996" lon="1.15329">
<ele>151.0</ele>
<time>2026-08-25T15:06:54Z</time>
</trkpt>
<trkpt lat="49.399429999999995" lon="1.15333">
<ele>151.0</ele>
<time>2026-08-25T15:06:57Z</time>
</trkpt>
<trkpt lat="49.39946" lon="1.15336">
<ele>151.0</ele>
<time>2026-08-25T15:07:00Z</time>
</trkpt>
<trkpt lat="49.39949" lon="1.1534">
<ele>151.0</ele>
<time>2026-08-25T15:07:03Z</time>
</trkpt>
<trkpt lat="49.399519999999995" lon="1.15342">
<ele>151.0</ele>
<time>2026-08-25T15:07:05Z</time>
</trkpt>
<trkpt lat="49.39955" lon="1.1534499999999999">
<ele>151.0</ele>
<time>2026-08-25T15:07:08Z</time>
</trkpt>
<trkpt lat="49.39958" lon="1.1534799999999998">
<ele>151.0</ele>
<time>2026-08-25T15:07:11Z</time>
</trkpt>
<trkpt lat="49.399609999999996" lon="1.15351">
<ele>152.0</ele>
<time>2026-08-25T15:07:14Z</time>
</trkpt>
<trkpt lat="49.39964" lon="1.15354">
<ele>152.0</ele>
<time>2026-08-25T15:07:17Z</time>
</trkpt>
<trkpt lat="49.39966" lon="1.15358">
<ele>152.0</ele>
<time>2026-08-25T15:07:20Z</time>
</trkpt>
<trkpt lat="49.39969" lon="1.1536">
<ele>152.0</ele>
<time>2026-08-25T15:07:23Z</time>
</trkpt>
<trkpt lat="49.399719999999995" lon="1.15363">
<ele>152.0</ele>
<time>2026-08-25T15:07:26Z</time>
</trkpt>
<trkpt lat="49.39975" lon="1.15367">
<ele>152.0</ele>
<time>2026-08-25T15:07:29Z</time>
</trkpt>
<trkpt lat="49.39977" lon="1.15371">
<ele>152.0</ele>
<time>2026-08-25T15:07:31Z</time>
</trkpt>
<trkpt lat="49.399789999999996" lon="1.15375">
<ele>152.0</ele>
<time>2026-08-25T15:07:33Z</time>
</trkpt>
<trkpt lat="49.399809999999995" lon="1.1537899999999999">
<ele>152.0</ele>
<time>2026-08-25T15:07:36Z</time>
</trkpt>
<trkpt lat="49.39982" lon="1.15384">
<ele>152.0</ele>
<time>2026-08-25T15:07:39Z</time>
</trkpt>
<trkpt lat="49.39984" lon="1.1538899999999999">
<ele>152.0</ele>
<time>2026-08-25T15:07:42Z</time>
</trkpt>
<trkpt lat="49.39986" lon="1.15394">
<ele>152.0</ele>
<time>2026-08-25T15:07:45Z</time>
</trkpt>
<trkpt lat="49.399879999999996" lon="1.15398">
<ele>152.0</ele>
<time>2026-08-25T15:07:48Z</time>
</trkpt>
<trkpt lat="49.399899999999995" lon="1.15403">
<ele>153.0</ele>
<time>2026-08-25T15:07:51Z</time>
</trkpt>
<trkpt lat="49.399919999999995" lon="1.15407">
<ele>153.0</ele>
<time>2026-08-25T15:07:54Z</time>
</trkpt>
<trkpt lat="49.39993" lon="1.15412">
<ele>153.0</ele>
<time>2026-08-25T15:07:57Z</time>
</trkpt>
<trkpt lat="49.39995" lon="1.1541599999999999">
<ele>153.0</ele>
<time>2026-08-25T15:08:00Z</time>
</trkpt>
<trkpt lat="49.39996" lon="1.1542">
<ele>153.0</ele>
<time>2026-08-25T15:08:03Z</time>
</trkpt>
<trkpt lat="49.39998" lon="1.15425">
<ele>153.0</ele>
<time>2026-08-25T15:08:06Z</time>
</trkpt>
<trkpt lat="49.399989999999995" lon="1.15429">
<ele>153.0</ele>
<time>2026-08-25T15:08:09Z</time>
</trkpt>
<trkpt lat="49.4" lon="1.15434">
<ele>154.0</ele>
<time>2026-08-25T15:08:12Z</time>
</trkpt>
<trkpt lat="49.400009999999995" lon="1.15439">
<ele>154.0</ele>
<time>2026-08-25T15:08:15Z</time>
</trkpt>
<trkpt lat="49.40002" lon="1.15444">
<ele>154.0</ele>
<time>2026-08-25T15:08:17Z</time>
</trkpt>
<trkpt lat="49.40002" lon="1.15449">
<ele>154.0</ele>
<time>2026-08-25T15:08:20Z</time>
</trkpt>
<trkpt lat="49.40002" lon="1.15455">
<ele>154.0</ele>
<time>2026-08-25T15:08:23Z</time>
</trkpt>
<trkpt lat="49.40002" lon="1.1545999999999998">
<ele>154.0</ele>
<time>2026-08-25T15:08:26Z</time>
</trkpt>
<trkpt lat="49.40002" lon="1.15466">
<ele>154.0</ele>
<time>2026-08-25T15:08:29Z</time>
</trkpt>
<trkpt lat="49.4" lon="1.15472">
<ele>154.0</ele>
<time>2026-08-25T15:08:32Z</time>
</trkpt>
<trkpt lat="49.39998" lon="1.15476">
<ele>154.0</ele>
<time>2026-08-25T15:08:34Z</time>
</trkpt>
<trkpt lat="49.39996" lon="1.15479">
<ele>154.0</ele>
<time>2026-08-25T15:08:36Z</time>
</trkpt>
<trkpt lat="49.39993" lon="1.15483">
<ele>154.0</ele>
<time>2026-08-25T15:08:39Z</time>
</trkpt>
<trkpt lat="49.39991" lon="1.1548699999999998">
<ele>155.0</ele>
<time>2026-08-25T15:08:42Z</time>
</trkpt>
<trkpt lat="49.39987" lon="1.1549099999999999">
<ele>155.0</ele>
<time>2026-08-25T15:08:45Z</time>
</trkpt>
<trkpt lat="49.39984" lon="1.1549399999999999">
<ele>155.0</ele>
<time>2026-08-25T15:08:48Z</time>
</trkpt>
<trkpt lat="49.399809999999995" lon="1.15497">
<ele>155.0</ele>
<time>2026-08-25T15:08:51Z</time>
</trkpt>
<trkpt lat="49.39978" lon="1.15499">
<ele>155.0</ele>
<time>2026-08-25T15:08:54Z</time>
</trkpt>
<trkpt lat="49.39974" lon="1.1550099999999999">
<ele>155.0</ele>
<time>2026-08-25T15:08:57Z</time>
</trkpt>
<trkpt lat="49.399719999999995" lon="1.15503">
<ele>155.0</ele>
<time>2026-08-25T15:09:00Z</time>
</trkpt>
<trkpt lat="49.39969" lon="1.15506">
<ele>155.0</ele>
<time>2026-08-25T15:09:03Z</time>
</trkpt>
<trkpt lat="49.39967" lon="1.15509">
<ele>155.0</ele>
<time>2026-08-25T15:09:07Z</time>
</trkpt>
<trkpt lat="49.39965" lon="1.15512">
<ele>155.0</ele>
<time>2026-08-25T15:09:12Z</time>
</trkpt>
<trkpt lat="49.39962" lon="1.15516">
<ele>156.0</ele>
<time>2026-08-25T15:09:16Z</time>
</trkpt>
<trkpt lat="49.399589999999996" lon="1.15519">
<ele>156.0</ele>
<time>2026-08-25T15:09:18Z</time>
</trkpt>
<trkpt lat="49.39956" lon="1.1552099999999998">
<ele>154.0</ele>
<time>2026-08-25T15:09:21Z</time>
</trkpt>
<trkpt lat="49.39953" lon="1.15523">
<ele>154.0</ele>
<time>2026-08-25T15:09:23Z</time>
</trkpt>
<trkpt lat="49.39949" lon="1.1552499999999999">
<ele>154.0</ele>
<time>2026-08-25T15:09:26Z</time>
</trkpt>
<trkpt lat="49.39946" lon="1.15527">
<ele>154.0</ele>
<time>2026-08-25T15:09:29Z</time>
</trkpt>
<trkpt lat="49.39942" lon="1.1552799999999999">
<ele>154.0</ele>
<time>2026-08-25T15:09:32Z</time>
</trkpt>
<trkpt lat="49.39939" lon="1.15529">
<ele>154.0</ele>
<time>2026-08-25T15:09:35Z</time>
</trkpt>
<trkpt lat="49.399359999999994" lon="1.1553099999999998">
<ele>154.0</ele>
<time>2026-08-25T15:09:38Z</time>
</trkpt>
<trkpt lat="49.399319999999996" lon="1.15533">
<ele>154.0</ele>
<time>2026-08-25T15:09:41Z</time>
</trkpt>
<trkpt lat="49.39929" lon="1.15534">
<ele>152.0</ele>
<time>2026-08-25T15:09:43Z</time>
</trkpt>
<trkpt lat="49.39926" lon="1.15536">
<ele>152.0</ele>
<time>2026-08-25T15:09:45Z</time>
</trkpt>
<trkpt lat="49.39924" lon="1.15537">
<ele>152.0</ele>
<time>2026-08-25T15:09:47Z</time>
</trkpt>
<trkpt lat="49.39921" lon="1.1554">
<ele>152.0</ele>
<time>2026-08-25T15:09:49Z</time>
</trkpt>
<trkpt lat="49.39918" lon="1.15542">
<ele>153.0</ele>
<time>2026-08-25T15:09:52Z</time>
</trkpt>
<trkpt lat="49.399139999999996" lon="1.1554499999999999">
<ele>153.0</ele>
<time>2026-08-25T15:09:55Z</time>
</trkpt>
<trkpt lat="49.39911" lon="1.1554799999999998">
<ele>153.0</ele>
<time>2026-08-25T15:09:58Z</time>
</trkpt>
<trkpt lat="49.39909" lon="1.1555199999999999">
<ele>153.0</ele>
<time>2026-08-25T15:10:00Z</time>
</trkpt>
<trkpt lat="49.399069999999995" lon="1.15554">
<ele>153.0</ele>
<time>2026-08-25T15:10:02Z</time>
</trkpt>
<trkpt lat="49.39904" lon="1.15558">
<ele>153.0</ele>
<time>2026-08-25T15:10:05Z</time>
</trkpt>
<trkpt lat="49.39902" lon="1.15561">
<ele>153.0</ele>
<time>2026-08-25T15:10:08Z</time>
</trkpt>
<trkpt lat="49.399" lon="1.15564">
<ele>153.0</ele>
<time>2026-08-25T15:10:11Z</time>
</trkpt>
<trkpt lat="49.39897" lon="1.15566">
<ele>153.0</ele>
<time>2026-08-25T15:10:14Z</time>
</trkpt>
<trkpt lat="49.39895" lon="1.1556899999999999">
<ele>153.0</ele>
<time>2026-08-25T15:10:17Z</time>
</trkpt>
<trkpt lat="49.39893" lon="1.15573">
<ele>154.0</ele>
<time>2026-08-25T15:10:20Z</time>
</trkpt>
<trkpt lat="49.3989" lon="1.15577">
<ele>154.0</ele>
<time>2026-08-25T15:10:23Z</time>
</trkpt>
<trkpt lat="49.398869999999995" lon="1.1558">
<ele>154.0</ele>
<time>2026-08-25T15:10:26Z</time>
</trkpt>
<trkpt lat="49.39884" lon="1.1558199999999998">
<ele>154.0</ele>
<time>2026-08-25T15:10:29Z</time>
</trkpt>
<trkpt lat="49.39881" lon="1.15585">
<ele>154.0</ele>
<time>2026-08-25T15:10:32Z</time>
</trkpt>
<trkpt lat="49.398779999999995" lon="1.15588">
<ele>154.0</ele>
<time>2026-08-25T15:10:35Z</time>
</trkpt>
<trkpt lat="49.39875" lon="1.15591">
<ele>155.0</ele>
<time>2026-08-25T15:10:38Z</time>
</trkpt>
<trkpt lat="49.39872" lon="1.15594">
<ele>155.0</ele>
<time>2026-08-25T15:10:40Z</time>
</trkpt>
<trkpt lat="49.3987" lon="1.15598">
<ele>155.0</ele>
<time>2026-08-25T15:10:42Z</time>
</trkpt>
<trkpt lat="49.398669999999996" lon="1.15601">
<ele>155.0</ele>
<time>2026-08-25T15:10:45Z</time>
</trkpt>
<trkpt lat="49.398649999999996" lon="1.15605">
<ele>155.0</ele>
<time>2026-08-25T15:10:48Z</time>
</trkpt>
<trkpt lat="49.39863" lon="1.15608">
<ele>155.0</ele>
<time>2026-08-25T15:10:51Z</time>
</trkpt>
<trkpt lat="49.398599999999995" lon="1.15611">
<ele>155.0</ele>
<time>2026-08-25T15:10:54Z</time>
</trkpt>
<trkpt lat="49.39857" lon="1.15614">
<ele>155.0</ele>
<time>2026-08-25T15:10:57Z</time>
</trkpt>
<trkpt lat="49.39854" lon="1.15618">
<ele>155.0</ele>
<time>2026-08-25T15:11:00Z</time>
</trkpt>
<trkpt lat="49.398509999999995" lon="1.1562">
<ele>155.0</ele>
<time>2026-08-25T15:11:03Z</time>
</trkpt>
<trkpt lat="49.39848" lon="1.15621">
<ele>155.0</ele>
<time>2026-08-25T15:11:06Z</time>
</trkpt>
<trkpt lat="49.39845" lon="1.1562299999999999">
<ele>155.0</ele>
<time>2026-08-25T15:11:09Z</time>
</trkpt>
<trkpt lat="49.398419999999994" lon="1.1562599999999998">
<ele>156.0</ele>
<time>2026-08-25T15:11:12Z</time>
</trkpt>
<trkpt lat="49.39839" lon="1.15627">
<ele>156.0</ele>
<time>2026-08-25T15:11:15Z</time>
</trkpt>
<trkpt lat="49.39836" lon="1.15629">
<ele>156.0</ele>
<time>2026-08-25T15:11:18Z</time>
</trkpt>
<trkpt lat="49.398329999999994" lon="1.15631">
<ele>156.0</ele>
<time>2026-08-25T15:11:21Z</time>
</trkpt>
<trkpt lat="49.3983" lon="1.1563299999999999">
<ele>156.0</ele>
<time>2026-08-25T15:11:24Z</time>
</trkpt>
<trkpt lat="49.398289999999996" lon="1.15637">
<ele>156.0</ele>
<time>2026-08-25T15:11:27Z</time>
</trkpt>
<trkpt lat="49.39827" lon="1.1563999999999999">
<ele>156.0</ele>
<time>2026-08-25T15:11:31Z</time>
</trkpt>
<trkpt lat="49.39824" lon="1.1564299999999998">
<ele>156.0</ele>
<time>2026-08-25T15:11:34Z</time>
</trkpt>
<trkpt lat="49.39821" lon="1.15644">
<ele>156.0</ele>
<time>2026-08-25T15:11:37Z</time>
</trkpt>
<trkpt lat="49.39817" lon="1.15646">
<ele>155.0</ele>
<time>2026-08-25T15:11:40Z</time>
</trkpt>
<trkpt lat="49.39814" lon="1.1564699999999999">
<ele>155.0</ele>
<time>2026-08-25T15:11:43Z</time>
</trkpt>
<trkpt lat="49.3981" lon="1.15648">
<ele>155.0</ele>
<time>2026-08-25T15:11:46Z</time>
</trkpt>
<trkpt lat="49.39807" lon="1.1564999999999999">
<ele>155.0</ele>
<time>2026-08-25T15:11:49Z</time>
</trkpt>
<trkpt lat="49.39803" lon="1.15651">
<ele>155.0</ele>
<time>2026-08-25T15:11:52Z</time>
</trkpt>
<trkpt lat="49.397999999999996" lon="1.15652">
<ele>155.0</ele>
<time>2026-08-25T15:11:55Z</time>
</trkpt>
<trkpt lat="49.39796" lon="1.15654">
<ele>156.0</ele>
<time>2026-08-25T15:11:58Z</time>
</trkpt>
<trkpt lat="49.39794" lon="1.1565699999999999">
<ele>156.0</ele>
<time>2026-08-25T15:12:01Z</time>
</trkpt>
<trkpt lat="49.39792" lon="1.1565999999999999">
<ele>156.0</ele>
<time>2026-08-25T15:12:04Z</time>
</trkpt>
<trkpt lat="49.39789" lon="1.15662">
<ele>154.0</ele>
<time>2026-08-25T15:12:07Z</time>
</trkpt>
<trkpt lat="49.397859999999994" lon="1.15665">
<ele>154.0</ele>
<time>2026-08-25T15:12:09Z</time>
</trkpt>
<trkpt lat="49.39783" lon="1.15668">
<ele>154.0</ele>
<time>2026-08-25T15:12:12Z</time>
</trkpt>
<trkpt lat="49.3978" lon="1.1566999999999998">
<ele>154.0</ele>
<time>2026-08-25T15:12:14Z</time>
</trkpt>
<trkpt lat="49.39778" lon="1.15672">
<ele>154.0</ele>
<time>2026-08-25T15:12:16Z</time>
</trkpt>
<trkpt lat="49.397749999999995" lon="1.15675">
<ele>154.0</ele>
<time>2026-08-25T15:12:19Z</time>
</trkpt>
<trkpt lat="49.39772" lon="1.1567699999999999">
<ele>154.0</ele>
<time>2026-08-25T15:12:22Z</time>
</trkpt>
<trkpt lat="49.39769" lon="1.1568">
<ele>154.0</ele>
<time>2026-08-25T15:12:25Z</time>
</trkpt>
<trkpt lat="49.397659999999995" lon="1.15683">
<ele>155.0</ele>
<time>2026-08-25T15:12:28Z</time>
</trkpt>
<trkpt lat="49.39763" lon="1.15685">
<ele>154.0</ele>
<time>2026-08-25T15:12:31Z</time>
</trkpt>
<trkpt lat="49.3976" lon="1.15688">
<ele>154.0</ele>
<time>2026-08-25T15:12:34Z</time>
</trkpt>
<trkpt lat="49.397569999999995" lon="1.1569099999999999">
<ele>154.0</ele>
<time>2026-08-25T15:12:37Z</time>
</trkpt>
<trkpt lat="49.397549999999995" lon="1.15695">
<ele>154.0</ele>
<time>2026-08-25T15:12:39Z</time>
</trkpt>
<trkpt lat="49.397529999999996" lon="1.15698">
<ele>154.0</ele>
<time>2026-08-25T15:12:41Z</time>
</trkpt>
<trkpt lat="49.39751" lon="1.15702">
<ele>154.0</ele>
<time>2026-08-25T15:12:43Z</time>
</trkpt>
<trkpt lat="49.39749" lon="1.15705">
<ele>154.0</ele>
<time>2026-08-25T15:12:45Z</time>
</trkpt>
<trkpt lat="49.397459999999995" lon="1.1570799999999999">
<ele>154.0</ele>
<time>2026-08-25T15:12:47Z</time>
</trkpt>
<trkpt lat="49.397439999999996" lon="1.1571">
<ele>154.0</ele>
<time>2026-08-25T15:12:49Z</time>
</trkpt>
<trkpt lat="49.39742" lon="1.15714">
<ele>154.0</ele>
<time>2026-08-25T15:12:52Z</time>
</trkpt>
<trkpt lat="49.3974" lon="1.1571799999999999">
<ele>154.0</ele>
<time>2026-08-25T15:12:54Z</time>
</trkpt>
<trkpt lat="49.397369999999995" lon="1.1572">
<ele>154.0</ele>
<time>2026-08-25T15:12:56Z</time>
</trkpt>
<trkpt lat="49.397349999999996" lon="1.15723">
<ele>154.0</ele>
<time>2026-08-25T15:12:58Z</time>
</trkpt>
<trkpt lat="49.39733" lon="1.15725">
<ele>154.0</ele>
<time>2026-08-25T15:13:00Z</time>
</trkpt>
<trkpt lat="49.397299999999994" lon="1.1572799999999999">
<ele>154.0</ele>
<time>2026-08-25T15:13:03Z</time>
</trkpt>
<trkpt lat="49.39727" lon="1.15729">
<ele>154.0</ele>
<time>2026-08-25T15:13:06Z</time>
</trkpt>
<trkpt lat="49.39724" lon="1.1573">
<ele>154.0</ele>
<time>2026-08-25T15:13:09Z</time>
</trkpt>
<trkpt lat="49.39721" lon="1.15732">
<ele>154.0</ele>
<time>2026-08-25T15:13:13Z</time>
</trkpt>
<trkpt lat="49.39718" lon="1.15734">
<ele>154.0</ele>
<time>2026-08-25T15:13:19Z</time>
</trkpt>
<trkpt lat="49.397169999999996" lon="1.1573799999999999">
<ele>155.0</ele>
<time>2026-08-25T15:13:22Z</time>
</trkpt>
<trkpt lat="49.397149999999996" lon="1.15742">
<ele>155.0</ele>
<time>2026-08-25T15:13:25Z</time>
</trkpt>
<trkpt lat="49.39713" lon="1.15746">
<ele>155.0</ele>
<time>2026-08-25T15:13:28Z</time>
</trkpt>
<trkpt lat="49.397099999999995" lon="1.1575">
<ele>155.0</ele>
<time>2026-08-25T15:13:31Z</time>
</trkpt>
<trkpt lat="49.397079999999995" lon="1.15754">
<ele>155.0</ele>
<time>2026-08-25T15:13:33Z</time>
</trkpt>
<trkpt lat="49.397059999999996" lon="1.15758">
<ele>155.0</ele>
<time>2026-08-25T15:13:35Z</time>
</trkpt>
<trkpt lat="49.39704" lon="1.1576199999999999">
<ele>155.0</ele>
<time>2026-08-25T15:13:37Z</time>
</trkpt>
<trkpt lat="49.39703" lon="1.15766">
<ele>156.0</ele>
<time>2026-08-25T15:13:39Z</time>
</trkpt>
<trkpt lat="49.39703" lon="1.1577">
<ele>156.0</ele>
<time>2026-08-25T15:13:42Z</time>
</trkpt>
<trkpt lat="49.39703" lon="1.15775">
<ele>156.0</ele>
<time>2026-08-25T15:13:44Z</time>
</trkpt>
<trkpt lat="49.39705" lon="1.1577899999999999">
<ele>156.0</ele>
<time>2026-08-25T15:13:46Z</time>
</trkpt>
<trkpt lat="49.39707" lon="1.15784">
<ele>156.0</ele>
<time>2026-08-25T15:13:49Z</time>
</trkpt>
<trkpt lat="49.397079999999995" lon="1.15788">
<ele>156.0</ele>
<time>2026-08-25T15:13:51Z</time>
</trkpt>
<trkpt lat="49.397099999999995" lon="1.1579199999999998">
<ele>154.0</ele>
<time>2026-08-25T15:13:53Z</time>
</trkpt>
<trkpt lat="49.39711" lon="1.1579599999999999">
<ele>154.0</ele>
<time>2026-08-25T15:13:55Z</time>
</trkpt>
<trkpt lat="49.39713" lon="1.158">
<ele>154.0</ele>
<time>2026-08-25T15:13:58Z</time>
</trkpt>
<trkpt lat="49.397149999999996" lon="1.15803">
<ele>154.0</ele>
<time>2026-08-25T15:14:01Z</time>
</trkpt>
<trkpt lat="49.39718" lon="1.15807">
<ele>154.0</ele>
<time>2026-08-25T15:14:04Z</time>
</trkpt>
<trkpt lat="49.3972" lon="1.1581">
<ele>154.0</ele>
<time>2026-08-25T15:14:07Z</time>
</trkpt>
<trkpt lat="49.39722" lon="1.1581299999999999">
<ele>154.0</ele>
<time>2026-08-25T15:14:10Z</time>
</trkpt>
<trkpt lat="49.39724" lon="1.1581599999999999">
<ele>154.0</ele>
<time>2026-08-25T15:14:13Z</time>
</trkpt>
<trkpt lat="49.397259999999996" lon="1.15819">
<ele>154.0</ele>
<time>2026-08-25T15:14:16Z</time>
</trkpt>
<trkpt lat="49.397279999999995" lon="1.1582299999999999">
<ele>154.0</ele>
<time>2026-08-25T15:14:19Z</time>
</trkpt>
<trkpt lat="49.397299999999994" lon="1.15827">
<ele>154.0</ele>
<time>2026-08-25T15:14:22Z</time>
</trkpt>
<trkpt lat="49.39732" lon="1.15832">
<ele>154.0</ele>
<time>2026-08-25T15:14:25Z</time>
</trkpt>
<trkpt lat="49.39734" lon="1.15836">
<ele>154.0</ele>
<time>2026-08-25T15:14:28Z</time>
</trkpt>
<trkpt lat="49.39736" lon="1.15841">
<ele>154.0</ele>
<time>2026-08-25T15:14:31Z</time>
</trkpt>
<trkpt lat="49.39738" lon="1.15846">
<ele>153.0</ele>
<time>2026-08-25T15:14:34Z</time>
</trkpt>
<trkpt lat="49.3974" lon="1.15851">
<ele>154.0</ele>
<time>2026-08-25T15:14:36Z</time>
</trkpt>
<trkpt lat="49.39742" lon="1.15854">
<ele>154.0</ele>
<time>2026-08-25T15:14:38Z</time>
</trkpt>
<trkpt lat="49.397439999999996" lon="1.15858">
<ele>154.0</ele>
<time>2026-08-25T15:14:40Z</time>
</trkpt>
<trkpt lat="49.397459999999995" lon="1.15861">
<ele>154.0</ele>
<time>2026-08-25T15:14:42Z</time>
</trkpt>
<trkpt lat="49.397479999999995" lon="1.15865">
<ele>154.0</ele>
<time>2026-08-25T15:14:45Z</time>
</trkpt>
<trkpt lat="49.39752" lon="1.15866">
<ele>154.0</ele>
<time>2026-08-25T15:14:48Z</time>
</trkpt>
<trkpt lat="49.397549999999995" lon="1.1586699999999999">
<ele>154.0</ele>
<time>2026-08-25T15:14:51Z</time>
</trkpt>
<trkpt lat="49.39758" lon="1.1586699999999999">
<ele>154.0</ele>
<time>2026-08-25T15:14:54Z</time>
</trkpt>
<trkpt lat="49.397619999999996" lon="1.15865">
<ele>154.0</ele>
<time>2026-08-25T15:14:57Z</time>
</trkpt>
<trkpt lat="49.39765" lon="1.15864">
<ele>154.0</ele>
<time>2026-08-25T15:15:00Z</time>
</trkpt>
<trkpt lat="49.39768" lon="1.15865">
<ele>154.0</ele>
<time>2026-08-25T15:15:04Z</time>
</trkpt>
<trkpt lat="49.3977" lon="1.15868">
<ele>154.0</ele>
<time>2026-08-25T15:15:07Z</time>
</trkpt>
<trkpt lat="49.39771" lon="1.15872">
<ele>154.0</ele>
<time>2026-08-25T15:15:10Z</time>
</trkpt>
<trkpt lat="49.39771" lon="1.1587699999999999">
<ele>155.0</ele>
<time>2026-08-25T15:15:12Z</time>
</trkpt>
<trkpt lat="49.39769" lon="1.15881">
<ele>155.0</ele>
<time>2026-08-25T15:15:14Z</time>
</trkpt>
<trkpt lat="49.39767" lon="1.1588399999999999">
<ele>155.0</ele>
<time>2026-08-25T15:15:16Z</time>
</trkpt>
<trkpt lat="49.397659999999995" lon="1.15888">
<ele>155.0</ele>
<time>2026-08-25T15:15:19Z</time>
</trkpt>
<trkpt lat="49.397659999999995" lon="1.15893">
<ele>155.0</ele>
<time>2026-08-25T15:15:22Z</time>
</trkpt>
<trkpt lat="49.39768" lon="1.15897">
<ele>155.0</ele>
<time>2026-08-25T15:15:25Z</time>
</trkpt>
<trkpt lat="49.3977" lon="1.15902">
<ele>155.0</ele>
<time>2026-08-25T15:15:28Z</time>
</trkpt>
<trkpt lat="49.39771" lon="1.15907">
<ele>155.0</ele>
<time>2026-08-25T15:15:31Z</time>
</trkpt>
<trkpt lat="49.39772" lon="1.15913">
<ele>155.0</ele>
<time>2026-08-25T15:15:34Z</time>
</trkpt>
<trkpt lat="49.39774" lon="1.15917">
<ele>155.0</ele>
<time>2026-08-25T15:15:37Z</time>
</trkpt>
<trkpt lat="49.39777" lon="1.1592099999999999">
<ele>155.0</ele>
<time>2026-08-25T15:15:40Z</time>
</trkpt>
<trkpt lat="49.3978" lon="1.15924">
<ele>155.0</ele>
<time>2026-08-25T15:15:43Z</time>
</trkpt>
<trkpt lat="49.397819999999996" lon="1.1592799999999999">
<ele>155.0</ele>
<time>2026-08-25T15:15:45Z</time>
</trkpt>
<trkpt lat="49.397839999999995" lon="1.15932">
<ele>155.0</ele>
<time>2026-08-25T15:15:48Z</time>
</trkpt>
<trkpt lat="49.39787" lon="1.1593499999999999">
<ele>155.0</ele>
<time>2026-08-25T15:15:51Z</time>
</trkpt>
<trkpt lat="49.39789" lon="1.15937">
<ele>155.0</ele>
<time>2026-08-25T15:15:54Z</time>
</trkpt>
<trkpt lat="49.397909999999996" lon="1.15941">
<ele>155.0</ele>
<time>2026-08-25T15:15:56Z</time>
</trkpt>
<trkpt lat="49.397909999999996" lon="1.1594499999999999">
<ele>155.0</ele>
<time>2026-08-25T15:15:58Z</time>
</trkpt>
<trkpt lat="49.39792" lon="1.15949">
<ele>155.0</ele>
<time>2026-08-25T15:16:00Z</time>
</trkpt>
<trkpt lat="49.397929999999995" lon="1.15954">
<ele>155.0</ele>
<time>2026-08-25T15:16:03Z</time>
</trkpt>
<trkpt lat="49.397949999999994" lon="1.15958">
<ele>155.0</ele>
<time>2026-08-25T15:16:05Z</time>
</trkpt>
<trkpt lat="49.39797" lon="1.15963">
<ele>156.0</ele>
<time>2026-08-25T15:16:08Z</time>
</trkpt>
<trkpt lat="49.39799" lon="1.15968">
<ele>156.0</ele>
<time>2026-08-25T15:16:11Z</time>
</trkpt>
<trkpt lat="49.39801" lon="1.1597199999999999">
<ele>156.0</ele>
<time>2026-08-25T15:16:13Z</time>
</trkpt>
<trkpt lat="49.398019999999995" lon="1.15976">
<ele>156.0</ele>
<time>2026-08-25T15:16:15Z</time>
</trkpt>
<trkpt lat="49.398039999999995" lon="1.15981">
<ele>156.0</ele>
<time>2026-08-25T15:16:18Z</time>
</trkpt>
<trkpt lat="49.39805" lon="1.15986">
<ele>156.0</ele>
<time>2026-08-25T15:16:20Z</time>
</trkpt>
<trkpt lat="49.39807" lon="1.1599">
<ele>156.0</ele>
<time>2026-08-25T15:16:22Z</time>
</trkpt>
<trkpt lat="49.39808" lon="1.15994">
<ele>156.0</ele>
<time>2026-08-25T15:16:24Z</time>
</trkpt>
<trkpt lat="49.398089999999996" lon="1.15998">
<ele>156.0</ele>
<time>2026-08-25T15:16:26Z</time>
</trkpt>
<trkpt lat="49.398109999999996" lon="1.16002">
<ele>156.0</ele>
<time>2026-08-25T15:16:29Z</time>
</trkpt>
<trkpt lat="49.398129999999995" lon="1.16007">
<ele>156.0</ele>
<time>2026-08-25T15:16:32Z</time>
</trkpt>
<trkpt lat="49.39815" lon="1.16012">
<ele>156.0</ele>
<time>2026-08-25T15:16:35Z</time>
</trkpt>
<trkpt lat="49.39816" lon="1.16017">
<ele>156.0</ele>
<time>2026-08-25T15:16:38Z</time>
</trkpt>
<trkpt lat="49.398179999999996" lon="1.16022">
<ele>156.0</ele>
<time>2026-08-25T15:16:41Z</time>
</trkpt>
<trkpt lat="49.398199999999996" lon="1.16027">
<ele>157.0</ele>
<time>2026-08-25T15:16:44Z</time>
</trkpt>
<trkpt lat="49.398219999999995" lon="1.16031">
<ele>157.0</ele>
<time>2026-08-25T15:16:47Z</time>
</trkpt>
<trkpt lat="49.39824" lon="1.16036">
<ele>157.0</ele>
<time>2026-08-25T15:16:50Z</time>
</trkpt>
<trkpt lat="49.39826" lon="1.1603999999999999">
<ele>157.0</ele>
<time>2026-08-25T15:16:52Z</time>
</trkpt>
<trkpt lat="49.39828" lon="1.16044">
<ele>157.0</ele>
<time>2026-08-25T15:16:54Z</time>
</trkpt>
<trkpt lat="49.3983" lon="1.16049">
<ele>157.0</ele>
<time>2026-08-25T15:16:57Z</time>
</trkpt>
<trkpt lat="49.398309999999995" lon="1.16054">
<ele>157.0</ele>
<time>2026-08-25T15:17:00Z</time>
</trkpt>
<trkpt lat="49.398329999999994" lon="1.16058">
<ele>157.0</ele>
<time>2026-08-25T15:17:03Z</time>
</trkpt>
<trkpt lat="49.39832" lon="1.16061">
<ele>157.0</ele>
<time>2026-08-25T15:17:06Z</time>
</trkpt>
<trkpt lat="49.398329999999994" lon="1.16065">
<ele>157.0</ele>
<time>2026-08-25T15:17:11Z</time>
</trkpt>
<trkpt lat="49.39835" lon="1.16069">
<ele>157.0</ele>
<time>2026-08-25T15:17:16Z</time>
</trkpt>
<trkpt lat="49.39836" lon="1.16073">
<ele>156.0</ele>
<time>2026-08-25T15:17:19Z</time>
</trkpt>
<trkpt lat="49.398379999999996" lon="1.1607699999999999">
<ele>156.0</ele>
<time>2026-08-25T15:17:22Z</time>
</trkpt>
<trkpt lat="49.39839" lon="1.16082">
<ele>156.0</ele>
<time>2026-08-25T15:17:25Z</time>
</trkpt>
<trkpt lat="49.398399999999995" lon="1.1608699999999998">
<ele>156.0</ele>
<time>2026-08-25T15:17:28Z</time>
</trkpt>
<trkpt lat="49.398419999999994" lon="1.16092">
<ele>156.0</ele>
<time>2026-08-25T15:17:31Z</time>
</trkpt>
<trkpt lat="49.39844" lon="1.16096">
<ele>156.0</ele>
<time>2026-08-25T15:17:34Z</time>
</trkpt>
<trkpt lat="49.39846" lon="1.161">
<ele>155.0</ele>
<time>2026-08-25T15:17:37Z</time>
</trkpt>
<trkpt lat="49.39848" lon="1.1610399999999998">
<ele>156.0</ele>
<time>2026-08-25T15:17:40Z</time>
</trkpt>
<trkpt lat="49.398489999999995" lon="1.16109">
<ele>156.0</ele>
<time>2026-08-25T15:17:43Z</time>
</trkpt>
<trkpt lat="49.3985" lon="1.1611399999999998">
<ele>156.0</ele>
<time>2026-08-25T15:17:46Z</time>
</trkpt>
<trkpt lat="49.3985" lon="1.16119">
<ele>156.0</ele>
<time>2026-08-25T15:17:49Z</time>
</trkpt>
<trkpt lat="49.3985" lon="1.16125">
<ele>156.0</ele>
<time>2026-08-25T15:17:52Z</time>
</trkpt>
<trkpt lat="49.3985" lon="1.1613">
<ele>155.0</ele>
<time>2026-08-25T15:17:55Z</time>
</trkpt>
<trkpt lat="49.3985" lon="1.1613499999999999">
<ele>155.0</ele>
<time>2026-08-25T15:17:57Z</time>
</trkpt>
<trkpt lat="49.3985" lon="1.1614">
<ele>155.0</ele>
<time>2026-08-25T15:18:00Z</time>
</trkpt>
<trkpt lat="49.39852" lon="1.1614499999999999">
<ele>155.0</ele>
<time>2026-08-25T15:18:03Z</time>
</trkpt>
<trkpt lat="49.39853" lon="1.16149">
<ele>155.0</ele>
<time>2026-08-25T15:18:06Z</time>
</trkpt>
<trkpt lat="49.39855" lon="1.16154">
<ele>154.0</ele>
<time>2026-08-25T15:18:09Z</time>
</trkpt>
<trkpt lat="49.398559999999996" lon="1.16159">
<ele>154.0</ele>
<time>2026-08-25T15:18:12Z</time>
</trkpt>
<trkpt lat="49.398579999999995" lon="1.16163">
<ele>154.0</ele>
<time>2026-08-25T15:18:15Z</time>
</trkpt>
<trkpt lat="49.398599999999995" lon="1.16168">
<ele>154.0</ele>
<time>2026-08-25T15:18:18Z</time>
</trkpt>
<trkpt lat="49.39862" lon="1.1617199999999999">
<ele>154.0</ele>
<time>2026-08-25T15:18:21Z</time>
</trkpt>
<trkpt lat="49.39864" lon="1.16176">
<ele>154.0</ele>
<time>2026-08-25T15:18:24Z</time>
</trkpt>
<trkpt lat="49.398669999999996" lon="1.1618">
<ele>154.0</ele>
<time>2026-08-25T15:18:27Z</time>
</trkpt>
<trkpt lat="49.398689999999995" lon="1.16184">
<ele>152.0</ele>
<time>2026-08-25T15:18:30Z</time>
</trkpt>
<trkpt lat="49.39872" lon="1.1618899999999999">
<ele>152.0</ele>
<time>2026-08-25T15:18:33Z</time>
</trkpt>
<trkpt lat="49.39873" lon="1.16193">
<ele>152.0</ele>
<time>2026-08-25T15:18:35Z</time>
</trkpt>
<trkpt lat="49.39875" lon="1.16197">
<ele>152.0</ele>
<time>2026-08-25T15:18:37Z</time>
</trkpt>
<trkpt lat="49.39877" lon="1.16201">
<ele>152.0</ele>
<time>2026-08-25T15:18:40Z</time>
</trkpt>
<trkpt lat="49.39879" lon="1.16205">
<ele>152.0</ele>
<time>2026-08-25T15:18:43Z</time>
</trkpt>
<trkpt lat="49.39882" lon="1.1620899999999998">
<ele>152.0</ele>
<time>2026-08-25T15:18:46Z</time>
</trkpt>
<trkpt lat="49.39884" lon="1.1621299999999999">
<ele>152.0</ele>
<time>2026-08-25T15:18:48Z</time>
</trkpt>
<trkpt lat="49.39886" lon="1.16218">
<ele>152.0</ele>
<time>2026-08-25T15:18:51Z</time>
</trkpt>
<trkpt lat="49.39888" lon="1.16222">
<ele>152.0</ele>
<time>2026-08-25T15:18:54Z</time>
</trkpt>
<trkpt lat="49.3989" lon="1.16227">
<ele>152.0</ele>
<time>2026-08-25T15:18:57Z</time>
</trkpt>
<trkpt lat="49.39892" lon="1.16232">
<ele>152.0</ele>
<time>2026-08-25T15:19:00Z</time>
</trkpt>
<trkpt lat="49.398939999999996" lon="1.1623599999999998">
<ele>152.0</ele>
<time>2026-08-25T15:19:03Z</time>
</trkpt>
<trkpt lat="49.398959999999995" lon="1.1623999999999999">
<ele>152.0</ele>
<time>2026-08-25T15:19:06Z</time>
</trkpt>
<trkpt lat="49.398979999999995" lon="1.16244">
<ele>152.0</ele>
<time>2026-08-25T15:19:09Z</time>
</trkpt>
<trkpt lat="49.399" lon="1.16249">
<ele>152.0</ele>
<time>2026-08-25T15:19:12Z</time>
</trkpt>
<trkpt lat="49.39902" lon="1.1625299999999998">
<ele>152.0</ele>
<time>2026-08-25T15:19:15Z</time>
</trkpt>
<trkpt lat="49.399049999999995" lon="1.1625699999999999">
<ele>153.0</ele>
<time>2026-08-25T15:19:18Z</time>
</trkpt>
<trkpt lat="49.399069999999995" lon="1.16261">
<ele>153.0</ele>
<time>2026-08-25T15:19:21Z</time>
</trkpt>
<trkpt lat="49.39909" lon="1.16265">
<ele>153.0</ele>
<time>2026-08-25T15:19:24Z</time>
</trkpt>
<trkpt lat="49.39911" lon="1.16268">
<ele>153.0</ele>
<time>2026-08-25T15:19:27Z</time>
</trkpt>
<trkpt lat="49.39913" lon="1.16273">
<ele>153.0</ele>
<time>2026-08-25T15:19:30Z</time>
</trkpt>
<trkpt lat="49.39915" lon="1.1627699999999999">
<ele>153.0</ele>
<time>2026-08-25T15:19:32Z</time>
</trkpt>
<trkpt lat="49.39917" lon="1.16281">
<ele>153.0</ele>
<time>2026-08-25T15:19:34Z</time>
</trkpt>
<trkpt lat="49.39919" lon="1.16285">
<ele>153.0</ele>
<time>2026-08-25T15:19:36Z</time>
</trkpt>
<trkpt lat="49.39921" lon="1.16289">
<ele>153.0</ele>
<time>2026-08-25T15:19:38Z</time>
</trkpt>
<trkpt lat="49.399229999999996" lon="1.16293">
<ele>153.0</ele>
<time>2026-08-25T15:19:41Z</time>
</trkpt>
<trkpt lat="49.399249999999995" lon="1.1629699999999998">
<ele>153.0</ele>
<time>2026-08-25T15:19:44Z</time>
</trkpt>
<trkpt lat="49.399269999999994" lon="1.163">
<ele>153.0</ele>
<time>2026-08-25T15:19:48Z</time>
</trkpt>
<trkpt lat="49.3993" lon="1.16302">
<ele>153.0</ele>
<time>2026-08-25T15:19:51Z</time>
</trkpt>
<trkpt lat="49.39933" lon="1.16305">
<ele>153.0</ele>
<time>2026-08-25T15:19:54Z</time>
</trkpt>
<trkpt lat="49.399359999999994" lon="1.16307">
<ele>153.0</ele>
<time>2026-08-25T15:19:57Z</time>
</trkpt>
<trkpt lat="49.3994" lon="1.16309">
<ele>153.0</ele>
<time>2026-08-25T15:20:00Z</time>
</trkpt>
<trkpt lat="49.399429999999995" lon="1.1631099999999999">
<ele>153.0</ele>
<time>2026-08-25T15:20:03Z</time>
</trkpt>
<trkpt lat="49.39946" lon="1.1631099999999999">
<ele>153.0</ele>
<time>2026-08-25T15:20:06Z</time>
</trkpt>
<trkpt lat="49.39949" lon="1.16313">
<ele>153.0</ele>
<time>2026-08-25T15:20:10Z</time>
</trkpt>
<trkpt lat="49.399519999999995" lon="1.16315">
<ele>153.0</ele>
<time>2026-08-25T15:20:14Z</time>
</trkpt>
<trkpt lat="49.399539999999995" lon="1.16317">
<ele>153.0</ele>
<time>2026-08-25T15:20:17Z</time>
</trkpt>
<trkpt lat="49.39957" lon="1.1632">
<ele>153.0</ele>
<time>2026-08-25T15:20:21Z</time>
</trkpt>
<trkpt lat="49.3996" lon="1.16322">
<ele>154.0</ele>
<time>2026-08-25T15:20:24Z</time>
</trkpt>
<trkpt lat="49.39962" lon="1.16325">
<ele>154.0</ele>
<time>2026-08-25T15:20:27Z</time>
</trkpt>
<trkpt lat="49.39965" lon="1.1632799999999999">
<ele>154.0</ele>
<time>2026-08-25T15:20:30Z</time>
</trkpt>
<trkpt lat="49.39968" lon="1.1633099999999998">
<ele>154.0</ele>
<time>2026-08-25T15:20:32Z</time>
</trkpt>
<trkpt lat="49.39971" lon="1.16334">
<ele>154.0</ele>
<time>2026-08-25T15:20:35Z</time>
</trkpt>
<trkpt lat="49.39974" lon="1.16337">
<ele>154.0</ele>
<time>2026-08-25T15:20:37Z</time>
</trkpt>
<trkpt lat="49.39976" lon="1.16339">
<ele>154.0</ele>
<time>2026-08-25T15:20:39Z</time>
</trkpt>
<trkpt lat="49.399789999999996" lon="1.16341">
<ele>154.0</ele>
<time>2026-08-25T15:20:41Z</time>
</trkpt>
<trkpt lat="49.399809999999995" lon="1.16344">
<ele>154.0</ele>
<time>2026-08-25T15:20:43Z</time>
</trkpt>
<trkpt lat="49.399829999999994" lon="1.16347">
<ele>154.0</ele>
<time>2026-08-25T15:20:45Z</time>
</trkpt>
<trkpt lat="49.39985" lon="1.1635">
<ele>155.0</ele>
<time>2026-08-25T15:20:47Z</time>
</trkpt>
<trkpt lat="49.399879999999996" lon="1.16353">
<ele>155.0</ele>
<time>2026-08-25T15:20:50Z</time>
</trkpt>
<trkpt lat="49.39991" lon="1.1635499999999999">
<ele>155.0</ele>
<time>2026-08-25T15:20:53Z</time>
</trkpt>
<trkpt lat="49.39994" lon="1.16356">
<ele>155.0</ele>
<time>2026-08-25T15:20:56Z</time>
</trkpt>
<trkpt lat="49.399969999999996" lon="1.1635799999999998">
<ele>155.0</ele>
<time>2026-08-25T15:20:59Z</time>
</trkpt>
<trkpt lat="49.399989999999995" lon="1.16361">
<ele>155.0</ele>
<time>2026-08-25T15:21:02Z</time>
</trkpt>
<trkpt lat="49.40002" lon="1.1636499999999999">
<ele>155.0</ele>
<time>2026-08-25T15:21:05Z</time>
</trkpt>
<trkpt lat="49.40005" lon="1.16369">
<ele>155.0</ele>
<time>2026-08-25T15:21:08Z</time>
</trkpt>
<trkpt lat="49.400079999999996" lon="1.1637199999999999">
<ele>155.0</ele>
<time>2026-08-25T15:21:11Z</time>
</trkpt>
<trkpt lat="49.40011" lon="1.1637499999999998">
<ele>155.0</ele>
<time>2026-08-25T15:21:14Z</time>
</trkpt>
<trkpt lat="49.40014" lon="1.16378">
<ele>157.0</ele>
<time>2026-08-25T15:21:17Z</time>
</trkpt>
<trkpt lat="49.400169999999996" lon="1.16381">
<ele>157.0</ele>
<time>2026-08-25T15:21:19Z</time>
</trkpt>
<trkpt lat="49.4002" lon="1.16383">
<ele>157.0</ele>
<time>2026-08-25T15:21:21Z</time>
</trkpt>
<trkpt lat="49.40022" lon="1.16385">
<ele>157.0</ele>
<time>2026-08-25T15:21:23Z</time>
</trkpt>
<trkpt lat="49.40025" lon="1.16387">
<ele>157.0</ele>
<time>2026-08-25T15:21:25Z</time>
</trkpt>
<trkpt lat="49.400279999999995" lon="1.1638899999999999">
<ele>157.0</ele>
<time>2026-08-25T15:21:27Z</time>
</trkpt>
<trkpt lat="49.400299999999994" lon="1.16391">
<ele>157.0</ele>
<time>2026-08-25T15:21:29Z</time>
</trkpt>
<trkpt lat="49.40033" lon="1.16394">
<ele>157.0</ele>
<time>2026-08-25T15:21:33Z</time>
</trkpt>
<trkpt lat="49.400349999999996" lon="1.16398">
<ele>157.0</ele>
<time>2026-08-25T15:21:35Z</time>
</trkpt>
<trkpt lat="49.40036" lon="1.16402">
<ele>157.0</ele>
<time>2026-08-25T15:21:39Z</time>
</trkpt>
<trkpt lat="49.40038" lon="1.16405">
<ele>156.0</ele>
<time>2026-08-25T15:21:44Z</time>
</trkpt>
<trkpt lat="49.4004" lon="1.16404">
<ele>156.0</ele>
<time>2026-08-25T15:23:17Z</time>
</trkpt>
<trkpt lat="49.40042" lon="1.16404">
<ele>157.0</ele>
<time>2026-08-25T15:23:23Z</time>
</trkpt>
<trkpt lat="49.40045" lon="1.16405">
<ele>157.0</ele>
<time>2026-08-25T15:23:27Z</time>
</trkpt>
<trkpt lat="49.400479999999995" lon="1.16408">
<ele>157.0</ele>
<time>2026-08-25T15:23:31Z</time>
</trkpt>
<trkpt lat="49.4005" lon="1.16411">
<ele>157.0</ele>
<time>2026-08-25T15:23:35Z</time>
</trkpt>
<trkpt lat="49.400529999999996" lon="1.1641299999999999">
<ele>157.0</ele>
<time>2026-08-25T15:23:38Z</time>
</trkpt>
<trkpt lat="49.40056" lon="1.16417">
<ele>157.0</ele>
<time>2026-08-25T15:23:41Z</time>
</trkpt>
<trkpt lat="49.40058" lon="1.16421">
<ele>157.0</ele>
<time>2026-08-25T15:23:43Z</time>
</trkpt>
<trkpt lat="49.4006" lon="1.16424">
<ele>157.0</ele>
<time>2026-08-25T15:23:45Z</time>
</trkpt>
<trkpt lat="49.400619999999996" lon="1.16427">
<ele>157.0</ele>
<time>2026-08-25T15:23:47Z</time>
</trkpt>
<trkpt lat="49.40065" lon="1.1643">
<ele>157.0</ele>
<time>2026-08-25T15:23:49Z</time>
</trkpt>
<trkpt lat="49.40068" lon="1.16432">
<ele>157.0</ele>
<time>2026-08-25T15:23:51Z</time>
</trkpt>
<trkpt lat="49.40071" lon="1.16434">
<ele>158.0</ele>
<time>2026-08-25T15:23:53Z</time>
</trkpt>
<trkpt lat="49.40074" lon="1.16437">
<ele>158.0</ele>
<time>2026-08-25T15:23:56Z</time>
</trkpt>
<trkpt lat="49.400769999999994" lon="1.16439">
<ele>158.0</ele>
<time>2026-08-25T15:23:59Z</time>
</trkpt>
<trkpt lat="49.4008" lon="1.16442">
<ele>158.0</ele>
<time>2026-08-25T15:24:02Z</time>
</trkpt>
<trkpt lat="49.40083" lon="1.16444">
<ele>158.0</ele>
<time>2026-08-25T15:24:05Z</time>
</trkpt>
<trkpt lat="49.400859999999994" lon="1.16446">
<ele>158.0</ele>
<time>2026-08-25T15:24:07Z</time>
</trkpt>
<trkpt lat="49.40089" lon="1.16449">
<ele>158.0</ele>
<time>2026-08-25T15:24:10Z</time>
</trkpt>
<trkpt lat="49.400929999999995" lon="1.16454">
<ele>158.0</ele>
<time>2026-08-25T15:24:13Z</time>
</trkpt>
<trkpt lat="49.400949999999995" lon="1.16456">
<ele>158.0</ele>
<time>2026-08-25T15:24:16Z</time>
</trkpt>
<trkpt lat="49.40097" lon="1.16458">
<ele>158.0</ele>
<time>2026-08-25T15:24:19Z</time>
</trkpt>
<trkpt lat="49.400999999999996" lon="1.1645999999999999">
<ele>158.0</ele>
<time>2026-08-25T15:24:22Z</time>
</trkpt>
<trkpt lat="49.40103" lon="1.16462">
<ele>158.0</ele>
<time>2026-08-25T15:24:26Z</time>
</trkpt>
<trkpt lat="49.40105" lon="1.16465">
<ele>158.0</ele>
<time>2026-08-25T15:24:29Z</time>
</trkpt>
<trkpt lat="49.401089999999996" lon="1.16468">
<ele>158.0</ele>
<time>2026-08-25T15:24:32Z</time>
</trkpt>
<trkpt lat="49.401109999999996" lon="1.16472">
<ele>158.0</ele>
<time>2026-08-25T15:24:35Z</time>
</trkpt>
<trkpt lat="49.40114" lon="1.16475">
<ele>158.0</ele>
<time>2026-08-25T15:24:39Z</time>
</trkpt>
<trkpt lat="49.40117" lon="1.1647699999999999">
<ele>158.0</ele>
<time>2026-08-25T15:24:42Z</time>
</trkpt>
<trkpt lat="49.401199999999996" lon="1.16478">
<ele>158.0</ele>
<time>2026-08-25T15:24:45Z</time>
</trkpt>
<trkpt lat="49.401239999999994" lon="1.16478">
<ele>158.0</ele>
<time>2026-08-25T15:24:47Z</time>
</trkpt>
<trkpt lat="49.40127" lon="1.16478">
<ele>156.0</ele>
<time>2026-08-25T15:24:49Z</time>
</trkpt>
<trkpt lat="49.4013" lon="1.1647699999999999">
<ele>156.0</ele>
<time>2026-08-25T15:24:52Z</time>
</trkpt>
<trkpt lat="49.401329999999994" lon="1.16476">
<ele>156.0</ele>
<time>2026-08-25T15:24:54Z</time>
</trkpt>
<trkpt lat="49.40136" lon="1.1647399999999999">
<ele>156.0</ele>
<time>2026-08-25T15:24:57Z</time>
</trkpt>
<trkpt lat="49.401379999999996" lon="1.16472">
<ele>156.0</ele>
<time>2026-08-25T15:25:27Z</time>
</trkpt>
<trkpt lat="49.401399999999995" lon="1.16473">
<ele>156.0</ele>
<time>2026-08-25T15:25:31Z</time>
</trkpt>
<trkpt lat="49.401419999999995" lon="1.16475">
<ele>156.0</ele>
<time>2026-08-25T15:25:34Z</time>
</trkpt>
<trkpt lat="49.40145" lon="1.16478">
<ele>156.0</ele>
<time>2026-08-25T15:25:38Z</time>
</trkpt>
<trkpt lat="49.40146" lon="1.16482">
<ele>156.0</ele>
<time>2026-08-25T15:25:41Z</time>
</trkpt>
<trkpt lat="49.40146" lon="1.1648699999999999">
<ele>155.0</ele>
<time>2026-08-25T15:25:44Z</time>
</trkpt>
<trkpt lat="49.40146" lon="1.16491">
<ele>155.0</ele>
<time>2026-08-25T15:25:47Z</time>
</trkpt>
<trkpt lat="49.40145" lon="1.1649699999999998">
<ele>155.0</ele>
<time>2026-08-25T15:25:50Z</time>
</trkpt>
<trkpt lat="49.40146" lon="1.16502">
<ele>155.0</ele>
<time>2026-08-25T15:25:53Z</time>
</trkpt>
<trkpt lat="49.40148" lon="1.16506">
<ele>155.0</ele>
<time>2026-08-25T15:25:56Z</time>
</trkpt>
<trkpt lat="49.4015" lon="1.1651099999999999">
<ele>155.0</ele>
<time>2026-08-25T15:25:59Z</time>
</trkpt>
<trkpt lat="49.40152" lon="1.1651399999999998">
<ele>154.0</ele>
<time>2026-08-25T15:26:02Z</time>
</trkpt>
<trkpt lat="49.40155" lon="1.16517">
<ele>153.0</ele>
<time>2026-08-25T15:26:05Z</time>
</trkpt>
<trkpt lat="49.40159" lon="1.1652">
<ele>153.0</ele>
<time>2026-08-25T15:26:08Z</time>
</trkpt>
<trkpt lat="49.40162" lon="1.16523">
<ele>153.0</ele>
<time>2026-08-25T15:26:11Z</time>
</trkpt>
<trkpt lat="49.40164" lon="1.16526">
<ele>153.0</ele>
<time>2026-08-25T15:26:13Z</time>
</trkpt>
<trkpt lat="49.401669999999996" lon="1.16529">
<ele>153.0</ele>
<time>2026-08-25T15:26:16Z</time>
</trkpt>
<trkpt lat="49.4017" lon="1.1653099999999998">
<ele>153.0</ele>
<time>2026-08-25T15:26:19Z</time>
</trkpt>
<trkpt lat="49.40173" lon="1.16533">
<ele>153.0</ele>
<time>2026-08-25T15:26:23Z</time>
</trkpt>
<trkpt lat="49.401759999999996" lon="1.16536">
<ele>153.0</ele>
<time>2026-08-25T15:26:26Z</time>
</trkpt>
<trkpt lat="49.401779999999995" lon="1.1654">
<ele>153.0</ele>
<time>2026-08-25T15:26:29Z</time>
</trkpt>
<trkpt lat="49.40181" lon="1.16542">
<ele>152.0</ele>
<time>2026-08-25T15:26:32Z</time>
</trkpt>
<trkpt lat="49.40184" lon="1.1654499999999999">
<ele>152.0</ele>
<time>2026-08-25T15:26:35Z</time>
</trkpt>
<trkpt lat="49.40186" lon="1.1654799999999998">
<ele>152.0</ele>
<time>2026-08-25T15:26:38Z</time>
</trkpt>
<trkpt lat="49.401889999999995" lon="1.16551">
<ele>152.0</ele>
<time>2026-08-25T15:26:41Z</time>
</trkpt>
<trkpt lat="49.40191" lon="1.1655499999999999">
<ele>152.0</ele>
<time>2026-08-25T15:26:43Z</time>
</trkpt>
<trkpt lat="49.401939999999996" lon="1.16557">
<ele>152.0</ele>
<time>2026-08-25T15:26:45Z</time>
</trkpt>
<trkpt lat="49.401959999999995" lon="1.16559">
<ele>152.0</ele>
<time>2026-08-25T15:26:47Z</time>
</trkpt>
<trkpt lat="49.40199" lon="1.16561">
<ele>152.0</ele>
<time>2026-08-25T15:26:49Z</time>
</trkpt>
<trkpt lat="49.40202" lon="1.16563">
<ele>152.0</ele>
<time>2026-08-25T15:26:51Z</time>
</trkpt>
<trkpt lat="49.402049999999996" lon="1.16566">
<ele>152.0</ele>
<time>2026-08-25T15:26:54Z</time>
</trkpt>
<trkpt lat="49.402069999999995" lon="1.16569">
<ele>152.0</ele>
<time>2026-08-25T15:26:56Z</time>
</trkpt>
<trkpt lat="49.40209" lon="1.1657199999999999">
<ele>151.0</ele>
<time>2026-08-25T15:26:58Z</time>
</trkpt>
<trkpt lat="49.40212" lon="1.16574">
<ele>151.0</ele>
<time>2026-08-25T15:27:01Z</time>
</trkpt>
<trkpt lat="49.402139999999996" lon="1.16578">
<ele>151.0</ele>
<time>2026-08-25T15:27:04Z</time>
</trkpt>
<trkpt lat="49.40217" lon="1.16581">
<ele>151.0</ele>
<time>2026-08-25T15:27:07Z</time>
</trkpt>
<trkpt lat="49.4022" lon="1.16584">
<ele>151.0</ele>
<time>2026-08-25T15:27:10Z</time>
</trkpt>
<trkpt lat="49.402229999999996" lon="1.16587">
<ele>151.0</ele>
<time>2026-08-25T15:27:12Z</time>
</trkpt>
<trkpt lat="49.402249999999995" lon="1.1658899999999999">
<ele>151.0</ele>
<time>2026-08-25T15:27:14Z</time>
</trkpt>
<trkpt lat="49.40228" lon="1.16591">
<ele>151.0</ele>
<time>2026-08-25T15:27:16Z</time>
</trkpt>
<trkpt lat="49.4023" lon="1.16593">
<ele>151.0</ele>
<time>2026-08-25T15:27:18Z</time>
</trkpt>
<trkpt lat="49.40233" lon="1.16597">
<ele>151.0</ele>
<time>2026-08-25T15:27:21Z</time>
</trkpt>
<trkpt lat="49.402359999999994" lon="1.1659899999999999">
<ele>151.0</ele>
<time>2026-08-25T15:27:23Z</time>
</trkpt>
<trkpt lat="49.40239" lon="1.16602">
<ele>149.0</ele>
<time>2026-08-25T15:27:26Z</time>
</trkpt>
<trkpt lat="49.402409999999996" lon="1.16605">
<ele>149.0</ele>
<time>2026-08-25T15:27:28Z</time>
</trkpt>
<trkpt lat="49.40244" lon="1.16608">
<ele>149.0</ele>
<time>2026-08-25T15:27:30Z</time>
</trkpt>
<trkpt lat="49.40246" lon="1.16611">
<ele>149.0</ele>
<time>2026-08-25T15:27:32Z</time>
</trkpt>
<trkpt lat="49.40248" lon="1.16614">
<ele>149.0</ele>
<time>2026-08-25T15:27:34Z</time>
</trkpt>
<trkpt lat="49.40251" lon="1.16617">
<ele>149.0</ele>
<time>2026-08-25T15:27:36Z</time>
</trkpt>
<trkpt lat="49.40253" lon="1.1662">
<ele>149.0</ele>
<time>2026-08-25T15:27:38Z</time>
</trkpt>
<trkpt lat="49.40255" lon="1.1662299999999999">
<ele>149.0</ele>
<time>2026-08-25T15:27:41Z</time>
</trkpt>
<trkpt lat="49.40258" lon="1.16627">
<ele>148.0</ele>
<time>2026-08-25T15:27:45Z</time>
</trkpt>
<trkpt lat="49.4026" lon="1.1663">
<ele>148.0</ele>
<time>2026-08-25T15:27:48Z</time>
</trkpt>
<trkpt lat="49.402629999999995" lon="1.16632">
<ele>148.0</ele>
<time>2026-08-25T15:27:51Z</time>
</trkpt>
<trkpt lat="49.40266" lon="1.16634">
<ele>147.0</ele>
<time>2026-08-25T15:27:54Z</time>
</trkpt>
<trkpt lat="49.40269" lon="1.1663599999999998">
<ele>147.0</ele>
<time>2026-08-25T15:27:57Z</time>
</trkpt>
<trkpt lat="49.402719999999995" lon="1.1663999999999999">
<ele>147.0</ele>
<time>2026-08-25T15:28:00Z</time>
</trkpt>
<trkpt lat="49.40273" lon="1.16644">
<ele>147.0</ele>
<time>2026-08-25T15:28:03Z</time>
</trkpt>
<trkpt lat="49.40273" lon="1.16649">
<ele>147.0</ele>
<time>2026-08-25T15:28:06Z</time>
</trkpt>
<trkpt lat="49.402739999999994" lon="1.16654">
<ele>148.0</ele>
<time>2026-08-25T15:28:09Z</time>
</trkpt>
<trkpt lat="49.40275" lon="1.16659">
<ele>148.0</ele>
<time>2026-08-25T15:28:11Z</time>
</trkpt>
<trkpt lat="49.40276" lon="1.16664">
<ele>148.0</ele>
<time>2026-08-25T15:28:14Z</time>
</trkpt>
<trkpt lat="49.40276" lon="1.16669">
<ele>148.0</ele>
<time>2026-08-25T15:28:17Z</time>
</trkpt>
<trkpt lat="49.40275" lon="1.1667399999999999">
<ele>148.0</ele>
<time>2026-08-25T15:28:19Z</time>
</trkpt>
<trkpt lat="49.402739999999994" lon="1.16678">
<ele>148.0</ele>
<time>2026-08-25T15:28:21Z</time>
</trkpt>
<trkpt lat="49.402719999999995" lon="1.16681">
<ele>148.0</ele>
<time>2026-08-25T15:28:23Z</time>
</trkpt>
<trkpt lat="49.402699999999996" lon="1.16685">
<ele>148.0</ele>
<time>2026-08-25T15:28:26Z</time>
</trkpt>
<trkpt lat="49.40269" lon="1.16689">
<ele>148.0</ele>
<time>2026-08-25T15:28:28Z</time>
</trkpt>
<trkpt lat="49.40267" lon="1.16693">
<ele>148.0</ele>
<time>2026-08-25T15:28:30Z</time>
</trkpt>
<trkpt lat="49.40266" lon="1.16698">
<ele>148.0</ele>
<time>2026-08-25T15:28:33Z</time>
</trkpt>
<trkpt lat="49.40264" lon="1.16703">
<ele>148.0</ele>
<time>2026-08-25T15:28:36Z</time>
</trkpt>
<trkpt lat="49.40262" lon="1.16707">
<ele>148.0</ele>
<time>2026-08-25T15:28:39Z</time>
</trkpt>
<trkpt lat="49.40259" lon="1.1671099999999999">
<ele>148.0</ele>
<time>2026-08-25T15:28:42Z</time>
</trkpt>
<trkpt lat="49.40258" lon="1.16716">
<ele>148.0</ele>
<time>2026-08-25T15:28:45Z</time>
</trkpt>
<trkpt lat="49.40256" lon="1.1672099999999999">
<ele>148.0</ele>
<time>2026-08-25T15:28:48Z</time>
</trkpt>
<trkpt lat="49.40255" lon="1.16726">
<ele>148.0</ele>
<time>2026-08-25T15:28:51Z</time>
</trkpt>
<trkpt lat="49.402539999999995" lon="1.1673099999999998">
<ele>148.0</ele>
<time>2026-08-25T15:28:54Z</time>
</trkpt>
<trkpt lat="49.402519999999996" lon="1.1673499999999999">
<ele>148.0</ele>
<time>2026-08-25T15:28:57Z</time>
</trkpt>
<trkpt lat="49.402499999999996" lon="1.1674">
<ele>148.0</ele>
<time>2026-08-25T15:29:00Z</time>
</trkpt>
<trkpt lat="49.40249" lon="1.1674499999999999">
<ele>148.0</ele>
<time>2026-08-25T15:29:03Z</time>
</trkpt>
<trkpt lat="49.40248" lon="1.1675">
<ele>148.0</ele>
<time>2026-08-25T15:29:06Z</time>
</trkpt>
<trkpt lat="49.40246" lon="1.1675499999999999">
<ele>148.0</ele>
<time>2026-08-25T15:29:09Z</time>
</trkpt>
<trkpt lat="49.40244" lon="1.1676">
<ele>148.0</ele>
<time>2026-08-25T15:29:12Z</time>
</trkpt>
<trkpt lat="49.40242" lon="1.1676499999999999">
<ele>148.0</ele>
<time>2026-08-25T15:29:15Z</time>
</trkpt>
<trkpt lat="49.4024" lon="1.1677">
<ele>148.0</ele>
<time>2026-08-25T15:29:18Z</time>
</trkpt>
<trkpt lat="49.40239" lon="1.1677499999999998">
<ele>148.0</ele>
<time>2026-08-25T15:29:21Z</time>
</trkpt>
<trkpt lat="49.40237" lon="1.1678">
<ele>148.0</ele>
<time>2026-08-25T15:29:24Z</time>
</trkpt>
<trkpt lat="49.402359999999994" lon="1.16785">
<ele>147.0</ele>
<time>2026-08-25T15:29:27Z</time>
</trkpt>
<trkpt lat="49.402339999999995" lon="1.1679">
<ele>147.0</ele>
<time>2026-08-25T15:29:30Z</time>
</trkpt>
<trkpt lat="49.402339999999995" lon="1.16795">
<ele>148.0</ele>
<time>2026-08-25T15:29:33Z</time>
</trkpt>
<trkpt lat="49.40233" lon="1.168">
<ele>148.0</ele>
<time>2026-08-25T15:29:36Z</time>
</trkpt>
<trkpt lat="49.40231" lon="1.16805">
<ele>148.0</ele>
<time>2026-08-25T15:29:39Z</time>
</trkpt>
<trkpt lat="49.40229" lon="1.1681">
<ele>148.0</ele>
<time>2026-08-25T15:29:42Z</time>
</trkpt>
<trkpt lat="49.40228" lon="1.16815">
<ele>148.0</ele>
<time>2026-08-25T15:29:45Z</time>
</trkpt>
<trkpt lat="49.40228" lon="1.16821">
<ele>148.0</ele>
<time>2026-08-25T15:29:48Z</time>
</trkpt>
<trkpt lat="49.40226" lon="1.1682599999999999">
<ele>148.0</ele>
<time>2026-08-25T15:29:51Z</time>
</trkpt>
<trkpt lat="49.402249999999995" lon="1.16831">
<ele>148.0</ele>
<time>2026-08-25T15:29:53Z</time>
</trkpt>
<trkpt lat="49.402229999999996" lon="1.16835">
<ele>148.0</ele>
<time>2026-08-25T15:29:55Z</time>
</trkpt>
<trkpt lat="49.40222" lon="1.16839">
<ele>148.0</ele>
<time>2026-08-25T15:29:57Z</time>
</trkpt>
<trkpt lat="49.4022" lon="1.1684299999999999">
<ele>148.0</ele>
<time>2026-08-25T15:29:59Z</time>
</trkpt>
<trkpt lat="49.40219" lon="1.16846">
<ele>148.0</ele>
<time>2026-08-25T15:30:01Z</time>
</trkpt>
<trkpt lat="49.40217" lon="1.1684999999999999">
<ele>148.0</ele>
<time>2026-08-25T15:30:03Z</time>
</trkpt>
<trkpt lat="49.40215" lon="1.1685299999999998">
<ele>148.0</ele>
<time>2026-08-25T15:30:05Z</time>
</trkpt>
<trkpt lat="49.40213" lon="1.16858">
<ele>148.0</ele>
<time>2026-08-25T15:30:08Z</time>
</trkpt>
<trkpt lat="49.40211" lon="1.16863">
<ele>148.0</ele>
<time>2026-08-25T15:30:11Z</time>
</trkpt>
<trkpt lat="49.4021" lon="1.1686699999999999">
<ele>148.0</ele>
<time>2026-08-25T15:30:14Z</time>
</trkpt>
<trkpt lat="49.40208" lon="1.16872">
<ele>148.0</ele>
<time>2026-08-25T15:30:17Z</time>
</trkpt>
<trkpt lat="49.402049999999996" lon="1.16876">
<ele>147.0</ele>
<time>2026-08-25T15:30:20Z</time>
</trkpt>
<trkpt lat="49.40204" lon="1.16881">
<ele>147.0</ele>
<time>2026-08-25T15:30:23Z</time>
</trkpt>
<trkpt lat="49.40202" lon="1.16885">
<ele>147.0</ele>
<time>2026-08-25T15:30:26Z</time>
</trkpt>
<trkpt lat="49.402" lon="1.16889">
<ele>147.0</ele>
<time>2026-08-25T15:30:29Z</time>
</trkpt>
<trkpt lat="49.401979999999995" lon="1.1689399999999999">
<ele>147.0</ele>
<time>2026-08-25T15:30:32Z</time>
</trkpt>
<trkpt lat="49.401959999999995" lon="1.16898">
<ele>147.0</ele>
<time>2026-08-25T15:30:35Z</time>
</trkpt>
<trkpt lat="49.401939999999996" lon="1.16902">
<ele>147.0</ele>
<time>2026-08-25T15:30:37Z</time>
</trkpt>
<trkpt lat="49.40193" lon="1.16905">
<ele>147.0</ele>
<time>2026-08-25T15:30:39Z</time>
</trkpt>
<trkpt lat="49.40191" lon="1.16909">
<ele>147.0</ele>
<time>2026-08-25T15:30:41Z</time>
</trkpt>
<trkpt lat="49.4019" lon="1.16913">
<ele>147.0</ele>
<time>2026-08-25T15:30:43Z</time>
</trkpt>
<trkpt lat="49.4019" lon="1.16917">
<ele>147.0</ele>
<time>2026-08-25T15:30:45Z</time>
</trkpt>
<trkpt lat="49.4019" lon="1.16922">
<ele>147.0</ele>
<time>2026-08-25T15:30:47Z</time>
</trkpt>
<trkpt lat="49.4019" lon="1.16927">
<ele>147.0</ele>
<time>2026-08-25T15:30:50Z</time>
</trkpt>
<trkpt lat="49.40191" lon="1.16932">
<ele>147.0</ele>
<time>2026-08-25T15:30:52Z</time>
</trkpt>
<trkpt lat="49.40192" lon="1.16936">
<ele>147.0</ele>
<time>2026-08-25T15:30:54Z</time>
</trkpt>
<trkpt lat="49.401939999999996" lon="1.1694">
<ele>147.0</ele>
<time>2026-08-25T15:30:56Z</time>
</trkpt>
<trkpt lat="49.401959999999995" lon="1.16943">
<ele>147.0</ele>
<time>2026-08-25T15:30:58Z</time>
</trkpt>
<trkpt lat="49.401979999999995" lon="1.16946">
<ele>147.0</ele>
<time>2026-08-25T15:31:00Z</time>
</trkpt>
<trkpt lat="49.402" lon="1.16949">
<ele>147.0</ele>
<time>2026-08-25T15:31:02Z</time>
</trkpt>
<trkpt lat="49.40202" lon="1.16952">
<ele>147.0</ele>
<time>2026-08-25T15:31:04Z</time>
</trkpt>
<trkpt lat="49.402049999999996" lon="1.1695499999999999">
<ele>147.0</ele>
<time>2026-08-25T15:31:07Z</time>
</trkpt>
<trkpt lat="49.402069999999995" lon="1.16957">
<ele>147.0</ele>
<time>2026-08-25T15:31:10Z</time>
</trkpt>
<trkpt lat="49.40209" lon="1.1696">
<ele>148.0</ele>
<time>2026-08-25T15:31:13Z</time>
</trkpt>
<trkpt lat="49.40212" lon="1.16963">
<ele>148.0</ele>
<time>2026-08-25T15:31:16Z</time>
</trkpt>
<trkpt lat="49.40213" lon="1.16967">
<ele>148.0</ele>
<time>2026-08-25T15:31:19Z</time>
</trkpt>
<trkpt lat="49.40215" lon="1.16971">
<ele>148.0</ele>
<time>2026-08-25T15:31:22Z</time>
</trkpt>
<trkpt lat="49.40217" lon="1.1697499999999998">
<ele>148.0</ele>
<time>2026-08-25T15:31:25Z</time>
</trkpt>
<trkpt lat="49.40218" lon="1.1697899999999999">
<ele>148.0</ele>
<time>2026-08-25T15:31:28Z</time>
</trkpt>
<trkpt lat="49.40219" lon="1.16984">
<ele>148.0</ele>
<time>2026-08-25T15:31:31Z</time>
</trkpt>
<trkpt lat="49.40219" lon="1.16988">
<ele>148.0</ele>
<time>2026-08-25T15:31:34Z</time>
</trkpt>
<trkpt lat="49.40219" lon="1.16993">
<ele>148.0</ele>
<time>2026-08-25T15:31:37Z</time>
</trkpt>
<trkpt lat="49.40217" lon="1.16998">
<ele>148.0</ele>
<time>2026-08-25T15:31:40Z</time>
</trkpt>
<trkpt lat="49.402159999999995" lon="1.1700199999999998">
<ele>148.0</ele>
<time>2026-08-25T15:31:43Z</time>
</trkpt>
<trkpt lat="49.40215" lon="1.1700599999999999">
<ele>148.0</ele>
<time>2026-08-25T15:31:46Z</time>
</trkpt>
<trkpt lat="49.40213" lon="1.1701">
<ele>148.0</ele>
<time>2026-08-25T15:31:49Z</time>
</trkpt>
<trkpt lat="49.40211" lon="1.17014">
<ele>149.0</ele>
<time>2026-08-25T15:31:52Z</time>
</trkpt>
<trkpt lat="49.40209" lon="1.17017">
<ele>149.0</ele>
<time>2026-08-25T15:31:55Z</time>
</trkpt>
<trkpt lat="49.40206" lon="1.17021">
<ele>148.0</ele>
<time>2026-08-25T15:31:58Z</time>
</trkpt>
<trkpt lat="49.40204" lon="1.17024">
<ele>148.0</ele>
<time>2026-08-25T15:32:00Z</time>
</trkpt>
<trkpt lat="49.40201" lon="1.17028">
<ele>148.0</ele>
<time>2026-08-25T15:32:03Z</time>
</trkpt>
<trkpt lat="49.401979999999995" lon="1.17031">
<ele>148.0</ele>
<time>2026-08-25T15:32:06Z</time>
</trkpt>
<trkpt lat="49.40195" lon="1.17035">
<ele>148.0</ele>
<time>2026-08-25T15:32:08Z</time>
</trkpt>
<trkpt lat="49.40193" lon="1.17039">
<ele>148.0</ele>
<time>2026-08-25T15:32:10Z</time>
</trkpt>
<trkpt lat="49.40191" lon="1.1704299999999999">
<ele>148.0</ele>
<time>2026-08-25T15:32:13Z</time>
</trkpt>
<trkpt lat="49.40188" lon="1.17047">
<ele>148.0</ele>
<time>2026-08-25T15:32:16Z</time>
</trkpt>
<trkpt lat="49.401869999999995" lon="1.17051">
<ele>148.0</ele>
<time>2026-08-25T15:32:18Z</time>
</trkpt>
<trkpt lat="49.401849999999996" lon="1.17055">
<ele>148.0</ele>
<time>2026-08-25T15:32:21Z</time>
</trkpt>
<trkpt lat="49.40183" lon="1.17059">
<ele>148.0</ele>
<time>2026-08-25T15:32:24Z</time>
</trkpt>
<trkpt lat="49.40182" lon="1.17064">
<ele>148.0</ele>
<time>2026-08-25T15:32:27Z</time>
</trkpt>
<trkpt lat="49.40181" lon="1.17068">
<ele>148.0</ele>
<time>2026-08-25T15:32:30Z</time>
</trkpt>
<trkpt lat="49.40179" lon="1.17073">
<ele>147.0</ele>
<time>2026-08-25T15:32:33Z</time>
</trkpt>
<trkpt lat="49.401779999999995" lon="1.17078">
<ele>147.0</ele>
<time>2026-08-25T15:32:36Z</time>
</trkpt>
<trkpt lat="49.40177" lon="1.17083">
<ele>147.0</ele>
<time>2026-08-25T15:32:39Z</time>
</trkpt>
<trkpt lat="49.401759999999996" lon="1.17089">
<ele>147.0</ele>
<time>2026-08-25T15:32:42Z</time>
</trkpt>
<trkpt lat="49.40174" lon="1.1709399999999999">
<ele>147.0</ele>
<time>2026-08-25T15:32:44Z</time>
</trkpt>
<trkpt lat="49.40173" lon="1.17098">
<ele>147.0</ele>
<time>2026-08-25T15:32:46Z</time>
</trkpt>
<trkpt lat="49.40172" lon="1.17103">
<ele>147.0</ele>
<time>2026-08-25T15:32:48Z</time>
</trkpt>
<trkpt lat="49.401709999999994" lon="1.17107">
<ele>147.0</ele>
<time>2026-08-25T15:32:50Z</time>
</trkpt>
<trkpt lat="49.4017" lon="1.17112">
<ele>147.0</ele>
<time>2026-08-25T15:32:53Z</time>
</trkpt>
<trkpt lat="49.4017" lon="1.17117">
<ele>147.0</ele>
<time>2026-08-25T15:32:56Z</time>
</trkpt>
<trkpt lat="49.40168" lon="1.17122">
<ele>147.0</ele>
<time>2026-08-25T15:32:59Z</time>
</trkpt>
<trkpt lat="49.401669999999996" lon="1.17126">
<ele>147.0</ele>
<time>2026-08-25T15:33:02Z</time>
</trkpt>
<trkpt lat="49.40166" lon="1.1713">
<ele>147.0</ele>
<time>2026-08-25T15:33:06Z</time>
</trkpt>
<trkpt lat="49.40165" lon="1.17134">
<ele>147.0</ele>
<time>2026-08-25T15:33:09Z</time>
</trkpt>
<trkpt lat="49.40163" lon="1.1713799999999999">
<ele>147.0</ele>
<time>2026-08-25T15:33:13Z</time>
</trkpt>
<trkpt lat="49.40162" lon="1.17142">
<ele>147.0</ele>
<time>2026-08-25T15:33:16Z</time>
</trkpt>
<trkpt lat="49.401599999999995" lon="1.17146">
<ele>147.0</ele>
<time>2026-08-25T15:33:19Z</time>
</trkpt>
<trkpt lat="49.401579999999996" lon="1.17151">
<ele>147.0</ele>
<time>2026-08-25T15:33:22Z</time>
</trkpt>
<trkpt lat="49.40157" lon="1.1715499999999999">
<ele>147.0</ele>
<time>2026-08-25T15:33:24Z</time>
</trkpt>
<trkpt lat="49.40155" lon="1.1716">
<ele>147.0</ele>
<time>2026-08-25T15:33:27Z</time>
</trkpt>
<trkpt lat="49.40153" lon="1.1716499999999999">
<ele>147.0</ele>
<time>2026-08-25T15:33:30Z</time>
</trkpt>
<trkpt lat="49.40152" lon="1.1717">
<ele>146.0</ele>
<time>2026-08-25T15:33:33Z</time>
</trkpt>
<trkpt lat="49.4015" lon="1.17174">
<ele>146.0</ele>
<time>2026-08-25T15:33:35Z</time>
</trkpt>
<trkpt lat="49.40148" lon="1.17178">
<ele>146.0</ele>
<time>2026-08-25T15:33:37Z</time>
</trkpt>
<trkpt lat="49.401469999999996" lon="1.1718199999999999">
<ele>147.0</ele>
<time>2026-08-25T15:33:39Z</time>
</trkpt>
<trkpt lat="49.40145" lon="1.17187">
<ele>147.0</ele>
<time>2026-08-25T15:33:42Z</time>
</trkpt>
<trkpt lat="49.40144" lon="1.17191">
<ele>147.0</ele>
<time>2026-08-25T15:33:45Z</time>
</trkpt>
<trkpt lat="49.401419999999995" lon="1.17195">
<ele>147.0</ele>
<time>2026-08-25T15:33:48Z</time>
</trkpt>
<trkpt lat="49.401399999999995" lon="1.1719899999999999">
<ele>147.0</ele>
<time>2026-08-25T15:33:51Z</time>
</trkpt>
<trkpt lat="49.40137" lon="1.17203">
<ele>147.0</ele>
<time>2026-08-25T15:33:54Z</time>
</trkpt>
<trkpt lat="49.40135" lon="1.17207">
<ele>147.0</ele>
<time>2026-08-25T15:33:57Z</time>
</trkpt>
<trkpt lat="49.401329999999994" lon="1.17211">
<ele>147.0</ele>
<time>2026-08-25T15:34:00Z</time>
</trkpt>
<trkpt lat="49.4013" lon="1.1721599999999999">
<ele>147.0</ele>
<time>2026-08-25T15:34:03Z</time>
</trkpt>
<trkpt lat="49.40128" lon="1.1722">
<ele>147.0</ele>
<time>2026-08-25T15:34:05Z</time>
</trkpt>
<trkpt lat="49.40127" lon="1.17224">
<ele>147.0</ele>
<time>2026-08-25T15:34:07Z</time>
</trkpt>
<trkpt lat="49.40125" lon="1.17228">
<ele>146.0</ele>
<time>2026-08-25T15:34:10Z</time>
</trkpt>
<trkpt lat="49.401239999999994" lon="1.1723299999999999">
<ele>146.0</ele>
<time>2026-08-25T15:34:13Z</time>
</trkpt>
<trkpt lat="49.40123" lon="1.17239">
<ele>146.0</ele>
<time>2026-08-25T15:34:16Z</time>
</trkpt>
<trkpt lat="49.401219999999995" lon="1.17244">
<ele>146.0</ele>
<time>2026-08-25T15:34:18Z</time>
</trkpt>
<trkpt lat="49.401219999999995" lon="1.17248">
<ele>146.0</ele>
<time>2026-08-25T15:34:20Z</time>
</trkpt>
<trkpt lat="49.401219999999995" lon="1.1725299999999999">
<ele>146.0</ele>
<time>2026-08-25T15:34:22Z</time>
</trkpt>
<trkpt lat="49.40123" lon="1.17258">
<ele>146.0</ele>
<time>2026-08-25T15:34:24Z</time>
</trkpt>
<trkpt lat="49.40123" lon="1.1726299999999998">
<ele>146.0</ele>
<time>2026-08-25T15:34:26Z</time>
</trkpt>
<trkpt lat="49.40123" lon="1.1726699999999999">
<ele>146.0</ele>
<time>2026-08-25T15:34:28Z</time>
</trkpt>
<trkpt lat="49.40123" lon="1.17272">
<ele>146.0</ele>
<time>2026-08-25T15:34:30Z</time>
</trkpt>
<trkpt lat="49.40123" lon="1.1727699999999999">
<ele>146.0</ele>
<time>2026-08-25T15:34:32Z</time>
</trkpt>
<trkpt lat="49.401219999999995" lon="1.17281">
<ele>146.0</ele>
<time>2026-08-25T15:34:34Z</time>
</trkpt>
<trkpt lat="49.401219999999995" lon="1.17285">
<ele>146.0</ele>
<time>2026-08-25T15:34:36Z</time>
</trkpt>
<trkpt lat="49.40121" lon="1.1729">
<ele>146.0</ele>
<time>2026-08-25T15:34:38Z</time>
</trkpt>
<trkpt lat="49.40121" lon="1.1729399999999999">
<ele>147.0</ele>
<time>2026-08-25T15:34:40Z</time>
</trkpt>
<trkpt lat="49.401199999999996" lon="1.17299">
<ele>147.0</ele>
<time>2026-08-25T15:34:43Z</time>
</trkpt>
<trkpt lat="49.40119" lon="1.17305">
<ele>147.0</ele>
<time>2026-08-25T15:34:46Z</time>
</trkpt>
<trkpt lat="49.40118" lon="1.1731">
<ele>147.0</ele>
<time>2026-08-25T15:34:49Z</time>
</trkpt>
<trkpt lat="49.40117" lon="1.17316">
<ele>147.0</ele>
<time>2026-08-25T15:34:52Z</time>
</trkpt>
<trkpt lat="49.40115" lon="1.1732099999999999">
<ele>147.0</ele>
<time>2026-08-25T15:34:55Z</time>
</trkpt>
<trkpt lat="49.40114" lon="1.17326">
<ele>147.0</ele>
<time>2026-08-25T15:34:58Z</time>
</trkpt>
<trkpt lat="49.40114" lon="1.17332">
<ele>147.0</ele>
<time>2026-08-25T15:35:01Z</time>
</trkpt>
<trkpt lat="49.401129999999995" lon="1.17337">
<ele>147.0</ele>
<time>2026-08-25T15:35:04Z</time>
</trkpt>
<trkpt lat="49.40112" lon="1.17342">
<ele>147.0</ele>
<time>2026-08-25T15:35:07Z</time>
</trkpt>
<trkpt lat="49.40112" lon="1.1734799999999999">
<ele>147.0</ele>
<time>2026-08-25T15:35:10Z</time>
</trkpt>
<trkpt lat="49.40112" lon="1.17354">
<ele>147.0</ele>
<time>2026-08-25T15:35:13Z</time>
</trkpt>
<trkpt lat="49.40112" lon="1.1736">
<ele>147.0</ele>
<time>2026-08-25T15:35:16Z</time>
</trkpt>
<trkpt lat="49.401129999999995" lon="1.1736499999999999">
<ele>147.0</ele>
<time>2026-08-25T15:35:19Z</time>
</trkpt>
<trkpt lat="49.401129999999995" lon="1.17371">
<ele>147.0</ele>
<time>2026-08-25T15:35:22Z</time>
</trkpt>
<trkpt lat="49.40114" lon="1.17376">
<ele>147.0</ele>
<time>2026-08-25T15:35:25Z</time>
</trkpt>
<trkpt lat="49.40114" lon="1.17381">
<ele>147.0</ele>
<time>2026-08-25T15:35:28Z</time>
</trkpt>
<trkpt lat="49.401129999999995" lon="1.17387">
<ele>147.0</ele>
<time>2026-08-25T15:35:31Z</time>
</trkpt>
<trkpt lat="49.40112" lon="1.1739199999999999">
<ele>147.0</ele>
<time>2026-08-25T15:35:34Z</time>
</trkpt>
<trkpt lat="49.401109999999996" lon="1.17398">
<ele>147.0</ele>
<time>2026-08-25T15:35:37Z</time>
</trkpt>
<trkpt lat="49.4011" lon="1.1740199999999998">
<ele>147.0</ele>
<time>2026-08-25T15:35:40Z</time>
</trkpt>
<trkpt lat="49.401089999999996" lon="1.17407">
<ele>148.0</ele>
<time>2026-08-25T15:35:43Z</time>
</trkpt>
<trkpt lat="49.40107" lon="1.17411">
<ele>148.0</ele>
<time>2026-08-25T15:35:46Z</time>
</trkpt>
<trkpt lat="49.40105" lon="1.1741599999999999">
<ele>148.0</ele>
<time>2026-08-25T15:35:49Z</time>
</trkpt>
<trkpt lat="49.40103" lon="1.17421">
<ele>148.0</ele>
<time>2026-08-25T15:35:52Z</time>
</trkpt>
<trkpt lat="49.401019999999995" lon="1.1742599999999999">
<ele>148.0</ele>
<time>2026-08-25T15:35:55Z</time>
</trkpt>
<trkpt lat="49.400999999999996" lon="1.17431">
<ele>149.0</ele>
<time>2026-08-25T15:35:58Z</time>
</trkpt>
<trkpt lat="49.40098" lon="1.17435">
<ele>149.0</ele>
<time>2026-08-25T15:36:01Z</time>
</trkpt>
<trkpt lat="49.40096" lon="1.17439">
<ele>149.0</ele>
<time>2026-08-25T15:36:04Z</time>
</trkpt>
<trkpt lat="49.40094" lon="1.17444">
<ele>149.0</ele>
<time>2026-08-25T15:36:07Z</time>
</trkpt>
<trkpt lat="49.40092" lon="1.17448">
<ele>149.0</ele>
<time>2026-08-25T15:36:10Z</time>
</trkpt>
<trkpt lat="49.40089" lon="1.17452">
<ele>149.0</ele>
<time>2026-08-25T15:36:13Z</time>
</trkpt>
<trkpt lat="49.40087" lon="1.17457">
<ele>149.0</ele>
<time>2026-08-25T15:36:16Z</time>
</trkpt>
<trkpt lat="49.40085" lon="1.1746299999999998">
<ele>150.0</ele>
<time>2026-08-25T15:36:19Z</time>
</trkpt>
<trkpt lat="49.40083" lon="1.17468">
<ele>150.0</ele>
<time>2026-08-25T15:36:22Z</time>
</trkpt>
<trkpt lat="49.40081" lon="1.17473">
<ele>150.0</ele>
<time>2026-08-25T15:36:25Z</time>
</trkpt>
<trkpt lat="49.4008" lon="1.17478">
<ele>150.0</ele>
<time>2026-08-25T15:36:28Z</time>
</trkpt>
<trkpt lat="49.40078" lon="1.17483">
<ele>150.0</ele>
<time>2026-08-25T15:36:31Z</time>
</trkpt>
<trkpt lat="49.400769999999994" lon="1.1748699999999999">
<ele>151.0</ele>
<time>2026-08-25T15:36:34Z</time>
</trkpt>
<trkpt lat="49.400749999999995" lon="1.17492">
<ele>151.0</ele>
<time>2026-08-25T15:36:37Z</time>
</trkpt>
<trkpt lat="49.400729999999996" lon="1.17496">
<ele>151.0</ele>
<time>2026-08-25T15:36:40Z</time>
</trkpt>
<trkpt lat="49.4007" lon="1.17499">
<ele>151.0</ele>
<time>2026-08-25T15:36:43Z</time>
</trkpt>
<trkpt lat="49.40067" lon="1.17502">
<ele>150.0</ele>
<time>2026-08-25T15:36:46Z</time>
</trkpt>
<trkpt lat="49.400639999999996" lon="1.17506">
<ele>150.0</ele>
<time>2026-08-25T15:36:49Z</time>
</trkpt>
<trkpt lat="49.40061" lon="1.17508">
<ele>150.0</ele>
<time>2026-08-25T15:36:51Z</time>
</trkpt>
<trkpt lat="49.40059" lon="1.1751099999999999">
<ele>150.0</ele>
<time>2026-08-25T15:36:53Z</time>
</trkpt>
<trkpt lat="49.400569999999995" lon="1.17515">
<ele>150.0</ele>
<time>2026-08-25T15:36:56Z</time>
</trkpt>
<trkpt lat="49.400549999999996" lon="1.17519">
<ele>150.0</ele>
<time>2026-08-25T15:36:58Z</time>
</trkpt>
<trkpt lat="49.40054" lon="1.17523">
<ele>150.0</ele>
<time>2026-08-25T15:37:01Z</time>
</trkpt>
<trkpt lat="49.400529999999996" lon="1.1752799999999999">
<ele>150.0</ele>
<time>2026-08-25T15:37:04Z</time>
</trkpt>
<trkpt lat="49.40052" lon="1.17533">
<ele>150.0</ele>
<time>2026-08-25T15:37:07Z</time>
</trkpt>
<trkpt lat="49.40051" lon="1.1753799999999999">
<ele>150.0</ele>
<time>2026-08-25T15:37:10Z</time>
</trkpt>
<trkpt lat="49.40049" lon="1.17542">
<ele>150.0</ele>
<time>2026-08-25T15:37:14Z</time>
</trkpt>
<trkpt lat="49.400479999999995" lon="1.17546">
<ele>150.0</ele>
<time>2026-08-25T15:37:18Z</time>
</trkpt>
<trkpt lat="49.4005" lon="1.17549">
<ele>150.0</ele>
<time>2026-08-25T15:37:33Z</time>
</trkpt>
<trkpt lat="49.40052" lon="1.17552">
<ele>150.0</ele>
<time>2026-08-25T15:37:36Z</time>
</trkpt>
<trkpt lat="49.40054" lon="1.1755499999999999">
<ele>150.0</ele>
<time>2026-08-25T15:37:39Z</time>
</trkpt>
<trkpt lat="49.40054" lon="1.17559">
<ele>150.0</ele>
<time>2026-08-25T15:37:46Z</time>
</trkpt>
<trkpt lat="49.400549999999996" lon="1.17564">
<ele>150.0</ele>
<time>2026-08-25T15:37:49Z</time>
</trkpt>
<trkpt lat="49.400569999999995" lon="1.1756499999999999">
<ele>150.0</ele>
<time>2026-08-25T15:38:08Z</time>
</trkpt>
<trkpt lat="49.40059" lon="1.17569">
<ele>150.0</ele>
<time>2026-08-25T15:38:10Z</time>
</trkpt>
<trkpt lat="49.400619999999996" lon="1.1757199999999999">
<ele>150.0</ele>
<time>2026-08-25T15:38:13Z</time>
</trkpt>
<trkpt lat="49.40061" lon="1.17573">
<ele>150.0</ele>
<time>2026-08-25T15:38:25Z</time>
</trkpt>
<trkpt lat="49.400619999999996" lon="1.1757499999999999">
<ele>150.0</ele>
<time>2026-08-25T15:38:31Z</time>
</trkpt>
<trkpt lat="49.400639999999996" lon="1.17577">
<ele>150.0</ele>
<time>2026-08-25T15:38:35Z</time>
</trkpt>
<trkpt lat="49.40065" lon="1.17574">
<ele>150.0</ele>
<time>2026-08-25T15:39:57Z</time>
</trkpt>
<trkpt lat="49.400639999999996" lon="1.17569">
<ele>150.0</ele>
<time>2026-08-25T15:39:58Z</time>
</trkpt>
<trkpt lat="49.40061" lon="1.17566">
<ele>150.0</ele>
<time>2026-08-25T15:39:59Z</time>
</trkpt>
<trkpt lat="49.40059" lon="1.17564">
<ele>150.0</ele>
<time>2026-08-25T15:40:01Z</time>
</trkpt>
<trkpt lat="49.40056" lon="1.17564">
<ele>150.0</ele>
<time>2026-08-25T15:40:06Z</time>
</trkpt>
<trkpt lat="49.40054" lon="1.17566">
<ele>150.0</ele>
<time>2026-08-25T15:40:46Z</time>
</trkpt>
<trkpt lat="49.40052" lon="1.1757">
<ele>150.0</ele>
<time>2026-08-25T15:40:58Z</time>
</trkpt>
<trkpt lat="49.40051" lon="1.17569">
<ele>150.0</ele>
<time>2026-08-25T15:41:01Z</time>
</trkpt>
<trkpt lat="49.400529999999996" lon="1.17567">
<ele>150.0</ele>
<time>2026-08-25T15:41:05Z</time>
</trkpt>
<trkpt lat="49.40054" lon="1.17569">
<ele>150.0</ele>
<time>2026-08-25T15:41:55Z</time>
</trkpt>
<trkpt lat="49.400529999999996" lon="1.17571">
<ele>150.0</ele>
<time>2026-08-25T15:42:37Z</time>
</trkpt>
<trkpt lat="49.40054" lon="1.17571">
<ele>150.0</ele>
<time>2026-08-25T15:42:39Z</time>
</trkpt>
<trkpt lat="49.400549999999996" lon="1.17573">
<ele>150.0</ele>
<time>2026-08-25T15:43:10Z</time>
</trkpt>
<trkpt lat="49.400549999999996" lon="1.17571">
<ele>150.0</ele>
<time>2026-08-25T15:44:18Z</time>
</trkpt>
<trkpt lat="49.40054" lon="1.17567">
<ele>150.0</ele>
<time>2026-08-25T15:44:40Z</time>
</trkpt>
<trkpt lat="49.40052" lon="1.17563">
<ele>150.0</ele>
<time>2026-08-25T15:44:42Z</time>
</trkpt>
<trkpt lat="49.40049" lon="1.17563">
<ele>150.0</ele>
<time>2026-08-25T15:44:44Z</time>
</trkpt>
<trkpt lat="49.4005" lon="1.17564">
<ele>150.0</ele>
<time>2026-08-25T15:44:57Z</time>
</trkpt>
<trkpt lat="49.40051" lon="1.17567">
<ele>150.0</ele>
<time>2026-08-25T15:44:59Z</time>
</trkpt>
<trkpt lat="49.40052" lon="1.17571">
<ele>150.0</ele>
<time>2026-08-25T15:45:03Z</time>
</trkpt>
<trkpt lat="49.40052" lon="1.1757499999999999">
<ele>150.0</ele>
<time>2026-08-25T15:45:13Z</time>
</trkpt>
<trkpt lat="49.40051" lon="1.17578">
<ele>150.0</ele>
<time>2026-08-25T15:45:17Z</time>
</trkpt>
<trkpt lat="49.40049" lon="1.17581">
<ele>150.0</ele>
<time>2026-08-25T15:45:21Z</time>
</trkpt>
<trkpt lat="49.400479999999995" lon="1.17579">
<ele>150.0</ele>
<time>2026-08-25T15:45:37Z</time>
</trkpt>
<trkpt lat="49.400479999999995" lon="1.1757499999999999">
<ele>150.0</ele>
<time>2026-08-25T15:45:39Z</time>
</trkpt>
<trkpt lat="49.400479999999995" lon="1.1757">
<ele>150.0</ele>
<time>2026-08-25T15:45:44Z</time>
</trkpt>
<trkpt lat="49.40051" lon="1.1756499999999999">
<ele>150.0</ele>
<time>2026-08-25T15:46:00Z</time>
</trkpt>
<trkpt lat="49.400529999999996" lon="1.17563">
<ele>150.0</ele>
<time>2026-08-25T15:46:04Z</time>
</trkpt>
<trkpt lat="49.400529999999996" lon="1.17564">
<ele>150.0</ele>
<time>2026-08-25T15:46:19Z</time>
</trkpt>
</trkseg>
</trk>
</gpx>
